<?xml version="1.0" encoding="UTF-8" standalone="no" ?>
<gpx xmlns="http://www.topografix.com/GPX/1/1" xmlns:xsi="http://www.w3.org/2001/XMLSchema-instance" xsi:schemaLocation="http://www.topografix.com/GPX/1/1 http://www.topografix.com/GPX/1/1/gpx.xsd" version="1.1" creator="VisuGPX - https://www.visugpx.com">
  <metadata>
    <name>Sortie Friskis</name>
    <desc><![CDATA[Marche dans le bois de fausse repose]]></desc>
  </metadata>
  <trk>
    <name><![CDATA[Sortie Friskis_1]]></name>
    <trkseg>
      <trkpt lat="48.82301" lon="2.16167">
        <ele>13</ele>
        <time>2016-05-21T07:21:31Z</time>
      </trkpt>
      <trkpt lat="48.82306" lon="2.16159">
        <ele>27</ele>
        <time>2016-05-21T07:21:33Z</time>
      </trkpt>
      <trkpt lat="48.82312" lon="2.16154">
        <ele>23</ele>
        <time>2016-05-21T07:21:33Z</time>
      </trkpt>
      <trkpt lat="48.8227" lon="2.16173">
        <ele>10</ele>
        <time>2016-05-21T07:21:35Z</time>
      </trkpt>
      <trkpt lat="48.82255" lon="2.16174">
        <ele>8</ele>
        <time>2016-05-21T07:21:36Z</time>
      </trkpt>
      <trkpt lat="48.82261" lon="2.16182">
        <ele>16</ele>
        <time>2016-05-21T07:21:37Z</time>
      </trkpt>
      <trkpt lat="48.82249" lon="2.16191">
        <ele>-1</ele>
        <time>2016-05-21T07:21:39Z</time>
      </trkpt>
      <trkpt lat="48.82256" lon="2.16175">
        <ele>4</ele>
        <time>2016-05-21T07:21:39Z</time>
      </trkpt>
      <trkpt lat="48.82266" lon="2.16181">
        <ele>12</ele>
        <time>2016-05-21T07:21:40Z</time>
      </trkpt>
      <trkpt lat="48.82257" lon="2.1617">
        <ele>12</ele>
        <time>2016-05-21T07:21:42Z</time>
      </trkpt>
      <trkpt lat="48.82253" lon="2.16163">
        <ele>4</ele>
        <time>2016-05-21T07:21:42Z</time>
      </trkpt>
      <trkpt lat="48.82262" lon="2.16174">
        <ele>161.9</ele>
        <time>2016-05-21T07:21:43Z</time>
      </trkpt>
      <trkpt lat="48.82254" lon="2.16171">
        <ele>-12</ele>
        <time>2016-05-21T07:21:44Z</time>
      </trkpt>
      <trkpt lat="48.82264" lon="2.16174">
        <ele>-8</ele>
        <time>2016-05-21T07:21:45Z</time>
      </trkpt>
      <trkpt lat="48.82253" lon="2.16154">
        <ele>-11</ele>
        <time>2016-05-21T07:21:46Z</time>
      </trkpt>
      <trkpt lat="48.82249" lon="2.16166">
        <ele>-12</ele>
        <time>2016-05-21T07:21:48Z</time>
      </trkpt>
      <trkpt lat="48.82257" lon="2.16159">
        <ele>-17</ele>
        <time>2016-05-21T07:21:49Z</time>
      </trkpt>
      <trkpt lat="48.82265" lon="2.16147">
        <ele>-15</ele>
        <time>2016-05-21T07:21:50Z</time>
      </trkpt>
      <trkpt lat="48.82279" lon="2.16142">
        <ele>-4</ele>
        <time>2016-05-21T07:21:51Z</time>
      </trkpt>
      <trkpt lat="48.82254" lon="2.16138">
        <ele>-14</ele>
        <time>2016-05-21T07:21:52Z</time>
      </trkpt>
      <trkpt lat="48.82259" lon="2.16137">
        <ele>-12</ele>
        <time>2016-05-21T07:21:53Z</time>
      </trkpt>
      <trkpt lat="48.82267" lon="2.16153">
        <ele>-11</ele>
        <time>2016-05-21T07:21:54Z</time>
      </trkpt>
      <trkpt lat="48.82238" lon="2.16152">
        <ele>-8</ele>
        <time>2016-05-21T07:21:55Z</time>
      </trkpt>
      <trkpt lat="48.82262" lon="2.16159">
        <ele>1</ele>
        <time>2016-05-21T07:21:56Z</time>
      </trkpt>
      <trkpt lat="48.82256" lon="2.16144">
        <ele>6</ele>
        <time>2016-05-21T07:21:57Z</time>
      </trkpt>
      <trkpt lat="48.82259" lon="2.16152">
        <ele>6</ele>
        <time>2016-05-21T07:21:58Z</time>
      </trkpt>
      <trkpt lat="48.8226" lon="2.16165">
        <ele>162</ele>
        <time>2016-05-21T07:21:59Z</time>
      </trkpt>
      <trkpt lat="48.82253" lon="2.16167">
        <ele>1</ele>
        <time>2016-05-21T07:22:00Z</time>
      </trkpt>
      <trkpt lat="48.82245" lon="2.1617">
        <ele>-1</ele>
        <time>2016-05-21T07:22:01Z</time>
      </trkpt>
      <trkpt lat="48.82246" lon="2.16153">
        <ele>160.9</ele>
        <time>2016-05-21T07:22:02Z</time>
      </trkpt>
      <trkpt lat="48.82256" lon="2.16123">
        <ele>3</ele>
        <time>2016-05-21T07:22:03Z</time>
      </trkpt>
      <trkpt lat="48.82319" lon="2.16108">
        <ele>188</ele>
        <time>2016-05-21T07:22:04Z</time>
      </trkpt>
      <trkpt lat="48.82314" lon="2.16104">
        <ele>182</ele>
        <time>2016-05-21T07:22:05Z</time>
      </trkpt>
      <trkpt lat="48.82308" lon="2.161">
        <ele>179</ele>
        <time>2016-05-21T07:22:08Z</time>
      </trkpt>
      <trkpt lat="48.82299" lon="2.16095">
        <ele>159</ele>
        <time>2016-05-21T07:22:10Z</time>
      </trkpt>
      <trkpt lat="48.82294" lon="2.16089">
        <ele>163</ele>
        <time>2016-05-21T07:22:20Z</time>
      </trkpt>
      <trkpt lat="48.8229" lon="2.16086">
        <ele>162</ele>
        <time>2016-05-21T07:22:23Z</time>
      </trkpt>
      <trkpt lat="48.82286" lon="2.1608">
        <ele>165</ele>
        <time>2016-05-21T07:22:27Z</time>
      </trkpt>
      <trkpt lat="48.82283" lon="2.16075">
        <ele>164</ele>
        <time>2016-05-21T07:22:31Z</time>
      </trkpt>
      <trkpt lat="48.82278" lon="2.16075">
        <ele>163</ele>
        <time>2016-05-21T07:22:36Z</time>
      </trkpt>
      <trkpt lat="48.82273" lon="2.16075">
        <ele>160</ele>
        <time>2016-05-21T07:22:43Z</time>
      </trkpt>
      <trkpt lat="48.82268" lon="2.16072">
        <ele>156</ele>
        <time>2016-05-21T07:22:46Z</time>
      </trkpt>
      <trkpt lat="48.82265" lon="2.16069">
        <ele>156</ele>
        <time>2016-05-21T07:22:49Z</time>
      </trkpt>
      <trkpt lat="48.82261" lon="2.16064">
        <ele>155</ele>
        <time>2016-05-21T07:22:52Z</time>
      </trkpt>
      <trkpt lat="48.82257" lon="2.1606">
        <ele>156</ele>
        <time>2016-05-21T07:22:54Z</time>
      </trkpt>
      <trkpt lat="48.82251" lon="2.16055">
        <ele>156</ele>
        <time>2016-05-21T07:22:56Z</time>
      </trkpt>
      <trkpt lat="48.82246" lon="2.1605">
        <ele>157</ele>
        <time>2016-05-21T07:22:59Z</time>
      </trkpt>
      <trkpt lat="48.82241" lon="2.16045">
        <ele>155</ele>
        <time>2016-05-21T07:23:02Z</time>
      </trkpt>
      <trkpt lat="48.82235" lon="2.16042">
        <ele>153</ele>
        <time>2016-05-21T07:23:06Z</time>
      </trkpt>
      <trkpt lat="48.8223" lon="2.16039">
        <ele>154</ele>
        <time>2016-05-21T07:23:09Z</time>
      </trkpt>
      <trkpt lat="48.82225" lon="2.16037">
        <ele>155</ele>
        <time>2016-05-21T07:23:11Z</time>
      </trkpt>
      <trkpt lat="48.82221" lon="2.16033">
        <ele>153</ele>
        <time>2016-05-21T07:23:13Z</time>
      </trkpt>
      <trkpt lat="48.82216" lon="2.16029">
        <ele>154</ele>
        <time>2016-05-21T07:23:16Z</time>
      </trkpt>
      <trkpt lat="48.82211" lon="2.16028">
        <ele>153</ele>
        <time>2016-05-21T07:23:19Z</time>
      </trkpt>
      <trkpt lat="48.82206" lon="2.16027">
        <ele>154</ele>
        <time>2016-05-21T07:23:23Z</time>
      </trkpt>
      <trkpt lat="48.82201" lon="2.16025">
        <ele>154</ele>
        <time>2016-05-21T07:23:26Z</time>
      </trkpt>
      <trkpt lat="48.82196" lon="2.16023">
        <ele>154</ele>
        <time>2016-05-21T07:23:29Z</time>
      </trkpt>
      <trkpt lat="48.82191" lon="2.1602">
        <ele>152</ele>
        <time>2016-05-21T07:23:32Z</time>
      </trkpt>
      <trkpt lat="48.82187" lon="2.16013">
        <ele>153</ele>
        <time>2016-05-21T07:23:35Z</time>
      </trkpt>
      <trkpt lat="48.82184" lon="2.16005">
        <ele>155</ele>
        <time>2016-05-21T07:23:39Z</time>
      </trkpt>
      <trkpt lat="48.82181" lon="2.16">
        <ele>155</ele>
        <time>2016-05-21T07:23:42Z</time>
      </trkpt>
      <trkpt lat="48.82175" lon="2.16">
        <ele>155</ele>
        <time>2016-05-21T07:23:47Z</time>
      </trkpt>
      <trkpt lat="48.82171" lon="2.15997">
        <ele>158</ele>
        <time>2016-05-21T07:23:51Z</time>
      </trkpt>
      <trkpt lat="48.82166" lon="2.15993">
        <ele>163</ele>
        <time>2016-05-21T07:23:55Z</time>
      </trkpt>
      <trkpt lat="48.82161" lon="2.15989">
        <ele>162</ele>
        <time>2016-05-21T07:23:58Z</time>
      </trkpt>
      <trkpt lat="48.82156" lon="2.15985">
        <ele>162</ele>
        <time>2016-05-21T07:24:00Z</time>
      </trkpt>
      <trkpt lat="48.82152" lon="2.15984">
        <ele>160</ele>
        <time>2016-05-21T07:24:02Z</time>
      </trkpt>
      <trkpt lat="48.82145" lon="2.15984">
        <ele>159</ele>
        <time>2016-05-21T07:24:05Z</time>
      </trkpt>
      <trkpt lat="48.8214" lon="2.15982">
        <ele>157</ele>
        <time>2016-05-21T07:24:08Z</time>
      </trkpt>
      <trkpt lat="48.82134" lon="2.15982">
        <ele>157</ele>
        <time>2016-05-21T07:24:11Z</time>
      </trkpt>
      <trkpt lat="48.82129" lon="2.1598">
        <ele>156</ele>
        <time>2016-05-21T07:24:13Z</time>
      </trkpt>
      <trkpt lat="48.82125" lon="2.15976">
        <ele>157</ele>
        <time>2016-05-21T07:24:15Z</time>
      </trkpt>
      <trkpt lat="48.82121" lon="2.15971">
        <ele>159</ele>
        <time>2016-05-21T07:24:19Z</time>
      </trkpt>
      <trkpt lat="48.82117" lon="2.15963">
        <ele>159</ele>
        <time>2016-05-21T07:24:24Z</time>
      </trkpt>
      <trkpt lat="48.82114" lon="2.15957">
        <ele>160</ele>
        <time>2016-05-21T07:24:27Z</time>
      </trkpt>
      <trkpt lat="48.82111" lon="2.15952">
        <ele>160</ele>
        <time>2016-05-21T07:24:29Z</time>
      </trkpt>
      <trkpt lat="48.82108" lon="2.15946">
        <ele>160</ele>
        <time>2016-05-21T07:24:32Z</time>
      </trkpt>
      <trkpt lat="48.82106" lon="2.15938">
        <ele>160</ele>
        <time>2016-05-21T07:24:36Z</time>
      </trkpt>
      <trkpt lat="48.82103" lon="2.15932">
        <ele>162</ele>
        <time>2016-05-21T07:24:39Z</time>
      </trkpt>
      <trkpt lat="48.82101" lon="2.15925">
        <ele>164</ele>
        <time>2016-05-21T07:24:42Z</time>
      </trkpt>
      <trkpt lat="48.82098" lon="2.15919">
        <ele>164</ele>
        <time>2016-05-21T07:24:45Z</time>
      </trkpt>
      <trkpt lat="48.82094" lon="2.15912">
        <ele>164</ele>
        <time>2016-05-21T07:24:49Z</time>
      </trkpt>
      <trkpt lat="48.82091" lon="2.15906">
        <ele>164</ele>
        <time>2016-05-21T07:24:52Z</time>
      </trkpt>
      <trkpt lat="48.82091" lon="2.15899">
        <ele>165</ele>
        <time>2016-05-21T07:24:55Z</time>
      </trkpt>
      <trkpt lat="48.82091" lon="2.1589">
        <ele>166</ele>
        <time>2016-05-21T07:24:59Z</time>
      </trkpt>
      <trkpt lat="48.82092" lon="2.15882">
        <ele>165</ele>
        <time>2016-05-21T07:25:03Z</time>
      </trkpt>
      <trkpt lat="48.82091" lon="2.15875">
        <ele>166</ele>
        <time>2016-05-21T07:25:06Z</time>
      </trkpt>
      <trkpt lat="48.82089" lon="2.15867">
        <ele>167</ele>
        <time>2016-05-21T07:25:09Z</time>
      </trkpt>
      <trkpt lat="48.82089" lon="2.15859">
        <ele>170</ele>
        <time>2016-05-21T07:25:13Z</time>
      </trkpt>
      <trkpt lat="48.82092" lon="2.15851">
        <ele>170</ele>
        <time>2016-05-21T07:25:18Z</time>
      </trkpt>
      <trkpt lat="48.82095" lon="2.15844">
        <ele>171</ele>
        <time>2016-05-21T07:25:21Z</time>
      </trkpt>
      <trkpt lat="48.82097" lon="2.15836">
        <ele>172</ele>
        <time>2016-05-21T07:25:24Z</time>
      </trkpt>
      <trkpt lat="48.82099" lon="2.15827">
        <ele>172</ele>
        <time>2016-05-21T07:25:27Z</time>
      </trkpt>
      <trkpt lat="48.82102" lon="2.15819">
        <ele>171</ele>
        <time>2016-05-21T07:25:30Z</time>
      </trkpt>
      <trkpt lat="48.82102" lon="2.1581">
        <ele>171</ele>
        <time>2016-05-21T07:25:34Z</time>
      </trkpt>
      <trkpt lat="48.82103" lon="2.15802">
        <ele>172</ele>
        <time>2016-05-21T07:25:37Z</time>
      </trkpt>
      <trkpt lat="48.82105" lon="2.15795">
        <ele>170</ele>
        <time>2016-05-21T07:25:39Z</time>
      </trkpt>
      <trkpt lat="48.82107" lon="2.15788">
        <ele>171</ele>
        <time>2016-05-21T07:25:41Z</time>
      </trkpt>
      <trkpt lat="48.82108" lon="2.15779">
        <ele>169</ele>
        <time>2016-05-21T07:25:44Z</time>
      </trkpt>
      <trkpt lat="48.82109" lon="2.15769">
        <ele>169</ele>
        <time>2016-05-21T07:25:46Z</time>
      </trkpt>
      <trkpt lat="48.82109" lon="2.1576">
        <ele>169</ele>
        <time>2016-05-21T07:25:49Z</time>
      </trkpt>
      <trkpt lat="48.82105" lon="2.15753">
        <ele>171</ele>
        <time>2016-05-21T07:25:52Z</time>
      </trkpt>
      <trkpt lat="48.82102" lon="2.15747">
        <ele>172</ele>
        <time>2016-05-21T07:25:56Z</time>
      </trkpt>
      <trkpt lat="48.82101" lon="2.15739">
        <ele>173</ele>
        <time>2016-05-21T07:26:01Z</time>
      </trkpt>
      <trkpt lat="48.82104" lon="2.1573">
        <ele>172</ele>
        <time>2016-05-21T07:26:04Z</time>
      </trkpt>
      <trkpt lat="48.82107" lon="2.15721">
        <ele>171</ele>
        <time>2016-05-21T07:26:06Z</time>
      </trkpt>
      <trkpt lat="48.82109" lon="2.15715">
        <ele>170</ele>
        <time>2016-05-21T07:26:08Z</time>
      </trkpt>
      <trkpt lat="48.82111" lon="2.15708">
        <ele>169</ele>
        <time>2016-05-21T07:26:11Z</time>
      </trkpt>
      <trkpt lat="48.82114" lon="2.15701">
        <ele>168</ele>
        <time>2016-05-21T07:26:14Z</time>
      </trkpt>
      <trkpt lat="48.82118" lon="2.15696">
        <ele>170</ele>
        <time>2016-05-21T07:26:19Z</time>
      </trkpt>
      <trkpt lat="48.82122" lon="2.15693">
        <ele>169</ele>
        <time>2016-05-21T07:26:27Z</time>
      </trkpt>
      <trkpt lat="48.82125" lon="2.15686">
        <ele>171</ele>
        <time>2016-05-21T07:26:31Z</time>
      </trkpt>
      <trkpt lat="48.82128" lon="2.15681">
        <ele>173</ele>
        <time>2016-05-21T07:26:34Z</time>
      </trkpt>
      <trkpt lat="48.82129" lon="2.15672">
        <ele>173</ele>
        <time>2016-05-21T07:26:39Z</time>
      </trkpt>
      <trkpt lat="48.82129" lon="2.15664">
        <ele>173</ele>
        <time>2016-05-21T07:26:43Z</time>
      </trkpt>
      <trkpt lat="48.82131" lon="2.15656">
        <ele>175</ele>
        <time>2016-05-21T07:26:47Z</time>
      </trkpt>
      <trkpt lat="48.82135" lon="2.15651">
        <ele>173</ele>
        <time>2016-05-21T07:26:50Z</time>
      </trkpt>
      <trkpt lat="48.82139" lon="2.15644">
        <ele>174</ele>
        <time>2016-05-21T07:26:53Z</time>
      </trkpt>
      <trkpt lat="48.82142" lon="2.15637">
        <ele>173</ele>
        <time>2016-05-21T07:26:56Z</time>
      </trkpt>
      <trkpt lat="48.82145" lon="2.15628">
        <ele>174</ele>
        <time>2016-05-21T07:26:59Z</time>
      </trkpt>
      <trkpt lat="48.82149" lon="2.1562">
        <ele>174</ele>
        <time>2016-05-21T07:27:02Z</time>
      </trkpt>
      <trkpt lat="48.82151" lon="2.15612">
        <ele>175</ele>
        <time>2016-05-21T07:27:05Z</time>
      </trkpt>
      <trkpt lat="48.82153" lon="2.15605">
        <ele>174</ele>
        <time>2016-05-21T07:27:08Z</time>
      </trkpt>
      <trkpt lat="48.82153" lon="2.15597">
        <ele>175</ele>
        <time>2016-05-21T07:27:11Z</time>
      </trkpt>
      <trkpt lat="48.82153" lon="2.1559">
        <ele>176</ele>
        <time>2016-05-21T07:27:14Z</time>
      </trkpt>
      <trkpt lat="48.82153" lon="2.15582">
        <ele>175</ele>
        <time>2016-05-21T07:27:17Z</time>
      </trkpt>
      <trkpt lat="48.82154" lon="2.15575">
        <ele>176</ele>
        <time>2016-05-21T07:27:20Z</time>
      </trkpt>
      <trkpt lat="48.82153" lon="2.15565">
        <ele>175</ele>
        <time>2016-05-21T07:27:24Z</time>
      </trkpt>
      <trkpt lat="48.82155" lon="2.15559">
        <ele>173</ele>
        <time>2016-05-21T07:27:27Z</time>
      </trkpt>
      <trkpt lat="48.82157" lon="2.15552">
        <ele>172</ele>
        <time>2016-05-21T07:27:30Z</time>
      </trkpt>
      <trkpt lat="48.82156" lon="2.15544">
        <ele>170</ele>
        <time>2016-05-21T07:27:33Z</time>
      </trkpt>
      <trkpt lat="48.82155" lon="2.15535">
        <ele>171</ele>
        <time>2016-05-21T07:27:37Z</time>
      </trkpt>
      <trkpt lat="48.82155" lon="2.15528">
        <ele>171</ele>
        <time>2016-05-21T07:27:40Z</time>
      </trkpt>
      <trkpt lat="48.82155" lon="2.15519">
        <ele>171</ele>
        <time>2016-05-21T07:27:44Z</time>
      </trkpt>
      <trkpt lat="48.82154" lon="2.1551">
        <ele>170</ele>
        <time>2016-05-21T07:27:47Z</time>
      </trkpt>
      <trkpt lat="48.82152" lon="2.15502">
        <ele>172</ele>
        <time>2016-05-21T07:27:50Z</time>
      </trkpt>
      <trkpt lat="48.8215" lon="2.15495">
        <ele>172</ele>
        <time>2016-05-21T07:27:53Z</time>
      </trkpt>
      <trkpt lat="48.82148" lon="2.15487">
        <ele>171</ele>
        <time>2016-05-21T07:27:56Z</time>
      </trkpt>
      <trkpt lat="48.82146" lon="2.15481">
        <ele>170</ele>
        <time>2016-05-21T07:27:59Z</time>
      </trkpt>
      <trkpt lat="48.82144" lon="2.15474">
        <ele>169</ele>
        <time>2016-05-21T07:28:02Z</time>
      </trkpt>
      <trkpt lat="48.82143" lon="2.15465">
        <ele>166</ele>
        <time>2016-05-21T07:28:06Z</time>
      </trkpt>
      <trkpt lat="48.82144" lon="2.15458">
        <ele>169</ele>
        <time>2016-05-21T07:28:09Z</time>
      </trkpt>
      <trkpt lat="48.82147" lon="2.1545">
        <ele>171</ele>
        <time>2016-05-21T07:28:12Z</time>
      </trkpt>
      <trkpt lat="48.8215" lon="2.15443">
        <ele>170</ele>
        <time>2016-05-21T07:28:15Z</time>
      </trkpt>
      <trkpt lat="48.82151" lon="2.15436">
        <ele>172</ele>
        <time>2016-05-21T07:28:17Z</time>
      </trkpt>
      <trkpt lat="48.82152" lon="2.15428">
        <ele>170</ele>
        <time>2016-05-21T07:28:20Z</time>
      </trkpt>
      <trkpt lat="48.82152" lon="2.1542">
        <ele>170</ele>
        <time>2016-05-21T07:28:24Z</time>
      </trkpt>
      <trkpt lat="48.82153" lon="2.15413">
        <ele>170</ele>
        <time>2016-05-21T07:28:28Z</time>
      </trkpt>
      <trkpt lat="48.82155" lon="2.15404">
        <ele>172</ele>
        <time>2016-05-21T07:28:32Z</time>
      </trkpt>
      <trkpt lat="48.82154" lon="2.15397">
        <ele>171</ele>
        <time>2016-05-21T07:28:36Z</time>
      </trkpt>
      <trkpt lat="48.82154" lon="2.15388">
        <ele>170</ele>
        <time>2016-05-21T07:28:40Z</time>
      </trkpt>
      <trkpt lat="48.82155" lon="2.15379">
        <ele>168</ele>
        <time>2016-05-21T07:28:43Z</time>
      </trkpt>
      <trkpt lat="48.82154" lon="2.15372">
        <ele>169</ele>
        <time>2016-05-21T07:28:46Z</time>
      </trkpt>
      <trkpt lat="48.82151" lon="2.15364">
        <ele>169</ele>
        <time>2016-05-21T07:28:49Z</time>
      </trkpt>
      <trkpt lat="48.8215" lon="2.15358">
        <ele>169</ele>
        <time>2016-05-21T07:28:51Z</time>
      </trkpt>
      <trkpt lat="48.82149" lon="2.15349">
        <ele>170</ele>
        <time>2016-05-21T07:28:54Z</time>
      </trkpt>
      <trkpt lat="48.82148" lon="2.15342">
        <ele>170</ele>
        <time>2016-05-21T07:28:58Z</time>
      </trkpt>
      <trkpt lat="48.82147" lon="2.15334">
        <ele>170</ele>
        <time>2016-05-21T07:29:01Z</time>
      </trkpt>
      <trkpt lat="48.82147" lon="2.15325">
        <ele>170</ele>
        <time>2016-05-21T07:29:06Z</time>
      </trkpt>
      <trkpt lat="48.82145" lon="2.15316">
        <ele>169</ele>
        <time>2016-05-21T07:29:09Z</time>
      </trkpt>
      <trkpt lat="48.82144" lon="2.15308">
        <ele>169</ele>
        <time>2016-05-21T07:29:13Z</time>
      </trkpt>
      <trkpt lat="48.8214" lon="2.15303">
        <ele>169</ele>
        <time>2016-05-21T07:29:17Z</time>
      </trkpt>
      <trkpt lat="48.82135" lon="2.153">
        <ele>170</ele>
        <time>2016-05-21T07:29:21Z</time>
      </trkpt>
      <trkpt lat="48.82131" lon="2.15295">
        <ele>170</ele>
        <time>2016-05-21T07:29:24Z</time>
      </trkpt>
      <trkpt lat="48.82127" lon="2.15288">
        <ele>169</ele>
        <time>2016-05-21T07:29:27Z</time>
      </trkpt>
      <trkpt lat="48.82125" lon="2.15282">
        <ele>169</ele>
        <time>2016-05-21T07:29:30Z</time>
      </trkpt>
      <trkpt lat="48.8212" lon="2.15277">
        <ele>170</ele>
        <time>2016-05-21T07:29:33Z</time>
      </trkpt>
      <trkpt lat="48.82115" lon="2.1527">
        <ele>171</ele>
        <time>2016-05-21T07:29:36Z</time>
      </trkpt>
      <trkpt lat="48.82112" lon="2.15264">
        <ele>172</ele>
        <time>2016-05-21T07:29:38Z</time>
      </trkpt>
      <trkpt lat="48.82109" lon="2.15257">
        <ele>173</ele>
        <time>2016-05-21T07:29:41Z</time>
      </trkpt>
      <trkpt lat="48.82105" lon="2.15251">
        <ele>173</ele>
        <time>2016-05-21T07:29:47Z</time>
      </trkpt>
      <trkpt lat="48.821" lon="2.15247">
        <ele>172</ele>
        <time>2016-05-21T07:29:50Z</time>
      </trkpt>
      <trkpt lat="48.82096" lon="2.15244">
        <ele>173</ele>
        <time>2016-05-21T07:29:52Z</time>
      </trkpt>
      <trkpt lat="48.8209" lon="2.15241">
        <ele>173</ele>
        <time>2016-05-21T07:29:55Z</time>
      </trkpt>
      <trkpt lat="48.82084" lon="2.15239">
        <ele>173</ele>
        <time>2016-05-21T07:29:59Z</time>
      </trkpt>
      <trkpt lat="48.82079" lon="2.15235">
        <ele>172</ele>
        <time>2016-05-21T07:30:02Z</time>
      </trkpt>
      <trkpt lat="48.82075" lon="2.15231">
        <ele>173</ele>
        <time>2016-05-21T07:30:05Z</time>
      </trkpt>
      <trkpt lat="48.82072" lon="2.15226">
        <ele>174</ele>
        <time>2016-05-21T07:30:09Z</time>
      </trkpt>
      <trkpt lat="48.82067" lon="2.15222">
        <ele>174</ele>
        <time>2016-05-21T07:30:13Z</time>
      </trkpt>
      <trkpt lat="48.82062" lon="2.1522">
        <ele>174</ele>
        <time>2016-05-21T07:30:16Z</time>
      </trkpt>
      <trkpt lat="48.82058" lon="2.15215">
        <ele>175</ele>
        <time>2016-05-21T07:30:19Z</time>
      </trkpt>
      <trkpt lat="48.82054" lon="2.15211">
        <ele>175</ele>
        <time>2016-05-21T07:30:22Z</time>
      </trkpt>
      <trkpt lat="48.82048" lon="2.15208">
        <ele>174</ele>
        <time>2016-05-21T07:30:25Z</time>
      </trkpt>
      <trkpt lat="48.82043" lon="2.15204">
        <ele>174</ele>
        <time>2016-05-21T07:30:28Z</time>
      </trkpt>
      <trkpt lat="48.8204" lon="2.15196">
        <ele>173</ele>
        <time>2016-05-21T07:30:31Z</time>
      </trkpt>
      <trkpt lat="48.82036" lon="2.15193">
        <ele>173</ele>
        <time>2016-05-21T07:30:34Z</time>
      </trkpt>
      <trkpt lat="48.82031" lon="2.15192">
        <ele>171</ele>
        <time>2016-05-21T07:30:38Z</time>
      </trkpt>
      <trkpt lat="48.82027" lon="2.1519">
        <ele>171</ele>
        <time>2016-05-21T07:30:42Z</time>
      </trkpt>
      <trkpt lat="48.82022" lon="2.15184">
        <ele>174</ele>
        <time>2016-05-21T07:30:48Z</time>
      </trkpt>
      <trkpt lat="48.82017" lon="2.1518">
        <ele>173</ele>
        <time>2016-05-21T07:30:51Z</time>
      </trkpt>
      <trkpt lat="48.82013" lon="2.15177">
        <ele>173</ele>
        <time>2016-05-21T07:30:53Z</time>
      </trkpt>
      <trkpt lat="48.82009" lon="2.15173">
        <ele>173</ele>
        <time>2016-05-21T07:30:55Z</time>
      </trkpt>
      <trkpt lat="48.82004" lon="2.15168">
        <ele>172</ele>
        <time>2016-05-21T07:30:58Z</time>
      </trkpt>
      <trkpt lat="48.82001" lon="2.15163">
        <ele>173</ele>
        <time>2016-05-21T07:31:02Z</time>
      </trkpt>
      <trkpt lat="48.81997" lon="2.15158">
        <ele>173</ele>
        <time>2016-05-21T07:31:05Z</time>
      </trkpt>
      <trkpt lat="48.81993" lon="2.15153">
        <ele>174</ele>
        <time>2016-05-21T07:31:08Z</time>
      </trkpt>
      <trkpt lat="48.81989" lon="2.15148">
        <ele>175</ele>
        <time>2016-05-21T07:31:11Z</time>
      </trkpt>
      <trkpt lat="48.81985" lon="2.15142">
        <ele>174</ele>
        <time>2016-05-21T07:31:15Z</time>
      </trkpt>
      <trkpt lat="48.81981" lon="2.15139">
        <ele>175</ele>
        <time>2016-05-21T07:31:18Z</time>
      </trkpt>
      <trkpt lat="48.81975" lon="2.15136">
        <ele>175</ele>
        <time>2016-05-21T07:31:21Z</time>
      </trkpt>
      <trkpt lat="48.8197" lon="2.15132">
        <ele>173</ele>
        <time>2016-05-21T07:31:24Z</time>
      </trkpt>
      <trkpt lat="48.81965" lon="2.15128">
        <ele>173</ele>
        <time>2016-05-21T07:31:27Z</time>
      </trkpt>
      <trkpt lat="48.8196" lon="2.15124">
        <ele>171</ele>
        <time>2016-05-21T07:31:31Z</time>
      </trkpt>
      <trkpt lat="48.81954" lon="2.15122">
        <ele>173</ele>
        <time>2016-05-21T07:31:35Z</time>
      </trkpt>
      <trkpt lat="48.81949" lon="2.15121">
        <ele>172</ele>
        <time>2016-05-21T07:31:37Z</time>
      </trkpt>
      <trkpt lat="48.81944" lon="2.15121">
        <ele>172</ele>
        <time>2016-05-21T07:31:39Z</time>
      </trkpt>
      <trkpt lat="48.81939" lon="2.15124">
        <ele>172</ele>
        <time>2016-05-21T07:31:41Z</time>
      </trkpt>
      <trkpt lat="48.81933" lon="2.15125">
        <ele>172</ele>
        <time>2016-05-21T07:31:44Z</time>
      </trkpt>
      <trkpt lat="48.81928" lon="2.15125">
        <ele>174</ele>
        <time>2016-05-21T07:31:47Z</time>
      </trkpt>
      <trkpt lat="48.81924" lon="2.15123">
        <ele>172</ele>
        <time>2016-05-21T07:31:50Z</time>
      </trkpt>
      <trkpt lat="48.81919" lon="2.15116">
        <ele>171</ele>
        <time>2016-05-21T07:31:54Z</time>
      </trkpt>
      <trkpt lat="48.81916" lon="2.15111">
        <ele>170</ele>
        <time>2016-05-21T07:31:57Z</time>
      </trkpt>
      <trkpt lat="48.8191" lon="2.15107">
        <ele>169</ele>
        <time>2016-05-21T07:32:02Z</time>
      </trkpt>
      <trkpt lat="48.81905" lon="2.15104">
        <ele>169</ele>
        <time>2016-05-21T07:32:06Z</time>
      </trkpt>
      <trkpt lat="48.81902" lon="2.15098">
        <ele>168</ele>
        <time>2016-05-21T07:32:09Z</time>
      </trkpt>
      <trkpt lat="48.81899" lon="2.15092">
        <ele>169</ele>
        <time>2016-05-21T07:32:12Z</time>
      </trkpt>
      <trkpt lat="48.81893" lon="2.15091">
        <ele>169</ele>
        <time>2016-05-21T07:32:15Z</time>
      </trkpt>
      <trkpt lat="48.81889" lon="2.15095">
        <ele>169</ele>
        <time>2016-05-21T07:32:18Z</time>
      </trkpt>
      <trkpt lat="48.81886" lon="2.151">
        <ele>169</ele>
        <time>2016-05-21T07:32:21Z</time>
      </trkpt>
      <trkpt lat="48.81884" lon="2.15107">
        <ele>169</ele>
        <time>2016-05-21T07:32:24Z</time>
      </trkpt>
      <trkpt lat="48.81883" lon="2.15114">
        <ele>169</ele>
        <time>2016-05-21T07:32:27Z</time>
      </trkpt>
      <trkpt lat="48.81881" lon="2.15122">
        <ele>169</ele>
        <time>2016-05-21T07:32:30Z</time>
      </trkpt>
      <trkpt lat="48.81879" lon="2.1513">
        <ele>168</ele>
        <time>2016-05-21T07:32:34Z</time>
      </trkpt>
      <trkpt lat="48.81876" lon="2.15136">
        <ele>167</ele>
        <time>2016-05-21T07:32:37Z</time>
      </trkpt>
      <trkpt lat="48.81873" lon="2.15143">
        <ele>167</ele>
        <time>2016-05-21T07:32:40Z</time>
      </trkpt>
      <trkpt lat="48.81871" lon="2.15151">
        <ele>168</ele>
        <time>2016-05-21T07:32:43Z</time>
      </trkpt>
      <trkpt lat="48.8187" lon="2.15161">
        <ele>168</ele>
        <time>2016-05-21T07:32:46Z</time>
      </trkpt>
      <trkpt lat="48.81871" lon="2.15169">
        <ele>168</ele>
        <time>2016-05-21T07:32:50Z</time>
      </trkpt>
      <trkpt lat="48.81871" lon="2.15177">
        <ele>167</ele>
        <time>2016-05-21T07:32:54Z</time>
      </trkpt>
      <trkpt lat="48.8187" lon="2.15186">
        <ele>167</ele>
        <time>2016-05-21T07:32:57Z</time>
      </trkpt>
      <trkpt lat="48.81869" lon="2.15195">
        <ele>167</ele>
        <time>2016-05-21T07:33:00Z</time>
      </trkpt>
      <trkpt lat="48.81867" lon="2.15203">
        <ele>167</ele>
        <time>2016-05-21T07:33:03Z</time>
      </trkpt>
      <trkpt lat="48.81865" lon="2.1521">
        <ele>167</ele>
        <time>2016-05-21T07:33:06Z</time>
      </trkpt>
      <trkpt lat="48.81863" lon="2.15216">
        <ele>167</ele>
        <time>2016-05-21T07:33:09Z</time>
      </trkpt>
      <trkpt lat="48.81861" lon="2.15224">
        <ele>167</ele>
        <time>2016-05-21T07:33:13Z</time>
      </trkpt>
      <trkpt lat="48.81861" lon="2.15232">
        <ele>166</ele>
        <time>2016-05-21T07:33:17Z</time>
      </trkpt>
      <trkpt lat="48.81859" lon="2.1524">
        <ele>167</ele>
        <time>2016-05-21T07:33:20Z</time>
      </trkpt>
      <trkpt lat="48.81858" lon="2.15247">
        <ele>166</ele>
        <time>2016-05-21T07:33:23Z</time>
      </trkpt>
      <trkpt lat="48.81856" lon="2.15254">
        <ele>165</ele>
        <time>2016-05-21T07:33:26Z</time>
      </trkpt>
      <trkpt lat="48.81855" lon="2.15262">
        <ele>166</ele>
        <time>2016-05-21T07:33:29Z</time>
      </trkpt>
      <trkpt lat="48.81856" lon="2.1527">
        <ele>165</ele>
        <time>2016-05-21T07:33:32Z</time>
      </trkpt>
      <trkpt lat="48.81855" lon="2.15278">
        <ele>166</ele>
        <time>2016-05-21T07:33:35Z</time>
      </trkpt>
      <trkpt lat="48.81853" lon="2.15284">
        <ele>165</ele>
        <time>2016-05-21T07:33:39Z</time>
      </trkpt>
      <trkpt lat="48.8185" lon="2.15291">
        <ele>163</ele>
        <time>2016-05-21T07:33:44Z</time>
      </trkpt>
      <trkpt lat="48.81849" lon="2.15298">
        <ele>162</ele>
        <time>2016-05-21T07:33:47Z</time>
      </trkpt>
      <trkpt lat="48.81849" lon="2.15306">
        <ele>161</ele>
        <time>2016-05-21T07:33:50Z</time>
      </trkpt>
      <trkpt lat="48.8185" lon="2.15313">
        <ele>160</ele>
        <time>2016-05-21T07:33:55Z</time>
      </trkpt>
      <trkpt lat="48.81848" lon="2.15321">
        <ele>159</ele>
        <time>2016-05-21T07:33:58Z</time>
      </trkpt>
      <trkpt lat="48.81845" lon="2.15328">
        <ele>159</ele>
        <time>2016-05-21T07:34:01Z</time>
      </trkpt>
      <trkpt lat="48.8184" lon="2.15329">
        <ele>158</ele>
        <time>2016-05-21T07:34:05Z</time>
      </trkpt>
      <trkpt lat="48.81836" lon="2.15325">
        <ele>158</ele>
        <time>2016-05-21T07:34:08Z</time>
      </trkpt>
      <trkpt lat="48.81833" lon="2.15319">
        <ele>157</ele>
        <time>2016-05-21T07:34:12Z</time>
      </trkpt>
      <trkpt lat="48.8183" lon="2.15312">
        <ele>157</ele>
        <time>2016-05-21T07:34:16Z</time>
      </trkpt>
      <trkpt lat="48.81828" lon="2.15306">
        <ele>156</ele>
        <time>2016-05-21T07:34:20Z</time>
      </trkpt>
      <trkpt lat="48.81829" lon="2.15299">
        <ele>154</ele>
        <time>2016-05-21T07:34:25Z</time>
      </trkpt>
      <trkpt lat="48.81826" lon="2.15292">
        <ele>153</ele>
        <time>2016-05-21T07:34:29Z</time>
      </trkpt>
      <trkpt lat="48.81822" lon="2.15287">
        <ele>154</ele>
        <time>2016-05-21T07:34:33Z</time>
      </trkpt>
      <trkpt lat="48.81818" lon="2.15281">
        <ele>154</ele>
        <time>2016-05-21T07:34:36Z</time>
      </trkpt>
      <trkpt lat="48.81815" lon="2.15275">
        <ele>155</ele>
        <time>2016-05-21T07:34:39Z</time>
      </trkpt>
      <trkpt lat="48.81811" lon="2.15272">
        <ele>153</ele>
        <time>2016-05-21T07:34:43Z</time>
      </trkpt>
      <trkpt lat="48.81807" lon="2.15268">
        <ele>154</ele>
        <time>2016-05-21T07:34:47Z</time>
      </trkpt>
      <trkpt lat="48.81802" lon="2.15264">
        <ele>152</ele>
        <time>2016-05-21T07:34:51Z</time>
      </trkpt>
      <trkpt lat="48.81797" lon="2.1526">
        <ele>153</ele>
        <time>2016-05-21T07:34:55Z</time>
      </trkpt>
      <trkpt lat="48.81791" lon="2.15259">
        <ele>153</ele>
        <time>2016-05-21T07:34:59Z</time>
      </trkpt>
      <trkpt lat="48.81786" lon="2.15257">
        <ele>152</ele>
        <time>2016-05-21T07:35:03Z</time>
      </trkpt>
      <trkpt lat="48.81782" lon="2.15254">
        <ele>150</ele>
        <time>2016-05-21T07:35:06Z</time>
      </trkpt>
      <trkpt lat="48.81778" lon="2.1525">
        <ele>149</ele>
        <time>2016-05-21T07:35:09Z</time>
      </trkpt>
      <trkpt lat="48.81774" lon="2.15247">
        <ele>149</ele>
        <time>2016-05-21T07:35:12Z</time>
      </trkpt>
      <trkpt lat="48.81769" lon="2.15241">
        <ele>148</ele>
        <time>2016-05-21T07:35:15Z</time>
      </trkpt>
      <trkpt lat="48.81765" lon="2.15236">
        <ele>148</ele>
        <time>2016-05-21T07:35:17Z</time>
      </trkpt>
      <trkpt lat="48.8176" lon="2.1523">
        <ele>148</ele>
        <time>2016-05-21T07:35:20Z</time>
      </trkpt>
      <trkpt lat="48.81757" lon="2.15223">
        <ele>148</ele>
        <time>2016-05-21T07:35:22Z</time>
      </trkpt>
      <trkpt lat="48.81756" lon="2.15216">
        <ele>147</ele>
        <time>2016-05-21T07:35:25Z</time>
      </trkpt>
      <trkpt lat="48.81752" lon="2.1521">
        <ele>144</ele>
        <time>2016-05-21T07:35:34Z</time>
      </trkpt>
      <trkpt lat="48.81747" lon="2.15207">
        <ele>144</ele>
        <time>2016-05-21T07:35:39Z</time>
      </trkpt>
      <trkpt lat="48.81742" lon="2.15204">
        <ele>144</ele>
        <time>2016-05-21T07:35:43Z</time>
      </trkpt>
      <trkpt lat="48.81738" lon="2.15197">
        <ele>141</ele>
        <time>2016-05-21T07:35:46Z</time>
      </trkpt>
      <trkpt lat="48.81734" lon="2.15192">
        <ele>140</ele>
        <time>2016-05-21T07:35:50Z</time>
      </trkpt>
      <trkpt lat="48.8173" lon="2.15189">
        <ele>142</ele>
        <time>2016-05-21T07:35:53Z</time>
      </trkpt>
      <trkpt lat="48.81725" lon="2.15186">
        <ele>142</ele>
        <time>2016-05-21T07:35:57Z</time>
      </trkpt>
      <trkpt lat="48.8172" lon="2.15185">
        <ele>143</ele>
        <time>2016-05-21T07:36:00Z</time>
      </trkpt>
      <trkpt lat="48.81714" lon="2.15185">
        <ele>145</ele>
        <time>2016-05-21T07:36:04Z</time>
      </trkpt>
      <trkpt lat="48.81708" lon="2.15186">
        <ele>146</ele>
        <time>2016-05-21T07:36:08Z</time>
      </trkpt>
      <trkpt lat="48.81703" lon="2.15188">
        <ele>147</ele>
        <time>2016-05-21T07:36:11Z</time>
      </trkpt>
      <trkpt lat="48.81698" lon="2.15193">
        <ele>151</ele>
        <time>2016-05-21T07:36:19Z</time>
      </trkpt>
      <trkpt lat="48.81693" lon="2.15195">
        <ele>151</ele>
        <time>2016-05-21T07:36:23Z</time>
      </trkpt>
      <trkpt lat="48.81688" lon="2.15195">
        <ele>152</ele>
        <time>2016-05-21T07:36:26Z</time>
      </trkpt>
      <trkpt lat="48.81684" lon="2.15193">
        <ele>153</ele>
        <time>2016-05-21T07:36:32Z</time>
      </trkpt>
      <trkpt lat="48.81679" lon="2.15196">
        <ele>158</ele>
        <time>2016-05-21T07:36:38Z</time>
      </trkpt>
      <trkpt lat="48.81675" lon="2.15201">
        <ele>158</ele>
        <time>2016-05-21T07:36:41Z</time>
      </trkpt>
      <trkpt lat="48.8167" lon="2.15208">
        <ele>159</ele>
        <time>2016-05-21T07:36:44Z</time>
      </trkpt>
      <trkpt lat="48.81666" lon="2.15215">
        <ele>161</ele>
        <time>2016-05-21T07:36:46Z</time>
      </trkpt>
      <trkpt lat="48.81663" lon="2.15222">
        <ele>162</ele>
        <time>2016-05-21T07:36:48Z</time>
      </trkpt>
      <trkpt lat="48.8166" lon="2.15228">
        <ele>162</ele>
        <time>2016-05-21T07:36:50Z</time>
      </trkpt>
      <trkpt lat="48.81657" lon="2.15237">
        <ele>163</ele>
        <time>2016-05-21T07:36:53Z</time>
      </trkpt>
      <trkpt lat="48.81656" lon="2.15244">
        <ele>164</ele>
        <time>2016-05-21T07:36:56Z</time>
      </trkpt>
      <trkpt lat="48.81653" lon="2.15249">
        <ele>165</ele>
        <time>2016-05-21T07:36:59Z</time>
      </trkpt>
      <trkpt lat="48.81649" lon="2.15254">
        <ele>164</ele>
        <time>2016-05-21T07:37:02Z</time>
      </trkpt>
      <trkpt lat="48.81645" lon="2.15258">
        <ele>167</ele>
        <time>2016-05-21T07:37:04Z</time>
      </trkpt>
      <trkpt lat="48.81641" lon="2.15263">
        <ele>167</ele>
        <time>2016-05-21T07:37:08Z</time>
      </trkpt>
      <trkpt lat="48.8164" lon="2.15271">
        <ele>166</ele>
        <time>2016-05-21T07:37:15Z</time>
      </trkpt>
      <trkpt lat="48.81637" lon="2.15277">
        <ele>167</ele>
        <time>2016-05-21T07:37:18Z</time>
      </trkpt>
      <trkpt lat="48.81634" lon="2.15282">
        <ele>169</ele>
        <time>2016-05-21T07:37:22Z</time>
      </trkpt>
      <trkpt lat="48.81629" lon="2.15289">
        <ele>171</ele>
        <time>2016-05-21T07:37:25Z</time>
      </trkpt>
      <trkpt lat="48.81625" lon="2.15295">
        <ele>171</ele>
        <time>2016-05-21T07:37:28Z</time>
      </trkpt>
      <trkpt lat="48.8162" lon="2.153">
        <ele>172</ele>
        <time>2016-05-21T07:37:31Z</time>
      </trkpt>
      <trkpt lat="48.81617" lon="2.15307">
        <ele>173</ele>
        <time>2016-05-21T07:37:34Z</time>
      </trkpt>
      <trkpt lat="48.81613" lon="2.15315">
        <ele>175</ele>
        <time>2016-05-21T07:37:37Z</time>
      </trkpt>
      <trkpt lat="48.81612" lon="2.15324">
        <ele>170</ele>
        <time>2016-05-21T07:37:40Z</time>
      </trkpt>
      <trkpt lat="48.81609" lon="2.15334">
        <ele>169</ele>
        <time>2016-05-21T07:37:43Z</time>
      </trkpt>
      <trkpt lat="48.81608" lon="2.15341">
        <ele>168</ele>
        <time>2016-05-21T07:37:47Z</time>
      </trkpt>
      <trkpt lat="48.81608" lon="2.15349">
        <ele>169</ele>
        <time>2016-05-21T07:37:51Z</time>
      </trkpt>
      <trkpt lat="48.81608" lon="2.15356">
        <ele>168</ele>
        <time>2016-05-21T07:37:54Z</time>
      </trkpt>
      <trkpt lat="48.81608" lon="2.15363">
        <ele>168</ele>
        <time>2016-05-21T07:37:57Z</time>
      </trkpt>
      <trkpt lat="48.81608" lon="2.15371">
        <ele>167</ele>
        <time>2016-05-21T07:38:00Z</time>
      </trkpt>
      <trkpt lat="48.8161" lon="2.15379">
        <ele>168</ele>
        <time>2016-05-21T07:38:04Z</time>
      </trkpt>
      <trkpt lat="48.81611" lon="2.15386">
        <ele>170</ele>
        <time>2016-05-21T07:38:08Z</time>
      </trkpt>
      <trkpt lat="48.81611" lon="2.15394">
        <ele>168</ele>
        <time>2016-05-21T07:38:11Z</time>
      </trkpt>
      <trkpt lat="48.81609" lon="2.15402">
        <ele>165</ele>
        <time>2016-05-21T07:38:14Z</time>
      </trkpt>
      <trkpt lat="48.81609" lon="2.15411">
        <ele>165</ele>
        <time>2016-05-21T07:38:18Z</time>
      </trkpt>
      <trkpt lat="48.8161" lon="2.15422">
        <ele>166</ele>
        <time>2016-05-21T07:38:21Z</time>
      </trkpt>
      <trkpt lat="48.8161" lon="2.15431">
        <ele>168</ele>
        <time>2016-05-21T07:38:24Z</time>
      </trkpt>
      <trkpt lat="48.81609" lon="2.15438">
        <ele>170</ele>
        <time>2016-05-21T07:38:27Z</time>
      </trkpt>
      <trkpt lat="48.81606" lon="2.15444">
        <ele>170</ele>
        <time>2016-05-21T07:38:30Z</time>
      </trkpt>
      <trkpt lat="48.81605" lon="2.15451">
        <ele>171</ele>
        <time>2016-05-21T07:38:36Z</time>
      </trkpt>
      <trkpt lat="48.81603" lon="2.15458">
        <ele>172</ele>
        <time>2016-05-21T07:38:39Z</time>
      </trkpt>
      <trkpt lat="48.81599" lon="2.15465">
        <ele>173</ele>
        <time>2016-05-21T07:38:42Z</time>
      </trkpt>
      <trkpt lat="48.81594" lon="2.15469">
        <ele>172</ele>
        <time>2016-05-21T07:38:46Z</time>
      </trkpt>
      <trkpt lat="48.8159" lon="2.15472">
        <ele>172</ele>
        <time>2016-05-21T07:38:49Z</time>
      </trkpt>
      <trkpt lat="48.81586" lon="2.15478">
        <ele>171</ele>
        <time>2016-05-21T07:38:55Z</time>
      </trkpt>
      <trkpt lat="48.81582" lon="2.15482">
        <ele>169</ele>
        <time>2016-05-21T07:38:58Z</time>
      </trkpt>
      <trkpt lat="48.81579" lon="2.1549">
        <ele>167</ele>
        <time>2016-05-21T07:39:02Z</time>
      </trkpt>
      <trkpt lat="48.8158" lon="2.15498">
        <ele>167</ele>
        <time>2016-05-21T07:39:05Z</time>
      </trkpt>
      <trkpt lat="48.81581" lon="2.15507">
        <ele>169</ele>
        <time>2016-05-21T07:39:08Z</time>
      </trkpt>
      <trkpt lat="48.81585" lon="2.15515">
        <ele>169</ele>
        <time>2016-05-21T07:39:11Z</time>
      </trkpt>
      <trkpt lat="48.81587" lon="2.15521">
        <ele>168</ele>
        <time>2016-05-21T07:39:14Z</time>
      </trkpt>
      <trkpt lat="48.81591" lon="2.15528">
        <ele>170</ele>
        <time>2016-05-21T07:39:17Z</time>
      </trkpt>
      <trkpt lat="48.81595" lon="2.15533">
        <ele>171</ele>
        <time>2016-05-21T07:39:19Z</time>
      </trkpt>
      <trkpt lat="48.81598" lon="2.15539">
        <ele>174</ele>
        <time>2016-05-21T07:39:21Z</time>
      </trkpt>
      <trkpt lat="48.81602" lon="2.15546">
        <ele>172</ele>
        <time>2016-05-21T07:39:24Z</time>
      </trkpt>
      <trkpt lat="48.81606" lon="2.15552">
        <ele>172</ele>
        <time>2016-05-21T07:39:27Z</time>
      </trkpt>
      <trkpt lat="48.81609" lon="2.15556">
        <ele>170</ele>
        <time>2016-05-21T07:39:32Z</time>
      </trkpt>
      <trkpt lat="48.81613" lon="2.15561">
        <ele>171</ele>
        <time>2016-05-21T07:39:37Z</time>
      </trkpt>
      <trkpt lat="48.81615" lon="2.15569">
        <ele>171</ele>
        <time>2016-05-21T07:39:41Z</time>
      </trkpt>
      <trkpt lat="48.81615" lon="2.15562">
        <ele>167</ele>
        <time>2016-05-21T07:39:53Z</time>
      </trkpt>
      <trkpt lat="48.81616" lon="2.15554">
        <ele>167</ele>
        <time>2016-05-21T07:39:57Z</time>
      </trkpt>
      <trkpt lat="48.81618" lon="2.15546">
        <ele>166</ele>
        <time>2016-05-21T07:40:03Z</time>
      </trkpt>
      <trkpt lat="48.81614" lon="2.15539">
        <ele>161</ele>
        <time>2016-05-21T07:41:08Z</time>
      </trkpt>
      <trkpt lat="48.81612" lon="2.15531">
        <ele>163</ele>
        <time>2016-05-21T07:41:12Z</time>
      </trkpt>
      <trkpt lat="48.81613" lon="2.15519">
        <ele>163</ele>
        <time>2016-05-21T07:41:20Z</time>
      </trkpt>
      <trkpt lat="48.81617" lon="2.15524">
        <ele>164</ele>
        <time>2016-05-21T07:41:50Z</time>
      </trkpt>
      <trkpt lat="48.81614" lon="2.1553">
        <ele>163</ele>
        <time>2016-05-21T07:41:58Z</time>
      </trkpt>
      <trkpt lat="48.81608" lon="2.15531">
        <ele>163</ele>
        <time>2016-05-21T07:42:02Z</time>
      </trkpt>
      <trkpt lat="48.81603" lon="2.15532">
        <ele>161</ele>
        <time>2016-05-21T07:42:05Z</time>
      </trkpt>
      <trkpt lat="48.81599" lon="2.15538">
        <ele>161</ele>
        <time>2016-05-21T07:42:09Z</time>
      </trkpt>
      <trkpt lat="48.81597" lon="2.15545">
        <ele>161</ele>
        <time>2016-05-21T07:42:17Z</time>
      </trkpt>
      <trkpt lat="48.81594" lon="2.15552">
        <ele>159</ele>
        <time>2016-05-21T07:42:23Z</time>
      </trkpt>
      <trkpt lat="48.81589" lon="2.15555">
        <ele>158</ele>
        <time>2016-05-21T07:42:30Z</time>
      </trkpt>
      <trkpt lat="48.81585" lon="2.15557">
        <ele>157</ele>
        <time>2016-05-21T07:42:34Z</time>
      </trkpt>
      <trkpt lat="48.8158" lon="2.15561">
        <ele>157</ele>
        <time>2016-05-21T07:42:38Z</time>
      </trkpt>
      <trkpt lat="48.81576" lon="2.15567">
        <ele>157</ele>
        <time>2016-05-21T07:42:42Z</time>
      </trkpt>
      <trkpt lat="48.81574" lon="2.15573">
        <ele>157</ele>
        <time>2016-05-21T07:42:45Z</time>
      </trkpt>
      <trkpt lat="48.81573" lon="2.15582">
        <ele>157</ele>
        <time>2016-05-21T07:42:48Z</time>
      </trkpt>
      <trkpt lat="48.81571" lon="2.1559">
        <ele>157</ele>
        <time>2016-05-21T07:42:52Z</time>
      </trkpt>
      <trkpt lat="48.8157" lon="2.15599">
        <ele>161</ele>
        <time>2016-05-21T07:42:55Z</time>
      </trkpt>
      <trkpt lat="48.81569" lon="2.15607">
        <ele>161</ele>
        <time>2016-05-21T07:42:59Z</time>
      </trkpt>
      <trkpt lat="48.81568" lon="2.15615">
        <ele>163</ele>
        <time>2016-05-21T07:43:03Z</time>
      </trkpt>
      <trkpt lat="48.81566" lon="2.15623">
        <ele>164</ele>
        <time>2016-05-21T07:43:09Z</time>
      </trkpt>
      <trkpt lat="48.81563" lon="2.15628">
        <ele>163</ele>
        <time>2016-05-21T07:43:13Z</time>
      </trkpt>
      <trkpt lat="48.81566" lon="2.15632">
        <ele>161</ele>
        <time>2016-05-21T07:43:21Z</time>
      </trkpt>
      <trkpt lat="48.81563" lon="2.15638">
        <ele>166</ele>
        <time>2016-05-21T07:43:27Z</time>
      </trkpt>
      <trkpt lat="48.8156" lon="2.15644">
        <ele>167</ele>
        <time>2016-05-21T07:43:31Z</time>
      </trkpt>
      <trkpt lat="48.81559" lon="2.15652">
        <ele>164</ele>
        <time>2016-05-21T07:43:35Z</time>
      </trkpt>
      <trkpt lat="48.81559" lon="2.1566">
        <ele>164</ele>
        <time>2016-05-21T07:43:39Z</time>
      </trkpt>
      <trkpt lat="48.81559" lon="2.15668">
        <ele>164</ele>
        <time>2016-05-21T07:43:47Z</time>
      </trkpt>
      <trkpt lat="48.81564" lon="2.15671">
        <ele>165</ele>
        <time>2016-05-21T07:43:51Z</time>
      </trkpt>
      <trkpt lat="48.81568" lon="2.15675">
        <ele>166</ele>
        <time>2016-05-21T07:43:55Z</time>
      </trkpt>
      <trkpt lat="48.81571" lon="2.15681">
        <ele>166</ele>
        <time>2016-05-21T07:44:00Z</time>
      </trkpt>
      <trkpt lat="48.81567" lon="2.15686">
        <ele>163</ele>
        <time>2016-05-21T07:44:07Z</time>
      </trkpt>
      <trkpt lat="48.81563" lon="2.15689">
        <ele>159</ele>
        <time>2016-05-21T07:44:12Z</time>
      </trkpt>
      <trkpt lat="48.81558" lon="2.15691">
        <ele>159</ele>
        <time>2016-05-21T07:44:26Z</time>
      </trkpt>
      <trkpt lat="48.81552" lon="2.1569">
        <ele>161</ele>
        <time>2016-05-21T07:44:31Z</time>
      </trkpt>
      <trkpt lat="48.81548" lon="2.1569">
        <ele>161</ele>
        <time>2016-05-21T07:44:34Z</time>
      </trkpt>
      <trkpt lat="48.81543" lon="2.15687">
        <ele>159</ele>
        <time>2016-05-21T07:44:38Z</time>
      </trkpt>
      <trkpt lat="48.81538" lon="2.15688">
        <ele>159</ele>
        <time>2016-05-21T07:44:44Z</time>
      </trkpt>
      <trkpt lat="48.81534" lon="2.15687">
        <ele>161</ele>
        <time>2016-05-21T07:44:49Z</time>
      </trkpt>
      <trkpt lat="48.81529" lon="2.15686">
        <ele>161</ele>
        <time>2016-05-21T07:44:52Z</time>
      </trkpt>
      <trkpt lat="48.81524" lon="2.15688">
        <ele>160</ele>
        <time>2016-05-21T07:44:57Z</time>
      </trkpt>
      <trkpt lat="48.81519" lon="2.15688">
        <ele>161</ele>
        <time>2016-05-21T07:45:00Z</time>
      </trkpt>
      <trkpt lat="48.81514" lon="2.15686">
        <ele>156</ele>
        <time>2016-05-21T07:45:03Z</time>
      </trkpt>
      <trkpt lat="48.81508" lon="2.15686">
        <ele>154</ele>
        <time>2016-05-21T07:45:06Z</time>
      </trkpt>
      <trkpt lat="48.81503" lon="2.15687">
        <ele>153</ele>
        <time>2016-05-21T07:45:09Z</time>
      </trkpt>
      <trkpt lat="48.81498" lon="2.15687">
        <ele>154</ele>
        <time>2016-05-21T07:45:13Z</time>
      </trkpt>
      <trkpt lat="48.81493" lon="2.15683">
        <ele>154</ele>
        <time>2016-05-21T07:45:17Z</time>
      </trkpt>
      <trkpt lat="48.8149" lon="2.15678">
        <ele>155</ele>
        <time>2016-05-21T07:45:21Z</time>
      </trkpt>
      <trkpt lat="48.81487" lon="2.15685">
        <ele>153</ele>
        <time>2016-05-21T07:45:26Z</time>
      </trkpt>
      <trkpt lat="48.81484" lon="2.1569">
        <ele>153</ele>
        <time>2016-05-21T07:45:29Z</time>
      </trkpt>
      <trkpt lat="48.8148" lon="2.15695">
        <ele>154</ele>
        <time>2016-05-21T07:45:31Z</time>
      </trkpt>
      <trkpt lat="48.81476" lon="2.157">
        <ele>154</ele>
        <time>2016-05-21T07:45:34Z</time>
      </trkpt>
      <trkpt lat="48.81471" lon="2.15708">
        <ele>157</ele>
        <time>2016-05-21T07:45:37Z</time>
      </trkpt>
      <trkpt lat="48.81468" lon="2.15713">
        <ele>158</ele>
        <time>2016-05-21T07:45:39Z</time>
      </trkpt>
      <trkpt lat="48.81463" lon="2.15718">
        <ele>160</ele>
        <time>2016-05-21T07:45:42Z</time>
      </trkpt>
      <trkpt lat="48.81459" lon="2.15723">
        <ele>161</ele>
        <time>2016-05-21T07:45:44Z</time>
      </trkpt>
      <trkpt lat="48.81455" lon="2.15729">
        <ele>162</ele>
        <time>2016-05-21T07:45:47Z</time>
      </trkpt>
      <trkpt lat="48.81451" lon="2.15733">
        <ele>161</ele>
        <time>2016-05-21T07:45:51Z</time>
      </trkpt>
      <trkpt lat="48.81448" lon="2.1574">
        <ele>161</ele>
        <time>2016-05-21T07:45:54Z</time>
      </trkpt>
      <trkpt lat="48.81446" lon="2.15748">
        <ele>161</ele>
        <time>2016-05-21T07:45:57Z</time>
      </trkpt>
      <trkpt lat="48.81445" lon="2.15755">
        <ele>159</ele>
        <time>2016-05-21T07:46:00Z</time>
      </trkpt>
      <trkpt lat="48.81443" lon="2.15761">
        <ele>157</ele>
        <time>2016-05-21T07:46:07Z</time>
      </trkpt>
      <trkpt lat="48.81445" lon="2.15767">
        <ele>156</ele>
        <time>2016-05-21T07:46:11Z</time>
      </trkpt>
      <trkpt lat="48.8145" lon="2.15767">
        <ele>157</ele>
        <time>2016-05-21T07:46:16Z</time>
      </trkpt>
      <trkpt lat="48.81452" lon="2.15759">
        <ele>156</ele>
        <time>2016-05-21T07:46:20Z</time>
      </trkpt>
      <trkpt lat="48.81454" lon="2.15752">
        <ele>157</ele>
        <time>2016-05-21T07:46:23Z</time>
      </trkpt>
      <trkpt lat="48.81449" lon="2.1575">
        <ele>157</ele>
        <time>2016-05-21T07:46:29Z</time>
      </trkpt>
      <trkpt lat="48.81443" lon="2.15752">
        <ele>156</ele>
        <time>2016-05-21T07:46:32Z</time>
      </trkpt>
      <trkpt lat="48.81438" lon="2.15755">
        <ele>156</ele>
        <time>2016-05-21T07:46:34Z</time>
      </trkpt>
      <trkpt lat="48.81434" lon="2.15759">
        <ele>157</ele>
        <time>2016-05-21T07:46:36Z</time>
      </trkpt>
      <trkpt lat="48.81429" lon="2.15764">
        <ele>159</ele>
        <time>2016-05-21T07:46:38Z</time>
      </trkpt>
      <trkpt lat="48.81425" lon="2.15768">
        <ele>161</ele>
        <time>2016-05-21T07:46:43Z</time>
      </trkpt>
      <trkpt lat="48.81419" lon="2.15772">
        <ele>165</ele>
        <time>2016-05-21T07:46:47Z</time>
      </trkpt>
      <trkpt lat="48.81414" lon="2.15772">
        <ele>167</ele>
        <time>2016-05-21T07:46:50Z</time>
      </trkpt>
      <trkpt lat="48.81409" lon="2.1577">
        <ele>168</ele>
        <time>2016-05-21T07:46:54Z</time>
      </trkpt>
      <trkpt lat="48.81405" lon="2.15776">
        <ele>169</ele>
        <time>2016-05-21T07:46:57Z</time>
      </trkpt>
      <trkpt lat="48.81401" lon="2.1578">
        <ele>169</ele>
        <time>2016-05-21T07:47:00Z</time>
      </trkpt>
      <trkpt lat="48.81396" lon="2.15783">
        <ele>168</ele>
        <time>2016-05-21T07:47:03Z</time>
      </trkpt>
      <trkpt lat="48.81392" lon="2.15787">
        <ele>170</ele>
        <time>2016-05-21T07:47:07Z</time>
      </trkpt>
      <trkpt lat="48.81389" lon="2.15792">
        <ele>170</ele>
        <time>2016-05-21T07:47:11Z</time>
      </trkpt>
      <trkpt lat="48.81383" lon="2.15793">
        <ele>172</ele>
        <time>2016-05-21T07:47:18Z</time>
      </trkpt>
      <trkpt lat="48.81378" lon="2.15792">
        <ele>172</ele>
        <time>2016-05-21T07:47:20Z</time>
      </trkpt>
      <trkpt lat="48.81373" lon="2.15794">
        <ele>173</ele>
        <time>2016-05-21T07:47:23Z</time>
      </trkpt>
      <trkpt lat="48.81368" lon="2.15797">
        <ele>172</ele>
        <time>2016-05-21T07:47:27Z</time>
      </trkpt>
      <trkpt lat="48.81362" lon="2.15799">
        <ele>171</ele>
        <time>2016-05-21T07:47:32Z</time>
      </trkpt>
      <trkpt lat="48.81357" lon="2.15801">
        <ele>171</ele>
        <time>2016-05-21T07:47:36Z</time>
      </trkpt>
      <trkpt lat="48.81351" lon="2.15801">
        <ele>171</ele>
        <time>2016-05-21T07:47:40Z</time>
      </trkpt>
      <trkpt lat="48.81344" lon="2.15801">
        <ele>174</ele>
        <time>2016-05-21T07:47:44Z</time>
      </trkpt>
      <trkpt lat="48.81338" lon="2.15803">
        <ele>173</ele>
        <time>2016-05-21T07:47:47Z</time>
      </trkpt>
      <trkpt lat="48.81332" lon="2.15806">
        <ele>173</ele>
        <time>2016-05-21T07:47:50Z</time>
      </trkpt>
      <trkpt lat="48.81326" lon="2.15807">
        <ele>173</ele>
        <time>2016-05-21T07:47:53Z</time>
      </trkpt>
      <trkpt lat="48.81322" lon="2.15809">
        <ele>170</ele>
        <time>2016-05-21T07:47:57Z</time>
      </trkpt>
      <trkpt lat="48.81317" lon="2.15813">
        <ele>169</ele>
        <time>2016-05-21T07:48:02Z</time>
      </trkpt>
      <trkpt lat="48.81312" lon="2.15815">
        <ele>170</ele>
        <time>2016-05-21T07:48:05Z</time>
      </trkpt>
      <trkpt lat="48.81307" lon="2.15819">
        <ele>168</ele>
        <time>2016-05-21T07:48:09Z</time>
      </trkpt>
      <trkpt lat="48.81302" lon="2.15824">
        <ele>169</ele>
        <time>2016-05-21T07:48:12Z</time>
      </trkpt>
      <trkpt lat="48.81296" lon="2.15828">
        <ele>165</ele>
        <time>2016-05-21T07:48:15Z</time>
      </trkpt>
      <trkpt lat="48.81291" lon="2.15832">
        <ele>163</ele>
        <time>2016-05-21T07:48:18Z</time>
      </trkpt>
      <trkpt lat="48.81286" lon="2.15834">
        <ele>163</ele>
        <time>2016-05-21T07:48:21Z</time>
      </trkpt>
      <trkpt lat="48.81282" lon="2.15839">
        <ele>164</ele>
        <time>2016-05-21T07:48:25Z</time>
      </trkpt>
      <trkpt lat="48.81278" lon="2.15843">
        <ele>163</ele>
        <time>2016-05-21T07:48:27Z</time>
      </trkpt>
      <trkpt lat="48.81273" lon="2.15847">
        <ele>162</ele>
        <time>2016-05-21T07:48:29Z</time>
      </trkpt>
      <trkpt lat="48.81267" lon="2.15853">
        <ele>161</ele>
        <time>2016-05-21T07:48:32Z</time>
      </trkpt>
      <trkpt lat="48.81262" lon="2.15857">
        <ele>161</ele>
        <time>2016-05-21T07:48:36Z</time>
      </trkpt>
      <trkpt lat="48.81258" lon="2.1586">
        <ele>162</ele>
        <time>2016-05-21T07:48:44Z</time>
      </trkpt>
      <trkpt lat="48.81254" lon="2.15866">
        <ele>160</ele>
        <time>2016-05-21T07:48:49Z</time>
      </trkpt>
      <trkpt lat="48.81252" lon="2.15873">
        <ele>160</ele>
        <time>2016-05-21T07:48:52Z</time>
      </trkpt>
      <trkpt lat="48.81248" lon="2.15879">
        <ele>162</ele>
        <time>2016-05-21T07:48:55Z</time>
      </trkpt>
      <trkpt lat="48.81245" lon="2.15883">
        <ele>161</ele>
        <time>2016-05-21T07:48:58Z</time>
      </trkpt>
      <trkpt lat="48.81241" lon="2.15889">
        <ele>160</ele>
        <time>2016-05-21T07:49:01Z</time>
      </trkpt>
      <trkpt lat="48.81238" lon="2.15897">
        <ele>160</ele>
        <time>2016-05-21T07:49:04Z</time>
      </trkpt>
      <trkpt lat="48.81235" lon="2.15903">
        <ele>159</ele>
        <time>2016-05-21T07:49:07Z</time>
      </trkpt>
      <trkpt lat="48.81232" lon="2.15907">
        <ele>158</ele>
        <time>2016-05-21T07:49:10Z</time>
      </trkpt>
      <trkpt lat="48.81226" lon="2.15912">
        <ele>158</ele>
        <time>2016-05-21T07:49:13Z</time>
      </trkpt>
      <trkpt lat="48.81222" lon="2.15915">
        <ele>159</ele>
        <time>2016-05-21T07:49:15Z</time>
      </trkpt>
      <trkpt lat="48.81217" lon="2.15919">
        <ele>157</ele>
        <time>2016-05-21T07:49:18Z</time>
      </trkpt>
      <trkpt lat="48.81214" lon="2.15926">
        <ele>159</ele>
        <time>2016-05-21T07:49:22Z</time>
      </trkpt>
      <trkpt lat="48.81211" lon="2.15933">
        <ele>158</ele>
        <time>2016-05-21T07:49:26Z</time>
      </trkpt>
      <trkpt lat="48.81208" lon="2.1594">
        <ele>156</ele>
        <time>2016-05-21T07:49:29Z</time>
      </trkpt>
      <trkpt lat="48.8121" lon="2.15948">
        <ele>157</ele>
        <time>2016-05-21T07:49:32Z</time>
      </trkpt>
      <trkpt lat="48.81212" lon="2.15956">
        <ele>157</ele>
        <time>2016-05-21T07:49:36Z</time>
      </trkpt>
      <trkpt lat="48.81214" lon="2.15963">
        <ele>158</ele>
        <time>2016-05-21T07:49:40Z</time>
      </trkpt>
      <trkpt lat="48.81218" lon="2.15968">
        <ele>157</ele>
        <time>2016-05-21T07:49:43Z</time>
      </trkpt>
      <trkpt lat="48.81221" lon="2.15975">
        <ele>155</ele>
        <time>2016-05-21T07:49:46Z</time>
      </trkpt>
      <trkpt lat="48.81223" lon="2.15983">
        <ele>155</ele>
        <time>2016-05-21T07:49:50Z</time>
      </trkpt>
      <trkpt lat="48.81225" lon="2.15989">
        <ele>155</ele>
        <time>2016-05-21T07:49:54Z</time>
      </trkpt>
      <trkpt lat="48.81227" lon="2.15996">
        <ele>156</ele>
        <time>2016-05-21T07:49:57Z</time>
      </trkpt>
      <trkpt lat="48.81229" lon="2.16004">
        <ele>153</ele>
        <time>2016-05-21T07:50:00Z</time>
      </trkpt>
      <trkpt lat="48.81233" lon="2.16012">
        <ele>151</ele>
        <time>2016-05-21T07:50:03Z</time>
      </trkpt>
      <trkpt lat="48.81236" lon="2.16019">
        <ele>151</ele>
        <time>2016-05-21T07:50:06Z</time>
      </trkpt>
      <trkpt lat="48.81238" lon="2.16025">
        <ele>150</ele>
        <time>2016-05-21T07:50:10Z</time>
      </trkpt>
      <trkpt lat="48.8124" lon="2.16032">
        <ele>153</ele>
        <time>2016-05-21T07:50:15Z</time>
      </trkpt>
      <trkpt lat="48.81241" lon="2.16039">
        <ele>155</ele>
        <time>2016-05-21T07:50:18Z</time>
      </trkpt>
      <trkpt lat="48.81242" lon="2.16047">
        <ele>156</ele>
        <time>2016-05-21T07:50:23Z</time>
      </trkpt>
      <trkpt lat="48.81245" lon="2.16052">
        <ele>155</ele>
        <time>2016-05-21T07:50:27Z</time>
      </trkpt>
      <trkpt lat="48.8125" lon="2.16057">
        <ele>156</ele>
        <time>2016-05-21T07:50:30Z</time>
      </trkpt>
      <trkpt lat="48.81253" lon="2.16063">
        <ele>155</ele>
        <time>2016-05-21T07:50:33Z</time>
      </trkpt>
      <trkpt lat="48.81256" lon="2.1607">
        <ele>157</ele>
        <time>2016-05-21T07:50:37Z</time>
      </trkpt>
      <trkpt lat="48.81258" lon="2.16076">
        <ele>158</ele>
        <time>2016-05-21T07:50:43Z</time>
      </trkpt>
      <trkpt lat="48.81258" lon="2.16084">
        <ele>158</ele>
        <time>2016-05-21T07:50:47Z</time>
      </trkpt>
      <trkpt lat="48.81257" lon="2.16091">
        <ele>158</ele>
        <time>2016-05-21T07:50:51Z</time>
      </trkpt>
      <trkpt lat="48.81257" lon="2.161">
        <ele>160</ele>
        <time>2016-05-21T07:50:54Z</time>
      </trkpt>
      <trkpt lat="48.81257" lon="2.16107">
        <ele>158</ele>
        <time>2016-05-21T07:50:58Z</time>
      </trkpt>
      <trkpt lat="48.81256" lon="2.16115">
        <ele>159</ele>
        <time>2016-05-21T07:51:02Z</time>
      </trkpt>
      <trkpt lat="48.81253" lon="2.16122">
        <ele>159</ele>
        <time>2016-05-21T07:51:06Z</time>
      </trkpt>
      <trkpt lat="48.81251" lon="2.16129">
        <ele>160</ele>
        <time>2016-05-21T07:51:09Z</time>
      </trkpt>
      <trkpt lat="48.8125" lon="2.16138">
        <ele>160</ele>
        <time>2016-05-21T07:51:12Z</time>
      </trkpt>
      <trkpt lat="48.81248" lon="2.16145">
        <ele>162</ele>
        <time>2016-05-21T07:51:15Z</time>
      </trkpt>
      <trkpt lat="48.81245" lon="2.16153">
        <ele>162</ele>
        <time>2016-05-21T07:51:19Z</time>
      </trkpt>
      <trkpt lat="48.81242" lon="2.16159">
        <ele>159</ele>
        <time>2016-05-21T07:51:22Z</time>
      </trkpt>
      <trkpt lat="48.81239" lon="2.16165">
        <ele>162</ele>
        <time>2016-05-21T07:51:25Z</time>
      </trkpt>
      <trkpt lat="48.81236" lon="2.16173">
        <ele>162</ele>
        <time>2016-05-21T07:51:29Z</time>
      </trkpt>
      <trkpt lat="48.81233" lon="2.16179">
        <ele>162</ele>
        <time>2016-05-21T07:51:34Z</time>
      </trkpt>
      <trkpt lat="48.81229" lon="2.16183">
        <ele>161</ele>
        <time>2016-05-21T07:51:37Z</time>
      </trkpt>
      <trkpt lat="48.81228" lon="2.1619">
        <ele>160</ele>
        <time>2016-05-21T07:51:41Z</time>
      </trkpt>
      <trkpt lat="48.81225" lon="2.16196">
        <ele>158</ele>
        <time>2016-05-21T07:51:44Z</time>
      </trkpt>
      <trkpt lat="48.8122" lon="2.162">
        <ele>159</ele>
        <time>2016-05-21T07:51:48Z</time>
      </trkpt>
      <trkpt lat="48.81216" lon="2.16204">
        <ele>161</ele>
        <time>2016-05-21T07:51:56Z</time>
      </trkpt>
      <trkpt lat="48.81212" lon="2.1621">
        <ele>162</ele>
        <time>2016-05-21T07:52:00Z</time>
      </trkpt>
      <trkpt lat="48.81207" lon="2.16212">
        <ele>162</ele>
        <time>2016-05-21T07:52:03Z</time>
      </trkpt>
      <trkpt lat="48.81202" lon="2.16215">
        <ele>162</ele>
        <time>2016-05-21T07:52:06Z</time>
      </trkpt>
      <trkpt lat="48.81196" lon="2.16217">
        <ele>163</ele>
        <time>2016-05-21T07:52:09Z</time>
      </trkpt>
      <trkpt lat="48.81191" lon="2.16217">
        <ele>164</ele>
        <time>2016-05-21T07:52:14Z</time>
      </trkpt>
      <trkpt lat="48.81187" lon="2.1622">
        <ele>166</ele>
        <time>2016-05-21T07:52:18Z</time>
      </trkpt>
      <trkpt lat="48.81181" lon="2.16222">
        <ele>166</ele>
        <time>2016-05-21T07:52:21Z</time>
      </trkpt>
      <trkpt lat="48.81174" lon="2.16222">
        <ele>166</ele>
        <time>2016-05-21T07:52:24Z</time>
      </trkpt>
      <trkpt lat="48.8117" lon="2.16223">
        <ele>164</ele>
        <time>2016-05-21T07:52:27Z</time>
      </trkpt>
      <trkpt lat="48.81164" lon="2.16225">
        <ele>162</ele>
        <time>2016-05-21T07:52:30Z</time>
      </trkpt>
      <trkpt lat="48.81159" lon="2.16227">
        <ele>163</ele>
        <time>2016-05-21T07:52:33Z</time>
      </trkpt>
      <trkpt lat="48.81154" lon="2.16229">
        <ele>163</ele>
        <time>2016-05-21T07:52:36Z</time>
      </trkpt>
      <trkpt lat="48.81149" lon="2.16232">
        <ele>161</ele>
        <time>2016-05-21T07:52:40Z</time>
      </trkpt>
      <trkpt lat="48.81144" lon="2.16235">
        <ele>160</ele>
        <time>2016-05-21T07:52:44Z</time>
      </trkpt>
      <trkpt lat="48.8114" lon="2.16239">
        <ele>159</ele>
        <time>2016-05-21T07:52:48Z</time>
      </trkpt>
      <trkpt lat="48.81137" lon="2.16245">
        <ele>160</ele>
        <time>2016-05-21T07:52:53Z</time>
      </trkpt>
      <trkpt lat="48.81133" lon="2.16248">
        <ele>159</ele>
        <time>2016-05-21T07:52:56Z</time>
      </trkpt>
      <trkpt lat="48.81128" lon="2.16254">
        <ele>158</ele>
        <time>2016-05-21T07:52:59Z</time>
      </trkpt>
      <trkpt lat="48.81124" lon="2.16258">
        <ele>158</ele>
        <time>2016-05-21T07:53:03Z</time>
      </trkpt>
      <trkpt lat="48.8112" lon="2.16264">
        <ele>158</ele>
        <time>2016-05-21T07:53:06Z</time>
      </trkpt>
      <trkpt lat="48.81117" lon="2.16272">
        <ele>158</ele>
        <time>2016-05-21T07:53:09Z</time>
      </trkpt>
      <trkpt lat="48.81115" lon="2.16279">
        <ele>160</ele>
        <time>2016-05-21T07:53:12Z</time>
      </trkpt>
      <trkpt lat="48.81113" lon="2.16285">
        <ele>160</ele>
        <time>2016-05-21T07:53:16Z</time>
      </trkpt>
      <trkpt lat="48.81109" lon="2.16291">
        <ele>160</ele>
        <time>2016-05-21T07:53:19Z</time>
      </trkpt>
      <trkpt lat="48.81105" lon="2.163">
        <ele>161</ele>
        <time>2016-05-21T07:53:22Z</time>
      </trkpt>
      <trkpt lat="48.81101" lon="2.16307">
        <ele>161</ele>
        <time>2016-05-21T07:53:25Z</time>
      </trkpt>
      <trkpt lat="48.81097" lon="2.16313">
        <ele>161</ele>
        <time>2016-05-21T07:53:29Z</time>
      </trkpt>
      <trkpt lat="48.81093" lon="2.16318">
        <ele>161</ele>
        <time>2016-05-21T07:53:32Z</time>
      </trkpt>
      <trkpt lat="48.81087" lon="2.16322">
        <ele>163</ele>
        <time>2016-05-21T07:53:35Z</time>
      </trkpt>
      <trkpt lat="48.81082" lon="2.16326">
        <ele>160</ele>
        <time>2016-05-21T07:53:38Z</time>
      </trkpt>
      <trkpt lat="48.81079" lon="2.16332">
        <ele>160</ele>
        <time>2016-05-21T07:53:41Z</time>
      </trkpt>
      <trkpt lat="48.81078" lon="2.16339">
        <ele>159</ele>
        <time>2016-05-21T07:53:44Z</time>
      </trkpt>
      <trkpt lat="48.81075" lon="2.16347">
        <ele>159</ele>
        <time>2016-05-21T07:53:49Z</time>
      </trkpt>
      <trkpt lat="48.81072" lon="2.16354">
        <ele>158</ele>
        <time>2016-05-21T07:53:53Z</time>
      </trkpt>
      <trkpt lat="48.81068" lon="2.16359">
        <ele>157</ele>
        <time>2016-05-21T07:53:56Z</time>
      </trkpt>
      <trkpt lat="48.81063" lon="2.16365">
        <ele>157</ele>
        <time>2016-05-21T07:54:00Z</time>
      </trkpt>
      <trkpt lat="48.81063" lon="2.16374">
        <ele>159</ele>
        <time>2016-05-21T07:54:06Z</time>
      </trkpt>
      <trkpt lat="48.8106" lon="2.16382">
        <ele>158</ele>
        <time>2016-05-21T07:54:11Z</time>
      </trkpt>
      <trkpt lat="48.81054" lon="2.16387">
        <ele>156</ele>
        <time>2016-05-21T07:54:14Z</time>
      </trkpt>
      <trkpt lat="48.8105" lon="2.1639">
        <ele>156</ele>
        <time>2016-05-21T07:54:16Z</time>
      </trkpt>
      <trkpt lat="48.81045" lon="2.16395">
        <ele>155</ele>
        <time>2016-05-21T07:54:19Z</time>
      </trkpt>
      <trkpt lat="48.81043" lon="2.16402">
        <ele>154</ele>
        <time>2016-05-21T07:54:22Z</time>
      </trkpt>
      <trkpt lat="48.8104" lon="2.16409">
        <ele>153</ele>
        <time>2016-05-21T07:54:26Z</time>
      </trkpt>
      <trkpt lat="48.81037" lon="2.16414">
        <ele>149</ele>
        <time>2016-05-21T07:54:29Z</time>
      </trkpt>
      <trkpt lat="48.81037" lon="2.16423">
        <ele>148</ele>
        <time>2016-05-21T07:54:33Z</time>
      </trkpt>
      <trkpt lat="48.81035" lon="2.16434">
        <ele>147</ele>
        <time>2016-05-21T07:54:37Z</time>
      </trkpt>
      <trkpt lat="48.81034" lon="2.16441">
        <ele>146</ele>
        <time>2016-05-21T07:54:40Z</time>
      </trkpt>
      <trkpt lat="48.81035" lon="2.16448">
        <ele>147</ele>
        <time>2016-05-21T07:54:43Z</time>
      </trkpt>
      <trkpt lat="48.81036" lon="2.16457">
        <ele>147</ele>
        <time>2016-05-21T07:54:46Z</time>
      </trkpt>
      <trkpt lat="48.81036" lon="2.16464">
        <ele>147</ele>
        <time>2016-05-21T07:54:49Z</time>
      </trkpt>
      <trkpt lat="48.81036" lon="2.16472">
        <ele>147</ele>
        <time>2016-05-21T07:54:52Z</time>
      </trkpt>
      <trkpt lat="48.81035" lon="2.16479">
        <ele>150</ele>
        <time>2016-05-21T07:54:56Z</time>
      </trkpt>
      <trkpt lat="48.81036" lon="2.16486">
        <ele>148</ele>
        <time>2016-05-21T07:55:01Z</time>
      </trkpt>
      <trkpt lat="48.81036" lon="2.16495">
        <ele>148</ele>
        <time>2016-05-21T07:55:06Z</time>
      </trkpt>
      <trkpt lat="48.81037" lon="2.16503">
        <ele>150</ele>
        <time>2016-05-21T07:55:10Z</time>
      </trkpt>
      <trkpt lat="48.81038" lon="2.16511">
        <ele>149</ele>
        <time>2016-05-21T07:55:14Z</time>
      </trkpt>
      <trkpt lat="48.81042" lon="2.16518">
        <ele>147</ele>
        <time>2016-05-21T07:55:18Z</time>
      </trkpt>
      <trkpt lat="48.81046" lon="2.16525">
        <ele>147</ele>
        <time>2016-05-21T07:55:21Z</time>
      </trkpt>
      <trkpt lat="48.81049" lon="2.1653">
        <ele>148</ele>
        <time>2016-05-21T07:55:24Z</time>
      </trkpt>
      <trkpt lat="48.81052" lon="2.16535">
        <ele>146</ele>
        <time>2016-05-21T07:55:27Z</time>
      </trkpt>
      <trkpt lat="48.81056" lon="2.16542">
        <ele>147</ele>
        <time>2016-05-21T07:55:30Z</time>
      </trkpt>
      <trkpt lat="48.81058" lon="2.16548">
        <ele>149</ele>
        <time>2016-05-21T07:55:33Z</time>
      </trkpt>
      <trkpt lat="48.81062" lon="2.16555">
        <ele>150</ele>
        <time>2016-05-21T07:55:37Z</time>
      </trkpt>
      <trkpt lat="48.81064" lon="2.16563">
        <ele>152</ele>
        <time>2016-05-21T07:55:42Z</time>
      </trkpt>
      <trkpt lat="48.81066" lon="2.16569">
        <ele>150</ele>
        <time>2016-05-21T07:55:45Z</time>
      </trkpt>
      <trkpt lat="48.8107" lon="2.16574">
        <ele>151</ele>
        <time>2016-05-21T07:55:49Z</time>
      </trkpt>
      <trkpt lat="48.81073" lon="2.1658">
        <ele>152</ele>
        <time>2016-05-21T07:55:52Z</time>
      </trkpt>
      <trkpt lat="48.81076" lon="2.16586">
        <ele>154</ele>
        <time>2016-05-21T07:55:54Z</time>
      </trkpt>
      <trkpt lat="48.81078" lon="2.16593">
        <ele>156</ele>
        <time>2016-05-21T07:55:58Z</time>
      </trkpt>
      <trkpt lat="48.81083" lon="2.16598">
        <ele>156</ele>
        <time>2016-05-21T07:56:02Z</time>
      </trkpt>
      <trkpt lat="48.81088" lon="2.16602">
        <ele>157</ele>
        <time>2016-05-21T07:56:05Z</time>
      </trkpt>
      <trkpt lat="48.81091" lon="2.16607">
        <ele>156</ele>
        <time>2016-05-21T07:56:08Z</time>
      </trkpt>
      <trkpt lat="48.81093" lon="2.16615">
        <ele>155</ele>
        <time>2016-05-21T07:56:12Z</time>
      </trkpt>
      <trkpt lat="48.81096" lon="2.16623">
        <ele>155</ele>
        <time>2016-05-21T07:56:15Z</time>
      </trkpt>
      <trkpt lat="48.81098" lon="2.16629">
        <ele>154</ele>
        <time>2016-05-21T07:56:17Z</time>
      </trkpt>
      <trkpt lat="48.811" lon="2.16636">
        <ele>155</ele>
        <time>2016-05-21T07:56:20Z</time>
      </trkpt>
      <trkpt lat="48.81105" lon="2.1664">
        <ele>155</ele>
        <time>2016-05-21T07:56:24Z</time>
      </trkpt>
      <trkpt lat="48.8111" lon="2.16642">
        <ele>158</ele>
        <time>2016-05-21T07:56:29Z</time>
      </trkpt>
      <trkpt lat="48.81116" lon="2.16642">
        <ele>160</ele>
        <time>2016-05-21T07:56:33Z</time>
      </trkpt>
      <trkpt lat="48.81122" lon="2.16638">
        <ele>159</ele>
        <time>2016-05-21T07:56:35Z</time>
      </trkpt>
      <trkpt lat="48.81128" lon="2.16633">
        <ele>160</ele>
        <time>2016-05-21T07:56:37Z</time>
      </trkpt>
      <trkpt lat="48.81132" lon="2.16631">
        <ele>161</ele>
        <time>2016-05-21T07:56:39Z</time>
      </trkpt>
      <trkpt lat="48.81136" lon="2.16636">
        <ele>163</ele>
        <time>2016-05-21T07:56:45Z</time>
      </trkpt>
      <trkpt lat="48.81141" lon="2.16638">
        <ele>165</ele>
        <time>2016-05-21T07:56:50Z</time>
      </trkpt>
      <trkpt lat="48.81146" lon="2.16642">
        <ele>163</ele>
        <time>2016-05-21T07:56:53Z</time>
      </trkpt>
      <trkpt lat="48.8115" lon="2.16645">
        <ele>163</ele>
        <time>2016-05-21T07:56:55Z</time>
      </trkpt>
      <trkpt lat="48.81155" lon="2.16647">
        <ele>164</ele>
        <time>2016-05-21T07:56:58Z</time>
      </trkpt>
      <trkpt lat="48.8116" lon="2.16644">
        <ele>163</ele>
        <time>2016-05-21T07:57:03Z</time>
      </trkpt>
      <trkpt lat="48.81165" lon="2.16647">
        <ele>163</ele>
        <time>2016-05-21T07:57:08Z</time>
      </trkpt>
      <trkpt lat="48.81169" lon="2.16655">
        <ele>164</ele>
        <time>2016-05-21T07:57:11Z</time>
      </trkpt>
      <trkpt lat="48.81173" lon="2.16659">
        <ele>165</ele>
        <time>2016-05-21T07:57:13Z</time>
      </trkpt>
      <trkpt lat="48.81177" lon="2.1666">
        <ele>166</ele>
        <time>2016-05-21T07:57:16Z</time>
      </trkpt>
      <trkpt lat="48.81182" lon="2.16663">
        <ele>167</ele>
        <time>2016-05-21T07:57:21Z</time>
      </trkpt>
      <trkpt lat="48.81178" lon="2.16669">
        <ele>166</ele>
        <time>2016-05-21T07:57:28Z</time>
      </trkpt>
      <trkpt lat="48.81174" lon="2.16672">
        <ele>166</ele>
        <time>2016-05-21T07:57:32Z</time>
      </trkpt>
      <trkpt lat="48.81169" lon="2.16678">
        <ele>169</ele>
        <time>2016-05-21T07:57:36Z</time>
      </trkpt>
      <trkpt lat="48.81165" lon="2.16683">
        <ele>168</ele>
        <time>2016-05-21T07:57:40Z</time>
      </trkpt>
      <trkpt lat="48.81162" lon="2.16688">
        <ele>168</ele>
        <time>2016-05-21T07:57:43Z</time>
      </trkpt>
      <trkpt lat="48.81157" lon="2.16695">
        <ele>168</ele>
        <time>2016-05-21T07:57:45Z</time>
      </trkpt>
      <trkpt lat="48.81151" lon="2.16703">
        <ele>169</ele>
        <time>2016-05-21T07:57:47Z</time>
      </trkpt>
      <trkpt lat="48.81148" lon="2.16708">
        <ele>171</ele>
        <time>2016-05-21T07:57:49Z</time>
      </trkpt>
      <trkpt lat="48.81144" lon="2.16713">
        <ele>171</ele>
        <time>2016-05-21T07:57:55Z</time>
      </trkpt>
      <trkpt lat="48.81139" lon="2.16717">
        <ele>170</ele>
        <time>2016-05-21T07:57:58Z</time>
      </trkpt>
      <trkpt lat="48.81136" lon="2.16722">
        <ele>171</ele>
        <time>2016-05-21T07:58:01Z</time>
      </trkpt>
      <trkpt lat="48.81135" lon="2.16731">
        <ele>171</ele>
        <time>2016-05-21T07:58:04Z</time>
      </trkpt>
      <trkpt lat="48.81133" lon="2.16739">
        <ele>168</ele>
        <time>2016-05-21T07:58:07Z</time>
      </trkpt>
      <trkpt lat="48.81136" lon="2.16745">
        <ele>167</ele>
        <time>2016-05-21T07:58:11Z</time>
      </trkpt>
      <trkpt lat="48.81141" lon="2.16751">
        <ele>166</ele>
        <time>2016-05-21T07:58:14Z</time>
      </trkpt>
      <trkpt lat="48.81145" lon="2.16755">
        <ele>165</ele>
        <time>2016-05-21T07:58:17Z</time>
      </trkpt>
      <trkpt lat="48.81142" lon="2.1676">
        <ele>168</ele>
        <time>2016-05-21T07:58:23Z</time>
      </trkpt>
      <trkpt lat="48.81138" lon="2.16764">
        <ele>169</ele>
        <time>2016-05-21T07:58:28Z</time>
      </trkpt>
      <trkpt lat="48.81134" lon="2.16769">
        <ele>169</ele>
        <time>2016-05-21T07:58:32Z</time>
      </trkpt>
      <trkpt lat="48.81132" lon="2.16776">
        <ele>169</ele>
        <time>2016-05-21T07:58:35Z</time>
      </trkpt>
      <trkpt lat="48.81129" lon="2.16784">
        <ele>168</ele>
        <time>2016-05-21T07:58:38Z</time>
      </trkpt>
      <trkpt lat="48.81127" lon="2.1679">
        <ele>168</ele>
        <time>2016-05-21T07:58:42Z</time>
      </trkpt>
      <trkpt lat="48.81127" lon="2.16798">
        <ele>165</ele>
        <time>2016-05-21T07:58:46Z</time>
      </trkpt>
      <trkpt lat="48.81126" lon="2.16807">
        <ele>165</ele>
        <time>2016-05-21T07:58:50Z</time>
      </trkpt>
      <trkpt lat="48.81126" lon="2.16814">
        <ele>166</ele>
        <time>2016-05-21T07:58:54Z</time>
      </trkpt>
      <trkpt lat="48.81122" lon="2.16819">
        <ele>168</ele>
        <time>2016-05-21T07:58:59Z</time>
      </trkpt>
      <trkpt lat="48.81119" lon="2.16826">
        <ele>167</ele>
        <time>2016-05-21T07:59:03Z</time>
      </trkpt>
      <trkpt lat="48.81114" lon="2.16832">
        <ele>166</ele>
        <time>2016-05-21T07:59:06Z</time>
      </trkpt>
      <trkpt lat="48.8111" lon="2.16838">
        <ele>164</ele>
        <time>2016-05-21T07:59:09Z</time>
      </trkpt>
      <trkpt lat="48.8111" lon="2.16845">
        <ele>159</ele>
        <time>2016-05-21T07:59:13Z</time>
      </trkpt>
      <trkpt lat="48.81106" lon="2.1685">
        <ele>157</ele>
        <time>2016-05-21T07:59:18Z</time>
      </trkpt>
      <trkpt lat="48.81102" lon="2.16854">
        <ele>158</ele>
        <time>2016-05-21T07:59:22Z</time>
      </trkpt>
      <trkpt lat="48.81098" lon="2.16858">
        <ele>159</ele>
        <time>2016-05-21T07:59:25Z</time>
      </trkpt>
      <trkpt lat="48.81094" lon="2.16862">
        <ele>161</ele>
        <time>2016-05-21T07:59:29Z</time>
      </trkpt>
      <trkpt lat="48.81091" lon="2.16869">
        <ele>161</ele>
        <time>2016-05-21T07:59:33Z</time>
      </trkpt>
      <trkpt lat="48.81088" lon="2.16876">
        <ele>163</ele>
        <time>2016-05-21T07:59:38Z</time>
      </trkpt>
      <trkpt lat="48.81086" lon="2.16882">
        <ele>163</ele>
        <time>2016-05-21T07:59:41Z</time>
      </trkpt>
      <trkpt lat="48.81083" lon="2.16891">
        <ele>162</ele>
        <time>2016-05-21T07:59:44Z</time>
      </trkpt>
      <trkpt lat="48.81079" lon="2.16896">
        <ele>163</ele>
        <time>2016-05-21T07:59:47Z</time>
      </trkpt>
      <trkpt lat="48.81076" lon="2.16903">
        <ele>160</ele>
        <time>2016-05-21T07:59:50Z</time>
      </trkpt>
      <trkpt lat="48.81074" lon="2.16911">
        <ele>159</ele>
        <time>2016-05-21T07:59:53Z</time>
      </trkpt>
      <trkpt lat="48.81072" lon="2.16919">
        <ele>159</ele>
        <time>2016-05-21T07:59:57Z</time>
      </trkpt>
      <trkpt lat="48.81069" lon="2.16926">
        <ele>163</ele>
        <time>2016-05-21T08:00:01Z</time>
      </trkpt>
      <trkpt lat="48.81068" lon="2.16934">
        <ele>165</ele>
        <time>2016-05-21T08:00:05Z</time>
      </trkpt>
      <trkpt lat="48.81067" lon="2.16941">
        <ele>164</ele>
        <time>2016-05-21T08:00:09Z</time>
      </trkpt>
      <trkpt lat="48.81068" lon="2.16948">
        <ele>165</ele>
        <time>2016-05-21T08:00:11Z</time>
      </trkpt>
      <trkpt lat="48.81067" lon="2.16956">
        <ele>164</ele>
        <time>2016-05-21T08:00:14Z</time>
      </trkpt>
      <trkpt lat="48.81066" lon="2.16964">
        <ele>162</ele>
        <time>2016-05-21T08:00:19Z</time>
      </trkpt>
      <trkpt lat="48.81063" lon="2.16971">
        <ele>164</ele>
        <time>2016-05-21T08:00:24Z</time>
      </trkpt>
      <trkpt lat="48.81059" lon="2.16977">
        <ele>166</ele>
        <time>2016-05-21T08:00:28Z</time>
      </trkpt>
      <trkpt lat="48.81056" lon="2.16982">
        <ele>166</ele>
        <time>2016-05-21T08:00:30Z</time>
      </trkpt>
      <trkpt lat="48.81054" lon="2.16989">
        <ele>167</ele>
        <time>2016-05-21T08:00:33Z</time>
      </trkpt>
      <trkpt lat="48.81055" lon="2.16997">
        <ele>164</ele>
        <time>2016-05-21T08:00:38Z</time>
      </trkpt>
      <trkpt lat="48.81056" lon="2.17005">
        <ele>169</ele>
        <time>2016-05-21T08:00:42Z</time>
      </trkpt>
      <trkpt lat="48.81056" lon="2.17013">
        <ele>170</ele>
        <time>2016-05-21T08:00:46Z</time>
      </trkpt>
      <trkpt lat="48.81056" lon="2.17021">
        <ele>170</ele>
        <time>2016-05-21T08:00:49Z</time>
      </trkpt>
      <trkpt lat="48.81055" lon="2.17029">
        <ele>170</ele>
        <time>2016-05-21T08:00:52Z</time>
      </trkpt>
      <trkpt lat="48.81055" lon="2.17036">
        <ele>170</ele>
        <time>2016-05-21T08:00:55Z</time>
      </trkpt>
      <trkpt lat="48.81055" lon="2.17045">
        <ele>171</ele>
        <time>2016-05-21T08:00:59Z</time>
      </trkpt>
      <trkpt lat="48.81054" lon="2.17054">
        <ele>169</ele>
        <time>2016-05-21T08:01:02Z</time>
      </trkpt>
      <trkpt lat="48.81053" lon="2.1706">
        <ele>169</ele>
        <time>2016-05-21T08:01:06Z</time>
      </trkpt>
      <trkpt lat="48.81051" lon="2.17069">
        <ele>168</ele>
        <time>2016-05-21T08:01:10Z</time>
      </trkpt>
      <trkpt lat="48.81048" lon="2.17075">
        <ele>169</ele>
        <time>2016-05-21T08:01:13Z</time>
      </trkpt>
      <trkpt lat="48.81045" lon="2.17083">
        <ele>170</ele>
        <time>2016-05-21T08:01:17Z</time>
      </trkpt>
      <trkpt lat="48.81045" lon="2.17091">
        <ele>173</ele>
        <time>2016-05-21T08:01:20Z</time>
      </trkpt>
      <trkpt lat="48.81045" lon="2.17098">
        <ele>173</ele>
        <time>2016-05-21T08:01:24Z</time>
      </trkpt>
      <trkpt lat="48.81044" lon="2.17106">
        <ele>174</ele>
        <time>2016-05-21T08:01:32Z</time>
      </trkpt>
      <trkpt lat="48.81043" lon="2.17113">
        <ele>174</ele>
        <time>2016-05-21T08:01:36Z</time>
      </trkpt>
      <trkpt lat="48.81043" lon="2.17121">
        <ele>174</ele>
        <time>2016-05-21T08:01:39Z</time>
      </trkpt>
      <trkpt lat="48.81044" lon="2.17128">
        <ele>175</ele>
        <time>2016-05-21T08:01:41Z</time>
      </trkpt>
      <trkpt lat="48.81045" lon="2.17138">
        <ele>171</ele>
        <time>2016-05-21T08:01:44Z</time>
      </trkpt>
      <trkpt lat="48.81046" lon="2.17145">
        <ele>172</ele>
        <time>2016-05-21T08:01:46Z</time>
      </trkpt>
      <trkpt lat="48.81049" lon="2.17151">
        <ele>176</ele>
        <time>2016-05-21T08:01:48Z</time>
      </trkpt>
      <trkpt lat="48.81051" lon="2.17158">
        <ele>177</ele>
        <time>2016-05-21T08:01:51Z</time>
      </trkpt>
      <trkpt lat="48.81052" lon="2.17166">
        <ele>176</ele>
        <time>2016-05-21T08:01:57Z</time>
      </trkpt>
      <trkpt lat="48.81053" lon="2.17173">
        <ele>176</ele>
        <time>2016-05-21T08:02:01Z</time>
      </trkpt>
      <trkpt lat="48.81053" lon="2.17181">
        <ele>176</ele>
        <time>2016-05-21T08:02:05Z</time>
      </trkpt>
      <trkpt lat="48.81054" lon="2.17188">
        <ele>175</ele>
        <time>2016-05-21T08:02:08Z</time>
      </trkpt>
      <trkpt lat="48.81056" lon="2.17197">
        <ele>178</ele>
        <time>2016-05-21T08:02:11Z</time>
      </trkpt>
      <trkpt lat="48.81059" lon="2.17204">
        <ele>178</ele>
        <time>2016-05-21T08:02:15Z</time>
      </trkpt>
      <trkpt lat="48.81061" lon="2.17211">
        <ele>177</ele>
        <time>2016-05-21T08:02:18Z</time>
      </trkpt>
      <trkpt lat="48.81066" lon="2.17208">
        <ele>172</ele>
        <time>2016-05-21T08:02:24Z</time>
      </trkpt>
      <trkpt lat="48.81069" lon="2.17213">
        <ele>172</ele>
        <time>2016-05-21T08:02:29Z</time>
      </trkpt>
      <trkpt lat="48.81071" lon="2.17223">
        <ele>166</ele>
        <time>2016-05-21T08:02:33Z</time>
      </trkpt>
      <trkpt lat="48.81073" lon="2.1723">
        <ele>167</ele>
        <time>2016-05-21T08:02:36Z</time>
      </trkpt>
      <trkpt lat="48.81075" lon="2.17237">
        <ele>168</ele>
        <time>2016-05-21T08:02:39Z</time>
      </trkpt>
      <trkpt lat="48.81075" lon="2.17244">
        <ele>168</ele>
        <time>2016-05-21T08:02:42Z</time>
      </trkpt>
      <trkpt lat="48.81076" lon="2.17252">
        <ele>169</ele>
        <time>2016-05-21T08:02:46Z</time>
      </trkpt>
      <trkpt lat="48.81076" lon="2.1726">
        <ele>169</ele>
        <time>2016-05-21T08:02:48Z</time>
      </trkpt>
      <trkpt lat="48.81076" lon="2.17268">
        <ele>171</ele>
        <time>2016-05-21T08:02:51Z</time>
      </trkpt>
      <trkpt lat="48.81077" lon="2.17276">
        <ele>172</ele>
        <time>2016-05-21T08:02:54Z</time>
      </trkpt>
      <trkpt lat="48.81075" lon="2.17285">
        <ele>173</ele>
        <time>2016-05-21T08:02:58Z</time>
      </trkpt>
      <trkpt lat="48.81072" lon="2.17292">
        <ele>172</ele>
        <time>2016-05-21T08:03:01Z</time>
      </trkpt>
      <trkpt lat="48.8107" lon="2.17301">
        <ele>175</ele>
        <time>2016-05-21T08:03:03Z</time>
      </trkpt>
      <trkpt lat="48.81069" lon="2.1731">
        <ele>176</ele>
        <time>2016-05-21T08:03:06Z</time>
      </trkpt>
      <trkpt lat="48.81068" lon="2.17318">
        <ele>177</ele>
        <time>2016-05-21T08:03:09Z</time>
      </trkpt>
      <trkpt lat="48.81065" lon="2.17325">
        <ele>176</ele>
        <time>2016-05-21T08:03:13Z</time>
      </trkpt>
      <trkpt lat="48.81063" lon="2.17332">
        <ele>181</ele>
        <time>2016-05-21T08:03:17Z</time>
      </trkpt>
      <trkpt lat="48.81063" lon="2.17342">
        <ele>183</ele>
        <time>2016-05-21T08:03:21Z</time>
      </trkpt>
      <trkpt lat="48.81064" lon="2.17349">
        <ele>184</ele>
        <time>2016-05-21T08:03:25Z</time>
      </trkpt>
      <trkpt lat="48.81061" lon="2.17354">
        <ele>185</ele>
        <time>2016-05-21T08:03:29Z</time>
      </trkpt>
      <trkpt lat="48.81057" lon="2.1736">
        <ele>183</ele>
        <time>2016-05-21T08:03:34Z</time>
      </trkpt>
      <trkpt lat="48.81056" lon="2.17367">
        <ele>183</ele>
        <time>2016-05-21T08:03:38Z</time>
      </trkpt>
      <trkpt lat="48.81055" lon="2.17375">
        <ele>182</ele>
        <time>2016-05-21T08:03:42Z</time>
      </trkpt>
      <trkpt lat="48.81056" lon="2.17385">
        <ele>179</ele>
        <time>2016-05-21T08:03:47Z</time>
      </trkpt>
      <trkpt lat="48.81056" lon="2.17392">
        <ele>178</ele>
        <time>2016-05-21T08:03:51Z</time>
      </trkpt>
      <trkpt lat="48.81053" lon="2.174">
        <ele>177</ele>
        <time>2016-05-21T08:03:54Z</time>
      </trkpt>
      <trkpt lat="48.81051" lon="2.17408">
        <ele>178</ele>
        <time>2016-05-21T08:03:57Z</time>
      </trkpt>
      <trkpt lat="48.81049" lon="2.17416">
        <ele>178</ele>
        <time>2016-05-21T08:04:00Z</time>
      </trkpt>
      <trkpt lat="48.81047" lon="2.17424">
        <ele>178</ele>
        <time>2016-05-21T08:04:04Z</time>
      </trkpt>
      <trkpt lat="48.81044" lon="2.1743">
        <ele>182</ele>
        <time>2016-05-21T08:04:07Z</time>
      </trkpt>
      <trkpt lat="48.81041" lon="2.17436">
        <ele>182</ele>
        <time>2016-05-21T08:04:10Z</time>
      </trkpt>
      <trkpt lat="48.81039" lon="2.17443">
        <ele>182</ele>
        <time>2016-05-21T08:04:13Z</time>
      </trkpt>
      <trkpt lat="48.81038" lon="2.1745">
        <ele>184</ele>
        <time>2016-05-21T08:04:16Z</time>
      </trkpt>
      <trkpt lat="48.81036" lon="2.17458">
        <ele>183</ele>
        <time>2016-05-21T08:04:18Z</time>
      </trkpt>
      <trkpt lat="48.81033" lon="2.17467">
        <ele>180</ele>
        <time>2016-05-21T08:04:21Z</time>
      </trkpt>
      <trkpt lat="48.81032" lon="2.17474">
        <ele>178</ele>
        <time>2016-05-21T08:04:24Z</time>
      </trkpt>
      <trkpt lat="48.81029" lon="2.17481">
        <ele>174</ele>
        <time>2016-05-21T08:04:30Z</time>
      </trkpt>
      <trkpt lat="48.81028" lon="2.17489">
        <ele>172</ele>
        <time>2016-05-21T08:04:34Z</time>
      </trkpt>
      <trkpt lat="48.81026" lon="2.17495">
        <ele>171</ele>
        <time>2016-05-21T08:04:38Z</time>
      </trkpt>
      <trkpt lat="48.81023" lon="2.17502">
        <ele>170</ele>
        <time>2016-05-21T08:04:41Z</time>
      </trkpt>
      <trkpt lat="48.8102" lon="2.1751">
        <ele>168</ele>
        <time>2016-05-21T08:04:44Z</time>
      </trkpt>
      <trkpt lat="48.81018" lon="2.17518">
        <ele>168</ele>
        <time>2016-05-21T08:04:47Z</time>
      </trkpt>
      <trkpt lat="48.81019" lon="2.17526">
        <ele>170</ele>
        <time>2016-05-21T08:04:52Z</time>
      </trkpt>
      <trkpt lat="48.81019" lon="2.17533">
        <ele>172</ele>
        <time>2016-05-21T08:04:55Z</time>
      </trkpt>
      <trkpt lat="48.81018" lon="2.17542">
        <ele>172</ele>
        <time>2016-05-21T08:04:59Z</time>
      </trkpt>
      <trkpt lat="48.81017" lon="2.17548">
        <ele>173</ele>
        <time>2016-05-21T08:05:03Z</time>
      </trkpt>
      <trkpt lat="48.81017" lon="2.17557">
        <ele>173</ele>
        <time>2016-05-21T08:05:08Z</time>
      </trkpt>
      <trkpt lat="48.81018" lon="2.17564">
        <ele>172</ele>
        <time>2016-05-21T08:05:12Z</time>
      </trkpt>
      <trkpt lat="48.81021" lon="2.1757">
        <ele>168</ele>
        <time>2016-05-21T08:05:16Z</time>
      </trkpt>
      <trkpt lat="48.81024" lon="2.17578">
        <ele>168</ele>
        <time>2016-05-21T08:05:20Z</time>
      </trkpt>
      <trkpt lat="48.81025" lon="2.17586">
        <ele>170</ele>
        <time>2016-05-21T08:05:23Z</time>
      </trkpt>
      <trkpt lat="48.81026" lon="2.17594">
        <ele>167</ele>
        <time>2016-05-21T08:05:26Z</time>
      </trkpt>
      <trkpt lat="48.81026" lon="2.17604">
        <ele>166</ele>
        <time>2016-05-21T08:05:29Z</time>
      </trkpt>
      <trkpt lat="48.81029" lon="2.1761">
        <ele>168</ele>
        <time>2016-05-21T08:05:32Z</time>
      </trkpt>
      <trkpt lat="48.81033" lon="2.17615">
        <ele>167</ele>
        <time>2016-05-21T08:05:37Z</time>
      </trkpt>
      <trkpt lat="48.81035" lon="2.17623">
        <ele>166</ele>
        <time>2016-05-21T08:05:42Z</time>
      </trkpt>
      <trkpt lat="48.81037" lon="2.1763">
        <ele>167</ele>
        <time>2016-05-21T08:05:44Z</time>
      </trkpt>
      <trkpt lat="48.81041" lon="2.17638">
        <ele>166</ele>
        <time>2016-05-21T08:05:47Z</time>
      </trkpt>
      <trkpt lat="48.81046" lon="2.17639">
        <ele>164</ele>
        <time>2016-05-21T08:05:50Z</time>
      </trkpt>
      <trkpt lat="48.81051" lon="2.17636">
        <ele>163</ele>
        <time>2016-05-21T08:05:53Z</time>
      </trkpt>
      <trkpt lat="48.81055" lon="2.17633">
        <ele>161</ele>
        <time>2016-05-21T08:05:56Z</time>
      </trkpt>
      <trkpt lat="48.8106" lon="2.17634">
        <ele>159</ele>
        <time>2016-05-21T08:06:00Z</time>
      </trkpt>
      <trkpt lat="48.81065" lon="2.17636">
        <ele>159</ele>
        <time>2016-05-21T08:06:03Z</time>
      </trkpt>
      <trkpt lat="48.81072" lon="2.17637">
        <ele>157</ele>
        <time>2016-05-21T08:06:06Z</time>
      </trkpt>
      <trkpt lat="48.81078" lon="2.17636">
        <ele>154</ele>
        <time>2016-05-21T08:06:09Z</time>
      </trkpt>
      <trkpt lat="48.81084" lon="2.17634">
        <ele>155</ele>
        <time>2016-05-21T08:06:13Z</time>
      </trkpt>
      <trkpt lat="48.81089" lon="2.1764">
        <ele>153</ele>
        <time>2016-05-21T08:06:18Z</time>
      </trkpt>
      <trkpt lat="48.81094" lon="2.17643">
        <ele>154</ele>
        <time>2016-05-21T08:06:21Z</time>
      </trkpt>
      <trkpt lat="48.81098" lon="2.17643">
        <ele>155</ele>
        <time>2016-05-21T08:06:24Z</time>
      </trkpt>
      <trkpt lat="48.81103" lon="2.17646">
        <ele>166</ele>
        <time>2016-05-21T08:06:31Z</time>
      </trkpt>
      <trkpt lat="48.81107" lon="2.1765">
        <ele>166</ele>
        <time>2016-05-21T08:06:36Z</time>
      </trkpt>
      <trkpt lat="48.81111" lon="2.17653">
        <ele>166</ele>
        <time>2016-05-21T08:06:38Z</time>
      </trkpt>
      <trkpt lat="48.81117" lon="2.17654">
        <ele>168</ele>
        <time>2016-05-21T08:06:42Z</time>
      </trkpt>
      <trkpt lat="48.81121" lon="2.17656">
        <ele>171</ele>
        <time>2016-05-21T08:06:47Z</time>
      </trkpt>
      <trkpt lat="48.81127" lon="2.17659">
        <ele>173</ele>
        <time>2016-05-21T08:06:51Z</time>
      </trkpt>
      <trkpt lat="48.81132" lon="2.1766">
        <ele>172</ele>
        <time>2016-05-21T08:06:55Z</time>
      </trkpt>
      <trkpt lat="48.81137" lon="2.17661">
        <ele>173</ele>
        <time>2016-05-21T08:06:58Z</time>
      </trkpt>
      <trkpt lat="48.81142" lon="2.17664">
        <ele>174</ele>
        <time>2016-05-21T08:07:01Z</time>
      </trkpt>
      <trkpt lat="48.81148" lon="2.17666">
        <ele>174</ele>
        <time>2016-05-21T08:07:04Z</time>
      </trkpt>
      <trkpt lat="48.81154" lon="2.17667">
        <ele>175</ele>
        <time>2016-05-21T08:07:07Z</time>
      </trkpt>
      <trkpt lat="48.81159" lon="2.17664">
        <ele>175</ele>
        <time>2016-05-21T08:07:10Z</time>
      </trkpt>
      <trkpt lat="48.81164" lon="2.1766">
        <ele>175</ele>
        <time>2016-05-21T08:07:14Z</time>
      </trkpt>
      <trkpt lat="48.81164" lon="2.17652">
        <ele>173</ele>
        <time>2016-05-21T08:07:19Z</time>
      </trkpt>
      <trkpt lat="48.81165" lon="2.17645">
        <ele>175</ele>
        <time>2016-05-21T08:07:22Z</time>
      </trkpt>
      <trkpt lat="48.81169" lon="2.17637">
        <ele>174</ele>
        <time>2016-05-21T08:07:24Z</time>
      </trkpt>
      <trkpt lat="48.8117" lon="2.1763">
        <ele>175</ele>
        <time>2016-05-21T08:07:25Z</time>
      </trkpt>
      <trkpt lat="48.81173" lon="2.1762">
        <ele>175</ele>
        <time>2016-05-21T08:07:27Z</time>
      </trkpt>
      <trkpt lat="48.81175" lon="2.17611">
        <ele>176</ele>
        <time>2016-05-21T08:07:30Z</time>
      </trkpt>
      <trkpt lat="48.81178" lon="2.17606">
        <ele>176</ele>
        <time>2016-05-21T08:07:35Z</time>
      </trkpt>
      <trkpt lat="48.8118" lon="2.17598">
        <ele>176</ele>
        <time>2016-05-21T08:07:41Z</time>
      </trkpt>
      <trkpt lat="48.81185" lon="2.17594">
        <ele>176</ele>
        <time>2016-05-21T08:07:45Z</time>
      </trkpt>
      <trkpt lat="48.81191" lon="2.17594">
        <ele>177</ele>
        <time>2016-05-21T08:07:48Z</time>
      </trkpt>
      <trkpt lat="48.81198" lon="2.17594">
        <ele>178</ele>
        <time>2016-05-21T08:07:51Z</time>
      </trkpt>
      <trkpt lat="48.81202" lon="2.17595">
        <ele>178</ele>
        <time>2016-05-21T08:07:54Z</time>
      </trkpt>
      <trkpt lat="48.81207" lon="2.17595">
        <ele>177</ele>
        <time>2016-05-21T08:07:58Z</time>
      </trkpt>
      <trkpt lat="48.81212" lon="2.17596">
        <ele>176</ele>
        <time>2016-05-21T08:08:02Z</time>
      </trkpt>
      <trkpt lat="48.81217" lon="2.17595">
        <ele>177</ele>
        <time>2016-05-21T08:08:06Z</time>
      </trkpt>
      <trkpt lat="48.81222" lon="2.17593">
        <ele>178</ele>
        <time>2016-05-21T08:08:10Z</time>
      </trkpt>
      <trkpt lat="48.81227" lon="2.17592">
        <ele>179</ele>
        <time>2016-05-21T08:08:13Z</time>
      </trkpt>
      <trkpt lat="48.81232" lon="2.17594">
        <ele>176</ele>
        <time>2016-05-21T08:08:18Z</time>
      </trkpt>
      <trkpt lat="48.81237" lon="2.1759">
        <ele>177</ele>
        <time>2016-05-21T08:08:22Z</time>
      </trkpt>
      <trkpt lat="48.81243" lon="2.17588">
        <ele>177</ele>
        <time>2016-05-21T08:08:25Z</time>
      </trkpt>
      <trkpt lat="48.81249" lon="2.17587">
        <ele>173</ele>
        <time>2016-05-21T08:08:28Z</time>
      </trkpt>
      <trkpt lat="48.81254" lon="2.17589">
        <ele>173</ele>
        <time>2016-05-21T08:08:32Z</time>
      </trkpt>
      <trkpt lat="48.8126" lon="2.17592">
        <ele>174</ele>
        <time>2016-05-21T08:08:37Z</time>
      </trkpt>
      <trkpt lat="48.81264" lon="2.17595">
        <ele>174</ele>
        <time>2016-05-21T08:08:40Z</time>
      </trkpt>
      <trkpt lat="48.81269" lon="2.17596">
        <ele>173</ele>
        <time>2016-05-21T08:08:44Z</time>
      </trkpt>
      <trkpt lat="48.81272" lon="2.17601">
        <ele>172</ele>
        <time>2016-05-21T08:08:48Z</time>
      </trkpt>
      <trkpt lat="48.81274" lon="2.17607">
        <ele>171</ele>
        <time>2016-05-21T08:08:51Z</time>
      </trkpt>
      <trkpt lat="48.81278" lon="2.17614">
        <ele>171</ele>
        <time>2016-05-21T08:08:55Z</time>
      </trkpt>
      <trkpt lat="48.81281" lon="2.17618">
        <ele>172</ele>
        <time>2016-05-21T08:08:58Z</time>
      </trkpt>
      <trkpt lat="48.81285" lon="2.17622">
        <ele>172</ele>
        <time>2016-05-21T08:09:01Z</time>
      </trkpt>
      <trkpt lat="48.8129" lon="2.17626">
        <ele>172</ele>
        <time>2016-05-21T08:09:03Z</time>
      </trkpt>
      <trkpt lat="48.81295" lon="2.17632">
        <ele>174</ele>
        <time>2016-05-21T08:09:06Z</time>
      </trkpt>
      <trkpt lat="48.81298" lon="2.17637">
        <ele>175</ele>
        <time>2016-05-21T08:09:09Z</time>
      </trkpt>
      <trkpt lat="48.81304" lon="2.17639">
        <ele>176</ele>
        <time>2016-05-21T08:09:12Z</time>
      </trkpt>
      <trkpt lat="48.81309" lon="2.17642">
        <ele>176</ele>
        <time>2016-05-21T08:09:15Z</time>
      </trkpt>
      <trkpt lat="48.81314" lon="2.17643">
        <ele>175</ele>
        <time>2016-05-21T08:09:18Z</time>
      </trkpt>
      <trkpt lat="48.8132" lon="2.17644">
        <ele>175</ele>
        <time>2016-05-21T08:09:22Z</time>
      </trkpt>
      <trkpt lat="48.81325" lon="2.17646">
        <ele>172</ele>
        <time>2016-05-21T08:09:26Z</time>
      </trkpt>
      <trkpt lat="48.81332" lon="2.17647">
        <ele>168</ele>
        <time>2016-05-21T08:09:30Z</time>
      </trkpt>
      <trkpt lat="48.81337" lon="2.1765">
        <ele>166</ele>
        <time>2016-05-21T08:09:33Z</time>
      </trkpt>
      <trkpt lat="48.81343" lon="2.17651">
        <ele>166</ele>
        <time>2016-05-21T08:09:36Z</time>
      </trkpt>
      <trkpt lat="48.81348" lon="2.17652">
        <ele>164</ele>
        <time>2016-05-21T08:09:39Z</time>
      </trkpt>
      <trkpt lat="48.81353" lon="2.17653">
        <ele>164</ele>
        <time>2016-05-21T08:09:42Z</time>
      </trkpt>
      <trkpt lat="48.81358" lon="2.17653">
        <ele>164</ele>
        <time>2016-05-21T08:09:45Z</time>
      </trkpt>
      <trkpt lat="48.81363" lon="2.17654">
        <ele>164</ele>
        <time>2016-05-21T08:09:49Z</time>
      </trkpt>
      <trkpt lat="48.81368" lon="2.17658">
        <ele>165</ele>
        <time>2016-05-21T08:09:53Z</time>
      </trkpt>
      <trkpt lat="48.81372" lon="2.17664">
        <ele>166</ele>
        <time>2016-05-21T08:09:56Z</time>
      </trkpt>
      <trkpt lat="48.81377" lon="2.17668">
        <ele>167</ele>
        <time>2016-05-21T08:09:59Z</time>
      </trkpt>
      <trkpt lat="48.81382" lon="2.17671">
        <ele>167</ele>
        <time>2016-05-21T08:10:03Z</time>
      </trkpt>
      <trkpt lat="48.81386" lon="2.17675">
        <ele>167</ele>
        <time>2016-05-21T08:10:06Z</time>
      </trkpt>
      <trkpt lat="48.81391" lon="2.17675">
        <ele>168</ele>
        <time>2016-05-21T08:10:09Z</time>
      </trkpt>
      <trkpt lat="48.81397" lon="2.17675">
        <ele>169</ele>
        <time>2016-05-21T08:10:13Z</time>
      </trkpt>
      <trkpt lat="48.81402" lon="2.17681">
        <ele>170</ele>
        <time>2016-05-21T08:10:16Z</time>
      </trkpt>
      <trkpt lat="48.81406" lon="2.17689">
        <ele>169</ele>
        <time>2016-05-21T08:10:19Z</time>
      </trkpt>
      <trkpt lat="48.8141" lon="2.17696">
        <ele>170</ele>
        <time>2016-05-21T08:10:23Z</time>
      </trkpt>
      <trkpt lat="48.81412" lon="2.17704">
        <ele>168</ele>
        <time>2016-05-21T08:10:27Z</time>
      </trkpt>
      <trkpt lat="48.81413" lon="2.17713">
        <ele>166</ele>
        <time>2016-05-21T08:10:30Z</time>
      </trkpt>
      <trkpt lat="48.81413" lon="2.17723">
        <ele>166</ele>
        <time>2016-05-21T08:10:33Z</time>
      </trkpt>
      <trkpt lat="48.8141" lon="2.17729">
        <ele>166</ele>
        <time>2016-05-21T08:10:36Z</time>
      </trkpt>
      <trkpt lat="48.81407" lon="2.17735">
        <ele>168</ele>
        <time>2016-05-21T08:10:40Z</time>
      </trkpt>
      <trkpt lat="48.81408" lon="2.17741">
        <ele>169</ele>
        <time>2016-05-21T08:10:43Z</time>
      </trkpt>
      <trkpt lat="48.81412" lon="2.17747">
        <ele>169</ele>
        <time>2016-05-21T08:10:46Z</time>
      </trkpt>
      <trkpt lat="48.81416" lon="2.17752">
        <ele>169</ele>
        <time>2016-05-21T08:10:50Z</time>
      </trkpt>
      <trkpt lat="48.8142" lon="2.17757">
        <ele>168</ele>
        <time>2016-05-21T08:10:54Z</time>
      </trkpt>
      <trkpt lat="48.81425" lon="2.17761">
        <ele>168</ele>
        <time>2016-05-21T08:10:57Z</time>
      </trkpt>
      <trkpt lat="48.81431" lon="2.17766">
        <ele>170</ele>
        <time>2016-05-21T08:11:00Z</time>
      </trkpt>
      <trkpt lat="48.81435" lon="2.17771">
        <ele>169</ele>
        <time>2016-05-21T08:11:02Z</time>
      </trkpt>
      <trkpt lat="48.81439" lon="2.17776">
        <ele>169</ele>
        <time>2016-05-21T08:11:05Z</time>
      </trkpt>
      <trkpt lat="48.81442" lon="2.17781">
        <ele>170</ele>
        <time>2016-05-21T08:11:08Z</time>
      </trkpt>
      <trkpt lat="48.81446" lon="2.17789">
        <ele>172</ele>
        <time>2016-05-21T08:11:10Z</time>
      </trkpt>
      <trkpt lat="48.81449" lon="2.17795">
        <ele>173</ele>
        <time>2016-05-21T08:11:12Z</time>
      </trkpt>
      <trkpt lat="48.81452" lon="2.17803">
        <ele>172</ele>
        <time>2016-05-21T08:11:15Z</time>
      </trkpt>
      <trkpt lat="48.81456" lon="2.17809">
        <ele>174</ele>
        <time>2016-05-21T08:11:18Z</time>
      </trkpt>
      <trkpt lat="48.81459" lon="2.17814">
        <ele>172</ele>
        <time>2016-05-21T08:11:22Z</time>
      </trkpt>
      <trkpt lat="48.81461" lon="2.17822">
        <ele>173</ele>
        <time>2016-05-21T08:11:27Z</time>
      </trkpt>
      <trkpt lat="48.81464" lon="2.17829">
        <ele>169</ele>
        <time>2016-05-21T08:11:30Z</time>
      </trkpt>
      <trkpt lat="48.81465" lon="2.17836">
        <ele>170</ele>
        <time>2016-05-21T08:11:33Z</time>
      </trkpt>
      <trkpt lat="48.81467" lon="2.17844">
        <ele>169</ele>
        <time>2016-05-21T08:11:37Z</time>
      </trkpt>
      <trkpt lat="48.8147" lon="2.17851">
        <ele>168</ele>
        <time>2016-05-21T08:11:40Z</time>
      </trkpt>
      <trkpt lat="48.81473" lon="2.17857">
        <ele>167</ele>
        <time>2016-05-21T08:11:43Z</time>
      </trkpt>
      <trkpt lat="48.81475" lon="2.17863">
        <ele>167</ele>
        <time>2016-05-21T08:11:47Z</time>
      </trkpt>
      <trkpt lat="48.81477" lon="2.17871">
        <ele>166</ele>
        <time>2016-05-21T08:11:51Z</time>
      </trkpt>
      <trkpt lat="48.81477" lon="2.1788">
        <ele>170</ele>
        <time>2016-05-21T08:11:55Z</time>
      </trkpt>
      <trkpt lat="48.81476" lon="2.17887">
        <ele>169</ele>
        <time>2016-05-21T08:11:58Z</time>
      </trkpt>
      <trkpt lat="48.81478" lon="2.17894">
        <ele>172</ele>
        <time>2016-05-21T08:12:03Z</time>
      </trkpt>
      <trkpt lat="48.81479" lon="2.17902">
        <ele>173</ele>
        <time>2016-05-21T08:12:07Z</time>
      </trkpt>
      <trkpt lat="48.81482" lon="2.17908">
        <ele>173</ele>
        <time>2016-05-21T08:12:10Z</time>
      </trkpt>
      <trkpt lat="48.81486" lon="2.17913">
        <ele>174</ele>
        <time>2016-05-21T08:12:14Z</time>
      </trkpt>
      <trkpt lat="48.81491" lon="2.17917">
        <ele>175</ele>
        <time>2016-05-21T08:12:18Z</time>
      </trkpt>
      <trkpt lat="48.81493" lon="2.17924">
        <ele>174</ele>
        <time>2016-05-21T08:12:24Z</time>
      </trkpt>
      <trkpt lat="48.81494" lon="2.17931">
        <ele>174</ele>
        <time>2016-05-21T08:12:28Z</time>
      </trkpt>
      <trkpt lat="48.81494" lon="2.17939">
        <ele>173</ele>
        <time>2016-05-21T08:12:31Z</time>
      </trkpt>
      <trkpt lat="48.81496" lon="2.17947">
        <ele>172</ele>
        <time>2016-05-21T08:12:34Z</time>
      </trkpt>
      <trkpt lat="48.81499" lon="2.17952">
        <ele>175</ele>
        <time>2016-05-21T08:12:37Z</time>
      </trkpt>
      <trkpt lat="48.81499" lon="2.17959">
        <ele>175</ele>
        <time>2016-05-21T08:12:41Z</time>
      </trkpt>
      <trkpt lat="48.81496" lon="2.17965">
        <ele>176</ele>
        <time>2016-05-21T08:12:44Z</time>
      </trkpt>
      <trkpt lat="48.81497" lon="2.17973">
        <ele>170</ele>
        <time>2016-05-21T08:12:51Z</time>
      </trkpt>
      <trkpt lat="48.81494" lon="2.17979">
        <ele>173</ele>
        <time>2016-05-21T08:12:54Z</time>
      </trkpt>
      <trkpt lat="48.8149" lon="2.17986">
        <ele>174</ele>
        <time>2016-05-21T08:12:58Z</time>
      </trkpt>
      <trkpt lat="48.81488" lon="2.17994">
        <ele>175</ele>
        <time>2016-05-21T08:13:03Z</time>
      </trkpt>
      <trkpt lat="48.81484" lon="2.18002">
        <ele>175</ele>
        <time>2016-05-21T08:13:06Z</time>
      </trkpt>
      <trkpt lat="48.81481" lon="2.18008">
        <ele>175</ele>
        <time>2016-05-21T08:13:08Z</time>
      </trkpt>
      <trkpt lat="48.81479" lon="2.18016">
        <ele>174</ele>
        <time>2016-05-21T08:13:11Z</time>
      </trkpt>
      <trkpt lat="48.81479" lon="2.18023">
        <ele>174</ele>
        <time>2016-05-21T08:13:14Z</time>
      </trkpt>
      <trkpt lat="48.81478" lon="2.1803">
        <ele>175</ele>
        <time>2016-05-21T08:13:18Z</time>
      </trkpt>
      <trkpt lat="48.81475" lon="2.18036">
        <ele>176</ele>
        <time>2016-05-21T08:13:21Z</time>
      </trkpt>
      <trkpt lat="48.81475" lon="2.18044">
        <ele>175</ele>
        <time>2016-05-21T08:13:24Z</time>
      </trkpt>
      <trkpt lat="48.81476" lon="2.18052">
        <ele>175</ele>
        <time>2016-05-21T08:13:27Z</time>
      </trkpt>
      <trkpt lat="48.81476" lon="2.1806">
        <ele>172</ele>
        <time>2016-05-21T08:13:30Z</time>
      </trkpt>
      <trkpt lat="48.81474" lon="2.18067">
        <ele>173</ele>
        <time>2016-05-21T08:13:35Z</time>
      </trkpt>
      <trkpt lat="48.81471" lon="2.18073">
        <ele>173</ele>
        <time>2016-05-21T08:13:38Z</time>
      </trkpt>
      <trkpt lat="48.81471" lon="2.1808">
        <ele>173</ele>
        <time>2016-05-21T08:13:42Z</time>
      </trkpt>
      <trkpt lat="48.81472" lon="2.18089">
        <ele>175</ele>
        <time>2016-05-21T08:13:46Z</time>
      </trkpt>
      <trkpt lat="48.81471" lon="2.18097">
        <ele>174</ele>
        <time>2016-05-21T08:13:49Z</time>
      </trkpt>
      <trkpt lat="48.81471" lon="2.18104">
        <ele>175</ele>
        <time>2016-05-21T08:13:52Z</time>
      </trkpt>
      <trkpt lat="48.81469" lon="2.18112">
        <ele>175</ele>
        <time>2016-05-21T08:13:55Z</time>
      </trkpt>
      <trkpt lat="48.8147" lon="2.1812">
        <ele>174</ele>
        <time>2016-05-21T08:13:58Z</time>
      </trkpt>
      <trkpt lat="48.81471" lon="2.18127">
        <ele>171</ele>
        <time>2016-05-21T08:14:01Z</time>
      </trkpt>
      <trkpt lat="48.81472" lon="2.18133">
        <ele>170</ele>
        <time>2016-05-21T08:14:04Z</time>
      </trkpt>
      <trkpt lat="48.81474" lon="2.1814">
        <ele>172</ele>
        <time>2016-05-21T08:14:07Z</time>
      </trkpt>
      <trkpt lat="48.81477" lon="2.18148">
        <ele>173</ele>
        <time>2016-05-21T08:14:11Z</time>
      </trkpt>
      <trkpt lat="48.81479" lon="2.18154">
        <ele>170</ele>
        <time>2016-05-21T08:14:18Z</time>
      </trkpt>
      <trkpt lat="48.8148" lon="2.18162">
        <ele>168</ele>
        <time>2016-05-21T08:14:24Z</time>
      </trkpt>
      <trkpt lat="48.81479" lon="2.18171">
        <ele>171</ele>
        <time>2016-05-21T08:14:27Z</time>
      </trkpt>
      <trkpt lat="48.8148" lon="2.18178">
        <ele>172</ele>
        <time>2016-05-21T08:14:30Z</time>
      </trkpt>
      <trkpt lat="48.81484" lon="2.18185">
        <ele>167</ele>
        <time>2016-05-21T08:14:34Z</time>
      </trkpt>
      <trkpt lat="48.81488" lon="2.18189">
        <ele>167</ele>
        <time>2016-05-21T08:14:37Z</time>
      </trkpt>
      <trkpt lat="48.8149" lon="2.18195">
        <ele>166</ele>
        <time>2016-05-21T08:14:40Z</time>
      </trkpt>
      <trkpt lat="48.81492" lon="2.18202">
        <ele>164</ele>
        <time>2016-05-21T08:14:44Z</time>
      </trkpt>
      <trkpt lat="48.81496" lon="2.1821">
        <ele>163</ele>
        <time>2016-05-21T08:14:47Z</time>
      </trkpt>
      <trkpt lat="48.815" lon="2.18217">
        <ele>164</ele>
        <time>2016-05-21T08:14:51Z</time>
      </trkpt>
      <trkpt lat="48.81503" lon="2.18224">
        <ele>163</ele>
        <time>2016-05-21T08:14:54Z</time>
      </trkpt>
      <trkpt lat="48.81505" lon="2.18231">
        <ele>165</ele>
        <time>2016-05-21T08:14:57Z</time>
      </trkpt>
      <trkpt lat="48.81508" lon="2.18239">
        <ele>164</ele>
        <time>2016-05-21T08:15:00Z</time>
      </trkpt>
      <trkpt lat="48.81512" lon="2.18245">
        <ele>166</ele>
        <time>2016-05-21T08:15:03Z</time>
      </trkpt>
      <trkpt lat="48.81517" lon="2.1825">
        <ele>166</ele>
        <time>2016-05-21T08:15:06Z</time>
      </trkpt>
      <trkpt lat="48.81522" lon="2.18256">
        <ele>170</ele>
        <time>2016-05-21T08:15:09Z</time>
      </trkpt>
      <trkpt lat="48.81526" lon="2.18261">
        <ele>170</ele>
        <time>2016-05-21T08:15:12Z</time>
      </trkpt>
      <trkpt lat="48.8153" lon="2.18265">
        <ele>172</ele>
        <time>2016-05-21T08:15:14Z</time>
      </trkpt>
      <trkpt lat="48.81534" lon="2.1827">
        <ele>172</ele>
        <time>2016-05-21T08:15:17Z</time>
      </trkpt>
      <trkpt lat="48.81536" lon="2.18276">
        <ele>172</ele>
        <time>2016-05-21T08:15:20Z</time>
      </trkpt>
      <trkpt lat="48.81539" lon="2.18284">
        <ele>172</ele>
        <time>2016-05-21T08:15:23Z</time>
      </trkpt>
      <trkpt lat="48.81542" lon="2.1829">
        <ele>172</ele>
        <time>2016-05-21T08:15:25Z</time>
      </trkpt>
      <trkpt lat="48.81545" lon="2.18295">
        <ele>173</ele>
        <time>2016-05-21T08:15:28Z</time>
      </trkpt>
      <trkpt lat="48.81548" lon="2.18302">
        <ele>175</ele>
        <time>2016-05-21T08:15:32Z</time>
      </trkpt>
      <trkpt lat="48.81547" lon="2.18311">
        <ele>177</ele>
        <time>2016-05-21T08:15:35Z</time>
      </trkpt>
      <trkpt lat="48.81546" lon="2.18319">
        <ele>177</ele>
        <time>2016-05-21T08:15:38Z</time>
      </trkpt>
      <trkpt lat="48.81546" lon="2.18328">
        <ele>176</ele>
        <time>2016-05-21T08:15:41Z</time>
      </trkpt>
      <trkpt lat="48.81546" lon="2.18335">
        <ele>175</ele>
        <time>2016-05-21T08:15:45Z</time>
      </trkpt>
      <trkpt lat="48.81548" lon="2.18342">
        <ele>175</ele>
        <time>2016-05-21T08:15:48Z</time>
      </trkpt>
      <trkpt lat="48.81548" lon="2.1835">
        <ele>176</ele>
        <time>2016-05-21T08:15:52Z</time>
      </trkpt>
      <trkpt lat="48.81547" lon="2.18357">
        <ele>174</ele>
        <time>2016-05-21T08:15:58Z</time>
      </trkpt>
      <trkpt lat="48.8155" lon="2.18364">
        <ele>172</ele>
        <time>2016-05-21T08:16:01Z</time>
      </trkpt>
      <trkpt lat="48.81552" lon="2.18373">
        <ele>170</ele>
        <time>2016-05-21T08:16:04Z</time>
      </trkpt>
      <trkpt lat="48.81552" lon="2.18381">
        <ele>170</ele>
        <time>2016-05-21T08:16:07Z</time>
      </trkpt>
      <trkpt lat="48.81552" lon="2.18389">
        <ele>169</ele>
        <time>2016-05-21T08:16:10Z</time>
      </trkpt>
      <trkpt lat="48.81552" lon="2.18397">
        <ele>170</ele>
        <time>2016-05-21T08:16:13Z</time>
      </trkpt>
      <trkpt lat="48.81551" lon="2.18405">
        <ele>168</ele>
        <time>2016-05-21T08:16:15Z</time>
      </trkpt>
      <trkpt lat="48.81551" lon="2.18412">
        <ele>166</ele>
        <time>2016-05-21T08:16:17Z</time>
      </trkpt>
      <trkpt lat="48.81551" lon="2.1842">
        <ele>166</ele>
        <time>2016-05-21T08:16:20Z</time>
      </trkpt>
      <trkpt lat="48.81553" lon="2.18428">
        <ele>164</ele>
        <time>2016-05-21T08:16:23Z</time>
      </trkpt>
      <trkpt lat="48.81556" lon="2.18434">
        <ele>164</ele>
        <time>2016-05-21T08:16:25Z</time>
      </trkpt>
      <trkpt lat="48.81558" lon="2.18442">
        <ele>162</ele>
        <time>2016-05-21T08:16:28Z</time>
      </trkpt>
      <trkpt lat="48.81557" lon="2.18449">
        <ele>162</ele>
        <time>2016-05-21T08:16:32Z</time>
      </trkpt>
      <trkpt lat="48.81559" lon="2.18456">
        <ele>164</ele>
        <time>2016-05-21T08:16:36Z</time>
      </trkpt>
      <trkpt lat="48.81562" lon="2.18462">
        <ele>163</ele>
        <time>2016-05-21T08:16:39Z</time>
      </trkpt>
      <trkpt lat="48.81565" lon="2.18469">
        <ele>164</ele>
        <time>2016-05-21T08:16:42Z</time>
      </trkpt>
      <trkpt lat="48.81568" lon="2.18474">
        <ele>165</ele>
        <time>2016-05-21T08:16:46Z</time>
      </trkpt>
      <trkpt lat="48.81569" lon="2.18482">
        <ele>165</ele>
        <time>2016-05-21T08:16:51Z</time>
      </trkpt>
      <trkpt lat="48.81572" lon="2.1849">
        <ele>164</ele>
        <time>2016-05-21T08:16:55Z</time>
      </trkpt>
      <trkpt lat="48.81576" lon="2.18496">
        <ele>164</ele>
        <time>2016-05-21T08:16:58Z</time>
      </trkpt>
      <trkpt lat="48.81581" lon="2.18502">
        <ele>163</ele>
        <time>2016-05-21T08:17:01Z</time>
      </trkpt>
      <trkpt lat="48.81585" lon="2.18507">
        <ele>162</ele>
        <time>2016-05-21T08:17:04Z</time>
      </trkpt>
      <trkpt lat="48.8159" lon="2.18509">
        <ele>162</ele>
        <time>2016-05-21T08:17:08Z</time>
      </trkpt>
      <trkpt lat="48.81596" lon="2.18511">
        <ele>163</ele>
        <time>2016-05-21T08:17:11Z</time>
      </trkpt>
      <trkpt lat="48.81601" lon="2.18514">
        <ele>163</ele>
        <time>2016-05-21T08:17:14Z</time>
      </trkpt>
      <trkpt lat="48.81607" lon="2.18514">
        <ele>163</ele>
        <time>2016-05-21T08:17:17Z</time>
      </trkpt>
      <trkpt lat="48.81611" lon="2.18518">
        <ele>161</ele>
        <time>2016-05-21T08:17:21Z</time>
      </trkpt>
      <trkpt lat="48.81616" lon="2.18524">
        <ele>163</ele>
        <time>2016-05-21T08:17:24Z</time>
      </trkpt>
      <trkpt lat="48.8162" lon="2.18529">
        <ele>165</ele>
        <time>2016-05-21T08:17:26Z</time>
      </trkpt>
      <trkpt lat="48.81623" lon="2.18538">
        <ele>165</ele>
        <time>2016-05-21T08:17:29Z</time>
      </trkpt>
      <trkpt lat="48.81623" lon="2.18545">
        <ele>167</ele>
        <time>2016-05-21T08:17:31Z</time>
      </trkpt>
      <trkpt lat="48.81623" lon="2.18552">
        <ele>169</ele>
        <time>2016-05-21T08:17:35Z</time>
      </trkpt>
      <trkpt lat="48.81629" lon="2.18554">
        <ele>169</ele>
        <time>2016-05-21T08:17:39Z</time>
      </trkpt>
      <trkpt lat="48.81635" lon="2.18552">
        <ele>169</ele>
        <time>2016-05-21T08:17:41Z</time>
      </trkpt>
      <trkpt lat="48.81641" lon="2.18552">
        <ele>170</ele>
        <time>2016-05-21T08:17:44Z</time>
      </trkpt>
      <trkpt lat="48.81646" lon="2.18556">
        <ele>169</ele>
        <time>2016-05-21T08:17:48Z</time>
      </trkpt>
      <trkpt lat="48.81651" lon="2.18559">
        <ele>168</ele>
        <time>2016-05-21T08:17:52Z</time>
      </trkpt>
      <trkpt lat="48.81656" lon="2.18561">
        <ele>167</ele>
        <time>2016-05-21T08:17:57Z</time>
      </trkpt>
      <trkpt lat="48.81661" lon="2.18563">
        <ele>168</ele>
        <time>2016-05-21T08:18:03Z</time>
      </trkpt>
      <trkpt lat="48.81665" lon="2.18566">
        <ele>169</ele>
        <time>2016-05-21T08:18:07Z</time>
      </trkpt>
      <trkpt lat="48.8167" lon="2.1857">
        <ele>170</ele>
        <time>2016-05-21T08:18:10Z</time>
      </trkpt>
      <trkpt lat="48.81675" lon="2.18574">
        <ele>170</ele>
        <time>2016-05-21T08:18:13Z</time>
      </trkpt>
      <trkpt lat="48.8168" lon="2.18578">
        <ele>170</ele>
        <time>2016-05-21T08:18:16Z</time>
      </trkpt>
      <trkpt lat="48.81685" lon="2.18579">
        <ele>166</ele>
        <time>2016-05-21T08:18:19Z</time>
      </trkpt>
      <trkpt lat="48.81691" lon="2.18583">
        <ele>166</ele>
        <time>2016-05-21T08:18:22Z</time>
      </trkpt>
      <trkpt lat="48.81695" lon="2.18588">
        <ele>165</ele>
        <time>2016-05-21T08:18:25Z</time>
      </trkpt>
      <trkpt lat="48.81699" lon="2.18593">
        <ele>166</ele>
        <time>2016-05-21T08:18:29Z</time>
      </trkpt>
      <trkpt lat="48.81703" lon="2.18598">
        <ele>165</ele>
        <time>2016-05-21T08:18:32Z</time>
      </trkpt>
      <trkpt lat="48.81707" lon="2.18603">
        <ele>165</ele>
        <time>2016-05-21T08:18:35Z</time>
      </trkpt>
      <trkpt lat="48.81711" lon="2.1861">
        <ele>165</ele>
        <time>2016-05-21T08:18:39Z</time>
      </trkpt>
      <trkpt lat="48.81713" lon="2.18617">
        <ele>163</ele>
        <time>2016-05-21T08:18:43Z</time>
      </trkpt>
      <trkpt lat="48.81716" lon="2.18624">
        <ele>163</ele>
        <time>2016-05-21T08:18:47Z</time>
      </trkpt>
      <trkpt lat="48.8172" lon="2.18628">
        <ele>162</ele>
        <time>2016-05-21T08:18:50Z</time>
      </trkpt>
      <trkpt lat="48.81725" lon="2.18633">
        <ele>162</ele>
        <time>2016-05-21T08:18:53Z</time>
      </trkpt>
      <trkpt lat="48.81729" lon="2.18638">
        <ele>163</ele>
        <time>2016-05-21T08:18:56Z</time>
      </trkpt>
      <trkpt lat="48.81734" lon="2.18643">
        <ele>163</ele>
        <time>2016-05-21T08:18:59Z</time>
      </trkpt>
      <trkpt lat="48.81738" lon="2.18648">
        <ele>161</ele>
        <time>2016-05-21T08:19:02Z</time>
      </trkpt>
      <trkpt lat="48.81742" lon="2.18653">
        <ele>160</ele>
        <time>2016-05-21T08:19:05Z</time>
      </trkpt>
      <trkpt lat="48.81745" lon="2.18659">
        <ele>160</ele>
        <time>2016-05-21T08:19:09Z</time>
      </trkpt>
      <trkpt lat="48.81748" lon="2.18666">
        <ele>160</ele>
        <time>2016-05-21T08:19:13Z</time>
      </trkpt>
      <trkpt lat="48.81752" lon="2.18672">
        <ele>161</ele>
        <time>2016-05-21T08:19:16Z</time>
      </trkpt>
      <trkpt lat="48.81756" lon="2.18678">
        <ele>161</ele>
        <time>2016-05-21T08:19:19Z</time>
      </trkpt>
      <trkpt lat="48.8176" lon="2.18681">
        <ele>161</ele>
        <time>2016-05-21T08:19:22Z</time>
      </trkpt>
      <trkpt lat="48.81765" lon="2.18685">
        <ele>159</ele>
        <time>2016-05-21T08:19:25Z</time>
      </trkpt>
      <trkpt lat="48.8177" lon="2.18688">
        <ele>159</ele>
        <time>2016-05-21T08:19:27Z</time>
      </trkpt>
      <trkpt lat="48.81774" lon="2.18693">
        <ele>157</ele>
        <time>2016-05-21T08:19:30Z</time>
      </trkpt>
      <trkpt lat="48.81777" lon="2.187">
        <ele>157</ele>
        <time>2016-05-21T08:19:34Z</time>
      </trkpt>
      <trkpt lat="48.81779" lon="2.18708">
        <ele>159</ele>
        <time>2016-05-21T08:19:37Z</time>
      </trkpt>
      <trkpt lat="48.81782" lon="2.18714">
        <ele>159</ele>
        <time>2016-05-21T08:19:41Z</time>
      </trkpt>
      <trkpt lat="48.81783" lon="2.18722">
        <ele>156</ele>
        <time>2016-05-21T08:19:46Z</time>
      </trkpt>
      <trkpt lat="48.81783" lon="2.1873">
        <ele>156</ele>
        <time>2016-05-21T08:19:49Z</time>
      </trkpt>
      <trkpt lat="48.8178" lon="2.18737">
        <ele>155</ele>
        <time>2016-05-21T08:19:52Z</time>
      </trkpt>
      <trkpt lat="48.81778" lon="2.18744">
        <ele>155</ele>
        <time>2016-05-21T08:19:56Z</time>
      </trkpt>
      <trkpt lat="48.81776" lon="2.18753">
        <ele>156</ele>
        <time>2016-05-21T08:20:00Z</time>
      </trkpt>
      <trkpt lat="48.81773" lon="2.18763">
        <ele>157</ele>
        <time>2016-05-21T08:20:03Z</time>
      </trkpt>
      <trkpt lat="48.81772" lon="2.18771">
        <ele>154</ele>
        <time>2016-05-21T08:20:06Z</time>
      </trkpt>
      <trkpt lat="48.8177" lon="2.18779">
        <ele>153</ele>
        <time>2016-05-21T08:20:11Z</time>
      </trkpt>
      <trkpt lat="48.81772" lon="2.18786">
        <ele>154</ele>
        <time>2016-05-21T08:20:14Z</time>
      </trkpt>
      <trkpt lat="48.81774" lon="2.18792">
        <ele>155</ele>
        <time>2016-05-21T08:20:17Z</time>
      </trkpt>
      <trkpt lat="48.81777" lon="2.18798">
        <ele>154</ele>
        <time>2016-05-21T08:20:20Z</time>
      </trkpt>
      <trkpt lat="48.8178" lon="2.18805">
        <ele>155</ele>
        <time>2016-05-21T08:20:23Z</time>
      </trkpt>
      <trkpt lat="48.81783" lon="2.18813">
        <ele>155</ele>
        <time>2016-05-21T08:20:26Z</time>
      </trkpt>
      <trkpt lat="48.81784" lon="2.1882">
        <ele>153</ele>
        <time>2016-05-21T08:20:29Z</time>
      </trkpt>
      <trkpt lat="48.81788" lon="2.18825">
        <ele>154</ele>
        <time>2016-05-21T08:20:32Z</time>
      </trkpt>
      <trkpt lat="48.81792" lon="2.18831">
        <ele>154</ele>
        <time>2016-05-21T08:20:35Z</time>
      </trkpt>
      <trkpt lat="48.81795" lon="2.18837">
        <ele>156</ele>
        <time>2016-05-21T08:20:38Z</time>
      </trkpt>
      <trkpt lat="48.81798" lon="2.18844">
        <ele>155</ele>
        <time>2016-05-21T08:20:41Z</time>
      </trkpt>
      <trkpt lat="48.818" lon="2.18851">
        <ele>151</ele>
        <time>2016-05-21T08:20:45Z</time>
      </trkpt>
      <trkpt lat="48.81803" lon="2.18857">
        <ele>153</ele>
        <time>2016-05-21T08:20:48Z</time>
      </trkpt>
      <trkpt lat="48.81807" lon="2.18862">
        <ele>154</ele>
        <time>2016-05-21T08:20:51Z</time>
      </trkpt>
      <trkpt lat="48.81811" lon="2.18867">
        <ele>155</ele>
        <time>2016-05-21T08:20:53Z</time>
      </trkpt>
      <trkpt lat="48.81814" lon="2.18873">
        <ele>155</ele>
        <time>2016-05-21T08:20:56Z</time>
      </trkpt>
      <trkpt lat="48.81815" lon="2.18881">
        <ele>154</ele>
        <time>2016-05-21T08:20:59Z</time>
      </trkpt>
      <trkpt lat="48.81816" lon="2.18889">
        <ele>152</ele>
        <time>2016-05-21T08:21:03Z</time>
      </trkpt>
      <trkpt lat="48.81821" lon="2.18892">
        <ele>152</ele>
        <time>2016-05-21T08:21:06Z</time>
      </trkpt>
      <trkpt lat="48.81823" lon="2.18899">
        <ele>154</ele>
        <time>2016-05-21T08:21:11Z</time>
      </trkpt>
      <trkpt lat="48.81825" lon="2.18905">
        <ele>154</ele>
        <time>2016-05-21T08:21:14Z</time>
      </trkpt>
      <trkpt lat="48.81826" lon="2.18912">
        <ele>154</ele>
        <time>2016-05-21T08:21:17Z</time>
      </trkpt>
      <trkpt lat="48.81829" lon="2.18919">
        <ele>153</ele>
        <time>2016-05-21T08:21:21Z</time>
      </trkpt>
      <trkpt lat="48.81833" lon="2.18925">
        <ele>153</ele>
        <time>2016-05-21T08:21:24Z</time>
      </trkpt>
      <trkpt lat="48.81838" lon="2.18929">
        <ele>152</ele>
        <time>2016-05-21T08:21:27Z</time>
      </trkpt>
      <trkpt lat="48.81842" lon="2.18933">
        <ele>153</ele>
        <time>2016-05-21T08:21:31Z</time>
      </trkpt>
      <trkpt lat="48.81846" lon="2.18937">
        <ele>151</ele>
        <time>2016-05-21T08:21:34Z</time>
      </trkpt>
      <trkpt lat="48.8185" lon="2.18941">
        <ele>150</ele>
        <time>2016-05-21T08:21:37Z</time>
      </trkpt>
      <trkpt lat="48.81854" lon="2.18946">
        <ele>151</ele>
        <time>2016-05-21T08:21:40Z</time>
      </trkpt>
      <trkpt lat="48.81859" lon="2.1895">
        <ele>150</ele>
        <time>2016-05-21T08:21:43Z</time>
      </trkpt>
      <trkpt lat="48.81864" lon="2.18955">
        <ele>152</ele>
        <time>2016-05-21T08:21:46Z</time>
      </trkpt>
      <trkpt lat="48.8187" lon="2.18959">
        <ele>150</ele>
        <time>2016-05-21T08:21:49Z</time>
      </trkpt>
      <trkpt lat="48.81877" lon="2.18961">
        <ele>150</ele>
        <time>2016-05-21T08:21:52Z</time>
      </trkpt>
      <trkpt lat="48.81881" lon="2.18963">
        <ele>150</ele>
        <time>2016-05-21T08:21:54Z</time>
      </trkpt>
      <trkpt lat="48.81886" lon="2.18968">
        <ele>150</ele>
        <time>2016-05-21T08:21:57Z</time>
      </trkpt>
      <trkpt lat="48.8189" lon="2.18973">
        <ele>151</ele>
        <time>2016-05-21T08:22:00Z</time>
      </trkpt>
      <trkpt lat="48.81893" lon="2.18979">
        <ele>151</ele>
        <time>2016-05-21T08:22:03Z</time>
      </trkpt>
      <trkpt lat="48.81897" lon="2.18985">
        <ele>150</ele>
        <time>2016-05-21T08:22:07Z</time>
      </trkpt>
      <trkpt lat="48.81902" lon="2.18989">
        <ele>150</ele>
        <time>2016-05-21T08:22:11Z</time>
      </trkpt>
      <trkpt lat="48.81906" lon="2.18996">
        <ele>151</ele>
        <time>2016-05-21T08:22:14Z</time>
      </trkpt>
      <trkpt lat="48.81911" lon="2.19002">
        <ele>152</ele>
        <time>2016-05-21T08:22:17Z</time>
      </trkpt>
      <trkpt lat="48.81915" lon="2.19008">
        <ele>151</ele>
        <time>2016-05-21T08:22:20Z</time>
      </trkpt>
      <trkpt lat="48.8192" lon="2.19014">
        <ele>151</ele>
        <time>2016-05-21T08:22:23Z</time>
      </trkpt>
      <trkpt lat="48.81923" lon="2.19022">
        <ele>150</ele>
        <time>2016-05-21T08:22:26Z</time>
      </trkpt>
      <trkpt lat="48.81926" lon="2.19029">
        <ele>150</ele>
        <time>2016-05-21T08:22:29Z</time>
      </trkpt>
      <trkpt lat="48.81929" lon="2.19036">
        <ele>149</ele>
        <time>2016-05-21T08:22:32Z</time>
      </trkpt>
      <trkpt lat="48.81932" lon="2.19044">
        <ele>150</ele>
        <time>2016-05-21T08:22:35Z</time>
      </trkpt>
      <trkpt lat="48.81934" lon="2.1905">
        <ele>151</ele>
        <time>2016-05-21T08:22:38Z</time>
      </trkpt>
      <trkpt lat="48.81937" lon="2.19057">
        <ele>152</ele>
        <time>2016-05-21T08:22:42Z</time>
      </trkpt>
      <trkpt lat="48.8194" lon="2.19062">
        <ele>152</ele>
        <time>2016-05-21T08:22:48Z</time>
      </trkpt>
      <trkpt lat="48.81944" lon="2.19068">
        <ele>153</ele>
        <time>2016-05-21T08:22:51Z</time>
      </trkpt>
      <trkpt lat="48.81948" lon="2.19075">
        <ele>152</ele>
        <time>2016-05-21T08:22:54Z</time>
      </trkpt>
      <trkpt lat="48.81953" lon="2.1908">
        <ele>152</ele>
        <time>2016-05-21T08:22:58Z</time>
      </trkpt>
      <trkpt lat="48.81957" lon="2.19084">
        <ele>152</ele>
        <time>2016-05-21T08:23:01Z</time>
      </trkpt>
      <trkpt lat="48.8196" lon="2.1909">
        <ele>154</ele>
        <time>2016-05-21T08:23:04Z</time>
      </trkpt>
      <trkpt lat="48.81964" lon="2.19094">
        <ele>153</ele>
        <time>2016-05-21T08:23:07Z</time>
      </trkpt>
      <trkpt lat="48.8197" lon="2.19098">
        <ele>153</ele>
        <time>2016-05-21T08:23:10Z</time>
      </trkpt>
      <trkpt lat="48.81974" lon="2.19101">
        <ele>154</ele>
        <time>2016-05-21T08:23:12Z</time>
      </trkpt>
      <trkpt lat="48.8198" lon="2.19106">
        <ele>155</ele>
        <time>2016-05-21T08:23:15Z</time>
      </trkpt>
      <trkpt lat="48.81983" lon="2.19112">
        <ele>155</ele>
        <time>2016-05-21T08:23:18Z</time>
      </trkpt>
      <trkpt lat="48.81986" lon="2.19118">
        <ele>156</ele>
        <time>2016-05-21T08:23:21Z</time>
      </trkpt>
      <trkpt lat="48.81989" lon="2.19124">
        <ele>156</ele>
        <time>2016-05-21T08:23:24Z</time>
      </trkpt>
      <trkpt lat="48.81992" lon="2.1913">
        <ele>155</ele>
        <time>2016-05-21T08:23:28Z</time>
      </trkpt>
      <trkpt lat="48.81995" lon="2.19136">
        <ele>154</ele>
        <time>2016-05-21T08:23:31Z</time>
      </trkpt>
      <trkpt lat="48.82" lon="2.1914">
        <ele>152</ele>
        <time>2016-05-21T08:23:35Z</time>
      </trkpt>
      <trkpt lat="48.82004" lon="2.19142">
        <ele>151</ele>
        <time>2016-05-21T08:23:37Z</time>
      </trkpt>
      <trkpt lat="48.82009" lon="2.19147">
        <ele>150</ele>
        <time>2016-05-21T08:23:39Z</time>
      </trkpt>
      <trkpt lat="48.82015" lon="2.19152">
        <ele>149</ele>
        <time>2016-05-21T08:23:41Z</time>
      </trkpt>
      <trkpt lat="48.82019" lon="2.19156">
        <ele>148</ele>
        <time>2016-05-21T08:23:43Z</time>
      </trkpt>
      <trkpt lat="48.82025" lon="2.19159">
        <ele>147</ele>
        <time>2016-05-21T08:23:46Z</time>
      </trkpt>
      <trkpt lat="48.82029" lon="2.19165">
        <ele>148</ele>
        <time>2016-05-21T08:23:50Z</time>
      </trkpt>
      <trkpt lat="48.8203" lon="2.19174">
        <ele>151</ele>
        <time>2016-05-21T08:23:55Z</time>
      </trkpt>
      <trkpt lat="48.82034" lon="2.19181">
        <ele>154</ele>
        <time>2016-05-21T08:23:58Z</time>
      </trkpt>
      <trkpt lat="48.82038" lon="2.19185">
        <ele>155</ele>
        <time>2016-05-21T08:24:01Z</time>
      </trkpt>
      <trkpt lat="48.82042" lon="2.1919">
        <ele>155</ele>
        <time>2016-05-21T08:24:05Z</time>
      </trkpt>
      <trkpt lat="48.82045" lon="2.19197">
        <ele>155</ele>
        <time>2016-05-21T08:24:09Z</time>
      </trkpt>
      <trkpt lat="48.82049" lon="2.19202">
        <ele>153</ele>
        <time>2016-05-21T08:24:13Z</time>
      </trkpt>
      <trkpt lat="48.82055" lon="2.19201">
        <ele>151</ele>
        <time>2016-05-21T08:24:17Z</time>
      </trkpt>
      <trkpt lat="48.82059" lon="2.19198">
        <ele>151</ele>
        <time>2016-05-21T08:24:20Z</time>
      </trkpt>
      <trkpt lat="48.8206" lon="2.19189">
        <ele>150</ele>
        <time>2016-05-21T08:24:25Z</time>
      </trkpt>
      <trkpt lat="48.82059" lon="2.19183">
        <ele>148</ele>
        <time>2016-05-21T08:24:29Z</time>
      </trkpt>
      <trkpt lat="48.8206" lon="2.19175">
        <ele>146</ele>
        <time>2016-05-21T08:24:33Z</time>
      </trkpt>
      <trkpt lat="48.82062" lon="2.19167">
        <ele>147</ele>
        <time>2016-05-21T08:24:36Z</time>
      </trkpt>
      <trkpt lat="48.8206" lon="2.1916">
        <ele>144</ele>
        <time>2016-05-21T08:24:38Z</time>
      </trkpt>
      <trkpt lat="48.82058" lon="2.19152">
        <ele>144</ele>
        <time>2016-05-21T08:24:42Z</time>
      </trkpt>
      <trkpt lat="48.82057" lon="2.19145">
        <ele>145</ele>
        <time>2016-05-21T08:24:46Z</time>
      </trkpt>
      <trkpt lat="48.82057" lon="2.19138">
        <ele>146</ele>
        <time>2016-05-21T08:24:49Z</time>
      </trkpt>
      <trkpt lat="48.82058" lon="2.1913">
        <ele>145</ele>
        <time>2016-05-21T08:24:52Z</time>
      </trkpt>
      <trkpt lat="48.82059" lon="2.19124">
        <ele>144</ele>
        <time>2016-05-21T08:24:56Z</time>
      </trkpt>
      <trkpt lat="48.82058" lon="2.19116">
        <ele>142</ele>
        <time>2016-05-21T08:24:59Z</time>
      </trkpt>
      <trkpt lat="48.82056" lon="2.19107">
        <ele>140</ele>
        <time>2016-05-21T08:25:02Z</time>
      </trkpt>
      <trkpt lat="48.82053" lon="2.191">
        <ele>140</ele>
        <time>2016-05-21T08:25:06Z</time>
      </trkpt>
      <trkpt lat="48.82052" lon="2.19093">
        <ele>141</ele>
        <time>2016-05-21T08:25:09Z</time>
      </trkpt>
      <trkpt lat="48.82052" lon="2.19082">
        <ele>141</ele>
        <time>2016-05-21T08:25:12Z</time>
      </trkpt>
      <trkpt lat="48.82053" lon="2.19074">
        <ele>140</ele>
        <time>2016-05-21T08:25:14Z</time>
      </trkpt>
      <trkpt lat="48.82054" lon="2.19065">
        <ele>140</ele>
        <time>2016-05-21T08:25:17Z</time>
      </trkpt>
      <trkpt lat="48.82055" lon="2.19055">
        <ele>141</ele>
        <time>2016-05-21T08:25:20Z</time>
      </trkpt>
      <trkpt lat="48.82055" lon="2.19048">
        <ele>143</ele>
        <time>2016-05-21T08:25:23Z</time>
      </trkpt>
      <trkpt lat="48.82056" lon="2.19039">
        <ele>146</ele>
        <time>2016-05-21T08:25:27Z</time>
      </trkpt>
      <trkpt lat="48.82056" lon="2.19031">
        <ele>147</ele>
        <time>2016-05-21T08:25:30Z</time>
      </trkpt>
      <trkpt lat="48.82055" lon="2.19023">
        <ele>148</ele>
        <time>2016-05-21T08:25:32Z</time>
      </trkpt>
      <trkpt lat="48.82055" lon="2.19016">
        <ele>147</ele>
        <time>2016-05-21T08:25:34Z</time>
      </trkpt>
      <trkpt lat="48.82054" lon="2.19008">
        <ele>147</ele>
        <time>2016-05-21T08:25:37Z</time>
      </trkpt>
      <trkpt lat="48.82054" lon="2.18998">
        <ele>149</ele>
        <time>2016-05-21T08:25:40Z</time>
      </trkpt>
      <trkpt lat="48.82054" lon="2.18989">
        <ele>149</ele>
        <time>2016-05-21T08:25:43Z</time>
      </trkpt>
      <trkpt lat="48.82052" lon="2.1898">
        <ele>149</ele>
        <time>2016-05-21T08:25:46Z</time>
      </trkpt>
      <trkpt lat="48.82052" lon="2.18972">
        <ele>147</ele>
        <time>2016-05-21T08:25:49Z</time>
      </trkpt>
      <trkpt lat="48.82052" lon="2.18965">
        <ele>146</ele>
        <time>2016-05-21T08:25:53Z</time>
      </trkpt>
      <trkpt lat="48.82051" lon="2.18958">
        <ele>143</ele>
        <time>2016-05-21T08:25:57Z</time>
      </trkpt>
      <trkpt lat="48.8205" lon="2.18951">
        <ele>139</ele>
        <time>2016-05-21T08:26:01Z</time>
      </trkpt>
      <trkpt lat="48.82049" lon="2.18943">
        <ele>137</ele>
        <time>2016-05-21T08:26:04Z</time>
      </trkpt>
      <trkpt lat="48.82048" lon="2.18934">
        <ele>135</ele>
        <time>2016-05-21T08:26:07Z</time>
      </trkpt>
      <trkpt lat="48.82048" lon="2.18926">
        <ele>135</ele>
        <time>2016-05-21T08:26:13Z</time>
      </trkpt>
      <trkpt lat="48.82049" lon="2.18917">
        <ele>132</ele>
        <time>2016-05-21T08:26:18Z</time>
      </trkpt>
      <trkpt lat="48.82048" lon="2.1891">
        <ele>132</ele>
        <time>2016-05-21T08:26:22Z</time>
      </trkpt>
      <trkpt lat="48.82047" lon="2.18901">
        <ele>132</ele>
        <time>2016-05-21T08:26:25Z</time>
      </trkpt>
      <trkpt lat="48.82047" lon="2.18892">
        <ele>131</ele>
        <time>2016-05-21T08:26:28Z</time>
      </trkpt>
      <trkpt lat="48.82048" lon="2.18886">
        <ele>133</ele>
        <time>2016-05-21T08:26:30Z</time>
      </trkpt>
      <trkpt lat="48.82049" lon="2.18879">
        <ele>134</ele>
        <time>2016-05-21T08:26:32Z</time>
      </trkpt>
      <trkpt lat="48.82049" lon="2.18871">
        <ele>134</ele>
        <time>2016-05-21T08:26:35Z</time>
      </trkpt>
      <trkpt lat="48.8205" lon="2.18864">
        <ele>133</ele>
        <time>2016-05-21T08:26:39Z</time>
      </trkpt>
      <trkpt lat="48.82052" lon="2.18857">
        <ele>135</ele>
        <time>2016-05-21T08:26:42Z</time>
      </trkpt>
      <trkpt lat="48.82054" lon="2.18849">
        <ele>135</ele>
        <time>2016-05-21T08:26:46Z</time>
      </trkpt>
      <trkpt lat="48.82056" lon="2.18841">
        <ele>134</ele>
        <time>2016-05-21T08:26:52Z</time>
      </trkpt>
      <trkpt lat="48.82058" lon="2.18835">
        <ele>136</ele>
        <time>2016-05-21T08:26:55Z</time>
      </trkpt>
      <trkpt lat="48.82058" lon="2.18827">
        <ele>135</ele>
        <time>2016-05-21T08:26:59Z</time>
      </trkpt>
      <trkpt lat="48.82058" lon="2.18819">
        <ele>135</ele>
        <time>2016-05-21T08:27:02Z</time>
      </trkpt>
      <trkpt lat="48.82056" lon="2.18809">
        <ele>136</ele>
        <time>2016-05-21T08:27:05Z</time>
      </trkpt>
      <trkpt lat="48.82056" lon="2.18802">
        <ele>135</ele>
        <time>2016-05-21T08:27:07Z</time>
      </trkpt>
      <trkpt lat="48.82056" lon="2.18794">
        <ele>133</ele>
        <time>2016-05-21T08:27:10Z</time>
      </trkpt>
      <trkpt lat="48.82053" lon="2.18785">
        <ele>126</ele>
        <time>2016-05-21T08:27:13Z</time>
      </trkpt>
      <trkpt lat="48.8205" lon="2.1878">
        <ele>125</ele>
        <time>2016-05-21T08:27:15Z</time>
      </trkpt>
      <trkpt lat="48.82046" lon="2.18773">
        <ele>125</ele>
        <time>2016-05-21T08:27:18Z</time>
      </trkpt>
      <trkpt lat="48.82045" lon="2.18766">
        <ele>125</ele>
        <time>2016-05-21T08:27:21Z</time>
      </trkpt>
      <trkpt lat="48.82045" lon="2.18759">
        <ele>127</ele>
        <time>2016-05-21T08:27:24Z</time>
      </trkpt>
      <trkpt lat="48.82047" lon="2.18752">
        <ele>127</ele>
        <time>2016-05-21T08:27:27Z</time>
      </trkpt>
      <trkpt lat="48.82047" lon="2.18744">
        <ele>127</ele>
        <time>2016-05-21T08:27:30Z</time>
      </trkpt>
      <trkpt lat="48.8205" lon="2.18739">
        <ele>125</ele>
        <time>2016-05-21T08:27:32Z</time>
      </trkpt>
      <trkpt lat="48.82052" lon="2.18732">
        <ele>126</ele>
        <time>2016-05-21T08:27:35Z</time>
      </trkpt>
      <trkpt lat="48.82053" lon="2.18725">
        <ele>128</ele>
        <time>2016-05-21T08:27:38Z</time>
      </trkpt>
      <trkpt lat="48.82056" lon="2.18718">
        <ele>126</ele>
        <time>2016-05-21T08:27:43Z</time>
      </trkpt>
      <trkpt lat="48.82057" lon="2.18712">
        <ele>127</ele>
        <time>2016-05-21T08:27:47Z</time>
      </trkpt>
      <trkpt lat="48.82056" lon="2.18704">
        <ele>127</ele>
        <time>2016-05-21T08:27:53Z</time>
      </trkpt>
      <trkpt lat="48.82056" lon="2.18696">
        <ele>127</ele>
        <time>2016-05-21T08:27:58Z</time>
      </trkpt>
      <trkpt lat="48.82054" lon="2.18689">
        <ele>126</ele>
        <time>2016-05-21T08:28:01Z</time>
      </trkpt>
      <trkpt lat="48.82053" lon="2.18682">
        <ele>125</ele>
        <time>2016-05-21T08:28:06Z</time>
      </trkpt>
      <trkpt lat="48.82052" lon="2.18676">
        <ele>124</ele>
        <time>2016-05-21T08:28:11Z</time>
      </trkpt>
      <trkpt lat="48.82051" lon="2.18669">
        <ele>123</ele>
        <time>2016-05-21T08:28:14Z</time>
      </trkpt>
      <trkpt lat="48.8205" lon="2.18661">
        <ele>125</ele>
        <time>2016-05-21T08:28:16Z</time>
      </trkpt>
      <trkpt lat="48.82049" lon="2.18653">
        <ele>127</ele>
        <time>2016-05-21T08:28:19Z</time>
      </trkpt>
      <trkpt lat="48.82048" lon="2.18641">
        <ele>124</ele>
        <time>2016-05-21T08:28:22Z</time>
      </trkpt>
      <trkpt lat="48.82048" lon="2.18633">
        <ele>122</ele>
        <time>2016-05-21T08:28:25Z</time>
      </trkpt>
      <trkpt lat="48.82049" lon="2.18626">
        <ele>121</ele>
        <time>2016-05-21T08:28:28Z</time>
      </trkpt>
      <trkpt lat="48.82049" lon="2.18618">
        <ele>121</ele>
        <time>2016-05-21T08:28:32Z</time>
      </trkpt>
      <trkpt lat="48.82047" lon="2.1861">
        <ele>121</ele>
        <time>2016-05-21T08:28:37Z</time>
      </trkpt>
      <trkpt lat="48.82047" lon="2.18602">
        <ele>122</ele>
        <time>2016-05-21T08:28:40Z</time>
      </trkpt>
      <trkpt lat="48.82046" lon="2.18594">
        <ele>121</ele>
        <time>2016-05-21T08:28:43Z</time>
      </trkpt>
      <trkpt lat="48.82044" lon="2.18586">
        <ele>120</ele>
        <time>2016-05-21T08:28:46Z</time>
      </trkpt>
      <trkpt lat="48.82043" lon="2.18578">
        <ele>120</ele>
        <time>2016-05-21T08:28:49Z</time>
      </trkpt>
      <trkpt lat="48.82042" lon="2.18568">
        <ele>121</ele>
        <time>2016-05-21T08:28:52Z</time>
      </trkpt>
      <trkpt lat="48.82042" lon="2.18561">
        <ele>121</ele>
        <time>2016-05-21T08:28:55Z</time>
      </trkpt>
      <trkpt lat="48.82043" lon="2.18554">
        <ele>121</ele>
        <time>2016-05-21T08:28:58Z</time>
      </trkpt>
      <trkpt lat="48.82042" lon="2.18547">
        <ele>121</ele>
        <time>2016-05-21T08:29:02Z</time>
      </trkpt>
      <trkpt lat="48.8204" lon="2.18539">
        <ele>118</ele>
        <time>2016-05-21T08:29:05Z</time>
      </trkpt>
      <trkpt lat="48.8204" lon="2.18531">
        <ele>118</ele>
        <time>2016-05-21T08:29:08Z</time>
      </trkpt>
      <trkpt lat="48.82041" lon="2.18523">
        <ele>121</ele>
        <time>2016-05-21T08:29:11Z</time>
      </trkpt>
      <trkpt lat="48.82041" lon="2.18515">
        <ele>122</ele>
        <time>2016-05-21T08:29:14Z</time>
      </trkpt>
      <trkpt lat="48.82042" lon="2.18505">
        <ele>121</ele>
        <time>2016-05-21T08:29:17Z</time>
      </trkpt>
      <trkpt lat="48.82042" lon="2.18498">
        <ele>122</ele>
        <time>2016-05-21T08:29:19Z</time>
      </trkpt>
      <trkpt lat="48.82043" lon="2.18491">
        <ele>122</ele>
        <time>2016-05-21T08:29:21Z</time>
      </trkpt>
      <trkpt lat="48.82043" lon="2.18483">
        <ele>118</ele>
        <time>2016-05-21T08:29:25Z</time>
      </trkpt>
      <trkpt lat="48.82042" lon="2.18476">
        <ele>119</ele>
        <time>2016-05-21T08:29:28Z</time>
      </trkpt>
      <trkpt lat="48.82041" lon="2.18468">
        <ele>119</ele>
        <time>2016-05-21T08:29:31Z</time>
      </trkpt>
      <trkpt lat="48.82039" lon="2.18461">
        <ele>118</ele>
        <time>2016-05-21T08:29:34Z</time>
      </trkpt>
      <trkpt lat="48.8204" lon="2.18453">
        <ele>116</ele>
        <time>2016-05-21T08:29:39Z</time>
      </trkpt>
      <trkpt lat="48.82045" lon="2.18448">
        <ele>116</ele>
        <time>2016-05-21T08:29:43Z</time>
      </trkpt>
      <trkpt lat="48.82048" lon="2.18441">
        <ele>116</ele>
        <time>2016-05-21T08:29:47Z</time>
      </trkpt>
      <trkpt lat="48.82048" lon="2.18435">
        <ele>116</ele>
        <time>2016-05-21T08:29:51Z</time>
      </trkpt>
      <trkpt lat="48.8205" lon="2.18427">
        <ele>115</ele>
        <time>2016-05-21T08:29:54Z</time>
      </trkpt>
      <trkpt lat="48.8205" lon="2.1842">
        <ele>115</ele>
        <time>2016-05-21T08:29:57Z</time>
      </trkpt>
      <trkpt lat="48.82047" lon="2.18414">
        <ele>117</ele>
        <time>2016-05-21T08:30:01Z</time>
      </trkpt>
      <trkpt lat="48.82043" lon="2.18409">
        <ele>118</ele>
        <time>2016-05-21T08:30:04Z</time>
      </trkpt>
      <trkpt lat="48.82039" lon="2.18404">
        <ele>117</ele>
        <time>2016-05-21T08:30:07Z</time>
      </trkpt>
      <trkpt lat="48.82036" lon="2.18398">
        <ele>116</ele>
        <time>2016-05-21T08:30:10Z</time>
      </trkpt>
      <trkpt lat="48.82034" lon="2.18392">
        <ele>116</ele>
        <time>2016-05-21T08:30:13Z</time>
      </trkpt>
      <trkpt lat="48.82033" lon="2.18383">
        <ele>115</ele>
        <time>2016-05-21T08:30:16Z</time>
      </trkpt>
      <trkpt lat="48.8203" lon="2.18376">
        <ele>116</ele>
        <time>2016-05-21T08:30:19Z</time>
      </trkpt>
      <trkpt lat="48.82028" lon="2.18368">
        <ele>115</ele>
        <time>2016-05-21T08:30:22Z</time>
      </trkpt>
      <trkpt lat="48.82025" lon="2.18361">
        <ele>114</ele>
        <time>2016-05-21T08:30:25Z</time>
      </trkpt>
      <trkpt lat="48.82024" lon="2.18354">
        <ele>116</ele>
        <time>2016-05-21T08:30:29Z</time>
      </trkpt>
      <trkpt lat="48.82023" lon="2.18346">
        <ele>115</ele>
        <time>2016-05-21T08:30:34Z</time>
      </trkpt>
      <trkpt lat="48.82023" lon="2.18338">
        <ele>115</ele>
        <time>2016-05-21T08:30:38Z</time>
      </trkpt>
      <trkpt lat="48.82024" lon="2.18331">
        <ele>114</ele>
        <time>2016-05-21T08:30:42Z</time>
      </trkpt>
      <trkpt lat="48.82026" lon="2.18323">
        <ele>114</ele>
        <time>2016-05-21T08:30:47Z</time>
      </trkpt>
      <trkpt lat="48.82028" lon="2.18315">
        <ele>113</ele>
        <time>2016-05-21T08:30:51Z</time>
      </trkpt>
      <trkpt lat="48.82029" lon="2.18309">
        <ele>113</ele>
        <time>2016-05-21T08:30:55Z</time>
      </trkpt>
      <trkpt lat="48.82031" lon="2.18303">
        <ele>115</ele>
        <time>2016-05-21T08:30:59Z</time>
      </trkpt>
      <trkpt lat="48.82031" lon="2.18294">
        <ele>116</ele>
        <time>2016-05-21T08:31:04Z</time>
      </trkpt>
      <trkpt lat="48.82031" lon="2.18286">
        <ele>115</ele>
        <time>2016-05-21T08:31:09Z</time>
      </trkpt>
      <trkpt lat="48.82027" lon="2.18281">
        <ele>116</ele>
        <time>2016-05-21T08:31:14Z</time>
      </trkpt>
      <trkpt lat="48.82024" lon="2.18275">
        <ele>115</ele>
        <time>2016-05-21T08:31:17Z</time>
      </trkpt>
      <trkpt lat="48.82023" lon="2.18267">
        <ele>114</ele>
        <time>2016-05-21T08:31:20Z</time>
      </trkpt>
      <trkpt lat="48.82025" lon="2.1826">
        <ele>113</ele>
        <time>2016-05-21T08:31:23Z</time>
      </trkpt>
      <trkpt lat="48.82028" lon="2.18254">
        <ele>114</ele>
        <time>2016-05-21T08:31:25Z</time>
      </trkpt>
      <trkpt lat="48.82031" lon="2.18248">
        <ele>112</ele>
        <time>2016-05-21T08:31:28Z</time>
      </trkpt>
      <trkpt lat="48.82032" lon="2.18241">
        <ele>111</ele>
        <time>2016-05-21T08:31:32Z</time>
      </trkpt>
      <trkpt lat="48.8203" lon="2.18233">
        <ele>108</ele>
        <time>2016-05-21T08:31:37Z</time>
      </trkpt>
      <trkpt lat="48.82032" lon="2.18226">
        <ele>108</ele>
        <time>2016-05-21T08:31:41Z</time>
      </trkpt>
      <trkpt lat="48.82033" lon="2.18219">
        <ele>109</ele>
        <time>2016-05-21T08:31:46Z</time>
      </trkpt>
      <trkpt lat="48.82031" lon="2.18211">
        <ele>107</ele>
        <time>2016-05-21T08:31:50Z</time>
      </trkpt>
      <trkpt lat="48.8203" lon="2.18205">
        <ele>106</ele>
        <time>2016-05-21T08:31:54Z</time>
      </trkpt>
      <trkpt lat="48.82029" lon="2.18196">
        <ele>105</ele>
        <time>2016-05-21T08:31:58Z</time>
      </trkpt>
      <trkpt lat="48.82027" lon="2.18188">
        <ele>106</ele>
        <time>2016-05-21T08:32:01Z</time>
      </trkpt>
      <trkpt lat="48.82024" lon="2.18181">
        <ele>106</ele>
        <time>2016-05-21T08:32:04Z</time>
      </trkpt>
      <trkpt lat="48.82025" lon="2.18173">
        <ele>105</ele>
        <time>2016-05-21T08:32:08Z</time>
      </trkpt>
      <trkpt lat="48.82026" lon="2.18166">
        <ele>107</ele>
        <time>2016-05-21T08:32:11Z</time>
      </trkpt>
      <trkpt lat="48.82027" lon="2.18159">
        <ele>105</ele>
        <time>2016-05-21T08:32:14Z</time>
      </trkpt>
      <trkpt lat="48.82025" lon="2.18152">
        <ele>105</ele>
        <time>2016-05-21T08:32:17Z</time>
      </trkpt>
      <trkpt lat="48.8202" lon="2.18146">
        <ele>106</ele>
        <time>2016-05-21T08:32:20Z</time>
      </trkpt>
      <trkpt lat="48.82016" lon="2.1814">
        <ele>104</ele>
        <time>2016-05-21T08:32:23Z</time>
      </trkpt>
      <trkpt lat="48.82011" lon="2.18134">
        <ele>103</ele>
        <time>2016-05-21T08:32:26Z</time>
      </trkpt>
      <trkpt lat="48.82007" lon="2.18131">
        <ele>103</ele>
        <time>2016-05-21T08:32:30Z</time>
      </trkpt>
      <trkpt lat="48.82005" lon="2.18125">
        <ele>106</ele>
        <time>2016-05-21T08:32:33Z</time>
      </trkpt>
      <trkpt lat="48.82003" lon="2.18116">
        <ele>106</ele>
        <time>2016-05-21T08:32:36Z</time>
      </trkpt>
      <trkpt lat="48.81999" lon="2.18112">
        <ele>100</ele>
        <time>2016-05-21T08:32:41Z</time>
      </trkpt>
      <trkpt lat="48.81994" lon="2.18113">
        <ele>99</ele>
        <time>2016-05-21T08:32:46Z</time>
      </trkpt>
      <trkpt lat="48.81992" lon="2.18105">
        <ele>99</ele>
        <time>2016-05-21T08:32:53Z</time>
      </trkpt>
      <trkpt lat="48.8199" lon="2.18099">
        <ele>100</ele>
        <time>2016-05-21T08:32:58Z</time>
      </trkpt>
      <trkpt lat="48.81986" lon="2.18097">
        <ele>103</ele>
        <time>2016-05-21T08:33:07Z</time>
      </trkpt>
      <trkpt lat="48.81984" lon="2.1809">
        <ele>113</ele>
        <time>2016-05-21T08:34:18Z</time>
      </trkpt>
      <trkpt lat="48.82003" lon="2.18113">
        <ele>112</ele>
        <time>2016-05-21T08:34:38Z</time>
      </trkpt>
      <trkpt lat="48.82004" lon="2.18105">
        <ele>112</ele>
        <time>2016-05-21T08:34:40Z</time>
      </trkpt>
      <trkpt lat="48.82004" lon="2.181">
        <ele>112</ele>
        <time>2016-05-21T08:34:41Z</time>
      </trkpt>
      <trkpt lat="48.82005" lon="2.1809">
        <ele>112</ele>
        <time>2016-05-21T08:34:43Z</time>
      </trkpt>
      <trkpt lat="48.82006" lon="2.18081">
        <ele>112</ele>
        <time>2016-05-21T08:34:45Z</time>
      </trkpt>
      <trkpt lat="48.82006" lon="2.18074">
        <ele>112</ele>
        <time>2016-05-21T08:34:48Z</time>
      </trkpt>
      <trkpt lat="48.82002" lon="2.18069">
        <ele>112</ele>
        <time>2016-05-21T08:34:57Z</time>
      </trkpt>
      <trkpt lat="48.81998" lon="2.18071">
        <ele>111</ele>
        <time>2016-05-21T08:34:59Z</time>
      </trkpt>
      <trkpt lat="48.81995" lon="2.18072">
        <ele>112</ele>
        <time>2016-05-21T08:35:00Z</time>
      </trkpt>
      <trkpt lat="48.8199" lon="2.1807">
        <ele>111</ele>
        <time>2016-05-21T08:35:02Z</time>
      </trkpt>
      <trkpt lat="48.81985" lon="2.18067">
        <ele>111</ele>
        <time>2016-05-21T08:35:04Z</time>
      </trkpt>
      <trkpt lat="48.81982" lon="2.18063">
        <ele>113</ele>
        <time>2016-05-21T08:35:07Z</time>
      </trkpt>
      <trkpt lat="48.81978" lon="2.18056">
        <ele>115</ele>
        <time>2016-05-21T08:35:12Z</time>
      </trkpt>
      <trkpt lat="48.81977" lon="2.18049">
        <ele>116</ele>
        <time>2016-05-21T08:35:17Z</time>
      </trkpt>
      <trkpt lat="48.81976" lon="2.1804">
        <ele>116</ele>
        <time>2016-05-21T08:35:21Z</time>
      </trkpt>
      <trkpt lat="48.81974" lon="2.18032">
        <ele>116</ele>
        <time>2016-05-21T08:35:25Z</time>
      </trkpt>
      <trkpt lat="48.8197" lon="2.18027">
        <ele>116</ele>
        <time>2016-05-21T08:35:28Z</time>
      </trkpt>
      <trkpt lat="48.81968" lon="2.1802">
        <ele>117</ele>
        <time>2016-05-21T08:35:31Z</time>
      </trkpt>
      <trkpt lat="48.81967" lon="2.18013">
        <ele>117</ele>
        <time>2016-05-21T08:35:35Z</time>
      </trkpt>
      <trkpt lat="48.81963" lon="2.18009">
        <ele>117</ele>
        <time>2016-05-21T08:35:39Z</time>
      </trkpt>
      <trkpt lat="48.81959" lon="2.18002">
        <ele>116</ele>
        <time>2016-05-21T08:35:43Z</time>
      </trkpt>
      <trkpt lat="48.81957" lon="2.17995">
        <ele>116</ele>
        <time>2016-05-21T08:35:47Z</time>
      </trkpt>
      <trkpt lat="48.81954" lon="2.17988">
        <ele>116</ele>
        <time>2016-05-21T08:35:53Z</time>
      </trkpt>
      <trkpt lat="48.81952" lon="2.1798">
        <ele>116</ele>
        <time>2016-05-21T08:35:58Z</time>
      </trkpt>
      <trkpt lat="48.81951" lon="2.17973">
        <ele>117</ele>
        <time>2016-05-21T08:36:02Z</time>
      </trkpt>
      <trkpt lat="48.81949" lon="2.17967">
        <ele>121</ele>
        <time>2016-05-21T08:36:05Z</time>
      </trkpt>
      <trkpt lat="48.81947" lon="2.17959">
        <ele>121</ele>
        <time>2016-05-21T08:36:09Z</time>
      </trkpt>
      <trkpt lat="48.81951" lon="2.17956">
        <ele>128</ele>
        <time>2016-05-21T08:36:14Z</time>
      </trkpt>
      <trkpt lat="48.81955" lon="2.17949">
        <ele>133</ele>
        <time>2016-05-21T08:36:17Z</time>
      </trkpt>
      <trkpt lat="48.81956" lon="2.17941">
        <ele>129</ele>
        <time>2016-05-21T08:36:20Z</time>
      </trkpt>
      <trkpt lat="48.81954" lon="2.17933">
        <ele>129</ele>
        <time>2016-05-21T08:36:24Z</time>
      </trkpt>
      <trkpt lat="48.81954" lon="2.17924">
        <ele>129</ele>
        <time>2016-05-21T08:36:27Z</time>
      </trkpt>
      <trkpt lat="48.81957" lon="2.17916">
        <ele>129</ele>
        <time>2016-05-21T08:36:30Z</time>
      </trkpt>
      <trkpt lat="48.81961" lon="2.1791">
        <ele>129</ele>
        <time>2016-05-21T08:36:33Z</time>
      </trkpt>
      <trkpt lat="48.81962" lon="2.17902">
        <ele>128</ele>
        <time>2016-05-21T08:36:36Z</time>
      </trkpt>
      <trkpt lat="48.81963" lon="2.17894">
        <ele>130</ele>
        <time>2016-05-21T08:36:39Z</time>
      </trkpt>
      <trkpt lat="48.81962" lon="2.17886">
        <ele>128</ele>
        <time>2016-05-21T08:36:42Z</time>
      </trkpt>
      <trkpt lat="48.8196" lon="2.17877">
        <ele>125</ele>
        <time>2016-05-21T08:36:45Z</time>
      </trkpt>
      <trkpt lat="48.81962" lon="2.1787">
        <ele>125</ele>
        <time>2016-05-21T08:36:47Z</time>
      </trkpt>
      <trkpt lat="48.8196" lon="2.17863">
        <ele>123</ele>
        <time>2016-05-21T08:36:58Z</time>
      </trkpt>
      <trkpt lat="48.81955" lon="2.17862">
        <ele>122</ele>
        <time>2016-05-21T08:37:01Z</time>
      </trkpt>
      <trkpt lat="48.81949" lon="2.17862">
        <ele>122</ele>
        <time>2016-05-21T08:37:04Z</time>
      </trkpt>
      <trkpt lat="48.81945" lon="2.17863">
        <ele>124</ele>
        <time>2016-05-21T08:37:07Z</time>
      </trkpt>
      <trkpt lat="48.8194" lon="2.17865">
        <ele>125</ele>
        <time>2016-05-21T08:37:15Z</time>
      </trkpt>
      <trkpt lat="48.81936" lon="2.17868">
        <ele>127</ele>
        <time>2016-05-21T08:37:23Z</time>
      </trkpt>
      <trkpt lat="48.81931" lon="2.17872">
        <ele>128</ele>
        <time>2016-05-21T08:37:27Z</time>
      </trkpt>
      <trkpt lat="48.81926" lon="2.17875">
        <ele>129</ele>
        <time>2016-05-21T08:37:30Z</time>
      </trkpt>
      <trkpt lat="48.81922" lon="2.17878">
        <ele>130</ele>
        <time>2016-05-21T08:37:33Z</time>
      </trkpt>
      <trkpt lat="48.81917" lon="2.17881">
        <ele>131</ele>
        <time>2016-05-21T08:37:37Z</time>
      </trkpt>
      <trkpt lat="48.81912" lon="2.17883">
        <ele>132</ele>
        <time>2016-05-21T08:37:42Z</time>
      </trkpt>
      <trkpt lat="48.81906" lon="2.17888">
        <ele>129</ele>
        <time>2016-05-21T08:37:47Z</time>
      </trkpt>
      <trkpt lat="48.81901" lon="2.17891">
        <ele>129</ele>
        <time>2016-05-21T08:37:50Z</time>
      </trkpt>
      <trkpt lat="48.81896" lon="2.17894">
        <ele>129</ele>
        <time>2016-05-21T08:37:53Z</time>
      </trkpt>
      <trkpt lat="48.81891" lon="2.17897">
        <ele>128</ele>
        <time>2016-05-21T08:37:55Z</time>
      </trkpt>
      <trkpt lat="48.81887" lon="2.17901">
        <ele>129</ele>
        <time>2016-05-21T08:37:57Z</time>
      </trkpt>
      <trkpt lat="48.81883" lon="2.17905">
        <ele>130</ele>
        <time>2016-05-21T08:37:59Z</time>
      </trkpt>
      <trkpt lat="48.8188" lon="2.1791">
        <ele>131</ele>
        <time>2016-05-21T08:38:02Z</time>
      </trkpt>
      <trkpt lat="48.81876" lon="2.17917">
        <ele>132</ele>
        <time>2016-05-21T08:38:07Z</time>
      </trkpt>
      <trkpt lat="48.81871" lon="2.17919">
        <ele>134</ele>
        <time>2016-05-21T08:38:12Z</time>
      </trkpt>
      <trkpt lat="48.81866" lon="2.17922">
        <ele>132</ele>
        <time>2016-05-21T08:38:16Z</time>
      </trkpt>
      <trkpt lat="48.81859" lon="2.17923">
        <ele>131</ele>
        <time>2016-05-21T08:38:18Z</time>
      </trkpt>
      <trkpt lat="48.81854" lon="2.17925">
        <ele>132</ele>
        <time>2016-05-21T08:38:20Z</time>
      </trkpt>
      <trkpt lat="48.81849" lon="2.17931">
        <ele>134</ele>
        <time>2016-05-21T08:38:23Z</time>
      </trkpt>
      <trkpt lat="48.81849" lon="2.1794">
        <ele>133</ele>
        <time>2016-05-21T08:38:26Z</time>
      </trkpt>
      <trkpt lat="48.81853" lon="2.17947">
        <ele>137</ele>
        <time>2016-05-21T08:38:30Z</time>
      </trkpt>
      <trkpt lat="48.81854" lon="2.17955">
        <ele>134</ele>
        <time>2016-05-21T08:38:34Z</time>
      </trkpt>
      <trkpt lat="48.81857" lon="2.17961">
        <ele>132</ele>
        <time>2016-05-21T08:38:37Z</time>
      </trkpt>
      <trkpt lat="48.81859" lon="2.17967">
        <ele>134</ele>
        <time>2016-05-21T08:38:41Z</time>
      </trkpt>
      <trkpt lat="48.81863" lon="2.17973">
        <ele>136</ele>
        <time>2016-05-21T08:38:49Z</time>
      </trkpt>
      <trkpt lat="48.81868" lon="2.17978">
        <ele>136</ele>
        <time>2016-05-21T08:38:53Z</time>
      </trkpt>
      <trkpt lat="48.81874" lon="2.17981">
        <ele>135</ele>
        <time>2016-05-21T08:38:56Z</time>
      </trkpt>
      <trkpt lat="48.81879" lon="2.17983">
        <ele>134</ele>
        <time>2016-05-21T08:38:59Z</time>
      </trkpt>
      <trkpt lat="48.81883" lon="2.17987">
        <ele>132</ele>
        <time>2016-05-21T08:39:01Z</time>
      </trkpt>
      <trkpt lat="48.81888" lon="2.17992">
        <ele>132</ele>
        <time>2016-05-21T08:39:04Z</time>
      </trkpt>
      <trkpt lat="48.81893" lon="2.17996">
        <ele>132</ele>
        <time>2016-05-21T08:39:07Z</time>
      </trkpt>
      <trkpt lat="48.81897" lon="2.18">
        <ele>132</ele>
        <time>2016-05-21T08:39:11Z</time>
      </trkpt>
      <trkpt lat="48.81902" lon="2.18002">
        <ele>132</ele>
        <time>2016-05-21T08:39:15Z</time>
      </trkpt>
      <trkpt lat="48.81907" lon="2.18006">
        <ele>131</ele>
        <time>2016-05-21T08:39:19Z</time>
      </trkpt>
      <trkpt lat="48.81911" lon="2.18013">
        <ele>132</ele>
        <time>2016-05-21T08:39:24Z</time>
      </trkpt>
      <trkpt lat="48.81915" lon="2.18018">
        <ele>131</ele>
        <time>2016-05-21T08:39:27Z</time>
      </trkpt>
      <trkpt lat="48.81919" lon="2.18024">
        <ele>132</ele>
        <time>2016-05-21T08:39:32Z</time>
      </trkpt>
      <trkpt lat="48.81924" lon="2.1803">
        <ele>131</ele>
        <time>2016-05-21T08:39:35Z</time>
      </trkpt>
      <trkpt lat="48.81929" lon="2.18035">
        <ele>130</ele>
        <time>2016-05-21T08:39:38Z</time>
      </trkpt>
      <trkpt lat="48.81932" lon="2.18041">
        <ele>129</ele>
        <time>2016-05-21T08:39:41Z</time>
      </trkpt>
      <trkpt lat="48.81935" lon="2.18047">
        <ele>130</ele>
        <time>2016-05-21T08:39:44Z</time>
      </trkpt>
      <trkpt lat="48.81939" lon="2.18052">
        <ele>133</ele>
        <time>2016-05-21T08:39:48Z</time>
      </trkpt>
      <trkpt lat="48.8194" lon="2.18059">
        <ele>129</ele>
        <time>2016-05-21T08:39:55Z</time>
      </trkpt>
      <trkpt lat="48.81936" lon="2.18064">
        <ele>133</ele>
        <time>2016-05-21T08:40:00Z</time>
      </trkpt>
      <trkpt lat="48.81932" lon="2.18067">
        <ele>132</ele>
        <time>2016-05-21T08:40:03Z</time>
      </trkpt>
      <trkpt lat="48.81928" lon="2.18071">
        <ele>131</ele>
        <time>2016-05-21T08:40:07Z</time>
      </trkpt>
      <trkpt lat="48.81923" lon="2.18075">
        <ele>131</ele>
        <time>2016-05-21T08:40:13Z</time>
      </trkpt>
      <trkpt lat="48.81919" lon="2.18077">
        <ele>127</ele>
        <time>2016-05-21T08:40:17Z</time>
      </trkpt>
      <trkpt lat="48.81914" lon="2.1808">
        <ele>126</ele>
        <time>2016-05-21T08:40:20Z</time>
      </trkpt>
      <trkpt lat="48.81908" lon="2.18084">
        <ele>127</ele>
        <time>2016-05-21T08:40:23Z</time>
      </trkpt>
      <trkpt lat="48.81904" lon="2.18088">
        <ele>127</ele>
        <time>2016-05-21T08:40:26Z</time>
      </trkpt>
      <trkpt lat="48.81898" lon="2.18091">
        <ele>126</ele>
        <time>2016-05-21T08:40:30Z</time>
      </trkpt>
      <trkpt lat="48.81894" lon="2.18093">
        <ele>129</ele>
        <time>2016-05-21T08:40:38Z</time>
      </trkpt>
      <trkpt lat="48.81893" lon="2.18101">
        <ele>133</ele>
        <time>2016-05-21T08:40:45Z</time>
      </trkpt>
      <trkpt lat="48.81889" lon="2.18106">
        <ele>133</ele>
        <time>2016-05-21T08:40:49Z</time>
      </trkpt>
      <trkpt lat="48.81884" lon="2.18109">
        <ele>135</ele>
        <time>2016-05-21T08:40:53Z</time>
      </trkpt>
      <trkpt lat="48.81879" lon="2.18112">
        <ele>135</ele>
        <time>2016-05-21T08:40:57Z</time>
      </trkpt>
      <trkpt lat="48.81874" lon="2.18114">
        <ele>136</ele>
        <time>2016-05-21T08:41:00Z</time>
      </trkpt>
      <trkpt lat="48.81868" lon="2.18114">
        <ele>137</ele>
        <time>2016-05-21T08:41:04Z</time>
      </trkpt>
      <trkpt lat="48.81863" lon="2.18117">
        <ele>138</ele>
        <time>2016-05-21T08:41:07Z</time>
      </trkpt>
      <trkpt lat="48.81858" lon="2.18119">
        <ele>141</ele>
        <time>2016-05-21T08:41:13Z</time>
      </trkpt>
      <trkpt lat="48.81854" lon="2.18123">
        <ele>141</ele>
        <time>2016-05-21T08:41:20Z</time>
      </trkpt>
      <trkpt lat="48.8185" lon="2.18125">
        <ele>143</ele>
        <time>2016-05-21T08:41:26Z</time>
      </trkpt>
      <trkpt lat="48.81848" lon="2.18132">
        <ele>144</ele>
        <time>2016-05-21T08:41:32Z</time>
      </trkpt>
      <trkpt lat="48.81847" lon="2.18123">
        <ele>147</ele>
        <time>2016-05-21T08:41:40Z</time>
      </trkpt>
      <trkpt lat="48.81846" lon="2.18116">
        <ele>148</ele>
        <time>2016-05-21T08:41:46Z</time>
      </trkpt>
      <trkpt lat="48.81846" lon="2.18109">
        <ele>146</ele>
        <time>2016-05-21T08:41:53Z</time>
      </trkpt>
      <trkpt lat="48.81843" lon="2.18104">
        <ele>148</ele>
        <time>2016-05-21T08:41:57Z</time>
      </trkpt>
      <trkpt lat="48.81839" lon="2.18097">
        <ele>147</ele>
        <time>2016-05-21T08:42:03Z</time>
      </trkpt>
      <trkpt lat="48.81837" lon="2.1809">
        <ele>146</ele>
        <time>2016-05-21T08:42:07Z</time>
      </trkpt>
      <trkpt lat="48.81835" lon="2.18083">
        <ele>147</ele>
        <time>2016-05-21T08:42:10Z</time>
      </trkpt>
      <trkpt lat="48.81833" lon="2.18077">
        <ele>148</ele>
        <time>2016-05-21T08:42:13Z</time>
      </trkpt>
      <trkpt lat="48.81829" lon="2.18072">
        <ele>149</ele>
        <time>2016-05-21T08:42:18Z</time>
      </trkpt>
      <trkpt lat="48.81825" lon="2.18067">
        <ele>149</ele>
        <time>2016-05-21T08:42:22Z</time>
      </trkpt>
      <trkpt lat="48.8182" lon="2.18062">
        <ele>149</ele>
        <time>2016-05-21T08:42:26Z</time>
      </trkpt>
      <trkpt lat="48.81817" lon="2.18058">
        <ele>148</ele>
        <time>2016-05-21T08:42:30Z</time>
      </trkpt>
      <trkpt lat="48.81812" lon="2.18052">
        <ele>148</ele>
        <time>2016-05-21T08:42:33Z</time>
      </trkpt>
      <trkpt lat="48.81809" lon="2.18045">
        <ele>147</ele>
        <time>2016-05-21T08:42:36Z</time>
      </trkpt>
      <trkpt lat="48.81806" lon="2.18039">
        <ele>146</ele>
        <time>2016-05-21T08:42:39Z</time>
      </trkpt>
      <trkpt lat="48.81802" lon="2.18037">
        <ele>146</ele>
        <time>2016-05-21T08:42:41Z</time>
      </trkpt>
      <trkpt lat="48.81798" lon="2.18033">
        <ele>145</ele>
        <time>2016-05-21T08:42:43Z</time>
      </trkpt>
      <trkpt lat="48.81792" lon="2.18028">
        <ele>143</ele>
        <time>2016-05-21T08:42:46Z</time>
      </trkpt>
      <trkpt lat="48.81788" lon="2.18023">
        <ele>144</ele>
        <time>2016-05-21T08:42:49Z</time>
      </trkpt>
      <trkpt lat="48.81784" lon="2.18019">
        <ele>144</ele>
        <time>2016-05-21T08:42:52Z</time>
      </trkpt>
      <trkpt lat="48.81781" lon="2.18013">
        <ele>144</ele>
        <time>2016-05-21T08:42:56Z</time>
      </trkpt>
      <trkpt lat="48.81778" lon="2.18006">
        <ele>142</ele>
        <time>2016-05-21T08:42:59Z</time>
      </trkpt>
      <trkpt lat="48.81776" lon="2.17998">
        <ele>140</ele>
        <time>2016-05-21T08:43:02Z</time>
      </trkpt>
      <trkpt lat="48.81774" lon="2.17992">
        <ele>141</ele>
        <time>2016-05-21T08:43:05Z</time>
      </trkpt>
      <trkpt lat="48.81771" lon="2.17984">
        <ele>142</ele>
        <time>2016-05-21T08:43:08Z</time>
      </trkpt>
      <trkpt lat="48.81767" lon="2.1798">
        <ele>143</ele>
        <time>2016-05-21T08:43:12Z</time>
      </trkpt>
      <trkpt lat="48.81766" lon="2.17973">
        <ele>146</ele>
        <time>2016-05-21T08:43:17Z</time>
      </trkpt>
      <trkpt lat="48.81767" lon="2.17965">
        <ele>145</ele>
        <time>2016-05-21T08:43:22Z</time>
      </trkpt>
      <trkpt lat="48.81763" lon="2.17959">
        <ele>147</ele>
        <time>2016-05-21T08:43:28Z</time>
      </trkpt>
      <trkpt lat="48.81759" lon="2.17956">
        <ele>146</ele>
        <time>2016-05-21T08:43:31Z</time>
      </trkpt>
      <trkpt lat="48.81755" lon="2.17952">
        <ele>146</ele>
        <time>2016-05-21T08:43:34Z</time>
      </trkpt>
      <trkpt lat="48.81752" lon="2.17944">
        <ele>147</ele>
        <time>2016-05-21T08:43:38Z</time>
      </trkpt>
      <trkpt lat="48.81749" lon="2.17937">
        <ele>148</ele>
        <time>2016-05-21T08:43:42Z</time>
      </trkpt>
      <trkpt lat="48.81746" lon="2.17931">
        <ele>147</ele>
        <time>2016-05-21T08:43:46Z</time>
      </trkpt>
      <trkpt lat="48.81742" lon="2.17925">
        <ele>150</ele>
        <time>2016-05-21T08:43:50Z</time>
      </trkpt>
      <trkpt lat="48.81738" lon="2.1792">
        <ele>151</ele>
        <time>2016-05-21T08:43:54Z</time>
      </trkpt>
      <trkpt lat="48.81734" lon="2.17913">
        <ele>154</ele>
        <time>2016-05-21T08:43:58Z</time>
      </trkpt>
      <trkpt lat="48.81733" lon="2.17906">
        <ele>155</ele>
        <time>2016-05-21T08:44:01Z</time>
      </trkpt>
      <trkpt lat="48.81729" lon="2.17898">
        <ele>155</ele>
        <time>2016-05-21T08:44:05Z</time>
      </trkpt>
      <trkpt lat="48.81726" lon="2.17893">
        <ele>153</ele>
        <time>2016-05-21T08:44:09Z</time>
      </trkpt>
      <trkpt lat="48.81723" lon="2.17887">
        <ele>157</ele>
        <time>2016-05-21T08:44:13Z</time>
      </trkpt>
      <trkpt lat="48.81718" lon="2.17882">
        <ele>159</ele>
        <time>2016-05-21T08:44:17Z</time>
      </trkpt>
      <trkpt lat="48.81713" lon="2.17878">
        <ele>159</ele>
        <time>2016-05-21T08:44:21Z</time>
      </trkpt>
      <trkpt lat="48.81709" lon="2.17871">
        <ele>159</ele>
        <time>2016-05-21T08:44:25Z</time>
      </trkpt>
      <trkpt lat="48.81705" lon="2.17866">
        <ele>160</ele>
        <time>2016-05-21T08:44:29Z</time>
      </trkpt>
      <trkpt lat="48.81705" lon="2.1786">
        <ele>163</ele>
        <time>2016-05-21T08:44:33Z</time>
      </trkpt>
      <trkpt lat="48.81705" lon="2.17852">
        <ele>165</ele>
        <time>2016-05-21T08:44:39Z</time>
      </trkpt>
      <trkpt lat="48.81702" lon="2.17845">
        <ele>165</ele>
        <time>2016-05-21T08:44:42Z</time>
      </trkpt>
      <trkpt lat="48.81699" lon="2.1784">
        <ele>168</ele>
        <time>2016-05-21T08:44:46Z</time>
      </trkpt>
      <trkpt lat="48.81696" lon="2.17834">
        <ele>169</ele>
        <time>2016-05-21T08:44:50Z</time>
      </trkpt>
      <trkpt lat="48.81695" lon="2.17828">
        <ele>167</ele>
        <time>2016-05-21T08:44:54Z</time>
      </trkpt>
      <trkpt lat="48.81693" lon="2.17821">
        <ele>170</ele>
        <time>2016-05-21T08:44:57Z</time>
      </trkpt>
      <trkpt lat="48.81693" lon="2.17814">
        <ele>170</ele>
        <time>2016-05-21T08:45:00Z</time>
      </trkpt>
      <trkpt lat="48.81692" lon="2.17807">
        <ele>171</ele>
        <time>2016-05-21T08:45:03Z</time>
      </trkpt>
      <trkpt lat="48.81691" lon="2.17798">
        <ele>172</ele>
        <time>2016-05-21T08:45:08Z</time>
      </trkpt>
      <trkpt lat="48.81689" lon="2.1779">
        <ele>171</ele>
        <time>2016-05-21T08:45:12Z</time>
      </trkpt>
      <trkpt lat="48.81688" lon="2.17782">
        <ele>172</ele>
        <time>2016-05-21T08:45:16Z</time>
      </trkpt>
      <trkpt lat="48.81685" lon="2.17776">
        <ele>171</ele>
        <time>2016-05-21T08:45:21Z</time>
      </trkpt>
      <trkpt lat="48.81683" lon="2.17769">
        <ele>169</ele>
        <time>2016-05-21T08:45:26Z</time>
      </trkpt>
      <trkpt lat="48.81682" lon="2.17762">
        <ele>171</ele>
        <time>2016-05-21T08:45:33Z</time>
      </trkpt>
      <trkpt lat="48.81682" lon="2.17755">
        <ele>171</ele>
        <time>2016-05-21T08:45:37Z</time>
      </trkpt>
      <trkpt lat="48.81685" lon="2.1775">
        <ele>175</ele>
        <time>2016-05-21T08:45:41Z</time>
      </trkpt>
      <trkpt lat="48.81685" lon="2.17742">
        <ele>176</ele>
        <time>2016-05-21T08:45:47Z</time>
      </trkpt>
      <trkpt lat="48.81686" lon="2.17734">
        <ele>175</ele>
        <time>2016-05-21T08:45:53Z</time>
      </trkpt>
      <trkpt lat="48.81687" lon="2.17727">
        <ele>175</ele>
        <time>2016-05-21T08:45:57Z</time>
      </trkpt>
      <trkpt lat="48.81686" lon="2.1772">
        <ele>176</ele>
        <time>2016-05-21T08:46:01Z</time>
      </trkpt>
      <trkpt lat="48.81687" lon="2.17713">
        <ele>176</ele>
        <time>2016-05-21T08:46:04Z</time>
      </trkpt>
      <trkpt lat="48.81687" lon="2.17704">
        <ele>177</ele>
        <time>2016-05-21T08:46:08Z</time>
      </trkpt>
      <trkpt lat="48.81688" lon="2.17697">
        <ele>178</ele>
        <time>2016-05-21T08:46:12Z</time>
      </trkpt>
      <trkpt lat="48.81689" lon="2.17688">
        <ele>179</ele>
        <time>2016-05-21T08:46:17Z</time>
      </trkpt>
      <trkpt lat="48.81692" lon="2.17683">
        <ele>181</ele>
        <time>2016-05-21T08:46:20Z</time>
      </trkpt>
      <trkpt lat="48.81695" lon="2.17677">
        <ele>182</ele>
        <time>2016-05-21T08:46:24Z</time>
      </trkpt>
      <trkpt lat="48.81694" lon="2.1767">
        <ele>183</ele>
        <time>2016-05-21T08:46:28Z</time>
      </trkpt>
      <trkpt lat="48.81696" lon="2.17662">
        <ele>183</ele>
        <time>2016-05-21T08:46:32Z</time>
      </trkpt>
      <trkpt lat="48.81697" lon="2.17655">
        <ele>184</ele>
        <time>2016-05-21T08:46:35Z</time>
      </trkpt>
      <trkpt lat="48.81698" lon="2.17647">
        <ele>187</ele>
        <time>2016-05-21T08:46:39Z</time>
      </trkpt>
      <trkpt lat="48.81699" lon="2.17639">
        <ele>189</ele>
        <time>2016-05-21T08:46:43Z</time>
      </trkpt>
      <trkpt lat="48.81697" lon="2.1763">
        <ele>189</ele>
        <time>2016-05-21T08:46:46Z</time>
      </trkpt>
      <trkpt lat="48.81696" lon="2.17623">
        <ele>187</ele>
        <time>2016-05-21T08:46:49Z</time>
      </trkpt>
      <trkpt lat="48.81696" lon="2.17615">
        <ele>186</ele>
        <time>2016-05-21T08:46:52Z</time>
      </trkpt>
      <trkpt lat="48.81697" lon="2.17607">
        <ele>187</ele>
        <time>2016-05-21T08:46:55Z</time>
      </trkpt>
      <trkpt lat="48.81699" lon="2.176">
        <ele>183</ele>
        <time>2016-05-21T08:46:58Z</time>
      </trkpt>
      <trkpt lat="48.81698" lon="2.17592">
        <ele>179</ele>
        <time>2016-05-21T08:47:01Z</time>
      </trkpt>
      <trkpt lat="48.81701" lon="2.17586">
        <ele>180</ele>
        <time>2016-05-21T08:47:07Z</time>
      </trkpt>
      <trkpt lat="48.81706" lon="2.17586">
        <ele>179</ele>
        <time>2016-05-21T08:47:10Z</time>
      </trkpt>
      <trkpt lat="48.81711" lon="2.17585">
        <ele>179</ele>
        <time>2016-05-21T08:47:13Z</time>
      </trkpt>
      <trkpt lat="48.81715" lon="2.17581">
        <ele>178</ele>
        <time>2016-05-21T08:47:17Z</time>
      </trkpt>
      <trkpt lat="48.8172" lon="2.17578">
        <ele>176</ele>
        <time>2016-05-21T08:47:21Z</time>
      </trkpt>
      <trkpt lat="48.81724" lon="2.17575">
        <ele>174</ele>
        <time>2016-05-21T08:47:25Z</time>
      </trkpt>
      <trkpt lat="48.8173" lon="2.17573">
        <ele>174</ele>
        <time>2016-05-21T08:47:29Z</time>
      </trkpt>
      <trkpt lat="48.81735" lon="2.17569">
        <ele>176</ele>
        <time>2016-05-21T08:47:32Z</time>
      </trkpt>
      <trkpt lat="48.81739" lon="2.17566">
        <ele>175</ele>
        <time>2016-05-21T08:47:37Z</time>
      </trkpt>
      <trkpt lat="48.81744" lon="2.17564">
        <ele>177</ele>
        <time>2016-05-21T08:47:43Z</time>
      </trkpt>
      <trkpt lat="48.81749" lon="2.17564">
        <ele>174</ele>
        <time>2016-05-21T08:47:47Z</time>
      </trkpt>
      <trkpt lat="48.81755" lon="2.17565">
        <ele>176</ele>
        <time>2016-05-21T08:47:51Z</time>
      </trkpt>
      <trkpt lat="48.81761" lon="2.17564">
        <ele>175</ele>
        <time>2016-05-21T08:47:55Z</time>
      </trkpt>
      <trkpt lat="48.81765" lon="2.17564">
        <ele>174</ele>
        <time>2016-05-21T08:47:58Z</time>
      </trkpt>
      <trkpt lat="48.8177" lon="2.17562">
        <ele>174</ele>
        <time>2016-05-21T08:48:01Z</time>
      </trkpt>
      <trkpt lat="48.81776" lon="2.17561">
        <ele>174</ele>
        <time>2016-05-21T08:48:05Z</time>
      </trkpt>
      <trkpt lat="48.81781" lon="2.1756">
        <ele>173</ele>
        <time>2016-05-21T08:48:08Z</time>
      </trkpt>
      <trkpt lat="48.81786" lon="2.17561">
        <ele>173</ele>
        <time>2016-05-21T08:48:13Z</time>
      </trkpt>
      <trkpt lat="48.81791" lon="2.17561">
        <ele>173</ele>
        <time>2016-05-21T08:48:17Z</time>
      </trkpt>
      <trkpt lat="48.81796" lon="2.17559">
        <ele>173</ele>
        <time>2016-05-21T08:48:20Z</time>
      </trkpt>
      <trkpt lat="48.81801" lon="2.17556">
        <ele>171</ele>
        <time>2016-05-21T08:48:25Z</time>
      </trkpt>
      <trkpt lat="48.81805" lon="2.17551">
        <ele>171</ele>
        <time>2016-05-21T08:48:28Z</time>
      </trkpt>
      <trkpt lat="48.81811" lon="2.17548">
        <ele>170</ele>
        <time>2016-05-21T08:48:33Z</time>
      </trkpt>
      <trkpt lat="48.81816" lon="2.17549">
        <ele>169</ele>
        <time>2016-05-21T08:48:39Z</time>
      </trkpt>
      <trkpt lat="48.8182" lon="2.1755">
        <ele>171</ele>
        <time>2016-05-21T08:48:41Z</time>
      </trkpt>
      <trkpt lat="48.81826" lon="2.1755">
        <ele>171</ele>
        <time>2016-05-21T08:48:44Z</time>
      </trkpt>
      <trkpt lat="48.81831" lon="2.17548">
        <ele>170</ele>
        <time>2016-05-21T08:48:47Z</time>
      </trkpt>
      <trkpt lat="48.81836" lon="2.17544">
        <ele>167</ele>
        <time>2016-05-21T08:48:51Z</time>
      </trkpt>
      <trkpt lat="48.81841" lon="2.17541">
        <ele>167</ele>
        <time>2016-05-21T08:48:54Z</time>
      </trkpt>
      <trkpt lat="48.81849" lon="2.1754">
        <ele>164</ele>
        <time>2016-05-21T08:48:57Z</time>
      </trkpt>
      <trkpt lat="48.81854" lon="2.1754">
        <ele>163</ele>
        <time>2016-05-21T08:48:59Z</time>
      </trkpt>
      <trkpt lat="48.8186" lon="2.17539">
        <ele>163</ele>
        <time>2016-05-21T08:49:02Z</time>
      </trkpt>
      <trkpt lat="48.81866" lon="2.17539">
        <ele>162</ele>
        <time>2016-05-21T08:49:05Z</time>
      </trkpt>
      <trkpt lat="48.81871" lon="2.17537">
        <ele>161</ele>
        <time>2016-05-21T08:49:08Z</time>
      </trkpt>
      <trkpt lat="48.81876" lon="2.17535">
        <ele>159</ele>
        <time>2016-05-21T08:49:11Z</time>
      </trkpt>
      <trkpt lat="48.81881" lon="2.17532">
        <ele>159</ele>
        <time>2016-05-21T08:49:14Z</time>
      </trkpt>
      <trkpt lat="48.81885" lon="2.17528">
        <ele>160</ele>
        <time>2016-05-21T08:49:18Z</time>
      </trkpt>
      <trkpt lat="48.8189" lon="2.17525">
        <ele>159</ele>
        <time>2016-05-21T08:49:22Z</time>
      </trkpt>
      <trkpt lat="48.81895" lon="2.17523">
        <ele>160</ele>
        <time>2016-05-21T08:49:26Z</time>
      </trkpt>
      <trkpt lat="48.819" lon="2.1752">
        <ele>160</ele>
        <time>2016-05-21T08:49:30Z</time>
      </trkpt>
      <trkpt lat="48.81905" lon="2.17519">
        <ele>159</ele>
        <time>2016-05-21T08:49:33Z</time>
      </trkpt>
      <trkpt lat="48.81911" lon="2.17517">
        <ele>157</ele>
        <time>2016-05-21T08:49:36Z</time>
      </trkpt>
      <trkpt lat="48.81917" lon="2.17517">
        <ele>155</ele>
        <time>2016-05-21T08:49:43Z</time>
      </trkpt>
      <trkpt lat="48.81921" lon="2.17516">
        <ele>154</ele>
        <time>2016-05-21T08:49:46Z</time>
      </trkpt>
      <trkpt lat="48.81926" lon="2.17514">
        <ele>153</ele>
        <time>2016-05-21T08:49:50Z</time>
      </trkpt>
      <trkpt lat="48.8193" lon="2.17511">
        <ele>151</ele>
        <time>2016-05-21T08:49:54Z</time>
      </trkpt>
      <trkpt lat="48.81933" lon="2.17506">
        <ele>151</ele>
        <time>2016-05-21T08:49:57Z</time>
      </trkpt>
      <trkpt lat="48.81938" lon="2.17504">
        <ele>150</ele>
        <time>2016-05-21T08:50:01Z</time>
      </trkpt>
      <trkpt lat="48.81943" lon="2.17504">
        <ele>149</ele>
        <time>2016-05-21T08:50:05Z</time>
      </trkpt>
      <trkpt lat="48.81949" lon="2.17504">
        <ele>148</ele>
        <time>2016-05-21T08:50:09Z</time>
      </trkpt>
      <trkpt lat="48.81954" lon="2.17501">
        <ele>147</ele>
        <time>2016-05-21T08:50:13Z</time>
      </trkpt>
      <trkpt lat="48.81961" lon="2.175">
        <ele>145</ele>
        <time>2016-05-21T08:50:16Z</time>
      </trkpt>
      <trkpt lat="48.81966" lon="2.17501">
        <ele>144</ele>
        <time>2016-05-21T08:50:19Z</time>
      </trkpt>
      <trkpt lat="48.81971" lon="2.17501">
        <ele>144</ele>
        <time>2016-05-21T08:50:22Z</time>
      </trkpt>
      <trkpt lat="48.81976" lon="2.17498">
        <ele>142</ele>
        <time>2016-05-21T08:50:26Z</time>
      </trkpt>
      <trkpt lat="48.81981" lon="2.17496">
        <ele>141</ele>
        <time>2016-05-21T08:50:30Z</time>
      </trkpt>
      <trkpt lat="48.81986" lon="2.17495">
        <ele>139</ele>
        <time>2016-05-21T08:50:33Z</time>
      </trkpt>
      <trkpt lat="48.81991" lon="2.17494">
        <ele>137</ele>
        <time>2016-05-21T08:50:37Z</time>
      </trkpt>
      <trkpt lat="48.81996" lon="2.17492">
        <ele>137</ele>
        <time>2016-05-21T08:50:40Z</time>
      </trkpt>
      <trkpt lat="48.82002" lon="2.17491">
        <ele>136</ele>
        <time>2016-05-21T08:50:44Z</time>
      </trkpt>
      <trkpt lat="48.82006" lon="2.17492">
        <ele>134</ele>
        <time>2016-05-21T08:50:48Z</time>
      </trkpt>
      <trkpt lat="48.82011" lon="2.17488">
        <ele>132</ele>
        <time>2016-05-21T08:50:51Z</time>
      </trkpt>
      <trkpt lat="48.82015" lon="2.17482">
        <ele>133</ele>
        <time>2016-05-21T08:50:54Z</time>
      </trkpt>
      <trkpt lat="48.82018" lon="2.17476">
        <ele>133</ele>
        <time>2016-05-21T08:50:57Z</time>
      </trkpt>
      <trkpt lat="48.82019" lon="2.17468">
        <ele>131</ele>
        <time>2016-05-21T08:51:00Z</time>
      </trkpt>
      <trkpt lat="48.82018" lon="2.17459">
        <ele>131</ele>
        <time>2016-05-21T08:51:03Z</time>
      </trkpt>
      <trkpt lat="48.82019" lon="2.17451">
        <ele>133</ele>
        <time>2016-05-21T08:51:06Z</time>
      </trkpt>
      <trkpt lat="48.82019" lon="2.17444">
        <ele>133</ele>
        <time>2016-05-21T08:51:09Z</time>
      </trkpt>
      <trkpt lat="48.82019" lon="2.17436">
        <ele>134</ele>
        <time>2016-05-21T08:51:13Z</time>
      </trkpt>
      <trkpt lat="48.82017" lon="2.17429">
        <ele>134</ele>
        <time>2016-05-21T08:51:18Z</time>
      </trkpt>
      <trkpt lat="48.82015" lon="2.17421">
        <ele>135</ele>
        <time>2016-05-21T08:51:22Z</time>
      </trkpt>
      <trkpt lat="48.82014" lon="2.17412">
        <ele>135</ele>
        <time>2016-05-21T08:51:25Z</time>
      </trkpt>
      <trkpt lat="48.82013" lon="2.17404">
        <ele>132</ele>
        <time>2016-05-21T08:51:28Z</time>
      </trkpt>
      <trkpt lat="48.82011" lon="2.17398">
        <ele>133</ele>
        <time>2016-05-21T08:51:31Z</time>
      </trkpt>
      <trkpt lat="48.82009" lon="2.17391">
        <ele>132</ele>
        <time>2016-05-21T08:51:34Z</time>
      </trkpt>
      <trkpt lat="48.82008" lon="2.17382">
        <ele>130</ele>
        <time>2016-05-21T08:51:37Z</time>
      </trkpt>
      <trkpt lat="48.82007" lon="2.17374">
        <ele>128</ele>
        <time>2016-05-21T08:51:40Z</time>
      </trkpt>
      <trkpt lat="48.82006" lon="2.17367">
        <ele>129</ele>
        <time>2016-05-21T08:51:43Z</time>
      </trkpt>
      <trkpt lat="48.82004" lon="2.1736">
        <ele>128</ele>
        <time>2016-05-21T08:51:46Z</time>
      </trkpt>
      <trkpt lat="48.82001" lon="2.17354">
        <ele>129</ele>
        <time>2016-05-21T08:51:49Z</time>
      </trkpt>
      <trkpt lat="48.81998" lon="2.17347">
        <ele>129</ele>
        <time>2016-05-21T08:51:53Z</time>
      </trkpt>
      <trkpt lat="48.81995" lon="2.17341">
        <ele>130</ele>
        <time>2016-05-21T08:51:57Z</time>
      </trkpt>
      <trkpt lat="48.81992" lon="2.17335">
        <ele>127</ele>
        <time>2016-05-21T08:52:01Z</time>
      </trkpt>
      <trkpt lat="48.8199" lon="2.17327">
        <ele>124</ele>
        <time>2016-05-21T08:52:04Z</time>
      </trkpt>
      <trkpt lat="48.81989" lon="2.17319">
        <ele>123</ele>
        <time>2016-05-21T08:52:07Z</time>
      </trkpt>
      <trkpt lat="48.81987" lon="2.1731">
        <ele>123</ele>
        <time>2016-05-21T08:52:11Z</time>
      </trkpt>
      <trkpt lat="48.81986" lon="2.17303">
        <ele>121</ele>
        <time>2016-05-21T08:52:14Z</time>
      </trkpt>
      <trkpt lat="48.81985" lon="2.17296">
        <ele>120</ele>
        <time>2016-05-21T08:52:17Z</time>
      </trkpt>
      <trkpt lat="48.81982" lon="2.1729">
        <ele>120</ele>
        <time>2016-05-21T08:52:20Z</time>
      </trkpt>
      <trkpt lat="48.81978" lon="2.17285">
        <ele>120</ele>
        <time>2016-05-21T08:52:22Z</time>
      </trkpt>
      <trkpt lat="48.81973" lon="2.17278">
        <ele>119</ele>
        <time>2016-05-21T08:52:25Z</time>
      </trkpt>
      <trkpt lat="48.81969" lon="2.17272">
        <ele>121</ele>
        <time>2016-05-21T08:52:28Z</time>
      </trkpt>
      <trkpt lat="48.81964" lon="2.17267">
        <ele>121</ele>
        <time>2016-05-21T08:52:31Z</time>
      </trkpt>
      <trkpt lat="48.81962" lon="2.17261">
        <ele>122</ele>
        <time>2016-05-21T08:52:34Z</time>
      </trkpt>
      <trkpt lat="48.8196" lon="2.17255">
        <ele>121</ele>
        <time>2016-05-21T08:52:37Z</time>
      </trkpt>
      <trkpt lat="48.81958" lon="2.17248">
        <ele>121</ele>
        <time>2016-05-21T08:52:40Z</time>
      </trkpt>
      <trkpt lat="48.81954" lon="2.17241">
        <ele>121</ele>
        <time>2016-05-21T08:52:44Z</time>
      </trkpt>
      <trkpt lat="48.81951" lon="2.17235">
        <ele>118</ele>
        <time>2016-05-21T08:52:47Z</time>
      </trkpt>
      <trkpt lat="48.81948" lon="2.17229">
        <ele>119</ele>
        <time>2016-05-21T08:52:51Z</time>
      </trkpt>
      <trkpt lat="48.81946" lon="2.17223">
        <ele>119</ele>
        <time>2016-05-21T08:52:56Z</time>
      </trkpt>
      <trkpt lat="48.8194" lon="2.17223">
        <ele>121</ele>
        <time>2016-05-21T08:53:00Z</time>
      </trkpt>
      <trkpt lat="48.81936" lon="2.17229">
        <ele>119</ele>
        <time>2016-05-21T08:53:03Z</time>
      </trkpt>
      <trkpt lat="48.81932" lon="2.17236">
        <ele>119</ele>
        <time>2016-05-21T08:53:06Z</time>
      </trkpt>
      <trkpt lat="48.81928" lon="2.17242">
        <ele>120</ele>
        <time>2016-05-21T08:53:10Z</time>
      </trkpt>
      <trkpt lat="48.81923" lon="2.17244">
        <ele>120</ele>
        <time>2016-05-21T08:53:14Z</time>
      </trkpt>
      <trkpt lat="48.81918" lon="2.17247">
        <ele>118</ele>
        <time>2016-05-21T08:53:18Z</time>
      </trkpt>
      <trkpt lat="48.81914" lon="2.17249">
        <ele>121</ele>
        <time>2016-05-21T08:53:25Z</time>
      </trkpt>
      <trkpt lat="48.81909" lon="2.17252">
        <ele>125</ele>
        <time>2016-05-21T08:53:31Z</time>
      </trkpt>
      <trkpt lat="48.81906" lon="2.17257">
        <ele>126</ele>
        <time>2016-05-21T08:53:38Z</time>
      </trkpt>
      <trkpt lat="48.81901" lon="2.17262">
        <ele>128</ele>
        <time>2016-05-21T08:53:43Z</time>
      </trkpt>
      <trkpt lat="48.81898" lon="2.17267">
        <ele>129</ele>
        <time>2016-05-21T08:53:47Z</time>
      </trkpt>
      <trkpt lat="48.81894" lon="2.17273">
        <ele>129</ele>
        <time>2016-05-21T08:53:52Z</time>
      </trkpt>
      <trkpt lat="48.81889" lon="2.17277">
        <ele>131</ele>
        <time>2016-05-21T08:53:56Z</time>
      </trkpt>
      <trkpt lat="48.81885" lon="2.17282">
        <ele>133</ele>
        <time>2016-05-21T08:54:01Z</time>
      </trkpt>
      <trkpt lat="48.81881" lon="2.17286">
        <ele>134</ele>
        <time>2016-05-21T08:54:05Z</time>
      </trkpt>
      <trkpt lat="48.81878" lon="2.17292">
        <ele>137</ele>
        <time>2016-05-21T08:54:10Z</time>
      </trkpt>
      <trkpt lat="48.81874" lon="2.17295">
        <ele>138</ele>
        <time>2016-05-21T08:54:15Z</time>
      </trkpt>
      <trkpt lat="48.81869" lon="2.173">
        <ele>140</ele>
        <time>2016-05-21T08:54:19Z</time>
      </trkpt>
      <trkpt lat="48.81864" lon="2.17303">
        <ele>144</ele>
        <time>2016-05-21T08:54:23Z</time>
      </trkpt>
      <trkpt lat="48.8186" lon="2.17308">
        <ele>144</ele>
        <time>2016-05-21T08:54:34Z</time>
      </trkpt>
      <trkpt lat="48.81857" lon="2.17313">
        <ele>147</ele>
        <time>2016-05-21T08:55:13Z</time>
      </trkpt>
      <trkpt lat="48.81856" lon="2.1732">
        <ele>145</ele>
        <time>2016-05-21T08:55:33Z</time>
      </trkpt>
      <trkpt lat="48.81851" lon="2.17322">
        <ele>147</ele>
        <time>2016-05-21T08:55:41Z</time>
      </trkpt>
      <trkpt lat="48.81846" lon="2.17325">
        <ele>147</ele>
        <time>2016-05-21T08:55:45Z</time>
      </trkpt>
      <trkpt lat="48.81841" lon="2.17328">
        <ele>147</ele>
        <time>2016-05-21T08:55:50Z</time>
      </trkpt>
      <trkpt lat="48.81838" lon="2.17333">
        <ele>150</ele>
        <time>2016-05-21T08:55:54Z</time>
      </trkpt>
      <trkpt lat="48.81834" lon="2.17337">
        <ele>153</ele>
        <time>2016-05-21T08:56:00Z</time>
      </trkpt>
      <trkpt lat="48.81831" lon="2.17343">
        <ele>153</ele>
        <time>2016-05-21T08:56:06Z</time>
      </trkpt>
      <trkpt lat="48.81827" lon="2.17347">
        <ele>152</ele>
        <time>2016-05-21T08:56:10Z</time>
      </trkpt>
      <trkpt lat="48.81824" lon="2.17353">
        <ele>154</ele>
        <time>2016-05-21T08:56:14Z</time>
      </trkpt>
      <trkpt lat="48.81819" lon="2.17357">
        <ele>158</ele>
        <time>2016-05-21T08:56:19Z</time>
      </trkpt>
      <trkpt lat="48.81815" lon="2.1736">
        <ele>158</ele>
        <time>2016-05-21T08:56:23Z</time>
      </trkpt>
      <trkpt lat="48.81811" lon="2.17364">
        <ele>159</ele>
        <time>2016-05-21T08:56:28Z</time>
      </trkpt>
      <trkpt lat="48.81808" lon="2.17372">
        <ele>164</ele>
        <time>2016-05-21T08:56:36Z</time>
      </trkpt>
      <trkpt lat="48.81806" lon="2.17378">
        <ele>164</ele>
        <time>2016-05-21T08:56:40Z</time>
      </trkpt>
      <trkpt lat="48.81802" lon="2.17383">
        <ele>163</ele>
        <time>2016-05-21T08:56:43Z</time>
      </trkpt>
      <trkpt lat="48.81799" lon="2.17387">
        <ele>163</ele>
        <time>2016-05-21T08:56:46Z</time>
      </trkpt>
      <trkpt lat="48.81794" lon="2.17392">
        <ele>162</ele>
        <time>2016-05-21T08:56:50Z</time>
      </trkpt>
      <trkpt lat="48.8179" lon="2.17393">
        <ele>158</ele>
        <time>2016-05-21T08:56:52Z</time>
      </trkpt>
      <trkpt lat="48.81785" lon="2.17395">
        <ele>161</ele>
        <time>2016-05-21T08:56:57Z</time>
      </trkpt>
      <trkpt lat="48.81781" lon="2.17401">
        <ele>162</ele>
        <time>2016-05-21T08:57:02Z</time>
      </trkpt>
      <trkpt lat="48.8178" lon="2.17409">
        <ele>159</ele>
        <time>2016-05-21T08:57:13Z</time>
      </trkpt>
      <trkpt lat="48.81781" lon="2.17417">
        <ele>158</ele>
        <time>2016-05-21T08:57:19Z</time>
      </trkpt>
      <trkpt lat="48.81777" lon="2.17427">
        <ele>159</ele>
        <time>2016-05-21T08:57:34Z</time>
      </trkpt>
      <trkpt lat="48.81777" lon="2.17439">
        <ele>165</ele>
        <time>2016-05-21T08:57:44Z</time>
      </trkpt>
      <trkpt lat="48.81775" lon="2.17445">
        <ele>164</ele>
        <time>2016-05-21T08:57:51Z</time>
      </trkpt>
      <trkpt lat="48.81776" lon="2.17435">
        <ele>161</ele>
        <time>2016-05-21T08:58:23Z</time>
      </trkpt>
      <trkpt lat="48.81778" lon="2.17427">
        <ele>157</ele>
        <time>2016-05-21T08:58:29Z</time>
      </trkpt>
      <trkpt lat="48.81774" lon="2.17425">
        <ele>153</ele>
        <time>2016-05-21T08:58:54Z</time>
      </trkpt>
      <trkpt lat="48.81775" lon="2.17418">
        <ele>155</ele>
        <time>2016-05-21T08:59:06Z</time>
      </trkpt>
      <trkpt lat="48.8177" lon="2.1742">
        <ele>164</ele>
        <time>2016-05-21T08:59:16Z</time>
      </trkpt>
      <trkpt lat="48.81766" lon="2.17422">
        <ele>168</ele>
        <time>2016-05-21T08:59:26Z</time>
      </trkpt>
      <trkpt lat="48.81761" lon="2.17424">
        <ele>170</ele>
        <time>2016-05-21T08:59:30Z</time>
      </trkpt>
      <trkpt lat="48.81765" lon="2.17429">
        <ele>170</ele>
        <time>2016-05-21T09:00:11Z</time>
      </trkpt>
      <trkpt lat="48.8177" lon="2.17428">
        <ele>167</ele>
        <time>2016-05-21T09:00:34Z</time>
      </trkpt>
      <trkpt lat="48.81774" lon="2.17422">
        <ele>167</ele>
        <time>2016-05-21T09:00:45Z</time>
      </trkpt>
      <trkpt lat="48.81778" lon="2.17416">
        <ele>165</ele>
        <time>2016-05-21T09:01:04Z</time>
      </trkpt>
      <trkpt lat="48.81785" lon="2.17423">
        <ele>167</ele>
        <time>2016-05-21T09:02:21Z</time>
      </trkpt>
      <trkpt lat="48.81787" lon="2.17415">
        <ele>161</ele>
        <time>2016-05-21T09:02:44Z</time>
      </trkpt>
      <trkpt lat="48.8179" lon="2.1741">
        <ele>163</ele>
        <time>2016-05-21T09:03:08Z</time>
      </trkpt>
      <trkpt lat="48.81793" lon="2.17415">
        <ele>162</ele>
        <time>2016-05-21T09:03:13Z</time>
      </trkpt>
      <trkpt lat="48.81791" lon="2.17422">
        <ele>160</ele>
        <time>2016-05-21T09:03:17Z</time>
      </trkpt>
      <trkpt lat="48.81787" lon="2.17426">
        <ele>164</ele>
        <time>2016-05-21T09:03:31Z</time>
      </trkpt>
      <trkpt lat="48.81781" lon="2.1743">
        <ele>164</ele>
        <time>2016-05-21T09:03:37Z</time>
      </trkpt>
      <trkpt lat="48.81776" lon="2.17429">
        <ele>163</ele>
        <time>2016-05-21T09:03:52Z</time>
      </trkpt>
      <trkpt lat="48.81777" lon="2.1742">
        <ele>157</ele>
        <time>2016-05-21T09:04:18Z</time>
      </trkpt>
      <trkpt lat="48.81776" lon="2.17411">
        <ele>159</ele>
        <time>2016-05-21T09:04:24Z</time>
      </trkpt>
      <trkpt lat="48.81773" lon="2.17406">
        <ele>154</ele>
        <time>2016-05-21T09:05:04Z</time>
      </trkpt>
      <trkpt lat="48.81774" lon="2.17399">
        <ele>157</ele>
        <time>2016-05-21T09:05:11Z</time>
      </trkpt>
      <trkpt lat="48.81773" lon="2.17392">
        <ele>165</ele>
        <time>2016-05-21T09:05:21Z</time>
      </trkpt>
      <trkpt lat="48.81769" lon="2.17386">
        <ele>164</ele>
        <time>2016-05-21T09:05:26Z</time>
      </trkpt>
      <trkpt lat="48.81764" lon="2.17384">
        <ele>164</ele>
        <time>2016-05-21T09:05:29Z</time>
      </trkpt>
      <trkpt lat="48.81761" lon="2.1738">
        <ele>165</ele>
        <time>2016-05-21T09:05:33Z</time>
      </trkpt>
      <trkpt lat="48.81757" lon="2.17374">
        <ele>166</ele>
        <time>2016-05-21T09:05:38Z</time>
      </trkpt>
      <trkpt lat="48.81753" lon="2.17368">
        <ele>167</ele>
        <time>2016-05-21T09:05:43Z</time>
      </trkpt>
      <trkpt lat="48.8175" lon="2.17363">
        <ele>166</ele>
        <time>2016-05-21T09:05:47Z</time>
      </trkpt>
      <trkpt lat="48.81745" lon="2.17361">
        <ele>163</ele>
        <time>2016-05-21T09:05:50Z</time>
      </trkpt>
      <trkpt lat="48.81741" lon="2.17365">
        <ele>160</ele>
        <time>2016-05-21T09:05:54Z</time>
      </trkpt>
      <trkpt lat="48.81737" lon="2.1737">
        <ele>161</ele>
        <time>2016-05-21T09:05:57Z</time>
      </trkpt>
      <trkpt lat="48.81733" lon="2.17374">
        <ele>162</ele>
        <time>2016-05-21T09:06:01Z</time>
      </trkpt>
      <trkpt lat="48.8173" lon="2.1738">
        <ele>164</ele>
        <time>2016-05-21T09:06:09Z</time>
      </trkpt>
      <trkpt lat="48.81725" lon="2.17376">
        <ele>157</ele>
        <time>2016-05-21T09:06:21Z</time>
      </trkpt>
      <trkpt lat="48.81723" lon="2.1737">
        <ele>159</ele>
        <time>2016-05-21T09:06:39Z</time>
      </trkpt>
      <trkpt lat="48.81728" lon="2.17364">
        <ele>163</ele>
        <time>2016-05-21T09:06:57Z</time>
      </trkpt>
      <trkpt lat="48.81725" lon="2.1737">
        <ele>158</ele>
        <time>2016-05-21T09:07:12Z</time>
      </trkpt>
      <trkpt lat="48.81721" lon="2.17366">
        <ele>160</ele>
        <time>2016-05-21T09:07:23Z</time>
      </trkpt>
      <trkpt lat="48.81719" lon="2.1736">
        <ele>156</ele>
        <time>2016-05-21T09:08:36Z</time>
      </trkpt>
      <trkpt lat="48.81726" lon="2.17357">
        <ele>159</ele>
        <time>2016-05-21T09:08:56Z</time>
      </trkpt>
      <trkpt lat="48.81721" lon="2.17359">
        <ele>161</ele>
        <time>2016-05-21T09:09:18Z</time>
      </trkpt>
      <trkpt lat="48.81717" lon="2.17353">
        <ele>162</ele>
        <time>2016-05-21T09:09:23Z</time>
      </trkpt>
      <trkpt lat="48.81713" lon="2.17346">
        <ele>161</ele>
        <time>2016-05-21T09:09:27Z</time>
      </trkpt>
      <trkpt lat="48.81709" lon="2.17342">
        <ele>162</ele>
        <time>2016-05-21T09:09:32Z</time>
      </trkpt>
      <trkpt lat="48.81704" lon="2.17338">
        <ele>161</ele>
        <time>2016-05-21T09:09:36Z</time>
      </trkpt>
      <trkpt lat="48.817" lon="2.17334">
        <ele>159</ele>
        <time>2016-05-21T09:09:39Z</time>
      </trkpt>
      <trkpt lat="48.81695" lon="2.17331">
        <ele>161</ele>
        <time>2016-05-21T09:09:43Z</time>
      </trkpt>
      <trkpt lat="48.81691" lon="2.17327">
        <ele>162</ele>
        <time>2016-05-21T09:09:46Z</time>
      </trkpt>
      <trkpt lat="48.81687" lon="2.17322">
        <ele>163</ele>
        <time>2016-05-21T09:09:50Z</time>
      </trkpt>
      <trkpt lat="48.81683" lon="2.17318">
        <ele>164</ele>
        <time>2016-05-21T09:09:56Z</time>
      </trkpt>
      <trkpt lat="48.81679" lon="2.17313">
        <ele>166</ele>
        <time>2016-05-21T09:10:03Z</time>
      </trkpt>
      <trkpt lat="48.81674" lon="2.17309">
        <ele>164</ele>
        <time>2016-05-21T09:10:07Z</time>
      </trkpt>
      <trkpt lat="48.81669" lon="2.17306">
        <ele>165</ele>
        <time>2016-05-21T09:10:10Z</time>
      </trkpt>
      <trkpt lat="48.81664" lon="2.17301">
        <ele>166</ele>
        <time>2016-05-21T09:10:14Z</time>
      </trkpt>
      <trkpt lat="48.8166" lon="2.17299">
        <ele>164</ele>
        <time>2016-05-21T09:10:18Z</time>
      </trkpt>
      <trkpt lat="48.81655" lon="2.17296">
        <ele>166</ele>
        <time>2016-05-21T09:10:22Z</time>
      </trkpt>
      <trkpt lat="48.81651" lon="2.17291">
        <ele>167</ele>
        <time>2016-05-21T09:10:26Z</time>
      </trkpt>
      <trkpt lat="48.81645" lon="2.1729">
        <ele>166</ele>
        <time>2016-05-21T09:10:29Z</time>
      </trkpt>
      <trkpt lat="48.81639" lon="2.17288">
        <ele>165</ele>
        <time>2016-05-21T09:10:32Z</time>
      </trkpt>
      <trkpt lat="48.81634" lon="2.17287">
        <ele>164</ele>
        <time>2016-05-21T09:10:36Z</time>
      </trkpt>
      <trkpt lat="48.81629" lon="2.17288">
        <ele>164</ele>
        <time>2016-05-21T09:10:39Z</time>
      </trkpt>
      <trkpt lat="48.81624" lon="2.1729">
        <ele>162</ele>
        <time>2016-05-21T09:10:42Z</time>
      </trkpt>
      <trkpt lat="48.8162" lon="2.17293">
        <ele>160</ele>
        <time>2016-05-21T09:10:46Z</time>
      </trkpt>
      <trkpt lat="48.81616" lon="2.17297">
        <ele>163</ele>
        <time>2016-05-21T09:10:51Z</time>
      </trkpt>
      <trkpt lat="48.81611" lon="2.17301">
        <ele>164</ele>
        <time>2016-05-21T09:10:55Z</time>
      </trkpt>
      <trkpt lat="48.81606" lon="2.17306">
        <ele>163</ele>
        <time>2016-05-21T09:11:00Z</time>
      </trkpt>
      <trkpt lat="48.81602" lon="2.17311">
        <ele>162</ele>
        <time>2016-05-21T09:11:04Z</time>
      </trkpt>
      <trkpt lat="48.816" lon="2.17318">
        <ele>162</ele>
        <time>2016-05-21T09:11:07Z</time>
      </trkpt>
      <trkpt lat="48.81597" lon="2.17326">
        <ele>162</ele>
        <time>2016-05-21T09:11:11Z</time>
      </trkpt>
      <trkpt lat="48.81593" lon="2.1733">
        <ele>162</ele>
        <time>2016-05-21T09:11:14Z</time>
      </trkpt>
      <trkpt lat="48.81589" lon="2.17334">
        <ele>164</ele>
        <time>2016-05-21T09:11:17Z</time>
      </trkpt>
      <trkpt lat="48.81585" lon="2.17338">
        <ele>164</ele>
        <time>2016-05-21T09:11:20Z</time>
      </trkpt>
      <trkpt lat="48.81581" lon="2.17343">
        <ele>164</ele>
        <time>2016-05-21T09:11:23Z</time>
      </trkpt>
      <trkpt lat="48.81579" lon="2.17349">
        <ele>164</ele>
        <time>2016-05-21T09:11:26Z</time>
      </trkpt>
      <trkpt lat="48.81577" lon="2.17355">
        <ele>164</ele>
        <time>2016-05-21T09:11:29Z</time>
      </trkpt>
      <trkpt lat="48.81574" lon="2.17362">
        <ele>164</ele>
        <time>2016-05-21T09:11:34Z</time>
      </trkpt>
      <trkpt lat="48.81571" lon="2.17367">
        <ele>163</ele>
        <time>2016-05-21T09:11:40Z</time>
      </trkpt>
      <trkpt lat="48.81566" lon="2.17372">
        <ele>161</ele>
        <time>2016-05-21T09:11:45Z</time>
      </trkpt>
      <trkpt lat="48.81563" lon="2.17379">
        <ele>161</ele>
        <time>2016-05-21T09:11:49Z</time>
      </trkpt>
      <trkpt lat="48.81561" lon="2.17386">
        <ele>163</ele>
        <time>2016-05-21T09:11:54Z</time>
      </trkpt>
      <trkpt lat="48.81558" lon="2.17392">
        <ele>164</ele>
        <time>2016-05-21T09:11:58Z</time>
      </trkpt>
      <trkpt lat="48.81554" lon="2.17398">
        <ele>162</ele>
        <time>2016-05-21T09:12:02Z</time>
      </trkpt>
      <trkpt lat="48.8155" lon="2.17403">
        <ele>162</ele>
        <time>2016-05-21T09:12:06Z</time>
      </trkpt>
      <trkpt lat="48.81547" lon="2.17408">
        <ele>162</ele>
        <time>2016-05-21T09:12:10Z</time>
      </trkpt>
      <trkpt lat="48.81543" lon="2.17415">
        <ele>162</ele>
        <time>2016-05-21T09:12:14Z</time>
      </trkpt>
      <trkpt lat="48.8154" lon="2.17421">
        <ele>164</ele>
        <time>2016-05-21T09:12:19Z</time>
      </trkpt>
      <trkpt lat="48.8153" lon="2.17446">
        <ele>166</ele>
        <time>2016-05-21T09:12:32Z</time>
      </trkpt>
      <trkpt lat="48.81528" lon="2.17452">
        <ele>166</ele>
        <time>2016-05-21T09:12:35Z</time>
      </trkpt>
      <trkpt lat="48.81526" lon="2.17459">
        <ele>164</ele>
        <time>2016-05-21T09:12:41Z</time>
      </trkpt>
      <trkpt lat="48.81523" lon="2.17454">
        <ele>161</ele>
        <time>2016-05-21T09:12:56Z</time>
      </trkpt>
      <trkpt lat="48.81519" lon="2.17449">
        <ele>160</ele>
        <time>2016-05-21T09:13:01Z</time>
      </trkpt>
      <trkpt lat="48.81518" lon="2.17441">
        <ele>160</ele>
        <time>2016-05-21T09:13:06Z</time>
      </trkpt>
      <trkpt lat="48.81516" lon="2.17433">
        <ele>160</ele>
        <time>2016-05-21T09:13:10Z</time>
      </trkpt>
      <trkpt lat="48.81515" lon="2.17426">
        <ele>162</ele>
        <time>2016-05-21T09:13:15Z</time>
      </trkpt>
      <trkpt lat="48.81514" lon="2.17419">
        <ele>161</ele>
        <time>2016-05-21T09:13:19Z</time>
      </trkpt>
      <trkpt lat="48.81514" lon="2.17411">
        <ele>159</ele>
        <time>2016-05-21T09:13:22Z</time>
      </trkpt>
      <trkpt lat="48.81513" lon="2.17401">
        <ele>156</ele>
        <time>2016-05-21T09:13:24Z</time>
      </trkpt>
      <trkpt lat="48.81513" lon="2.17391">
        <ele>154</ele>
        <time>2016-05-21T09:13:27Z</time>
      </trkpt>
      <trkpt lat="48.81516" lon="2.17385">
        <ele>153</ele>
        <time>2016-05-21T09:13:29Z</time>
      </trkpt>
      <trkpt lat="48.81519" lon="2.17378">
        <ele>152</ele>
        <time>2016-05-21T09:13:31Z</time>
      </trkpt>
      <trkpt lat="48.81523" lon="2.17372">
        <ele>152</ele>
        <time>2016-05-21T09:13:33Z</time>
      </trkpt>
      <trkpt lat="48.81526" lon="2.17366">
        <ele>152</ele>
        <time>2016-05-21T09:13:35Z</time>
      </trkpt>
      <trkpt lat="48.81528" lon="2.1736">
        <ele>154</ele>
        <time>2016-05-21T09:13:37Z</time>
      </trkpt>
      <trkpt lat="48.81529" lon="2.17352">
        <ele>154</ele>
        <time>2016-05-21T09:13:40Z</time>
      </trkpt>
      <trkpt lat="48.81529" lon="2.17344">
        <ele>155</ele>
        <time>2016-05-21T09:13:43Z</time>
      </trkpt>
      <trkpt lat="48.81526" lon="2.17336">
        <ele>155</ele>
        <time>2016-05-21T09:13:46Z</time>
      </trkpt>
      <trkpt lat="48.81524" lon="2.1733">
        <ele>155</ele>
        <time>2016-05-21T09:13:49Z</time>
      </trkpt>
      <trkpt lat="48.81523" lon="2.17322">
        <ele>157</ele>
        <time>2016-05-21T09:13:53Z</time>
      </trkpt>
      <trkpt lat="48.81522" lon="2.17314">
        <ele>157</ele>
        <time>2016-05-21T09:13:56Z</time>
      </trkpt>
      <trkpt lat="48.8152" lon="2.17307">
        <ele>157</ele>
        <time>2016-05-21T09:13:59Z</time>
      </trkpt>
      <trkpt lat="48.81519" lon="2.17299">
        <ele>156</ele>
        <time>2016-05-21T09:14:02Z</time>
      </trkpt>
      <trkpt lat="48.81519" lon="2.17291">
        <ele>155</ele>
        <time>2016-05-21T09:14:06Z</time>
      </trkpt>
      <trkpt lat="48.81519" lon="2.17283">
        <ele>153</ele>
        <time>2016-05-21T09:14:10Z</time>
      </trkpt>
      <trkpt lat="48.81518" lon="2.17275">
        <ele>153</ele>
        <time>2016-05-21T09:14:14Z</time>
      </trkpt>
      <trkpt lat="48.81517" lon="2.17267">
        <ele>152</ele>
        <time>2016-05-21T09:14:17Z</time>
      </trkpt>
      <trkpt lat="48.81515" lon="2.1726">
        <ele>151</ele>
        <time>2016-05-21T09:14:20Z</time>
      </trkpt>
      <trkpt lat="48.81512" lon="2.17253">
        <ele>150</ele>
        <time>2016-05-21T09:14:23Z</time>
      </trkpt>
      <trkpt lat="48.81511" lon="2.17245">
        <ele>150</ele>
        <time>2016-05-21T09:14:27Z</time>
      </trkpt>
      <trkpt lat="48.81511" lon="2.17236">
        <ele>149</ele>
        <time>2016-05-21T09:14:31Z</time>
      </trkpt>
      <trkpt lat="48.81512" lon="2.17229">
        <ele>148</ele>
        <time>2016-05-21T09:14:34Z</time>
      </trkpt>
      <trkpt lat="48.81512" lon="2.17222">
        <ele>146</ele>
        <time>2016-05-21T09:14:37Z</time>
      </trkpt>
      <trkpt lat="48.81512" lon="2.17215">
        <ele>145</ele>
        <time>2016-05-21T09:14:40Z</time>
      </trkpt>
      <trkpt lat="48.8151" lon="2.17207">
        <ele>142</ele>
        <time>2016-05-21T09:14:44Z</time>
      </trkpt>
      <trkpt lat="48.81508" lon="2.172">
        <ele>141</ele>
        <time>2016-05-21T09:14:47Z</time>
      </trkpt>
      <trkpt lat="48.81505" lon="2.17195">
        <ele>140</ele>
        <time>2016-05-21T09:14:50Z</time>
      </trkpt>
      <trkpt lat="48.81503" lon="2.17189">
        <ele>140</ele>
        <time>2016-05-21T09:14:54Z</time>
      </trkpt>
      <trkpt lat="48.81501" lon="2.17182">
        <ele>140</ele>
        <time>2016-05-21T09:14:58Z</time>
      </trkpt>
      <trkpt lat="48.81499" lon="2.17174">
        <ele>140</ele>
        <time>2016-05-21T09:15:02Z</time>
      </trkpt>
      <trkpt lat="48.81498" lon="2.17166">
        <ele>140</ele>
        <time>2016-05-21T09:15:06Z</time>
      </trkpt>
      <trkpt lat="48.81496" lon="2.17159">
        <ele>141</ele>
        <time>2016-05-21T09:15:10Z</time>
      </trkpt>
      <trkpt lat="48.81494" lon="2.17152">
        <ele>141</ele>
        <time>2016-05-21T09:15:14Z</time>
      </trkpt>
      <trkpt lat="48.81492" lon="2.17145">
        <ele>140</ele>
        <time>2016-05-21T09:15:19Z</time>
      </trkpt>
      <trkpt lat="48.81488" lon="2.17138">
        <ele>140</ele>
        <time>2016-05-21T09:15:23Z</time>
      </trkpt>
      <trkpt lat="48.81486" lon="2.1713">
        <ele>140</ele>
        <time>2016-05-21T09:15:30Z</time>
      </trkpt>
      <trkpt lat="48.81483" lon="2.17125">
        <ele>139</ele>
        <time>2016-05-21T09:15:34Z</time>
      </trkpt>
      <trkpt lat="48.81482" lon="2.17116">
        <ele>139</ele>
        <time>2016-05-21T09:15:38Z</time>
      </trkpt>
      <trkpt lat="48.81482" lon="2.17109">
        <ele>139</ele>
        <time>2016-05-21T09:15:42Z</time>
      </trkpt>
      <trkpt lat="48.81482" lon="2.171">
        <ele>140</ele>
        <time>2016-05-21T09:15:49Z</time>
      </trkpt>
      <trkpt lat="48.81482" lon="2.17092">
        <ele>141</ele>
        <time>2016-05-21T09:15:52Z</time>
      </trkpt>
      <trkpt lat="48.81482" lon="2.17085">
        <ele>140</ele>
        <time>2016-05-21T09:15:55Z</time>
      </trkpt>
      <trkpt lat="48.81479" lon="2.17079">
        <ele>140</ele>
        <time>2016-05-21T09:15:59Z</time>
      </trkpt>
      <trkpt lat="48.81477" lon="2.17072">
        <ele>138</ele>
        <time>2016-05-21T09:16:02Z</time>
      </trkpt>
      <trkpt lat="48.81475" lon="2.17065">
        <ele>137</ele>
        <time>2016-05-21T09:16:05Z</time>
      </trkpt>
      <trkpt lat="48.81472" lon="2.1706">
        <ele>138</ele>
        <time>2016-05-21T09:16:10Z</time>
      </trkpt>
      <trkpt lat="48.81469" lon="2.17054">
        <ele>138</ele>
        <time>2016-05-21T09:16:14Z</time>
      </trkpt>
      <trkpt lat="48.81467" lon="2.17046">
        <ele>136</ele>
        <time>2016-05-21T09:16:17Z</time>
      </trkpt>
      <trkpt lat="48.81465" lon="2.17038">
        <ele>134</ele>
        <time>2016-05-21T09:16:20Z</time>
      </trkpt>
      <trkpt lat="48.81464" lon="2.17031">
        <ele>134</ele>
        <time>2016-05-21T09:16:23Z</time>
      </trkpt>
      <trkpt lat="48.81462" lon="2.17024">
        <ele>133</ele>
        <time>2016-05-21T09:16:27Z</time>
      </trkpt>
      <trkpt lat="48.8146" lon="2.17016">
        <ele>134</ele>
        <time>2016-05-21T09:16:31Z</time>
      </trkpt>
      <trkpt lat="48.81458" lon="2.1701">
        <ele>134</ele>
        <time>2016-05-21T09:16:34Z</time>
      </trkpt>
      <trkpt lat="48.81455" lon="2.17003">
        <ele>133</ele>
        <time>2016-05-21T09:16:39Z</time>
      </trkpt>
      <trkpt lat="48.81454" lon="2.16995">
        <ele>131</ele>
        <time>2016-05-21T09:16:42Z</time>
      </trkpt>
      <trkpt lat="48.81454" lon="2.16986">
        <ele>132</ele>
        <time>2016-05-21T09:16:45Z</time>
      </trkpt>
      <trkpt lat="48.81454" lon="2.16978">
        <ele>132</ele>
        <time>2016-05-21T09:16:49Z</time>
      </trkpt>
      <trkpt lat="48.81452" lon="2.1697">
        <ele>133</ele>
        <time>2016-05-21T09:16:53Z</time>
      </trkpt>
      <trkpt lat="48.81449" lon="2.16965">
        <ele>134</ele>
        <time>2016-05-21T09:16:56Z</time>
      </trkpt>
      <trkpt lat="48.81445" lon="2.16959">
        <ele>134</ele>
        <time>2016-05-21T09:16:59Z</time>
      </trkpt>
      <trkpt lat="48.81442" lon="2.16951">
        <ele>135</ele>
        <time>2016-05-21T09:17:02Z</time>
      </trkpt>
      <trkpt lat="48.81439" lon="2.16943">
        <ele>135</ele>
        <time>2016-05-21T09:17:05Z</time>
      </trkpt>
      <trkpt lat="48.81436" lon="2.16936">
        <ele>136</ele>
        <time>2016-05-21T09:17:08Z</time>
      </trkpt>
      <trkpt lat="48.81433" lon="2.1693">
        <ele>135</ele>
        <time>2016-05-21T09:17:11Z</time>
      </trkpt>
      <trkpt lat="48.81431" lon="2.16923">
        <ele>135</ele>
        <time>2016-05-21T09:17:15Z</time>
      </trkpt>
      <trkpt lat="48.81429" lon="2.16916">
        <ele>135</ele>
        <time>2016-05-21T09:17:18Z</time>
      </trkpt>
      <trkpt lat="48.81427" lon="2.1691">
        <ele>136</ele>
        <time>2016-05-21T09:17:21Z</time>
      </trkpt>
      <trkpt lat="48.81425" lon="2.16903">
        <ele>137</ele>
        <time>2016-05-21T09:17:29Z</time>
      </trkpt>
      <trkpt lat="48.81422" lon="2.16897">
        <ele>138</ele>
        <time>2016-05-21T09:17:35Z</time>
      </trkpt>
      <trkpt lat="48.81419" lon="2.16891">
        <ele>140</ele>
        <time>2016-05-21T09:17:40Z</time>
      </trkpt>
      <trkpt lat="48.81417" lon="2.16883">
        <ele>141</ele>
        <time>2016-05-21T09:17:43Z</time>
      </trkpt>
      <trkpt lat="48.81415" lon="2.16876">
        <ele>141</ele>
        <time>2016-05-21T09:17:46Z</time>
      </trkpt>
      <trkpt lat="48.81414" lon="2.16869">
        <ele>141</ele>
        <time>2016-05-21T09:17:49Z</time>
      </trkpt>
      <trkpt lat="48.81415" lon="2.16861">
        <ele>143</ele>
        <time>2016-05-21T09:17:51Z</time>
      </trkpt>
      <trkpt lat="48.81415" lon="2.16853">
        <ele>143</ele>
        <time>2016-05-21T09:17:54Z</time>
      </trkpt>
      <trkpt lat="48.81415" lon="2.16845">
        <ele>146</ele>
        <time>2016-05-21T09:17:59Z</time>
      </trkpt>
      <trkpt lat="48.81414" lon="2.16838">
        <ele>144</ele>
        <time>2016-05-21T09:18:04Z</time>
      </trkpt>
      <trkpt lat="48.81411" lon="2.16832">
        <ele>145</ele>
        <time>2016-05-21T09:18:08Z</time>
      </trkpt>
      <trkpt lat="48.81409" lon="2.16825">
        <ele>143</ele>
        <time>2016-05-21T09:18:13Z</time>
      </trkpt>
      <trkpt lat="48.81409" lon="2.16817">
        <ele>141</ele>
        <time>2016-05-21T09:18:18Z</time>
      </trkpt>
      <trkpt lat="48.81408" lon="2.16809">
        <ele>140</ele>
        <time>2016-05-21T09:18:21Z</time>
      </trkpt>
      <trkpt lat="48.81406" lon="2.16803">
        <ele>142</ele>
        <time>2016-05-21T09:18:24Z</time>
      </trkpt>
      <trkpt lat="48.81407" lon="2.16795">
        <ele>144</ele>
        <time>2016-05-21T09:18:30Z</time>
      </trkpt>
      <trkpt lat="48.81408" lon="2.16788">
        <ele>146</ele>
        <time>2016-05-21T09:18:35Z</time>
      </trkpt>
      <trkpt lat="48.81407" lon="2.1678">
        <ele>148</ele>
        <time>2016-05-21T09:18:40Z</time>
      </trkpt>
      <trkpt lat="48.81405" lon="2.16773">
        <ele>149</ele>
        <time>2016-05-21T09:18:43Z</time>
      </trkpt>
      <trkpt lat="48.81404" lon="2.16765">
        <ele>149</ele>
        <time>2016-05-21T09:18:47Z</time>
      </trkpt>
      <trkpt lat="48.81403" lon="2.16758">
        <ele>149</ele>
        <time>2016-05-21T09:18:50Z</time>
      </trkpt>
      <trkpt lat="48.81402" lon="2.16751">
        <ele>150</ele>
        <time>2016-05-21T09:18:54Z</time>
      </trkpt>
      <trkpt lat="48.81402" lon="2.16743">
        <ele>152</ele>
        <time>2016-05-21T09:18:58Z</time>
      </trkpt>
      <trkpt lat="48.81402" lon="2.16736">
        <ele>151</ele>
        <time>2016-05-21T09:19:01Z</time>
      </trkpt>
      <trkpt lat="48.81402" lon="2.16728">
        <ele>154</ele>
        <time>2016-05-21T09:19:05Z</time>
      </trkpt>
      <trkpt lat="48.814" lon="2.16722">
        <ele>156</ele>
        <time>2016-05-21T09:19:09Z</time>
      </trkpt>
      <trkpt lat="48.81399" lon="2.16714">
        <ele>158</ele>
        <time>2016-05-21T09:19:15Z</time>
      </trkpt>
      <trkpt lat="48.81397" lon="2.16706">
        <ele>157</ele>
        <time>2016-05-21T09:19:19Z</time>
      </trkpt>
      <trkpt lat="48.81394" lon="2.16699">
        <ele>156</ele>
        <time>2016-05-21T09:19:22Z</time>
      </trkpt>
      <trkpt lat="48.81391" lon="2.16693">
        <ele>156</ele>
        <time>2016-05-21T09:19:24Z</time>
      </trkpt>
      <trkpt lat="48.81389" lon="2.16684">
        <ele>157</ele>
        <time>2016-05-21T09:19:27Z</time>
      </trkpt>
      <trkpt lat="48.81388" lon="2.16677">
        <ele>157</ele>
        <time>2016-05-21T09:19:30Z</time>
      </trkpt>
      <trkpt lat="48.81392" lon="2.16672">
        <ele>157</ele>
        <time>2016-05-21T09:19:35Z</time>
      </trkpt>
      <trkpt lat="48.81396" lon="2.16667">
        <ele>159</ele>
        <time>2016-05-21T09:19:40Z</time>
      </trkpt>
      <trkpt lat="48.81397" lon="2.1666">
        <ele>158</ele>
        <time>2016-05-21T09:19:45Z</time>
      </trkpt>
      <trkpt lat="48.81397" lon="2.16653">
        <ele>160</ele>
        <time>2016-05-21T09:19:50Z</time>
      </trkpt>
      <trkpt lat="48.81396" lon="2.16645">
        <ele>161</ele>
        <time>2016-05-21T09:19:57Z</time>
      </trkpt>
      <trkpt lat="48.81398" lon="2.16637">
        <ele>164</ele>
        <time>2016-05-21T09:20:02Z</time>
      </trkpt>
      <trkpt lat="48.81398" lon="2.1663">
        <ele>163</ele>
        <time>2016-05-21T09:20:05Z</time>
      </trkpt>
      <trkpt lat="48.814" lon="2.16623">
        <ele>162</ele>
        <time>2016-05-21T09:20:08Z</time>
      </trkpt>
      <trkpt lat="48.81401" lon="2.16615">
        <ele>161</ele>
        <time>2016-05-21T09:20:11Z</time>
      </trkpt>
      <trkpt lat="48.81402" lon="2.16608">
        <ele>161</ele>
        <time>2016-05-21T09:20:14Z</time>
      </trkpt>
      <trkpt lat="48.81404" lon="2.16599">
        <ele>159</ele>
        <time>2016-05-21T09:20:18Z</time>
      </trkpt>
      <trkpt lat="48.81405" lon="2.16592">
        <ele>160</ele>
        <time>2016-05-21T09:20:21Z</time>
      </trkpt>
      <trkpt lat="48.81407" lon="2.16584">
        <ele>159</ele>
        <time>2016-05-21T09:20:24Z</time>
      </trkpt>
      <trkpt lat="48.81408" lon="2.16577">
        <ele>158</ele>
        <time>2016-05-21T09:20:28Z</time>
      </trkpt>
      <trkpt lat="48.81408" lon="2.1657">
        <ele>158</ele>
        <time>2016-05-21T09:20:31Z</time>
      </trkpt>
      <trkpt lat="48.81409" lon="2.16562">
        <ele>158</ele>
        <time>2016-05-21T09:20:35Z</time>
      </trkpt>
      <trkpt lat="48.81412" lon="2.16555">
        <ele>159</ele>
        <time>2016-05-21T09:20:39Z</time>
      </trkpt>
      <trkpt lat="48.81413" lon="2.16548">
        <ele>160</ele>
        <time>2016-05-21T09:20:44Z</time>
      </trkpt>
      <trkpt lat="48.81414" lon="2.16541">
        <ele>161</ele>
        <time>2016-05-21T09:20:47Z</time>
      </trkpt>
      <trkpt lat="48.81417" lon="2.16534">
        <ele>160</ele>
        <time>2016-05-21T09:20:52Z</time>
      </trkpt>
      <trkpt lat="48.81419" lon="2.16526">
        <ele>161</ele>
        <time>2016-05-21T09:20:56Z</time>
      </trkpt>
      <trkpt lat="48.81421" lon="2.1652">
        <ele>161</ele>
        <time>2016-05-21T09:21:00Z</time>
      </trkpt>
      <trkpt lat="48.81424" lon="2.16513">
        <ele>161</ele>
        <time>2016-05-21T09:21:05Z</time>
      </trkpt>
      <trkpt lat="48.81428" lon="2.16507">
        <ele>161</ele>
        <time>2016-05-21T09:21:12Z</time>
      </trkpt>
      <trkpt lat="48.81429" lon="2.16499">
        <ele>160</ele>
        <time>2016-05-21T09:21:15Z</time>
      </trkpt>
      <trkpt lat="48.81431" lon="2.1649">
        <ele>160</ele>
        <time>2016-05-21T09:21:18Z</time>
      </trkpt>
      <trkpt lat="48.81432" lon="2.16481">
        <ele>160</ele>
        <time>2016-05-21T09:21:21Z</time>
      </trkpt>
      <trkpt lat="48.81433" lon="2.16474">
        <ele>160</ele>
        <time>2016-05-21T09:21:24Z</time>
      </trkpt>
      <trkpt lat="48.81434" lon="2.16467">
        <ele>160</ele>
        <time>2016-05-21T09:21:29Z</time>
      </trkpt>
      <trkpt lat="48.81436" lon="2.16459">
        <ele>162</ele>
        <time>2016-05-21T09:21:35Z</time>
      </trkpt>
      <trkpt lat="48.81439" lon="2.16452">
        <ele>164</ele>
        <time>2016-05-21T09:21:39Z</time>
      </trkpt>
      <trkpt lat="48.81441" lon="2.16445">
        <ele>164</ele>
        <time>2016-05-21T09:21:45Z</time>
      </trkpt>
      <trkpt lat="48.81445" lon="2.16441">
        <ele>165</ele>
        <time>2016-05-21T09:21:49Z</time>
      </trkpt>
      <trkpt lat="48.81448" lon="2.16435">
        <ele>164</ele>
        <time>2016-05-21T09:21:52Z</time>
      </trkpt>
      <trkpt lat="48.81449" lon="2.16428">
        <ele>163</ele>
        <time>2016-05-21T09:21:54Z</time>
      </trkpt>
      <trkpt lat="48.81453" lon="2.16422">
        <ele>161</ele>
        <time>2016-05-21T09:21:57Z</time>
      </trkpt>
      <trkpt lat="48.81458" lon="2.1642">
        <ele>162</ele>
        <time>2016-05-21T09:22:00Z</time>
      </trkpt>
      <trkpt lat="48.81463" lon="2.16422">
        <ele>162</ele>
        <time>2016-05-21T09:22:03Z</time>
      </trkpt>
      <trkpt lat="48.81467" lon="2.1642">
        <ele>161</ele>
        <time>2016-05-21T09:22:06Z</time>
      </trkpt>
      <trkpt lat="48.81472" lon="2.16416">
        <ele>163</ele>
        <time>2016-05-21T09:22:10Z</time>
      </trkpt>
      <trkpt lat="48.81476" lon="2.1641">
        <ele>163</ele>
        <time>2016-05-21T09:22:12Z</time>
      </trkpt>
      <trkpt lat="48.8148" lon="2.16405">
        <ele>162</ele>
        <time>2016-05-21T09:22:16Z</time>
      </trkpt>
      <trkpt lat="48.81484" lon="2.164">
        <ele>159</ele>
        <time>2016-05-21T09:22:19Z</time>
      </trkpt>
      <trkpt lat="48.81486" lon="2.16392">
        <ele>159</ele>
        <time>2016-05-21T09:22:22Z</time>
      </trkpt>
      <trkpt lat="48.81488" lon="2.16385">
        <ele>160</ele>
        <time>2016-05-21T09:22:26Z</time>
      </trkpt>
      <trkpt lat="48.81493" lon="2.16381">
        <ele>158</ele>
        <time>2016-05-21T09:22:30Z</time>
      </trkpt>
      <trkpt lat="48.81498" lon="2.16378">
        <ele>158</ele>
        <time>2016-05-21T09:22:33Z</time>
      </trkpt>
      <trkpt lat="48.81503" lon="2.16376">
        <ele>156</ele>
        <time>2016-05-21T09:22:36Z</time>
      </trkpt>
      <trkpt lat="48.81508" lon="2.16373">
        <ele>157</ele>
        <time>2016-05-21T09:22:40Z</time>
      </trkpt>
      <trkpt lat="48.81512" lon="2.16369">
        <ele>155</ele>
        <time>2016-05-21T09:22:43Z</time>
      </trkpt>
      <trkpt lat="48.81516" lon="2.16368">
        <ele>156</ele>
        <time>2016-05-21T09:22:47Z</time>
      </trkpt>
      <trkpt lat="48.81519" lon="2.16361">
        <ele>155</ele>
        <time>2016-05-21T09:22:53Z</time>
      </trkpt>
      <trkpt lat="48.81525" lon="2.16355">
        <ele>157</ele>
        <time>2016-05-21T09:22:56Z</time>
      </trkpt>
      <trkpt lat="48.81529" lon="2.16353">
        <ele>156</ele>
        <time>2016-05-21T09:22:59Z</time>
      </trkpt>
      <trkpt lat="48.81535" lon="2.16349">
        <ele>152</ele>
        <time>2016-05-21T09:23:03Z</time>
      </trkpt>
      <trkpt lat="48.81538" lon="2.16344">
        <ele>148</ele>
        <time>2016-05-21T09:23:06Z</time>
      </trkpt>
      <trkpt lat="48.81541" lon="2.16337">
        <ele>146</ele>
        <time>2016-05-21T09:23:09Z</time>
      </trkpt>
      <trkpt lat="48.81544" lon="2.16332">
        <ele>145</ele>
        <time>2016-05-21T09:23:11Z</time>
      </trkpt>
      <trkpt lat="48.81547" lon="2.16327">
        <ele>145</ele>
        <time>2016-05-21T09:23:13Z</time>
      </trkpt>
      <trkpt lat="48.81551" lon="2.16321">
        <ele>145</ele>
        <time>2016-05-21T09:23:16Z</time>
      </trkpt>
      <trkpt lat="48.81555" lon="2.16319">
        <ele>146</ele>
        <time>2016-05-21T09:23:18Z</time>
      </trkpt>
      <trkpt lat="48.8156" lon="2.16321">
        <ele>145</ele>
        <time>2016-05-21T09:23:21Z</time>
      </trkpt>
      <trkpt lat="48.81564" lon="2.16315">
        <ele>140</ele>
        <time>2016-05-21T09:23:25Z</time>
      </trkpt>
      <trkpt lat="48.81567" lon="2.16306">
        <ele>142</ele>
        <time>2016-05-21T09:23:29Z</time>
      </trkpt>
      <trkpt lat="48.81571" lon="2.163">
        <ele>144</ele>
        <time>2016-05-21T09:23:33Z</time>
      </trkpt>
      <trkpt lat="48.81576" lon="2.16295">
        <ele>145</ele>
        <time>2016-05-21T09:23:38Z</time>
      </trkpt>
      <trkpt lat="48.8158" lon="2.16289">
        <ele>144</ele>
        <time>2016-05-21T09:23:41Z</time>
      </trkpt>
      <trkpt lat="48.81585" lon="2.16283">
        <ele>144</ele>
        <time>2016-05-21T09:23:44Z</time>
      </trkpt>
      <trkpt lat="48.81589" lon="2.16281">
        <ele>145</ele>
        <time>2016-05-21T09:23:48Z</time>
      </trkpt>
      <trkpt lat="48.81594" lon="2.16278">
        <ele>144</ele>
        <time>2016-05-21T09:23:54Z</time>
      </trkpt>
      <trkpt lat="48.81599" lon="2.16274">
        <ele>144</ele>
        <time>2016-05-21T09:23:57Z</time>
      </trkpt>
      <trkpt lat="48.81602" lon="2.16269">
        <ele>144</ele>
        <time>2016-05-21T09:23:59Z</time>
      </trkpt>
      <trkpt lat="48.81606" lon="2.16264">
        <ele>150</ele>
        <time>2016-05-21T09:24:02Z</time>
      </trkpt>
      <trkpt lat="48.81611" lon="2.16261">
        <ele>150</ele>
        <time>2016-05-21T09:24:06Z</time>
      </trkpt>
      <trkpt lat="48.81615" lon="2.1626">
        <ele>152</ele>
        <time>2016-05-21T09:24:11Z</time>
      </trkpt>
      <trkpt lat="48.81614" lon="2.16271">
        <ele>156</ele>
        <time>2016-05-21T09:24:13Z</time>
      </trkpt>
      <trkpt lat="48.81614" lon="2.16279">
        <ele>153</ele>
        <time>2016-05-21T09:24:15Z</time>
      </trkpt>
      <trkpt lat="48.81618" lon="2.16274">
        <ele>154</ele>
        <time>2016-05-21T09:24:19Z</time>
      </trkpt>
      <trkpt lat="48.81623" lon="2.16268">
        <ele>153</ele>
        <time>2016-05-21T09:24:23Z</time>
      </trkpt>
      <trkpt lat="48.81629" lon="2.16264">
        <ele>153</ele>
        <time>2016-05-21T09:24:26Z</time>
      </trkpt>
      <trkpt lat="48.81634" lon="2.16263">
        <ele>153</ele>
        <time>2016-05-21T09:24:29Z</time>
      </trkpt>
      <trkpt lat="48.81639" lon="2.16261">
        <ele>154</ele>
        <time>2016-05-21T09:24:33Z</time>
      </trkpt>
      <trkpt lat="48.81643" lon="2.16259">
        <ele>151</ele>
        <time>2016-05-21T09:24:37Z</time>
      </trkpt>
      <trkpt lat="48.81649" lon="2.16256">
        <ele>152</ele>
        <time>2016-05-21T09:24:41Z</time>
      </trkpt>
      <trkpt lat="48.81654" lon="2.16256">
        <ele>151</ele>
        <time>2016-05-21T09:24:45Z</time>
      </trkpt>
      <trkpt lat="48.81659" lon="2.16257">
        <ele>151</ele>
        <time>2016-05-21T09:24:48Z</time>
      </trkpt>
      <trkpt lat="48.81664" lon="2.1626">
        <ele>150</ele>
        <time>2016-05-21T09:24:52Z</time>
      </trkpt>
      <trkpt lat="48.8167" lon="2.16262">
        <ele>148</ele>
        <time>2016-05-21T09:24:54Z</time>
      </trkpt>
      <trkpt lat="48.81675" lon="2.16263">
        <ele>149</ele>
        <time>2016-05-21T09:24:57Z</time>
      </trkpt>
      <trkpt lat="48.8168" lon="2.16263">
        <ele>147</ele>
        <time>2016-05-21T09:24:59Z</time>
      </trkpt>
      <trkpt lat="48.81685" lon="2.16263">
        <ele>149</ele>
        <time>2016-05-21T09:25:02Z</time>
      </trkpt>
      <trkpt lat="48.8169" lon="2.16267">
        <ele>149</ele>
        <time>2016-05-21T09:25:07Z</time>
      </trkpt>
      <trkpt lat="48.81694" lon="2.16264">
        <ele>147</ele>
        <time>2016-05-21T09:25:12Z</time>
      </trkpt>
      <trkpt lat="48.81699" lon="2.16262">
        <ele>147</ele>
        <time>2016-05-21T09:25:20Z</time>
      </trkpt>
      <trkpt lat="48.81702" lon="2.16256">
        <ele>147</ele>
        <time>2016-05-21T09:25:26Z</time>
      </trkpt>
      <trkpt lat="48.81707" lon="2.16251">
        <ele>148</ele>
        <time>2016-05-21T09:25:30Z</time>
      </trkpt>
      <trkpt lat="48.81711" lon="2.16249">
        <ele>147</ele>
        <time>2016-05-21T09:25:34Z</time>
      </trkpt>
      <trkpt lat="48.81714" lon="2.16243">
        <ele>146</ele>
        <time>2016-05-21T09:25:39Z</time>
      </trkpt>
      <trkpt lat="48.81714" lon="2.16235">
        <ele>147</ele>
        <time>2016-05-21T09:25:46Z</time>
      </trkpt>
      <trkpt lat="48.81711" lon="2.16228">
        <ele>146</ele>
        <time>2016-05-21T09:25:50Z</time>
      </trkpt>
      <trkpt lat="48.81708" lon="2.16222">
        <ele>147</ele>
        <time>2016-05-21T09:25:54Z</time>
      </trkpt>
      <trkpt lat="48.81705" lon="2.16216">
        <ele>146</ele>
        <time>2016-05-21T09:26:01Z</time>
      </trkpt>
      <trkpt lat="48.81709" lon="2.16211">
        <ele>145</ele>
        <time>2016-05-21T09:26:05Z</time>
      </trkpt>
      <trkpt lat="48.8171" lon="2.16204">
        <ele>145</ele>
        <time>2016-05-21T09:26:13Z</time>
      </trkpt>
      <trkpt lat="48.81713" lon="2.16198">
        <ele>145</ele>
        <time>2016-05-21T09:26:18Z</time>
      </trkpt>
      <trkpt lat="48.81714" lon="2.16191">
        <ele>144</ele>
        <time>2016-05-21T09:26:22Z</time>
      </trkpt>
      <trkpt lat="48.81714" lon="2.16184">
        <ele>145</ele>
        <time>2016-05-21T09:26:30Z</time>
      </trkpt>
      <trkpt lat="48.81716" lon="2.16175">
        <ele>145</ele>
        <time>2016-05-21T09:26:34Z</time>
      </trkpt>
      <trkpt lat="48.81717" lon="2.16167">
        <ele>146</ele>
        <time>2016-05-21T09:26:38Z</time>
      </trkpt>
      <trkpt lat="48.81719" lon="2.16159">
        <ele>146</ele>
        <time>2016-05-21T09:26:42Z</time>
      </trkpt>
      <trkpt lat="48.81721" lon="2.1615">
        <ele>150</ele>
        <time>2016-05-21T09:26:45Z</time>
      </trkpt>
      <trkpt lat="48.81723" lon="2.16141">
        <ele>149</ele>
        <time>2016-05-21T09:26:48Z</time>
      </trkpt>
      <trkpt lat="48.81724" lon="2.16133">
        <ele>151</ele>
        <time>2016-05-21T09:26:51Z</time>
      </trkpt>
      <trkpt lat="48.81724" lon="2.16125">
        <ele>153</ele>
        <time>2016-05-21T09:26:55Z</time>
      </trkpt>
      <trkpt lat="48.81725" lon="2.16117">
        <ele>152</ele>
        <time>2016-05-21T09:26:59Z</time>
      </trkpt>
      <trkpt lat="48.81728" lon="2.1611">
        <ele>149</ele>
        <time>2016-05-21T09:27:02Z</time>
      </trkpt>
      <trkpt lat="48.8173" lon="2.16103">
        <ele>150</ele>
        <time>2016-05-21T09:27:05Z</time>
      </trkpt>
      <trkpt lat="48.81733" lon="2.16095">
        <ele>150</ele>
        <time>2016-05-21T09:27:09Z</time>
      </trkpt>
      <trkpt lat="48.81735" lon="2.16089">
        <ele>150</ele>
        <time>2016-05-21T09:27:13Z</time>
      </trkpt>
      <trkpt lat="48.81736" lon="2.16081">
        <ele>150</ele>
        <time>2016-05-21T09:27:17Z</time>
      </trkpt>
      <trkpt lat="48.81737" lon="2.16073">
        <ele>152</ele>
        <time>2016-05-21T09:27:21Z</time>
      </trkpt>
      <trkpt lat="48.81738" lon="2.16065">
        <ele>152</ele>
        <time>2016-05-21T09:27:25Z</time>
      </trkpt>
      <trkpt lat="48.8174" lon="2.16057">
        <ele>155</ele>
        <time>2016-05-21T09:27:30Z</time>
      </trkpt>
      <trkpt lat="48.81742" lon="2.1605">
        <ele>155</ele>
        <time>2016-05-21T09:27:35Z</time>
      </trkpt>
      <trkpt lat="48.81742" lon="2.16042">
        <ele>153</ele>
        <time>2016-05-21T09:27:40Z</time>
      </trkpt>
      <trkpt lat="48.81743" lon="2.16035">
        <ele>154</ele>
        <time>2016-05-21T09:27:46Z</time>
      </trkpt>
      <trkpt lat="48.81743" lon="2.16026">
        <ele>153</ele>
        <time>2016-05-21T09:27:49Z</time>
      </trkpt>
      <trkpt lat="48.81744" lon="2.16017">
        <ele>154</ele>
        <time>2016-05-21T09:27:52Z</time>
      </trkpt>
      <trkpt lat="48.81746" lon="2.1601">
        <ele>155</ele>
        <time>2016-05-21T09:27:56Z</time>
      </trkpt>
      <trkpt lat="48.81749" lon="2.16004">
        <ele>156</ele>
        <time>2016-05-21T09:28:01Z</time>
      </trkpt>
      <trkpt lat="48.8175" lon="2.15997">
        <ele>155</ele>
        <time>2016-05-21T09:28:05Z</time>
      </trkpt>
      <trkpt lat="48.8175" lon="2.15989">
        <ele>158</ele>
        <time>2016-05-21T09:28:09Z</time>
      </trkpt>
      <trkpt lat="48.81751" lon="2.15982">
        <ele>160</ele>
        <time>2016-05-21T09:28:12Z</time>
      </trkpt>
      <trkpt lat="48.81751" lon="2.15974">
        <ele>162</ele>
        <time>2016-05-21T09:28:16Z</time>
      </trkpt>
      <trkpt lat="48.81753" lon="2.15967">
        <ele>160</ele>
        <time>2016-05-21T09:28:19Z</time>
      </trkpt>
      <trkpt lat="48.81754" lon="2.15959">
        <ele>158</ele>
        <time>2016-05-21T09:28:22Z</time>
      </trkpt>
      <trkpt lat="48.81756" lon="2.15952">
        <ele>157</ele>
        <time>2016-05-21T09:28:25Z</time>
      </trkpt>
      <trkpt lat="48.81757" lon="2.15945">
        <ele>157</ele>
        <time>2016-05-21T09:28:28Z</time>
      </trkpt>
      <trkpt lat="48.81757" lon="2.15936">
        <ele>161</ele>
        <time>2016-05-21T09:28:31Z</time>
      </trkpt>
      <trkpt lat="48.81758" lon="2.15929">
        <ele>161</ele>
        <time>2016-05-21T09:28:34Z</time>
      </trkpt>
      <trkpt lat="48.8176" lon="2.15922">
        <ele>159</ele>
        <time>2016-05-21T09:28:37Z</time>
      </trkpt>
      <trkpt lat="48.81762" lon="2.15915">
        <ele>159</ele>
        <time>2016-05-21T09:28:40Z</time>
      </trkpt>
      <trkpt lat="48.81764" lon="2.15908">
        <ele>159</ele>
        <time>2016-05-21T09:28:43Z</time>
      </trkpt>
      <trkpt lat="48.81766" lon="2.15901">
        <ele>159</ele>
        <time>2016-05-21T09:28:46Z</time>
      </trkpt>
      <trkpt lat="48.81768" lon="2.15895">
        <ele>159</ele>
        <time>2016-05-21T09:28:49Z</time>
      </trkpt>
      <trkpt lat="48.81769" lon="2.15888">
        <ele>159</ele>
        <time>2016-05-21T09:28:53Z</time>
      </trkpt>
      <trkpt lat="48.8177" lon="2.1588">
        <ele>157</ele>
        <time>2016-05-21T09:28:57Z</time>
      </trkpt>
      <trkpt lat="48.81771" lon="2.15872">
        <ele>157</ele>
        <time>2016-05-21T09:29:01Z</time>
      </trkpt>
      <trkpt lat="48.81771" lon="2.15863">
        <ele>156</ele>
        <time>2016-05-21T09:29:05Z</time>
      </trkpt>
      <trkpt lat="48.81772" lon="2.15855">
        <ele>158</ele>
        <time>2016-05-21T09:29:08Z</time>
      </trkpt>
      <trkpt lat="48.81774" lon="2.15847">
        <ele>158</ele>
        <time>2016-05-21T09:29:11Z</time>
      </trkpt>
      <trkpt lat="48.81776" lon="2.15838">
        <ele>159</ele>
        <time>2016-05-21T09:29:15Z</time>
      </trkpt>
      <trkpt lat="48.81777" lon="2.15831">
        <ele>158</ele>
        <time>2016-05-21T09:29:19Z</time>
      </trkpt>
      <trkpt lat="48.81778" lon="2.15824">
        <ele>157</ele>
        <time>2016-05-21T09:29:23Z</time>
      </trkpt>
      <trkpt lat="48.8178" lon="2.15816">
        <ele>158</ele>
        <time>2016-05-21T09:29:27Z</time>
      </trkpt>
      <trkpt lat="48.81784" lon="2.15809">
        <ele>157</ele>
        <time>2016-05-21T09:29:30Z</time>
      </trkpt>
      <trkpt lat="48.81786" lon="2.15802">
        <ele>156</ele>
        <time>2016-05-21T09:29:33Z</time>
      </trkpt>
      <trkpt lat="48.81787" lon="2.15793">
        <ele>154</ele>
        <time>2016-05-21T09:29:36Z</time>
      </trkpt>
      <trkpt lat="48.81787" lon="2.15784">
        <ele>153</ele>
        <time>2016-05-21T09:29:39Z</time>
      </trkpt>
      <trkpt lat="48.81789" lon="2.15777">
        <ele>154</ele>
        <time>2016-05-21T09:29:42Z</time>
      </trkpt>
      <trkpt lat="48.8179" lon="2.1577">
        <ele>154</ele>
        <time>2016-05-21T09:29:45Z</time>
      </trkpt>
      <trkpt lat="48.8179" lon="2.15762">
        <ele>156</ele>
        <time>2016-05-21T09:29:49Z</time>
      </trkpt>
      <trkpt lat="48.8179" lon="2.15754">
        <ele>158</ele>
        <time>2016-05-21T09:29:53Z</time>
      </trkpt>
      <trkpt lat="48.81792" lon="2.15746">
        <ele>161</ele>
        <time>2016-05-21T09:29:58Z</time>
      </trkpt>
      <trkpt lat="48.81795" lon="2.15739">
        <ele>161</ele>
        <time>2016-05-21T09:30:03Z</time>
      </trkpt>
      <trkpt lat="48.81794" lon="2.15731">
        <ele>162</ele>
        <time>2016-05-21T09:30:07Z</time>
      </trkpt>
      <trkpt lat="48.81795" lon="2.15722">
        <ele>162</ele>
        <time>2016-05-21T09:30:11Z</time>
      </trkpt>
      <trkpt lat="48.81795" lon="2.15715">
        <ele>165</ele>
        <time>2016-05-21T09:30:14Z</time>
      </trkpt>
      <trkpt lat="48.81795" lon="2.15707">
        <ele>167</ele>
        <time>2016-05-21T09:30:18Z</time>
      </trkpt>
      <trkpt lat="48.81795" lon="2.15699">
        <ele>168</ele>
        <time>2016-05-21T09:30:22Z</time>
      </trkpt>
      <trkpt lat="48.81795" lon="2.1569">
        <ele>168</ele>
        <time>2016-05-21T09:30:26Z</time>
      </trkpt>
      <trkpt lat="48.81796" lon="2.15683">
        <ele>167</ele>
        <time>2016-05-21T09:30:31Z</time>
      </trkpt>
      <trkpt lat="48.81796" lon="2.15676">
        <ele>165</ele>
        <time>2016-05-21T09:30:34Z</time>
      </trkpt>
      <trkpt lat="48.81797" lon="2.15669">
        <ele>163</ele>
        <time>2016-05-21T09:30:37Z</time>
      </trkpt>
      <trkpt lat="48.81798" lon="2.15661">
        <ele>162</ele>
        <time>2016-05-21T09:30:40Z</time>
      </trkpt>
      <trkpt lat="48.81801" lon="2.15652">
        <ele>160</ele>
        <time>2016-05-21T09:30:43Z</time>
      </trkpt>
      <trkpt lat="48.81803" lon="2.15644">
        <ele>161</ele>
        <time>2016-05-21T09:30:46Z</time>
      </trkpt>
      <trkpt lat="48.81804" lon="2.15637">
        <ele>160</ele>
        <time>2016-05-21T09:30:48Z</time>
      </trkpt>
      <trkpt lat="48.81804" lon="2.15628">
        <ele>161</ele>
        <time>2016-05-21T09:30:51Z</time>
      </trkpt>
      <trkpt lat="48.81803" lon="2.1562">
        <ele>160</ele>
        <time>2016-05-21T09:30:55Z</time>
      </trkpt>
      <trkpt lat="48.81803" lon="2.15612">
        <ele>160</ele>
        <time>2016-05-21T09:30:58Z</time>
      </trkpt>
      <trkpt lat="48.81806" lon="2.15603">
        <ele>159</ele>
        <time>2016-05-21T09:31:01Z</time>
      </trkpt>
      <trkpt lat="48.81807" lon="2.15595">
        <ele>158</ele>
        <time>2016-05-21T09:31:04Z</time>
      </trkpt>
      <trkpt lat="48.8181" lon="2.15588">
        <ele>159</ele>
        <time>2016-05-21T09:31:07Z</time>
      </trkpt>
      <trkpt lat="48.81812" lon="2.15582">
        <ele>157</ele>
        <time>2016-05-21T09:31:10Z</time>
      </trkpt>
      <trkpt lat="48.81813" lon="2.15574">
        <ele>157</ele>
        <time>2016-05-21T09:31:14Z</time>
      </trkpt>
      <trkpt lat="48.81816" lon="2.15566">
        <ele>157</ele>
        <time>2016-05-21T09:31:18Z</time>
      </trkpt>
      <trkpt lat="48.81818" lon="2.15559">
        <ele>159</ele>
        <time>2016-05-21T09:31:22Z</time>
      </trkpt>
      <trkpt lat="48.81821" lon="2.15551">
        <ele>157</ele>
        <time>2016-05-21T09:31:26Z</time>
      </trkpt>
      <trkpt lat="48.81823" lon="2.15544">
        <ele>158</ele>
        <time>2016-05-21T09:31:29Z</time>
      </trkpt>
      <trkpt lat="48.81824" lon="2.15536">
        <ele>157</ele>
        <time>2016-05-21T09:31:32Z</time>
      </trkpt>
      <trkpt lat="48.81825" lon="2.15529">
        <ele>157</ele>
        <time>2016-05-21T09:31:35Z</time>
      </trkpt>
      <trkpt lat="48.81828" lon="2.15523">
        <ele>159</ele>
        <time>2016-05-21T09:31:39Z</time>
      </trkpt>
      <trkpt lat="48.81826" lon="2.15515">
        <ele>160</ele>
        <time>2016-05-21T09:31:44Z</time>
      </trkpt>
      <trkpt lat="48.81825" lon="2.15507">
        <ele>162</ele>
        <time>2016-05-21T09:31:48Z</time>
      </trkpt>
      <trkpt lat="48.81826" lon="2.155">
        <ele>163</ele>
        <time>2016-05-21T09:31:53Z</time>
      </trkpt>
      <trkpt lat="48.81827" lon="2.15493">
        <ele>162</ele>
        <time>2016-05-21T09:31:57Z</time>
      </trkpt>
      <trkpt lat="48.81827" lon="2.15486">
        <ele>163</ele>
        <time>2016-05-21T09:32:00Z</time>
      </trkpt>
      <trkpt lat="48.81827" lon="2.15479">
        <ele>162</ele>
        <time>2016-05-21T09:32:04Z</time>
      </trkpt>
      <trkpt lat="48.81828" lon="2.15471">
        <ele>163</ele>
        <time>2016-05-21T09:32:08Z</time>
      </trkpt>
      <trkpt lat="48.81827" lon="2.15463">
        <ele>161</ele>
        <time>2016-05-21T09:32:10Z</time>
      </trkpt>
      <trkpt lat="48.81827" lon="2.15455">
        <ele>161</ele>
        <time>2016-05-21T09:32:13Z</time>
      </trkpt>
      <trkpt lat="48.81828" lon="2.15447">
        <ele>160</ele>
        <time>2016-05-21T09:32:16Z</time>
      </trkpt>
      <trkpt lat="48.81828" lon="2.15437">
        <ele>160</ele>
        <time>2016-05-21T09:32:19Z</time>
      </trkpt>
      <trkpt lat="48.8183" lon="2.15429">
        <ele>161</ele>
        <time>2016-05-21T09:32:22Z</time>
      </trkpt>
      <trkpt lat="48.81834" lon="2.15422">
        <ele>161</ele>
        <time>2016-05-21T09:32:25Z</time>
      </trkpt>
      <trkpt lat="48.81838" lon="2.15418">
        <ele>161</ele>
        <time>2016-05-21T09:32:32Z</time>
      </trkpt>
      <trkpt lat="48.81839" lon="2.15409">
        <ele>162</ele>
        <time>2016-05-21T09:32:36Z</time>
      </trkpt>
      <trkpt lat="48.81842" lon="2.15404">
        <ele>162</ele>
        <time>2016-05-21T09:32:41Z</time>
      </trkpt>
      <trkpt lat="48.81843" lon="2.15396">
        <ele>164</ele>
        <time>2016-05-21T09:32:47Z</time>
      </trkpt>
      <trkpt lat="48.81843" lon="2.1539">
        <ele>164</ele>
        <time>2016-05-21T09:32:50Z</time>
      </trkpt>
      <trkpt lat="48.81846" lon="2.15384">
        <ele>161</ele>
        <time>2016-05-21T09:32:54Z</time>
      </trkpt>
      <trkpt lat="48.81847" lon="2.15377">
        <ele>154</ele>
        <time>2016-05-21T09:33:02Z</time>
      </trkpt>
      <trkpt lat="48.8185" lon="2.15382">
        <ele>155</ele>
        <time>2016-05-21T09:33:17Z</time>
      </trkpt>
      <trkpt lat="48.81851" lon="2.15389">
        <ele>155</ele>
        <time>2016-05-21T09:33:23Z</time>
      </trkpt>
      <trkpt lat="48.81855" lon="2.15395">
        <ele>156</ele>
        <time>2016-05-21T09:33:28Z</time>
      </trkpt>
      <trkpt lat="48.81857" lon="2.15401">
        <ele>155</ele>
        <time>2016-05-21T09:33:32Z</time>
      </trkpt>
      <trkpt lat="48.81861" lon="2.15405">
        <ele>154</ele>
        <time>2016-05-21T09:33:35Z</time>
      </trkpt>
      <trkpt lat="48.81868" lon="2.15407">
        <ele>152</ele>
        <time>2016-05-21T09:33:38Z</time>
      </trkpt>
      <trkpt lat="48.81873" lon="2.1541">
        <ele>150</ele>
        <time>2016-05-21T09:33:42Z</time>
      </trkpt>
      <trkpt lat="48.81877" lon="2.15416">
        <ele>148</ele>
        <time>2016-05-21T09:33:46Z</time>
      </trkpt>
      <trkpt lat="48.81882" lon="2.15421">
        <ele>148</ele>
        <time>2016-05-21T09:33:49Z</time>
      </trkpt>
      <trkpt lat="48.81888" lon="2.15425">
        <ele>146</ele>
        <time>2016-05-21T09:33:52Z</time>
      </trkpt>
      <trkpt lat="48.81893" lon="2.15429">
        <ele>148</ele>
        <time>2016-05-21T09:33:55Z</time>
      </trkpt>
      <trkpt lat="48.81897" lon="2.15433">
        <ele>149</ele>
        <time>2016-05-21T09:33:58Z</time>
      </trkpt>
      <trkpt lat="48.81901" lon="2.15436">
        <ele>150</ele>
        <time>2016-05-21T09:34:01Z</time>
      </trkpt>
      <trkpt lat="48.81904" lon="2.15442">
        <ele>149</ele>
        <time>2016-05-21T09:34:05Z</time>
      </trkpt>
      <trkpt lat="48.81905" lon="2.15449">
        <ele>147</ele>
        <time>2016-05-21T09:34:08Z</time>
      </trkpt>
      <trkpt lat="48.81907" lon="2.15456">
        <ele>147</ele>
        <time>2016-05-21T09:34:12Z</time>
      </trkpt>
      <trkpt lat="48.81907" lon="2.15464">
        <ele>148</ele>
        <time>2016-05-21T09:34:16Z</time>
      </trkpt>
      <trkpt lat="48.81906" lon="2.15472">
        <ele>148</ele>
        <time>2016-05-21T09:34:20Z</time>
      </trkpt>
      <trkpt lat="48.81904" lon="2.15479">
        <ele>148</ele>
        <time>2016-05-21T09:34:24Z</time>
      </trkpt>
      <trkpt lat="48.81904" lon="2.15487">
        <ele>148</ele>
        <time>2016-05-21T09:34:29Z</time>
      </trkpt>
      <trkpt lat="48.81905" lon="2.15495">
        <ele>148</ele>
        <time>2016-05-21T09:34:33Z</time>
      </trkpt>
      <trkpt lat="48.81906" lon="2.15503">
        <ele>148</ele>
        <time>2016-05-21T09:34:40Z</time>
      </trkpt>
      <trkpt lat="48.81907" lon="2.1551">
        <ele>148</ele>
        <time>2016-05-21T09:34:44Z</time>
      </trkpt>
      <trkpt lat="48.8191" lon="2.15516">
        <ele>148</ele>
        <time>2016-05-21T09:34:48Z</time>
      </trkpt>
      <trkpt lat="48.81912" lon="2.15522">
        <ele>148</ele>
        <time>2016-05-21T09:34:50Z</time>
      </trkpt>
      <trkpt lat="48.81913" lon="2.15531">
        <ele>147</ele>
        <time>2016-05-21T09:34:52Z</time>
      </trkpt>
      <trkpt lat="48.81914" lon="2.1554">
        <ele>148</ele>
        <time>2016-05-21T09:34:54Z</time>
      </trkpt>
      <trkpt lat="48.81915" lon="2.15547">
        <ele>148</ele>
        <time>2016-05-21T09:34:56Z</time>
      </trkpt>
      <trkpt lat="48.81917" lon="2.15553">
        <ele>147</ele>
        <time>2016-05-21T09:34:58Z</time>
      </trkpt>
      <trkpt lat="48.81922" lon="2.1556">
        <ele>146</ele>
        <time>2016-05-21T09:35:01Z</time>
      </trkpt>
      <trkpt lat="48.81925" lon="2.15565">
        <ele>144</ele>
        <time>2016-05-21T09:35:03Z</time>
      </trkpt>
      <trkpt lat="48.81928" lon="2.1557">
        <ele>145</ele>
        <time>2016-05-21T09:35:05Z</time>
      </trkpt>
      <trkpt lat="48.81932" lon="2.15575">
        <ele>142</ele>
        <time>2016-05-21T09:35:07Z</time>
      </trkpt>
      <trkpt lat="48.81933" lon="2.15582">
        <ele>139</ele>
        <time>2016-05-21T09:35:13Z</time>
      </trkpt>
      <trkpt lat="48.81934" lon="2.1559">
        <ele>138</ele>
        <time>2016-05-21T09:35:17Z</time>
      </trkpt>
      <trkpt lat="48.81935" lon="2.15598">
        <ele>139</ele>
        <time>2016-05-21T09:35:21Z</time>
      </trkpt>
      <trkpt lat="48.81934" lon="2.15606">
        <ele>139</ele>
        <time>2016-05-21T09:35:26Z</time>
      </trkpt>
      <trkpt lat="48.81935" lon="2.15613">
        <ele>141</ele>
        <time>2016-05-21T09:35:31Z</time>
      </trkpt>
      <trkpt lat="48.81933" lon="2.15621">
        <ele>141</ele>
        <time>2016-05-21T09:35:35Z</time>
      </trkpt>
      <trkpt lat="48.8193" lon="2.15628">
        <ele>144</ele>
        <time>2016-05-21T09:35:40Z</time>
      </trkpt>
      <trkpt lat="48.81928" lon="2.15636">
        <ele>145</ele>
        <time>2016-05-21T09:35:43Z</time>
      </trkpt>
      <trkpt lat="48.81928" lon="2.15646">
        <ele>144</ele>
        <time>2016-05-21T09:35:46Z</time>
      </trkpt>
      <trkpt lat="48.81929" lon="2.15655">
        <ele>145</ele>
        <time>2016-05-21T09:35:49Z</time>
      </trkpt>
      <trkpt lat="48.8193" lon="2.15663">
        <ele>144</ele>
        <time>2016-05-21T09:35:52Z</time>
      </trkpt>
      <trkpt lat="48.81929" lon="2.15672">
        <ele>147</ele>
        <time>2016-05-21T09:35:56Z</time>
      </trkpt>
      <trkpt lat="48.8193" lon="2.15679">
        <ele>148</ele>
        <time>2016-05-21T09:35:59Z</time>
      </trkpt>
      <trkpt lat="48.81929" lon="2.15687">
        <ele>147</ele>
        <time>2016-05-21T09:36:03Z</time>
      </trkpt>
      <trkpt lat="48.8193" lon="2.15694">
        <ele>149</ele>
        <time>2016-05-21T09:36:06Z</time>
      </trkpt>
      <trkpt lat="48.81928" lon="2.15701">
        <ele>148</ele>
        <time>2016-05-21T09:36:09Z</time>
      </trkpt>
      <trkpt lat="48.81934" lon="2.15704">
        <ele>148</ele>
        <time>2016-05-21T09:36:43Z</time>
      </trkpt>
      <trkpt lat="48.81933" lon="2.15714">
        <ele>148</ele>
        <time>2016-05-21T09:37:02Z</time>
      </trkpt>
      <trkpt lat="48.81937" lon="2.15719">
        <ele>151</ele>
        <time>2016-05-21T09:38:06Z</time>
      </trkpt>
      <trkpt lat="48.81938" lon="2.15726">
        <ele>150</ele>
        <time>2016-05-21T09:38:12Z</time>
      </trkpt>
      <trkpt lat="48.81937" lon="2.15733">
        <ele>150</ele>
        <time>2016-05-21T09:38:16Z</time>
      </trkpt>
      <trkpt lat="48.81938" lon="2.15741">
        <ele>150</ele>
        <time>2016-05-21T09:38:22Z</time>
      </trkpt>
      <trkpt lat="48.81939" lon="2.15748">
        <ele>150</ele>
        <time>2016-05-21T09:38:26Z</time>
      </trkpt>
      <trkpt lat="48.81938" lon="2.15756">
        <ele>149</ele>
        <time>2016-05-21T09:38:30Z</time>
      </trkpt>
      <trkpt lat="48.81938" lon="2.15763">
        <ele>151</ele>
        <time>2016-05-21T09:38:34Z</time>
      </trkpt>
      <trkpt lat="48.81938" lon="2.15771">
        <ele>151</ele>
        <time>2016-05-21T09:38:39Z</time>
      </trkpt>
      <trkpt lat="48.81937" lon="2.15779">
        <ele>155</ele>
        <time>2016-05-21T09:38:43Z</time>
      </trkpt>
      <trkpt lat="48.81936" lon="2.15786">
        <ele>157</ele>
        <time>2016-05-21T09:38:47Z</time>
      </trkpt>
      <trkpt lat="48.81936" lon="2.15794">
        <ele>158</ele>
        <time>2016-05-21T09:38:53Z</time>
      </trkpt>
      <trkpt lat="48.81935" lon="2.15801">
        <ele>159</ele>
        <time>2016-05-21T09:38:59Z</time>
      </trkpt>
      <trkpt lat="48.81938" lon="2.15809">
        <ele>158</ele>
        <time>2016-05-21T09:39:05Z</time>
      </trkpt>
      <trkpt lat="48.8194" lon="2.15816">
        <ele>160</ele>
        <time>2016-05-21T09:39:08Z</time>
      </trkpt>
      <trkpt lat="48.81936" lon="2.15818">
        <ele>161</ele>
        <time>2016-05-21T09:39:10Z</time>
      </trkpt>
      <trkpt lat="48.81935" lon="2.15826">
        <ele>158</ele>
        <time>2016-05-21T09:39:17Z</time>
      </trkpt>
      <trkpt lat="48.81935" lon="2.15835">
        <ele>158</ele>
        <time>2016-05-21T09:39:21Z</time>
      </trkpt>
      <trkpt lat="48.81935" lon="2.15843">
        <ele>158</ele>
        <time>2016-05-21T09:39:25Z</time>
      </trkpt>
      <trkpt lat="48.81935" lon="2.15851">
        <ele>160</ele>
        <time>2016-05-21T09:39:29Z</time>
      </trkpt>
      <trkpt lat="48.81935" lon="2.15858">
        <ele>158</ele>
        <time>2016-05-21T09:39:33Z</time>
      </trkpt>
      <trkpt lat="48.81934" lon="2.15865">
        <ele>157</ele>
        <time>2016-05-21T09:39:36Z</time>
      </trkpt>
      <trkpt lat="48.81934" lon="2.15873">
        <ele>156</ele>
        <time>2016-05-21T09:39:39Z</time>
      </trkpt>
      <trkpt lat="48.81933" lon="2.15883">
        <ele>155</ele>
        <time>2016-05-21T09:39:42Z</time>
      </trkpt>
      <trkpt lat="48.81933" lon="2.15891">
        <ele>156</ele>
        <time>2016-05-21T09:39:45Z</time>
      </trkpt>
      <trkpt lat="48.81931" lon="2.15899">
        <ele>157</ele>
        <time>2016-05-21T09:39:49Z</time>
      </trkpt>
      <trkpt lat="48.81931" lon="2.15907">
        <ele>157</ele>
        <time>2016-05-21T09:39:52Z</time>
      </trkpt>
      <trkpt lat="48.81929" lon="2.15914">
        <ele>155</ele>
        <time>2016-05-21T09:39:55Z</time>
      </trkpt>
      <trkpt lat="48.81926" lon="2.1592">
        <ele>156</ele>
        <time>2016-05-21T09:39:58Z</time>
      </trkpt>
      <trkpt lat="48.81924" lon="2.15927">
        <ele>154</ele>
        <time>2016-05-21T09:40:01Z</time>
      </trkpt>
      <trkpt lat="48.81923" lon="2.15934">
        <ele>153</ele>
        <time>2016-05-21T09:40:04Z</time>
      </trkpt>
      <trkpt lat="48.81923" lon="2.15942">
        <ele>154</ele>
        <time>2016-05-21T09:40:07Z</time>
      </trkpt>
      <trkpt lat="48.81924" lon="2.15949">
        <ele>155</ele>
        <time>2016-05-21T09:40:10Z</time>
      </trkpt>
      <trkpt lat="48.81924" lon="2.15957">
        <ele>154</ele>
        <time>2016-05-21T09:40:15Z</time>
      </trkpt>
      <trkpt lat="48.81922" lon="2.15964">
        <ele>155</ele>
        <time>2016-05-21T09:40:19Z</time>
      </trkpt>
      <trkpt lat="48.81921" lon="2.15971">
        <ele>155</ele>
        <time>2016-05-21T09:40:22Z</time>
      </trkpt>
      <trkpt lat="48.81921" lon="2.15978">
        <ele>153</ele>
        <time>2016-05-21T09:40:25Z</time>
      </trkpt>
      <trkpt lat="48.81922" lon="2.15985">
        <ele>152</ele>
        <time>2016-05-21T09:40:29Z</time>
      </trkpt>
      <trkpt lat="48.81923" lon="2.15993">
        <ele>152</ele>
        <time>2016-05-21T09:40:32Z</time>
      </trkpt>
      <trkpt lat="48.81921" lon="2.16">
        <ele>145</ele>
        <time>2016-05-21T09:40:35Z</time>
      </trkpt>
      <trkpt lat="48.81918" lon="2.16008">
        <ele>149</ele>
        <time>2016-05-21T09:40:38Z</time>
      </trkpt>
      <trkpt lat="48.81917" lon="2.16015">
        <ele>150</ele>
        <time>2016-05-21T09:40:41Z</time>
      </trkpt>
      <trkpt lat="48.81917" lon="2.16023">
        <ele>149</ele>
        <time>2016-05-21T09:40:45Z</time>
      </trkpt>
      <trkpt lat="48.81918" lon="2.16029">
        <ele>150</ele>
        <time>2016-05-21T09:40:48Z</time>
      </trkpt>
      <trkpt lat="48.81921" lon="2.16037">
        <ele>148</ele>
        <time>2016-05-21T09:40:51Z</time>
      </trkpt>
      <trkpt lat="48.81925" lon="2.16042">
        <ele>143</ele>
        <time>2016-05-21T09:40:54Z</time>
      </trkpt>
      <trkpt lat="48.81931" lon="2.16046">
        <ele>142</ele>
        <time>2016-05-21T09:40:57Z</time>
      </trkpt>
      <trkpt lat="48.81935" lon="2.16052">
        <ele>140</ele>
        <time>2016-05-21T09:41:00Z</time>
      </trkpt>
      <trkpt lat="48.81936" lon="2.1606">
        <ele>141</ele>
        <time>2016-05-21T09:41:03Z</time>
      </trkpt>
      <trkpt lat="48.81935" lon="2.16067">
        <ele>142</ele>
        <time>2016-05-21T09:41:06Z</time>
      </trkpt>
      <trkpt lat="48.81933" lon="2.16075">
        <ele>142</ele>
        <time>2016-05-21T09:41:10Z</time>
      </trkpt>
      <trkpt lat="48.81931" lon="2.16082">
        <ele>144</ele>
        <time>2016-05-21T09:41:13Z</time>
      </trkpt>
      <trkpt lat="48.81931" lon="2.1609">
        <ele>145</ele>
        <time>2016-05-21T09:41:17Z</time>
      </trkpt>
      <trkpt lat="48.81931" lon="2.16097">
        <ele>143</ele>
        <time>2016-05-21T09:41:23Z</time>
      </trkpt>
      <trkpt lat="48.81933" lon="2.16105">
        <ele>144</ele>
        <time>2016-05-21T09:41:26Z</time>
      </trkpt>
      <trkpt lat="48.81934" lon="2.16112">
        <ele>143</ele>
        <time>2016-05-21T09:41:29Z</time>
      </trkpt>
      <trkpt lat="48.81936" lon="2.16119">
        <ele>142</ele>
        <time>2016-05-21T09:41:31Z</time>
      </trkpt>
      <trkpt lat="48.81938" lon="2.16127">
        <ele>142</ele>
        <time>2016-05-21T09:41:34Z</time>
      </trkpt>
      <trkpt lat="48.81939" lon="2.16135">
        <ele>143</ele>
        <time>2016-05-21T09:41:37Z</time>
      </trkpt>
      <trkpt lat="48.81939" lon="2.16145">
        <ele>143</ele>
        <time>2016-05-21T09:41:41Z</time>
      </trkpt>
      <trkpt lat="48.81942" lon="2.16151">
        <ele>143</ele>
        <time>2016-05-21T09:41:44Z</time>
      </trkpt>
      <trkpt lat="48.81945" lon="2.16159">
        <ele>144</ele>
        <time>2016-05-21T09:41:47Z</time>
      </trkpt>
      <trkpt lat="48.81949" lon="2.16165">
        <ele>143</ele>
        <time>2016-05-21T09:41:50Z</time>
      </trkpt>
      <trkpt lat="48.81949" lon="2.16173">
        <ele>142</ele>
        <time>2016-05-21T09:41:54Z</time>
      </trkpt>
      <trkpt lat="48.8195" lon="2.16182">
        <ele>141</ele>
        <time>2016-05-21T09:41:57Z</time>
      </trkpt>
      <trkpt lat="48.8195" lon="2.16191">
        <ele>140</ele>
        <time>2016-05-21T09:42:00Z</time>
      </trkpt>
      <trkpt lat="48.8195" lon="2.162">
        <ele>138</ele>
        <time>2016-05-21T09:42:03Z</time>
      </trkpt>
      <trkpt lat="48.81948" lon="2.16207">
        <ele>140</ele>
        <time>2016-05-21T09:42:07Z</time>
      </trkpt>
      <trkpt lat="48.81948" lon="2.16215">
        <ele>142</ele>
        <time>2016-05-21T09:42:12Z</time>
      </trkpt>
      <trkpt lat="48.81949" lon="2.16221">
        <ele>142</ele>
        <time>2016-05-21T09:42:17Z</time>
      </trkpt>
      <trkpt lat="48.81952" lon="2.16228">
        <ele>144</ele>
        <time>2016-05-21T09:42:23Z</time>
      </trkpt>
      <trkpt lat="48.81956" lon="2.16235">
        <ele>142</ele>
        <time>2016-05-21T09:42:26Z</time>
      </trkpt>
      <trkpt lat="48.81958" lon="2.16241">
        <ele>142</ele>
        <time>2016-05-21T09:42:29Z</time>
      </trkpt>
      <trkpt lat="48.81961" lon="2.16249">
        <ele>143</ele>
        <time>2016-05-21T09:42:32Z</time>
      </trkpt>
      <trkpt lat="48.81963" lon="2.16256">
        <ele>143</ele>
        <time>2016-05-21T09:42:35Z</time>
      </trkpt>
      <trkpt lat="48.81965" lon="2.16263">
        <ele>141</ele>
        <time>2016-05-21T09:42:38Z</time>
      </trkpt>
      <trkpt lat="48.81968" lon="2.16271">
        <ele>141</ele>
        <time>2016-05-21T09:42:41Z</time>
      </trkpt>
      <trkpt lat="48.8197" lon="2.1628">
        <ele>142</ele>
        <time>2016-05-21T09:42:44Z</time>
      </trkpt>
      <trkpt lat="48.81971" lon="2.16287">
        <ele>142</ele>
        <time>2016-05-21T09:42:47Z</time>
      </trkpt>
      <trkpt lat="48.81969" lon="2.16294">
        <ele>140</ele>
        <time>2016-05-21T09:42:54Z</time>
      </trkpt>
      <trkpt lat="48.81971" lon="2.163">
        <ele>137</ele>
        <time>2016-05-21T09:42:58Z</time>
      </trkpt>
      <trkpt lat="48.81969" lon="2.16306">
        <ele>138</ele>
        <time>2016-05-21T09:43:04Z</time>
      </trkpt>
      <trkpt lat="48.81967" lon="2.16314">
        <ele>139</ele>
        <time>2016-05-21T09:43:07Z</time>
      </trkpt>
      <trkpt lat="48.81966" lon="2.1632">
        <ele>138</ele>
        <time>2016-05-21T09:43:10Z</time>
      </trkpt>
      <trkpt lat="48.81966" lon="2.16328">
        <ele>138</ele>
        <time>2016-05-21T09:43:13Z</time>
      </trkpt>
      <trkpt lat="48.81968" lon="2.16335">
        <ele>139</ele>
        <time>2016-05-21T09:43:16Z</time>
      </trkpt>
      <trkpt lat="48.81972" lon="2.16344">
        <ele>137</ele>
        <time>2016-05-21T09:43:19Z</time>
      </trkpt>
      <trkpt lat="48.81974" lon="2.16351">
        <ele>136</ele>
        <time>2016-05-21T09:43:21Z</time>
      </trkpt>
      <trkpt lat="48.81979" lon="2.16357">
        <ele>134</ele>
        <time>2016-05-21T09:43:23Z</time>
      </trkpt>
      <trkpt lat="48.81982" lon="2.16362">
        <ele>133</ele>
        <time>2016-05-21T09:43:25Z</time>
      </trkpt>
      <trkpt lat="48.81986" lon="2.16366">
        <ele>133</ele>
        <time>2016-05-21T09:43:28Z</time>
      </trkpt>
      <trkpt lat="48.81991" lon="2.16365">
        <ele>129</ele>
        <time>2016-05-21T09:43:33Z</time>
      </trkpt>
      <trkpt lat="48.81995" lon="2.16362">
        <ele>129</ele>
        <time>2016-05-21T09:43:36Z</time>
      </trkpt>
      <trkpt lat="48.82" lon="2.16358">
        <ele>129</ele>
        <time>2016-05-21T09:43:39Z</time>
      </trkpt>
      <trkpt lat="48.82005" lon="2.16354">
        <ele>128</ele>
        <time>2016-05-21T09:43:44Z</time>
      </trkpt>
      <trkpt lat="48.82009" lon="2.16352">
        <ele>128</ele>
        <time>2016-05-21T09:43:48Z</time>
      </trkpt>
      <trkpt lat="48.82013" lon="2.16344">
        <ele>125</ele>
        <time>2016-05-21T09:43:50Z</time>
      </trkpt>
      <trkpt lat="48.82016" lon="2.16338">
        <ele>124</ele>
        <time>2016-05-21T09:43:54Z</time>
      </trkpt>
      <trkpt lat="48.8202" lon="2.16332">
        <ele>123</ele>
        <time>2016-05-21T09:43:57Z</time>
      </trkpt>
      <trkpt lat="48.82023" lon="2.16326">
        <ele>124</ele>
        <time>2016-05-21T09:44:00Z</time>
      </trkpt>
      <trkpt lat="48.82027" lon="2.16321">
        <ele>122</ele>
        <time>2016-05-21T09:44:03Z</time>
      </trkpt>
      <trkpt lat="48.8203" lon="2.16315">
        <ele>121</ele>
        <time>2016-05-21T09:44:07Z</time>
      </trkpt>
      <trkpt lat="48.82033" lon="2.1631">
        <ele>123</ele>
        <time>2016-05-21T09:44:10Z</time>
      </trkpt>
      <trkpt lat="48.82038" lon="2.16305">
        <ele>125</ele>
        <time>2016-05-21T09:44:14Z</time>
      </trkpt>
      <trkpt lat="48.82042" lon="2.16301">
        <ele>125</ele>
        <time>2016-05-21T09:44:19Z</time>
      </trkpt>
      <trkpt lat="48.82046" lon="2.16297">
        <ele>125</ele>
        <time>2016-05-21T09:44:22Z</time>
      </trkpt>
      <trkpt lat="48.8205" lon="2.16292">
        <ele>126</ele>
        <time>2016-05-21T09:44:25Z</time>
      </trkpt>
      <trkpt lat="48.82054" lon="2.16287">
        <ele>127</ele>
        <time>2016-05-21T09:44:28Z</time>
      </trkpt>
      <trkpt lat="48.82058" lon="2.16282">
        <ele>128</ele>
        <time>2016-05-21T09:44:31Z</time>
      </trkpt>
      <trkpt lat="48.82063" lon="2.16278">
        <ele>134</ele>
        <time>2016-05-21T09:44:41Z</time>
      </trkpt>
      <trkpt lat="48.82066" lon="2.16272">
        <ele>135</ele>
        <time>2016-05-21T09:44:45Z</time>
      </trkpt>
      <trkpt lat="48.82066" lon="2.16265">
        <ele>133</ele>
        <time>2016-05-21T09:44:51Z</time>
      </trkpt>
      <trkpt lat="48.82069" lon="2.16258">
        <ele>135</ele>
        <time>2016-05-21T09:44:55Z</time>
      </trkpt>
      <trkpt lat="48.82072" lon="2.16253">
        <ele>135</ele>
        <time>2016-05-21T09:45:00Z</time>
      </trkpt>
      <trkpt lat="48.82076" lon="2.16255">
        <ele>135</ele>
        <time>2016-05-21T09:45:10Z</time>
      </trkpt>
      <trkpt lat="48.82072" lon="2.16252">
        <ele>134</ele>
        <time>2016-05-21T09:45:17Z</time>
      </trkpt>
      <trkpt lat="48.82067" lon="2.16252">
        <ele>135</ele>
        <time>2016-05-21T09:45:22Z</time>
      </trkpt>
      <trkpt lat="48.82062" lon="2.1625">
        <ele>137</ele>
        <time>2016-05-21T09:45:26Z</time>
      </trkpt>
      <trkpt lat="48.82058" lon="2.16255">
        <ele>142</ele>
        <time>2016-05-21T09:45:32Z</time>
      </trkpt>
      <trkpt lat="48.82053" lon="2.1626">
        <ele>145</ele>
        <time>2016-05-21T09:45:37Z</time>
      </trkpt>
      <trkpt lat="48.82049" lon="2.16265">
        <ele>143</ele>
        <time>2016-05-21T09:45:40Z</time>
      </trkpt>
      <trkpt lat="48.82046" lon="2.16273">
        <ele>135</ele>
        <time>2016-05-21T09:45:43Z</time>
      </trkpt>
      <trkpt lat="48.82043" lon="2.1628">
        <ele>134</ele>
        <time>2016-05-21T09:45:46Z</time>
      </trkpt>
      <trkpt lat="48.8204" lon="2.16286">
        <ele>136</ele>
        <time>2016-05-21T09:45:50Z</time>
      </trkpt>
      <trkpt lat="48.82036" lon="2.16292">
        <ele>134</ele>
        <time>2016-05-21T09:45:55Z</time>
      </trkpt>
      <trkpt lat="48.82034" lon="2.163">
        <ele>134</ele>
        <time>2016-05-21T09:45:59Z</time>
      </trkpt>
      <trkpt lat="48.82032" lon="2.16308">
        <ele>133</ele>
        <time>2016-05-21T09:46:02Z</time>
      </trkpt>
      <trkpt lat="48.82029" lon="2.16313">
        <ele>133</ele>
        <time>2016-05-21T09:46:05Z</time>
      </trkpt>
      <trkpt lat="48.82025" lon="2.16318">
        <ele>133</ele>
        <time>2016-05-21T09:46:11Z</time>
      </trkpt>
      <trkpt lat="48.8202" lon="2.16323">
        <ele>133</ele>
        <time>2016-05-21T09:46:15Z</time>
      </trkpt>
      <trkpt lat="48.82017" lon="2.16327">
        <ele>134</ele>
        <time>2016-05-21T09:46:18Z</time>
      </trkpt>
      <trkpt lat="48.82013" lon="2.16334">
        <ele>136</ele>
        <time>2016-05-21T09:46:21Z</time>
      </trkpt>
      <trkpt lat="48.82009" lon="2.16338">
        <ele>137</ele>
        <time>2016-05-21T09:46:25Z</time>
      </trkpt>
      <trkpt lat="48.82004" lon="2.16342">
        <ele>140</ele>
        <time>2016-05-21T09:46:29Z</time>
      </trkpt>
      <trkpt lat="48.82" lon="2.16347">
        <ele>141</ele>
        <time>2016-05-21T09:46:32Z</time>
      </trkpt>
      <trkpt lat="48.81996" lon="2.1635">
        <ele>142</ele>
        <time>2016-05-21T09:46:37Z</time>
      </trkpt>
      <trkpt lat="48.81993" lon="2.16355">
        <ele>142</ele>
        <time>2016-05-21T09:46:42Z</time>
      </trkpt>
      <trkpt lat="48.81991" lon="2.16363">
        <ele>142</ele>
        <time>2016-05-21T09:46:46Z</time>
      </trkpt>
      <trkpt lat="48.81992" lon="2.16371">
        <ele>141</ele>
        <time>2016-05-21T09:46:49Z</time>
      </trkpt>
      <trkpt lat="48.81992" lon="2.16378">
        <ele>141</ele>
        <time>2016-05-21T09:46:53Z</time>
      </trkpt>
      <trkpt lat="48.81994" lon="2.16385">
        <ele>138</ele>
        <time>2016-05-21T09:47:00Z</time>
      </trkpt>
      <trkpt lat="48.81993" lon="2.16392">
        <ele>139</ele>
        <time>2016-05-21T09:47:03Z</time>
      </trkpt>
      <trkpt lat="48.81993" lon="2.16399">
        <ele>139</ele>
        <time>2016-05-21T09:47:06Z</time>
      </trkpt>
      <trkpt lat="48.81994" lon="2.16408">
        <ele>138</ele>
        <time>2016-05-21T09:47:09Z</time>
      </trkpt>
      <trkpt lat="48.81994" lon="2.16418">
        <ele>138</ele>
        <time>2016-05-21T09:47:12Z</time>
      </trkpt>
      <trkpt lat="48.81994" lon="2.16426">
        <ele>139</ele>
        <time>2016-05-21T09:47:14Z</time>
      </trkpt>
      <trkpt lat="48.81995" lon="2.16433">
        <ele>139</ele>
        <time>2016-05-21T09:47:17Z</time>
      </trkpt>
      <trkpt lat="48.81994" lon="2.16441">
        <ele>138</ele>
        <time>2016-05-21T09:47:20Z</time>
      </trkpt>
      <trkpt lat="48.81994" lon="2.16449">
        <ele>139</ele>
        <time>2016-05-21T09:47:24Z</time>
      </trkpt>
      <trkpt lat="48.81993" lon="2.16456">
        <ele>138</ele>
        <time>2016-05-21T09:47:28Z</time>
      </trkpt>
      <trkpt lat="48.81992" lon="2.16463">
        <ele>138</ele>
        <time>2016-05-21T09:47:32Z</time>
      </trkpt>
      <trkpt lat="48.81994" lon="2.16472">
        <ele>138</ele>
        <time>2016-05-21T09:47:36Z</time>
      </trkpt>
      <trkpt lat="48.81997" lon="2.1648">
        <ele>136</ele>
        <time>2016-05-21T09:47:39Z</time>
      </trkpt>
      <trkpt lat="48.81999" lon="2.1649">
        <ele>134</ele>
        <time>2016-05-21T09:47:42Z</time>
      </trkpt>
      <trkpt lat="48.82001" lon="2.16498">
        <ele>134</ele>
        <time>2016-05-21T09:47:45Z</time>
      </trkpt>
      <trkpt lat="48.82003" lon="2.16505">
        <ele>134</ele>
        <time>2016-05-21T09:47:47Z</time>
      </trkpt>
      <trkpt lat="48.82004" lon="2.16512">
        <ele>136</ele>
        <time>2016-05-21T09:47:50Z</time>
      </trkpt>
      <trkpt lat="48.82003" lon="2.16519">
        <ele>135</ele>
        <time>2016-05-21T09:47:55Z</time>
      </trkpt>
      <trkpt lat="48.82006" lon="2.16527">
        <ele>135</ele>
        <time>2016-05-21T09:47:58Z</time>
      </trkpt>
      <trkpt lat="48.82008" lon="2.16533">
        <ele>134</ele>
        <time>2016-05-21T09:48:01Z</time>
      </trkpt>
      <trkpt lat="48.82008" lon="2.16541">
        <ele>134</ele>
        <time>2016-05-21T09:48:06Z</time>
      </trkpt>
      <trkpt lat="48.82006" lon="2.16548">
        <ele>132</ele>
        <time>2016-05-21T09:48:10Z</time>
      </trkpt>
      <trkpt lat="48.82007" lon="2.16557">
        <ele>131</ele>
        <time>2016-05-21T09:48:13Z</time>
      </trkpt>
      <trkpt lat="48.82007" lon="2.16565">
        <ele>132</ele>
        <time>2016-05-21T09:48:16Z</time>
      </trkpt>
      <trkpt lat="48.82007" lon="2.16574">
        <ele>132</ele>
        <time>2016-05-21T09:48:21Z</time>
      </trkpt>
      <trkpt lat="48.82008" lon="2.16581">
        <ele>132</ele>
        <time>2016-05-21T09:48:23Z</time>
      </trkpt>
      <trkpt lat="48.8201" lon="2.16588">
        <ele>133</ele>
        <time>2016-05-21T09:48:25Z</time>
      </trkpt>
      <trkpt lat="48.82013" lon="2.16594">
        <ele>133</ele>
        <time>2016-05-21T09:48:28Z</time>
      </trkpt>
      <trkpt lat="48.82016" lon="2.166">
        <ele>130</ele>
        <time>2016-05-21T09:48:31Z</time>
      </trkpt>
      <trkpt lat="48.8202" lon="2.16603">
        <ele>128</ele>
        <time>2016-05-21T09:48:35Z</time>
      </trkpt>
      <trkpt lat="48.82025" lon="2.16607">
        <ele>129</ele>
        <time>2016-05-21T09:48:39Z</time>
      </trkpt>
      <trkpt lat="48.8203" lon="2.16608">
        <ele>130</ele>
        <time>2016-05-21T09:48:43Z</time>
      </trkpt>
      <trkpt lat="48.82035" lon="2.16611">
        <ele>128</ele>
        <time>2016-05-21T09:48:51Z</time>
      </trkpt>
      <trkpt lat="48.8204" lon="2.16608">
        <ele>126</ele>
        <time>2016-05-21T09:48:55Z</time>
      </trkpt>
      <trkpt lat="48.82045" lon="2.16606">
        <ele>127</ele>
        <time>2016-05-21T09:48:58Z</time>
      </trkpt>
      <trkpt lat="48.82049" lon="2.16607">
        <ele>126</ele>
        <time>2016-05-21T09:49:02Z</time>
      </trkpt>
      <trkpt lat="48.82054" lon="2.16609">
        <ele>126</ele>
        <time>2016-05-21T09:49:06Z</time>
      </trkpt>
      <trkpt lat="48.82059" lon="2.16612">
        <ele>128</ele>
        <time>2016-05-21T09:49:14Z</time>
      </trkpt>
      <trkpt lat="48.82065" lon="2.1661">
        <ele>129</ele>
        <time>2016-05-21T09:49:17Z</time>
      </trkpt>
      <trkpt lat="48.8207" lon="2.16608">
        <ele>128</ele>
        <time>2016-05-21T09:49:19Z</time>
      </trkpt>
      <trkpt lat="48.82074" lon="2.16605">
        <ele>129</ele>
        <time>2016-05-21T09:49:21Z</time>
      </trkpt>
      <trkpt lat="48.82079" lon="2.16604">
        <ele>129</ele>
        <time>2016-05-21T09:49:25Z</time>
      </trkpt>
      <trkpt lat="48.82084" lon="2.16605">
        <ele>128</ele>
        <time>2016-05-21T09:49:28Z</time>
      </trkpt>
      <trkpt lat="48.8209" lon="2.16603">
        <ele>129</ele>
        <time>2016-05-21T09:49:31Z</time>
      </trkpt>
      <trkpt lat="48.82096" lon="2.16603">
        <ele>127</ele>
        <time>2016-05-21T09:49:35Z</time>
      </trkpt>
      <trkpt lat="48.82101" lon="2.16603">
        <ele>129</ele>
        <time>2016-05-21T09:49:40Z</time>
      </trkpt>
      <trkpt lat="48.82106" lon="2.16605">
        <ele>131</ele>
        <time>2016-05-21T09:49:44Z</time>
      </trkpt>
      <trkpt lat="48.8211" lon="2.16609">
        <ele>134</ele>
        <time>2016-05-21T09:49:51Z</time>
      </trkpt>
      <trkpt lat="48.82115" lon="2.16608">
        <ele>133</ele>
        <time>2016-05-21T09:49:57Z</time>
      </trkpt>
      <trkpt lat="48.8212" lon="2.16608">
        <ele>133</ele>
        <time>2016-05-21T09:50:02Z</time>
      </trkpt>
      <trkpt lat="48.82126" lon="2.16609">
        <ele>132</ele>
        <time>2016-05-21T09:50:05Z</time>
      </trkpt>
      <trkpt lat="48.82132" lon="2.16609">
        <ele>132</ele>
        <time>2016-05-21T09:50:08Z</time>
      </trkpt>
      <trkpt lat="48.82137" lon="2.16609">
        <ele>133</ele>
        <time>2016-05-21T09:50:10Z</time>
      </trkpt>
      <trkpt lat="48.82143" lon="2.16607">
        <ele>134</ele>
        <time>2016-05-21T09:50:13Z</time>
      </trkpt>
      <trkpt lat="48.82147" lon="2.16605">
        <ele>135</ele>
        <time>2016-05-21T09:50:21Z</time>
      </trkpt>
      <trkpt lat="48.82152" lon="2.16608">
        <ele>136</ele>
        <time>2016-05-21T09:50:29Z</time>
      </trkpt>
      <trkpt lat="48.82156" lon="2.16608">
        <ele>135</ele>
        <time>2016-05-21T09:50:32Z</time>
      </trkpt>
      <trkpt lat="48.82163" lon="2.16607">
        <ele>138</ele>
        <time>2016-05-21T09:50:35Z</time>
      </trkpt>
      <trkpt lat="48.82167" lon="2.16605">
        <ele>138</ele>
        <time>2016-05-21T09:50:37Z</time>
      </trkpt>
      <trkpt lat="48.82173" lon="2.16605">
        <ele>137</ele>
        <time>2016-05-21T09:50:39Z</time>
      </trkpt>
      <trkpt lat="48.82179" lon="2.16604">
        <ele>138</ele>
        <time>2016-05-21T09:50:42Z</time>
      </trkpt>
      <trkpt lat="48.82184" lon="2.16605">
        <ele>139</ele>
        <time>2016-05-21T09:50:47Z</time>
      </trkpt>
      <trkpt lat="48.82188" lon="2.16607">
        <ele>140</ele>
        <time>2016-05-21T09:50:54Z</time>
      </trkpt>
      <trkpt lat="48.82193" lon="2.16606">
        <ele>140</ele>
        <time>2016-05-21T09:50:57Z</time>
      </trkpt>
      <trkpt lat="48.82199" lon="2.16603">
        <ele>140</ele>
        <time>2016-05-21T09:51:00Z</time>
      </trkpt>
      <trkpt lat="48.82205" lon="2.166">
        <ele>139</ele>
        <time>2016-05-21T09:51:03Z</time>
      </trkpt>
      <trkpt lat="48.8221" lon="2.16598">
        <ele>138</ele>
        <time>2016-05-21T09:51:05Z</time>
      </trkpt>
      <trkpt lat="48.82215" lon="2.16597">
        <ele>137</ele>
        <time>2016-05-21T09:51:07Z</time>
      </trkpt>
      <trkpt lat="48.82218" lon="2.16603">
        <ele>138</ele>
        <time>2016-05-21T09:51:16Z</time>
      </trkpt>
      <trkpt lat="48.82223" lon="2.16602">
        <ele>142</ele>
        <time>2016-05-21T09:51:23Z</time>
      </trkpt>
      <trkpt lat="48.82228" lon="2.16603">
        <ele>143</ele>
        <time>2016-05-21T09:51:28Z</time>
      </trkpt>
      <trkpt lat="48.82233" lon="2.166">
        <ele>142</ele>
        <time>2016-05-21T09:51:31Z</time>
      </trkpt>
      <trkpt lat="48.82238" lon="2.16598">
        <ele>144</ele>
        <time>2016-05-21T09:51:35Z</time>
      </trkpt>
      <trkpt lat="48.82243" lon="2.16597">
        <ele>145</ele>
        <time>2016-05-21T09:51:40Z</time>
      </trkpt>
      <trkpt lat="48.82249" lon="2.16596">
        <ele>147</ele>
        <time>2016-05-21T09:51:44Z</time>
      </trkpt>
      <trkpt lat="48.82255" lon="2.16595">
        <ele>147</ele>
        <time>2016-05-21T09:51:48Z</time>
      </trkpt>
      <trkpt lat="48.8226" lon="2.16595">
        <ele>148</ele>
        <time>2016-05-21T09:51:51Z</time>
      </trkpt>
      <trkpt lat="48.82265" lon="2.16596">
        <ele>148</ele>
        <time>2016-05-21T09:51:54Z</time>
      </trkpt>
      <trkpt lat="48.82271" lon="2.16596">
        <ele>149</ele>
        <time>2016-05-21T09:51:57Z</time>
      </trkpt>
      <trkpt lat="48.82275" lon="2.16597">
        <ele>150</ele>
        <time>2016-05-21T09:52:02Z</time>
      </trkpt>
      <trkpt lat="48.8228" lon="2.16598">
        <ele>154</ele>
        <time>2016-05-21T09:52:09Z</time>
      </trkpt>
      <trkpt lat="48.82285" lon="2.16598">
        <ele>151</ele>
        <time>2016-05-21T09:52:15Z</time>
      </trkpt>
      <trkpt lat="48.82291" lon="2.16599">
        <ele>152</ele>
        <time>2016-05-21T09:52:20Z</time>
      </trkpt>
      <trkpt lat="48.82296" lon="2.16601">
        <ele>152</ele>
        <time>2016-05-21T09:52:25Z</time>
      </trkpt>
      <trkpt lat="48.82301" lon="2.16603">
        <ele>155</ele>
        <time>2016-05-21T09:52:31Z</time>
      </trkpt>
      <trkpt lat="48.82306" lon="2.16602">
        <ele>153</ele>
        <time>2016-05-21T09:52:35Z</time>
      </trkpt>
      <trkpt lat="48.82312" lon="2.166">
        <ele>155</ele>
        <time>2016-05-21T09:52:41Z</time>
      </trkpt>
      <trkpt lat="48.82309" lon="2.16595">
        <ele>167</ele>
        <time>2016-05-21T09:53:29Z</time>
      </trkpt>
      <trkpt lat="48.82304" lon="2.16598">
        <ele>167</ele>
        <time>2016-05-21T09:53:36Z</time>
      </trkpt>
      <trkpt lat="48.82301" lon="2.16604">
        <ele>171</ele>
        <time>2016-05-21T09:53:40Z</time>
      </trkpt>
      <trkpt lat="48.82298" lon="2.1661">
        <ele>170</ele>
        <time>2016-05-21T09:53:45Z</time>
      </trkpt>
      <trkpt lat="48.82296" lon="2.16617">
        <ele>170</ele>
        <time>2016-05-21T09:53:49Z</time>
      </trkpt>
      <trkpt lat="48.82293" lon="2.16623">
        <ele>170</ele>
        <time>2016-05-21T09:53:53Z</time>
      </trkpt>
      <trkpt lat="48.82292" lon="2.16629">
        <ele>171</ele>
        <time>2016-05-21T09:53:57Z</time>
      </trkpt>
      <trkpt lat="48.82293" lon="2.16636">
        <ele>170</ele>
        <time>2016-05-21T09:54:00Z</time>
      </trkpt>
      <trkpt lat="48.82294" lon="2.16643">
        <ele>170</ele>
        <time>2016-05-21T09:54:03Z</time>
      </trkpt>
      <trkpt lat="48.82293" lon="2.16651">
        <ele>173</ele>
        <time>2016-05-21T09:54:07Z</time>
      </trkpt>
      <trkpt lat="48.8229" lon="2.16657">
        <ele>175</ele>
        <time>2016-05-21T09:54:13Z</time>
      </trkpt>
      <trkpt lat="48.82287" lon="2.16664">
        <ele>174</ele>
        <time>2016-05-21T09:54:18Z</time>
      </trkpt>
      <trkpt lat="48.82286" lon="2.16671">
        <ele>174</ele>
        <time>2016-05-21T09:54:23Z</time>
      </trkpt>
      <trkpt lat="48.82285" lon="2.16678">
        <ele>174</ele>
        <time>2016-05-21T09:54:28Z</time>
      </trkpt>
      <trkpt lat="48.82281" lon="2.16682">
        <ele>178</ele>
        <time>2016-05-21T09:54:33Z</time>
      </trkpt>
      <trkpt lat="48.82278" lon="2.16689">
        <ele>179</ele>
        <time>2016-05-21T09:54:37Z</time>
      </trkpt>
      <trkpt lat="48.82276" lon="2.16696">
        <ele>181</ele>
        <time>2016-05-21T09:54:41Z</time>
      </trkpt>
      <trkpt lat="48.82272" lon="2.16702">
        <ele>183</ele>
        <time>2016-05-21T09:54:45Z</time>
      </trkpt>
      <trkpt lat="48.82269" lon="2.16706">
        <ele>183</ele>
        <time>2016-05-21T09:54:49Z</time>
      </trkpt>
      <trkpt lat="48.82265" lon="2.16712">
        <ele>182</ele>
        <time>2016-05-21T09:54:54Z</time>
      </trkpt>
      <trkpt lat="48.82262" lon="2.16718">
        <ele>181</ele>
        <time>2016-05-21T09:54:58Z</time>
      </trkpt>
      <trkpt lat="48.8226" lon="2.16726">
        <ele>182</ele>
        <time>2016-05-21T09:55:02Z</time>
      </trkpt>
      <trkpt lat="48.82257" lon="2.16732">
        <ele>183</ele>
        <time>2016-05-21T09:55:06Z</time>
      </trkpt>
      <trkpt lat="48.82254" lon="2.16741">
        <ele>184</ele>
        <time>2016-05-21T09:55:10Z</time>
      </trkpt>
      <trkpt lat="48.82252" lon="2.1675">
        <ele>185</ele>
        <time>2016-05-21T09:55:13Z</time>
      </trkpt>
      <trkpt lat="48.8225" lon="2.16757">
        <ele>187</ele>
        <time>2016-05-21T09:55:16Z</time>
      </trkpt>
      <trkpt lat="48.82246" lon="2.16766">
        <ele>185</ele>
        <time>2016-05-21T09:55:20Z</time>
      </trkpt>
      <trkpt lat="48.82244" lon="2.16773">
        <ele>183</ele>
        <time>2016-05-21T09:55:23Z</time>
      </trkpt>
      <trkpt lat="48.82243" lon="2.1678">
        <ele>182</ele>
        <time>2016-05-21T09:55:26Z</time>
      </trkpt>
      <trkpt lat="48.82242" lon="2.16789">
        <ele>181</ele>
        <time>2016-05-21T09:55:29Z</time>
      </trkpt>
      <trkpt lat="48.82241" lon="2.16796">
        <ele>181</ele>
        <time>2016-05-21T09:55:31Z</time>
      </trkpt>
      <trkpt lat="48.8224" lon="2.16804">
        <ele>180</ele>
        <time>2016-05-21T09:55:33Z</time>
      </trkpt>
      <trkpt lat="48.8224" lon="2.16811">
        <ele>179</ele>
        <time>2016-05-21T09:55:35Z</time>
      </trkpt>
      <trkpt lat="48.8224" lon="2.16818">
        <ele>178</ele>
        <time>2016-05-21T09:55:37Z</time>
      </trkpt>
      <trkpt lat="48.82242" lon="2.16826">
        <ele>177</ele>
        <time>2016-05-21T09:55:39Z</time>
      </trkpt>
      <trkpt lat="48.82243" lon="2.16835">
        <ele>178</ele>
        <time>2016-05-21T09:55:43Z</time>
      </trkpt>
      <trkpt lat="48.82242" lon="2.16844">
        <ele>178</ele>
        <time>2016-05-21T09:55:45Z</time>
      </trkpt>
      <trkpt lat="48.82241" lon="2.16852">
        <ele>179</ele>
        <time>2016-05-21T09:55:47Z</time>
      </trkpt>
      <trkpt lat="48.8224" lon="2.16861">
        <ele>179</ele>
        <time>2016-05-21T09:55:49Z</time>
      </trkpt>
      <trkpt lat="48.82244" lon="2.16868">
        <ele>179</ele>
        <time>2016-05-21T09:55:52Z</time>
      </trkpt>
      <trkpt lat="48.82248" lon="2.16873">
        <ele>179</ele>
        <time>2016-05-21T09:55:55Z</time>
      </trkpt>
      <trkpt lat="48.82253" lon="2.16879">
        <ele>179</ele>
        <time>2016-05-21T09:55:57Z</time>
      </trkpt>
      <trkpt lat="48.82258" lon="2.16882">
        <ele>177</ele>
        <time>2016-05-21T09:56:00Z</time>
      </trkpt>
      <trkpt lat="48.82266" lon="2.16885">
        <ele>176</ele>
        <time>2016-05-21T09:56:04Z</time>
      </trkpt>
      <trkpt lat="48.82271" lon="2.16889">
        <ele>177</ele>
        <time>2016-05-21T09:56:07Z</time>
      </trkpt>
      <trkpt lat="48.82275" lon="2.16893">
        <ele>176</ele>
        <time>2016-05-21T09:56:10Z</time>
      </trkpt>
      <trkpt lat="48.8228" lon="2.16898">
        <ele>175</ele>
        <time>2016-05-21T09:56:12Z</time>
      </trkpt>
      <trkpt lat="48.82285" lon="2.16902">
        <ele>175</ele>
        <time>2016-05-21T09:56:15Z</time>
      </trkpt>
      <trkpt lat="48.8229" lon="2.16907">
        <ele>176</ele>
        <time>2016-05-21T09:56:19Z</time>
      </trkpt>
      <trkpt lat="48.82294" lon="2.16911">
        <ele>173</ele>
        <time>2016-05-21T09:56:22Z</time>
      </trkpt>
      <trkpt lat="48.82299" lon="2.16915">
        <ele>172</ele>
        <time>2016-05-21T09:56:26Z</time>
      </trkpt>
      <trkpt lat="48.82303" lon="2.16917">
        <ele>170</ele>
        <time>2016-05-21T09:56:29Z</time>
      </trkpt>
      <trkpt lat="48.82308" lon="2.16917">
        <ele>171</ele>
        <time>2016-05-21T09:56:32Z</time>
      </trkpt>
      <trkpt lat="48.82311" lon="2.16923">
        <ele>168</ele>
        <time>2016-05-21T09:56:40Z</time>
      </trkpt>
      <trkpt lat="48.82314" lon="2.1693">
        <ele>169</ele>
        <time>2016-05-21T09:56:47Z</time>
      </trkpt>
      <trkpt lat="48.82313" lon="2.16938">
        <ele>172</ele>
        <time>2016-05-21T09:56:55Z</time>
      </trkpt>
      <trkpt lat="48.82312" lon="2.16947">
        <ele>174</ele>
        <time>2016-05-21T09:56:59Z</time>
      </trkpt>
      <trkpt lat="48.82314" lon="2.16955">
        <ele>174</ele>
        <time>2016-05-21T09:57:02Z</time>
      </trkpt>
      <trkpt lat="48.82313" lon="2.16963">
        <ele>178</ele>
        <time>2016-05-21T09:57:06Z</time>
      </trkpt>
      <trkpt lat="48.82311" lon="2.16971">
        <ele>181</ele>
        <time>2016-05-21T09:57:11Z</time>
      </trkpt>
      <trkpt lat="48.8231" lon="2.1698">
        <ele>181</ele>
        <time>2016-05-21T09:57:15Z</time>
      </trkpt>
      <trkpt lat="48.82307" lon="2.16986">
        <ele>181</ele>
        <time>2016-05-21T09:57:19Z</time>
      </trkpt>
      <trkpt lat="48.82305" lon="2.16993">
        <ele>178</ele>
        <time>2016-05-21T09:57:23Z</time>
      </trkpt>
      <trkpt lat="48.82305" lon="2.17001">
        <ele>177</ele>
        <time>2016-05-21T09:57:27Z</time>
      </trkpt>
      <trkpt lat="48.82306" lon="2.17008">
        <ele>175</ele>
        <time>2016-05-21T09:57:30Z</time>
      </trkpt>
      <trkpt lat="48.82306" lon="2.17016">
        <ele>175</ele>
        <time>2016-05-21T09:57:33Z</time>
      </trkpt>
      <trkpt lat="48.82304" lon="2.17024">
        <ele>175</ele>
        <time>2016-05-21T09:57:37Z</time>
      </trkpt>
      <trkpt lat="48.82302" lon="2.17033">
        <ele>175</ele>
        <time>2016-05-21T09:57:40Z</time>
      </trkpt>
      <trkpt lat="48.82301" lon="2.17039">
        <ele>175</ele>
        <time>2016-05-21T09:57:43Z</time>
      </trkpt>
      <trkpt lat="48.823" lon="2.17046">
        <ele>175</ele>
        <time>2016-05-21T09:57:47Z</time>
      </trkpt>
      <trkpt lat="48.823" lon="2.17055">
        <ele>175</ele>
        <time>2016-05-21T09:57:51Z</time>
      </trkpt>
      <trkpt lat="48.823" lon="2.17062">
        <ele>177</ele>
        <time>2016-05-21T09:57:54Z</time>
      </trkpt>
      <trkpt lat="48.82302" lon="2.17069">
        <ele>179</ele>
        <time>2016-05-21T09:57:57Z</time>
      </trkpt>
      <trkpt lat="48.82302" lon="2.17077">
        <ele>181</ele>
        <time>2016-05-21T09:58:01Z</time>
      </trkpt>
      <trkpt lat="48.823" lon="2.17084">
        <ele>182</ele>
        <time>2016-05-21T09:58:05Z</time>
      </trkpt>
      <trkpt lat="48.823" lon="2.17091">
        <ele>180</ele>
        <time>2016-05-21T09:58:09Z</time>
      </trkpt>
      <trkpt lat="48.82301" lon="2.17097">
        <ele>178</ele>
        <time>2016-05-21T09:58:12Z</time>
      </trkpt>
      <trkpt lat="48.82301" lon="2.17106">
        <ele>178</ele>
        <time>2016-05-21T09:58:16Z</time>
      </trkpt>
      <trkpt lat="48.82301" lon="2.17115">
        <ele>177</ele>
        <time>2016-05-21T09:58:20Z</time>
      </trkpt>
      <trkpt lat="48.82301" lon="2.17123">
        <ele>176</ele>
        <time>2016-05-21T09:58:23Z</time>
      </trkpt>
      <trkpt lat="48.82304" lon="2.17129">
        <ele>176</ele>
        <time>2016-05-21T09:58:27Z</time>
      </trkpt>
      <trkpt lat="48.82307" lon="2.17134">
        <ele>177</ele>
        <time>2016-05-21T09:58:31Z</time>
      </trkpt>
      <trkpt lat="48.82307" lon="2.17143">
        <ele>176</ele>
        <time>2016-05-21T09:58:34Z</time>
      </trkpt>
      <trkpt lat="48.82307" lon="2.17151">
        <ele>175</ele>
        <time>2016-05-21T09:58:37Z</time>
      </trkpt>
      <trkpt lat="48.82307" lon="2.17159">
        <ele>176</ele>
        <time>2016-05-21T09:58:40Z</time>
      </trkpt>
      <trkpt lat="48.82305" lon="2.17166">
        <ele>178</ele>
        <time>2016-05-21T09:58:44Z</time>
      </trkpt>
      <trkpt lat="48.82305" lon="2.17174">
        <ele>178</ele>
        <time>2016-05-21T09:58:47Z</time>
      </trkpt>
      <trkpt lat="48.82307" lon="2.17183">
        <ele>178</ele>
        <time>2016-05-21T09:58:50Z</time>
      </trkpt>
      <trkpt lat="48.82309" lon="2.17191">
        <ele>177</ele>
        <time>2016-05-21T09:58:53Z</time>
      </trkpt>
      <trkpt lat="48.8231" lon="2.17198">
        <ele>175</ele>
        <time>2016-05-21T09:58:56Z</time>
      </trkpt>
      <trkpt lat="48.82309" lon="2.17206">
        <ele>172</ele>
        <time>2016-05-21T09:59:00Z</time>
      </trkpt>
      <trkpt lat="48.82307" lon="2.17214">
        <ele>172</ele>
        <time>2016-05-21T09:59:04Z</time>
      </trkpt>
      <trkpt lat="48.82305" lon="2.1722">
        <ele>171</ele>
        <time>2016-05-21T09:59:07Z</time>
      </trkpt>
      <trkpt lat="48.82305" lon="2.17229">
        <ele>171</ele>
        <time>2016-05-21T09:59:10Z</time>
      </trkpt>
      <trkpt lat="48.82307" lon="2.17236">
        <ele>171</ele>
        <time>2016-05-21T09:59:13Z</time>
      </trkpt>
      <trkpt lat="48.82308" lon="2.17243">
        <ele>174</ele>
        <time>2016-05-21T09:59:16Z</time>
      </trkpt>
      <trkpt lat="48.82308" lon="2.1725">
        <ele>175</ele>
        <time>2016-05-21T09:59:19Z</time>
      </trkpt>
      <trkpt lat="48.82308" lon="2.17258">
        <ele>174</ele>
        <time>2016-05-21T09:59:23Z</time>
      </trkpt>
      <trkpt lat="48.82306" lon="2.17264">
        <ele>169</ele>
        <time>2016-05-21T09:59:37Z</time>
      </trkpt>
      <trkpt lat="48.823" lon="2.17262">
        <ele>164</ele>
        <time>2016-05-21T09:59:51Z</time>
      </trkpt>
      <trkpt lat="48.82297" lon="2.17258">
        <ele>163</ele>
        <time>2016-05-21T09:59:56Z</time>
      </trkpt>
      <trkpt lat="48.82292" lon="2.17254">
        <ele>162</ele>
        <time>2016-05-21T10:00:00Z</time>
      </trkpt>
      <trkpt lat="48.82288" lon="2.17252">
        <ele>161</ele>
        <time>2016-05-21T10:00:03Z</time>
      </trkpt>
      <trkpt lat="48.82283" lon="2.1725">
        <ele>160</ele>
        <time>2016-05-21T10:00:08Z</time>
      </trkpt>
      <trkpt lat="48.82278" lon="2.17246">
        <ele>161</ele>
        <time>2016-05-21T10:00:12Z</time>
      </trkpt>
      <trkpt lat="48.82273" lon="2.17241">
        <ele>161</ele>
        <time>2016-05-21T10:00:16Z</time>
      </trkpt>
      <trkpt lat="48.8227" lon="2.17235">
        <ele>161</ele>
        <time>2016-05-21T10:00:21Z</time>
      </trkpt>
      <trkpt lat="48.82264" lon="2.17231">
        <ele>163</ele>
        <time>2016-05-21T10:00:25Z</time>
      </trkpt>
      <trkpt lat="48.82261" lon="2.17227">
        <ele>160</ele>
        <time>2016-05-21T10:00:28Z</time>
      </trkpt>
      <trkpt lat="48.82258" lon="2.17221">
        <ele>161</ele>
        <time>2016-05-21T10:00:32Z</time>
      </trkpt>
      <trkpt lat="48.82252" lon="2.17219">
        <ele>161</ele>
        <time>2016-05-21T10:00:37Z</time>
      </trkpt>
      <trkpt lat="48.82247" lon="2.17216">
        <ele>160</ele>
        <time>2016-05-21T10:00:41Z</time>
      </trkpt>
      <trkpt lat="48.82243" lon="2.17213">
        <ele>159</ele>
        <time>2016-05-21T10:00:44Z</time>
      </trkpt>
      <trkpt lat="48.82239" lon="2.17207">
        <ele>160</ele>
        <time>2016-05-21T10:00:50Z</time>
      </trkpt>
      <trkpt lat="48.82235" lon="2.17202">
        <ele>159</ele>
        <time>2016-05-21T10:00:55Z</time>
      </trkpt>
      <trkpt lat="48.82231" lon="2.17196">
        <ele>156</ele>
        <time>2016-05-21T10:01:00Z</time>
      </trkpt>
      <trkpt lat="48.82227" lon="2.17192">
        <ele>156</ele>
        <time>2016-05-21T10:01:04Z</time>
      </trkpt>
      <trkpt lat="48.82222" lon="2.17188">
        <ele>158</ele>
        <time>2016-05-21T10:01:09Z</time>
      </trkpt>
      <trkpt lat="48.82219" lon="2.17183">
        <ele>155</ele>
        <time>2016-05-21T10:01:13Z</time>
      </trkpt>
      <trkpt lat="48.82215" lon="2.17178">
        <ele>154</ele>
        <time>2016-05-21T10:01:17Z</time>
      </trkpt>
      <trkpt lat="48.82211" lon="2.17174">
        <ele>153</ele>
        <time>2016-05-21T10:01:21Z</time>
      </trkpt>
      <trkpt lat="48.82205" lon="2.17171">
        <ele>154</ele>
        <time>2016-05-21T10:01:25Z</time>
      </trkpt>
      <trkpt lat="48.82201" lon="2.17168">
        <ele>152</ele>
        <time>2016-05-21T10:01:27Z</time>
      </trkpt>
      <trkpt lat="48.82196" lon="2.17163">
        <ele>152</ele>
        <time>2016-05-21T10:01:30Z</time>
      </trkpt>
      <trkpt lat="48.82192" lon="2.17158">
        <ele>151</ele>
        <time>2016-05-21T10:01:34Z</time>
      </trkpt>
      <trkpt lat="48.8219" lon="2.17152">
        <ele>150</ele>
        <time>2016-05-21T10:01:41Z</time>
      </trkpt>
      <trkpt lat="48.82185" lon="2.17147">
        <ele>148</ele>
        <time>2016-05-21T10:01:45Z</time>
      </trkpt>
      <trkpt lat="48.82179" lon="2.17143">
        <ele>147</ele>
        <time>2016-05-21T10:01:48Z</time>
      </trkpt>
      <trkpt lat="48.82175" lon="2.17139">
        <ele>145</ele>
        <time>2016-05-21T10:01:50Z</time>
      </trkpt>
      <trkpt lat="48.82169" lon="2.17137">
        <ele>144</ele>
        <time>2016-05-21T10:01:52Z</time>
      </trkpt>
      <trkpt lat="48.82164" lon="2.17139">
        <ele>146</ele>
        <time>2016-05-21T10:01:54Z</time>
      </trkpt>
      <trkpt lat="48.82159" lon="2.17142">
        <ele>144</ele>
        <time>2016-05-21T10:01:56Z</time>
      </trkpt>
      <trkpt lat="48.82153" lon="2.17145">
        <ele>144</ele>
        <time>2016-05-21T10:01:59Z</time>
      </trkpt>
      <trkpt lat="48.82148" lon="2.17148">
        <ele>144</ele>
        <time>2016-05-21T10:02:02Z</time>
      </trkpt>
      <trkpt lat="48.82143" lon="2.1715">
        <ele>145</ele>
        <time>2016-05-21T10:02:05Z</time>
      </trkpt>
      <trkpt lat="48.82139" lon="2.17153">
        <ele>146</ele>
        <time>2016-05-21T10:02:09Z</time>
      </trkpt>
      <trkpt lat="48.82136" lon="2.17161">
        <ele>147</ele>
        <time>2016-05-21T10:02:14Z</time>
      </trkpt>
      <trkpt lat="48.82134" lon="2.17168">
        <ele>146</ele>
        <time>2016-05-21T10:02:18Z</time>
      </trkpt>
      <trkpt lat="48.82134" lon="2.17176">
        <ele>145</ele>
        <time>2016-05-21T10:02:21Z</time>
      </trkpt>
      <trkpt lat="48.82133" lon="2.17183">
        <ele>144</ele>
        <time>2016-05-21T10:02:24Z</time>
      </trkpt>
      <trkpt lat="48.82133" lon="2.17191">
        <ele>143</ele>
        <time>2016-05-21T10:02:27Z</time>
      </trkpt>
      <trkpt lat="48.82132" lon="2.17198">
        <ele>144</ele>
        <time>2016-05-21T10:02:30Z</time>
      </trkpt>
      <trkpt lat="48.82132" lon="2.17205">
        <ele>146</ele>
        <time>2016-05-21T10:02:34Z</time>
      </trkpt>
      <trkpt lat="48.82132" lon="2.17213">
        <ele>147</ele>
        <time>2016-05-21T10:02:37Z</time>
      </trkpt>
      <trkpt lat="48.8213" lon="2.17219">
        <ele>148</ele>
        <time>2016-05-21T10:02:40Z</time>
      </trkpt>
      <trkpt lat="48.82127" lon="2.17224">
        <ele>148</ele>
        <time>2016-05-21T10:02:43Z</time>
      </trkpt>
      <trkpt lat="48.82125" lon="2.17231">
        <ele>153</ele>
        <time>2016-05-21T10:02:47Z</time>
      </trkpt>
      <trkpt lat="48.82123" lon="2.17239">
        <ele>153</ele>
        <time>2016-05-21T10:02:51Z</time>
      </trkpt>
      <trkpt lat="48.82124" lon="2.17247">
        <ele>148</ele>
        <time>2016-05-21T10:02:54Z</time>
      </trkpt>
      <trkpt lat="48.82126" lon="2.17254">
        <ele>146</ele>
        <time>2016-05-21T10:02:57Z</time>
      </trkpt>
      <trkpt lat="48.8213" lon="2.1726">
        <ele>145</ele>
        <time>2016-05-21T10:03:00Z</time>
      </trkpt>
      <trkpt lat="48.82134" lon="2.17265">
        <ele>144</ele>
        <time>2016-05-21T10:03:01Z</time>
      </trkpt>
      <trkpt lat="48.8214" lon="2.17269">
        <ele>143</ele>
        <time>2016-05-21T10:03:03Z</time>
      </trkpt>
      <trkpt lat="48.82144" lon="2.17271">
        <ele>143</ele>
        <time>2016-05-21T10:03:05Z</time>
      </trkpt>
      <trkpt lat="48.8215" lon="2.17269">
        <ele>140</ele>
        <time>2016-05-21T10:03:08Z</time>
      </trkpt>
      <trkpt lat="48.82155" lon="2.17271">
        <ele>141</ele>
        <time>2016-05-21T10:03:13Z</time>
      </trkpt>
      <trkpt lat="48.82159" lon="2.17275">
        <ele>140</ele>
        <time>2016-05-21T10:03:19Z</time>
      </trkpt>
      <trkpt lat="48.82163" lon="2.1728">
        <ele>143</ele>
        <time>2016-05-21T10:03:31Z</time>
      </trkpt>
      <trkpt lat="48.82167" lon="2.17283">
        <ele>143</ele>
        <time>2016-05-21T10:03:34Z</time>
      </trkpt>
      <trkpt lat="48.82171" lon="2.17289">
        <ele>143</ele>
        <time>2016-05-21T10:03:38Z</time>
      </trkpt>
      <trkpt lat="48.82174" lon="2.17294">
        <ele>143</ele>
        <time>2016-05-21T10:03:42Z</time>
      </trkpt>
      <trkpt lat="48.82178" lon="2.17297">
        <ele>139</ele>
        <time>2016-05-21T10:03:55Z</time>
      </trkpt>
      <trkpt lat="48.82182" lon="2.17304">
        <ele>143</ele>
        <time>2016-05-21T10:03:58Z</time>
      </trkpt>
      <trkpt lat="48.82187" lon="2.1731">
        <ele>142</ele>
        <time>2016-05-21T10:04:02Z</time>
      </trkpt>
      <trkpt lat="48.82192" lon="2.17314">
        <ele>144</ele>
        <time>2016-05-21T10:04:06Z</time>
      </trkpt>
      <trkpt lat="48.82197" lon="2.17315">
        <ele>142</ele>
        <time>2016-05-21T10:04:11Z</time>
      </trkpt>
      <trkpt lat="48.82201" lon="2.17315">
        <ele>142</ele>
        <time>2016-05-21T10:04:17Z</time>
      </trkpt>
      <trkpt lat="48.82207" lon="2.17316">
        <ele>143</ele>
        <time>2016-05-21T10:04:22Z</time>
      </trkpt>
      <trkpt lat="48.82212" lon="2.17317">
        <ele>145</ele>
        <time>2016-05-21T10:04:27Z</time>
      </trkpt>
      <trkpt lat="48.82217" lon="2.17316">
        <ele>146</ele>
        <time>2016-05-21T10:04:32Z</time>
      </trkpt>
      <trkpt lat="48.82222" lon="2.17315">
        <ele>147</ele>
        <time>2016-05-21T10:04:39Z</time>
      </trkpt>
      <trkpt lat="48.82227" lon="2.17313">
        <ele>147</ele>
        <time>2016-05-21T10:04:44Z</time>
      </trkpt>
      <trkpt lat="48.82229" lon="2.17306">
        <ele>149</ele>
        <time>2016-05-21T10:04:49Z</time>
      </trkpt>
      <trkpt lat="48.82234" lon="2.17309">
        <ele>148</ele>
        <time>2016-05-21T10:05:05Z</time>
      </trkpt>
      <trkpt lat="48.82239" lon="2.17309">
        <ele>146</ele>
        <time>2016-05-21T10:05:08Z</time>
      </trkpt>
      <trkpt lat="48.82244" lon="2.17308">
        <ele>147</ele>
        <time>2016-05-21T10:05:12Z</time>
      </trkpt>
      <trkpt lat="48.82249" lon="2.17306">
        <ele>149</ele>
        <time>2016-05-21T10:05:15Z</time>
      </trkpt>
      <trkpt lat="48.82254" lon="2.17306">
        <ele>149</ele>
        <time>2016-05-21T10:05:20Z</time>
      </trkpt>
      <trkpt lat="48.82259" lon="2.17305">
        <ele>154</ele>
        <time>2016-05-21T10:05:27Z</time>
      </trkpt>
      <trkpt lat="48.82264" lon="2.17305">
        <ele>154</ele>
        <time>2016-05-21T10:05:34Z</time>
      </trkpt>
      <trkpt lat="48.82269" lon="2.17301">
        <ele>156</ele>
        <time>2016-05-21T10:05:38Z</time>
      </trkpt>
      <trkpt lat="48.82274" lon="2.17299">
        <ele>155</ele>
        <time>2016-05-21T10:05:42Z</time>
      </trkpt>
      <trkpt lat="48.82278" lon="2.17298">
        <ele>158</ele>
        <time>2016-05-21T10:05:48Z</time>
      </trkpt>
      <trkpt lat="48.82284" lon="2.17299">
        <ele>159</ele>
        <time>2016-05-21T10:06:04Z</time>
      </trkpt>
      <trkpt lat="48.82288" lon="2.17302">
        <ele>160</ele>
        <time>2016-05-21T10:06:10Z</time>
      </trkpt>
      <trkpt lat="48.82294" lon="2.17303">
        <ele>161</ele>
        <time>2016-05-21T10:06:14Z</time>
      </trkpt>
      <trkpt lat="48.82299" lon="2.17302">
        <ele>162</ele>
        <time>2016-05-21T10:06:18Z</time>
      </trkpt>
      <trkpt lat="48.82304" lon="2.17301">
        <ele>165</ele>
        <time>2016-05-21T10:06:23Z</time>
      </trkpt>
      <trkpt lat="48.82309" lon="2.17302">
        <ele>165</ele>
        <time>2016-05-21T10:06:26Z</time>
      </trkpt>
      <trkpt lat="48.82313" lon="2.17302">
        <ele>165</ele>
        <time>2016-05-21T10:06:29Z</time>
      </trkpt>
      <trkpt lat="48.82316" lon="2.17296">
        <ele>162</ele>
        <time>2016-05-21T10:06:38Z</time>
      </trkpt>
      <trkpt lat="48.82311" lon="2.17291">
        <ele>162</ele>
        <time>2016-05-21T10:06:45Z</time>
      </trkpt>
      <trkpt lat="48.82315" lon="2.17297">
        <ele>162</ele>
        <time>2016-05-21T10:07:03Z</time>
      </trkpt>
      <trkpt lat="48.82318" lon="2.17304">
        <ele>165</ele>
        <time>2016-05-21T10:07:09Z</time>
      </trkpt>
      <trkpt lat="48.8232" lon="2.17312">
        <ele>161</ele>
        <time>2016-05-21T10:07:13Z</time>
      </trkpt>
      <trkpt lat="48.82322" lon="2.1732">
        <ele>162</ele>
        <time>2016-05-21T10:07:17Z</time>
      </trkpt>
      <trkpt lat="48.82325" lon="2.17328">
        <ele>162</ele>
        <time>2016-05-21T10:07:22Z</time>
      </trkpt>
      <trkpt lat="48.82328" lon="2.17334">
        <ele>166</ele>
        <time>2016-05-21T10:07:27Z</time>
      </trkpt>
      <trkpt lat="48.82331" lon="2.1734">
        <ele>163</ele>
        <time>2016-05-21T10:07:32Z</time>
      </trkpt>
      <trkpt lat="48.82333" lon="2.17347">
        <ele>166</ele>
        <time>2016-05-21T10:07:37Z</time>
      </trkpt>
      <trkpt lat="48.82332" lon="2.17355">
        <ele>165</ele>
        <time>2016-05-21T10:07:41Z</time>
      </trkpt>
      <trkpt lat="48.82333" lon="2.17362">
        <ele>163</ele>
        <time>2016-05-21T10:07:44Z</time>
      </trkpt>
      <trkpt lat="48.82336" lon="2.17371">
        <ele>164</ele>
        <time>2016-05-21T10:07:48Z</time>
      </trkpt>
      <trkpt lat="48.82339" lon="2.17375">
        <ele>162</ele>
        <time>2016-05-21T10:07:51Z</time>
      </trkpt>
      <trkpt lat="48.82345" lon="2.17376">
        <ele>161</ele>
        <time>2016-05-21T10:07:54Z</time>
      </trkpt>
      <trkpt lat="48.82349" lon="2.17379">
        <ele>161</ele>
        <time>2016-05-21T10:07:56Z</time>
      </trkpt>
      <trkpt lat="48.82354" lon="2.17383">
        <ele>162</ele>
        <time>2016-05-21T10:08:01Z</time>
      </trkpt>
      <trkpt lat="48.82356" lon="2.1739">
        <ele>161</ele>
        <time>2016-05-21T10:08:06Z</time>
      </trkpt>
      <trkpt lat="48.82358" lon="2.17397">
        <ele>161</ele>
        <time>2016-05-21T10:08:10Z</time>
      </trkpt>
      <trkpt lat="48.82363" lon="2.17401">
        <ele>162</ele>
        <time>2016-05-21T10:08:15Z</time>
      </trkpt>
      <trkpt lat="48.82369" lon="2.17402">
        <ele>163</ele>
        <time>2016-05-21T10:08:17Z</time>
      </trkpt>
      <trkpt lat="48.82374" lon="2.17406">
        <ele>165</ele>
        <time>2016-05-21T10:08:21Z</time>
      </trkpt>
      <trkpt lat="48.82379" lon="2.17405">
        <ele>162</ele>
        <time>2016-05-21T10:08:28Z</time>
      </trkpt>
      <trkpt lat="48.82383" lon="2.17409">
        <ele>162</ele>
        <time>2016-05-21T10:08:30Z</time>
      </trkpt>
      <trkpt lat="48.82388" lon="2.17413">
        <ele>163</ele>
        <time>2016-05-21T10:08:33Z</time>
      </trkpt>
      <trkpt lat="48.82393" lon="2.17416">
        <ele>163</ele>
        <time>2016-05-21T10:08:37Z</time>
      </trkpt>
      <trkpt lat="48.82398" lon="2.17416">
        <ele>165</ele>
        <time>2016-05-21T10:08:45Z</time>
      </trkpt>
      <trkpt lat="48.82403" lon="2.17414">
        <ele>166</ele>
        <time>2016-05-21T10:08:49Z</time>
      </trkpt>
      <trkpt lat="48.82406" lon="2.17409">
        <ele>167</ele>
        <time>2016-05-21T10:08:53Z</time>
      </trkpt>
      <trkpt lat="48.8241" lon="2.17407">
        <ele>170</ele>
        <time>2016-05-21T10:08:57Z</time>
      </trkpt>
      <trkpt lat="48.82415" lon="2.17413">
        <ele>170</ele>
        <time>2016-05-21T10:09:00Z</time>
      </trkpt>
      <trkpt lat="48.8242" lon="2.1741">
        <ele>175</ele>
        <time>2016-05-21T10:09:05Z</time>
      </trkpt>
      <trkpt lat="48.82423" lon="2.17405">
        <ele>177</ele>
        <time>2016-05-21T10:09:10Z</time>
      </trkpt>
      <trkpt lat="48.82428" lon="2.17405">
        <ele>177</ele>
        <time>2016-05-21T10:09:24Z</time>
      </trkpt>
      <trkpt lat="48.8243" lon="2.17413">
        <ele>175</ele>
        <time>2016-05-21T10:09:32Z</time>
      </trkpt>
      <trkpt lat="48.82435" lon="2.17418">
        <ele>175</ele>
        <time>2016-05-21T10:09:35Z</time>
      </trkpt>
      <trkpt lat="48.82441" lon="2.1742">
        <ele>174</ele>
        <time>2016-05-21T10:09:38Z</time>
      </trkpt>
      <trkpt lat="48.82447" lon="2.17419">
        <ele>174</ele>
        <time>2016-05-21T10:09:41Z</time>
      </trkpt>
      <trkpt lat="48.82454" lon="2.17419">
        <ele>174</ele>
        <time>2016-05-21T10:09:44Z</time>
      </trkpt>
      <trkpt lat="48.8246" lon="2.17421">
        <ele>175</ele>
        <time>2016-05-21T10:09:47Z</time>
      </trkpt>
      <trkpt lat="48.82466" lon="2.17424">
        <ele>176</ele>
        <time>2016-05-21T10:09:50Z</time>
      </trkpt>
      <trkpt lat="48.8247" lon="2.17428">
        <ele>178</ele>
        <time>2016-05-21T10:09:52Z</time>
      </trkpt>
      <trkpt lat="48.82476" lon="2.17432">
        <ele>178</ele>
        <time>2016-05-21T10:09:55Z</time>
      </trkpt>
      <trkpt lat="48.82481" lon="2.17435">
        <ele>178</ele>
        <time>2016-05-21T10:09:58Z</time>
      </trkpt>
      <trkpt lat="48.82485" lon="2.17439">
        <ele>177</ele>
        <time>2016-05-21T10:10:04Z</time>
      </trkpt>
      <trkpt lat="48.82489" lon="2.17445">
        <ele>176</ele>
        <time>2016-05-21T10:10:08Z</time>
      </trkpt>
      <trkpt lat="48.82494" lon="2.17448">
        <ele>175</ele>
        <time>2016-05-21T10:10:11Z</time>
      </trkpt>
      <trkpt lat="48.82499" lon="2.17451">
        <ele>174</ele>
        <time>2016-05-21T10:10:15Z</time>
      </trkpt>
      <trkpt lat="48.82506" lon="2.17455">
        <ele>174</ele>
        <time>2016-05-21T10:10:18Z</time>
      </trkpt>
      <trkpt lat="48.82511" lon="2.1746">
        <ele>173</ele>
        <time>2016-05-21T10:10:20Z</time>
      </trkpt>
      <trkpt lat="48.82515" lon="2.17464">
        <ele>173</ele>
        <time>2016-05-21T10:10:24Z</time>
      </trkpt>
      <trkpt lat="48.82519" lon="2.17468">
        <ele>172</ele>
        <time>2016-05-21T10:10:30Z</time>
      </trkpt>
      <trkpt lat="48.82523" lon="2.17472">
        <ele>171</ele>
        <time>2016-05-21T10:10:33Z</time>
      </trkpt>
      <trkpt lat="48.82527" lon="2.17477">
        <ele>170</ele>
        <time>2016-05-21T10:10:36Z</time>
      </trkpt>
      <trkpt lat="48.82532" lon="2.17481">
        <ele>168</ele>
        <time>2016-05-21T10:10:39Z</time>
      </trkpt>
      <trkpt lat="48.82537" lon="2.17484">
        <ele>168</ele>
        <time>2016-05-21T10:10:42Z</time>
      </trkpt>
      <trkpt lat="48.82541" lon="2.17489">
        <ele>168</ele>
        <time>2016-05-21T10:10:46Z</time>
      </trkpt>
      <trkpt lat="48.82548" lon="2.1749">
        <ele>168</ele>
        <time>2016-05-21T10:10:49Z</time>
      </trkpt>
      <trkpt lat="48.82554" lon="2.17491">
        <ele>169</ele>
        <time>2016-05-21T10:10:51Z</time>
      </trkpt>
      <trkpt lat="48.8256" lon="2.17492">
        <ele>168</ele>
        <time>2016-05-21T10:10:53Z</time>
      </trkpt>
      <trkpt lat="48.82565" lon="2.17495">
        <ele>167</ele>
        <time>2016-05-21T10:10:55Z</time>
      </trkpt>
      <trkpt lat="48.82569" lon="2.17501">
        <ele>167</ele>
        <time>2016-05-21T10:10:59Z</time>
      </trkpt>
      <trkpt lat="48.82571" lon="2.17508">
        <ele>166</ele>
        <time>2016-05-21T10:11:03Z</time>
      </trkpt>
      <trkpt lat="48.82575" lon="2.17513">
        <ele>163</ele>
        <time>2016-05-21T10:11:07Z</time>
      </trkpt>
      <trkpt lat="48.82578" lon="2.1752">
        <ele>162</ele>
        <time>2016-05-21T10:11:12Z</time>
      </trkpt>
      <trkpt lat="48.82582" lon="2.17525">
        <ele>163</ele>
        <time>2016-05-21T10:11:17Z</time>
      </trkpt>
      <trkpt lat="48.82587" lon="2.17528">
        <ele>163</ele>
        <time>2016-05-21T10:11:21Z</time>
      </trkpt>
      <trkpt lat="48.82592" lon="2.17531">
        <ele>163</ele>
        <time>2016-05-21T10:11:24Z</time>
      </trkpt>
      <trkpt lat="48.82599" lon="2.17535">
        <ele>162</ele>
        <time>2016-05-21T10:11:27Z</time>
      </trkpt>
      <trkpt lat="48.82605" lon="2.17539">
        <ele>160</ele>
        <time>2016-05-21T10:11:30Z</time>
      </trkpt>
      <trkpt lat="48.8261" lon="2.17542">
        <ele>161</ele>
        <time>2016-05-21T10:11:34Z</time>
      </trkpt>
      <trkpt lat="48.82615" lon="2.17545">
        <ele>159</ele>
        <time>2016-05-21T10:11:37Z</time>
      </trkpt>
      <trkpt lat="48.8262" lon="2.17548">
        <ele>159</ele>
        <time>2016-05-21T10:11:39Z</time>
      </trkpt>
      <trkpt lat="48.82627" lon="2.17551">
        <ele>160</ele>
        <time>2016-05-21T10:11:42Z</time>
      </trkpt>
      <trkpt lat="48.82632" lon="2.17551">
        <ele>157</ele>
        <time>2016-05-21T10:11:45Z</time>
      </trkpt>
      <trkpt lat="48.82637" lon="2.1755">
        <ele>155</ele>
        <time>2016-05-21T10:11:49Z</time>
      </trkpt>
      <trkpt lat="48.8264" lon="2.17545">
        <ele>152</ele>
        <time>2016-05-21T10:11:52Z</time>
      </trkpt>
      <trkpt lat="48.82642" lon="2.17538">
        <ele>150</ele>
        <time>2016-05-21T10:11:54Z</time>
      </trkpt>
      <trkpt lat="48.82644" lon="2.1753">
        <ele>149</ele>
        <time>2016-05-21T10:11:56Z</time>
      </trkpt>
      <trkpt lat="48.82647" lon="2.17524">
        <ele>146</ele>
        <time>2016-05-21T10:11:59Z</time>
      </trkpt>
      <trkpt lat="48.82651" lon="2.17519">
        <ele>145</ele>
        <time>2016-05-21T10:12:03Z</time>
      </trkpt>
      <trkpt lat="48.82655" lon="2.17515">
        <ele>149</ele>
        <time>2016-05-21T10:12:07Z</time>
      </trkpt>
      <trkpt lat="48.82659" lon="2.17517">
        <ele>151</ele>
        <time>2016-05-21T10:12:10Z</time>
      </trkpt>
      <trkpt lat="48.82663" lon="2.17521">
        <ele>151</ele>
        <time>2016-05-21T10:12:13Z</time>
      </trkpt>
      <trkpt lat="48.82667" lon="2.17527">
        <ele>152</ele>
        <time>2016-05-21T10:12:17Z</time>
      </trkpt>
      <trkpt lat="48.82671" lon="2.17532">
        <ele>152</ele>
        <time>2016-05-21T10:12:21Z</time>
      </trkpt>
      <trkpt lat="48.82674" lon="2.17538">
        <ele>153</ele>
        <time>2016-05-21T10:12:26Z</time>
      </trkpt>
      <trkpt lat="48.82674" lon="2.17529">
        <ele>151</ele>
        <time>2016-05-21T10:12:45Z</time>
      </trkpt>
      <trkpt lat="48.82672" lon="2.17523">
        <ele>152</ele>
        <time>2016-05-21T10:12:53Z</time>
      </trkpt>
      <trkpt lat="48.82669" lon="2.17517">
        <ele>153</ele>
        <time>2016-05-21T10:12:58Z</time>
      </trkpt>
      <trkpt lat="48.82665" lon="2.17511">
        <ele>154</ele>
        <time>2016-05-21T10:13:04Z</time>
      </trkpt>
      <trkpt lat="48.8266" lon="2.17511">
        <ele>155</ele>
        <time>2016-05-21T10:13:08Z</time>
      </trkpt>
      <trkpt lat="48.82655" lon="2.17513">
        <ele>155</ele>
        <time>2016-05-21T10:13:12Z</time>
      </trkpt>
      <trkpt lat="48.82651" lon="2.17518">
        <ele>157</ele>
        <time>2016-05-21T10:13:16Z</time>
      </trkpt>
      <trkpt lat="48.82646" lon="2.17522">
        <ele>157</ele>
        <time>2016-05-21T10:13:19Z</time>
      </trkpt>
      <trkpt lat="48.82641" lon="2.17526">
        <ele>159</ele>
        <time>2016-05-21T10:13:23Z</time>
      </trkpt>
      <trkpt lat="48.82639" lon="2.17532">
        <ele>159</ele>
        <time>2016-05-21T10:13:27Z</time>
      </trkpt>
      <trkpt lat="48.82634" lon="2.17536">
        <ele>159</ele>
        <time>2016-05-21T10:13:31Z</time>
      </trkpt>
      <trkpt lat="48.8263" lon="2.17539">
        <ele>158</ele>
        <time>2016-05-21T10:13:37Z</time>
      </trkpt>
      <trkpt lat="48.82626" lon="2.17543">
        <ele>159</ele>
        <time>2016-05-21T10:13:42Z</time>
      </trkpt>
      <trkpt lat="48.82621" lon="2.17546">
        <ele>159</ele>
        <time>2016-05-21T10:13:45Z</time>
      </trkpt>
      <trkpt lat="48.82616" lon="2.17548">
        <ele>159</ele>
        <time>2016-05-21T10:13:49Z</time>
      </trkpt>
      <trkpt lat="48.82612" lon="2.17551">
        <ele>159</ele>
        <time>2016-05-21T10:13:56Z</time>
      </trkpt>
      <trkpt lat="48.82608" lon="2.17555">
        <ele>159</ele>
        <time>2016-05-21T10:14:01Z</time>
      </trkpt>
      <trkpt lat="48.82603" lon="2.17559">
        <ele>158</ele>
        <time>2016-05-21T10:14:05Z</time>
      </trkpt>
      <trkpt lat="48.82599" lon="2.17563">
        <ele>158</ele>
        <time>2016-05-21T10:14:08Z</time>
      </trkpt>
      <trkpt lat="48.82593" lon="2.17566">
        <ele>156</ele>
        <time>2016-05-21T10:14:11Z</time>
      </trkpt>
      <trkpt lat="48.82587" lon="2.17569">
        <ele>156</ele>
        <time>2016-05-21T10:14:14Z</time>
      </trkpt>
      <trkpt lat="48.82581" lon="2.17573">
        <ele>158</ele>
        <time>2016-05-21T10:14:17Z</time>
      </trkpt>
      <trkpt lat="48.82576" lon="2.17574">
        <ele>158</ele>
        <time>2016-05-21T10:14:20Z</time>
      </trkpt>
      <trkpt lat="48.82571" lon="2.17575">
        <ele>158</ele>
        <time>2016-05-21T10:14:24Z</time>
      </trkpt>
      <trkpt lat="48.82566" lon="2.1758">
        <ele>159</ele>
        <time>2016-05-21T10:14:28Z</time>
      </trkpt>
      <trkpt lat="48.82561" lon="2.17584">
        <ele>160</ele>
        <time>2016-05-21T10:14:32Z</time>
      </trkpt>
      <trkpt lat="48.82556" lon="2.17587">
        <ele>161</ele>
        <time>2016-05-21T10:14:36Z</time>
      </trkpt>
      <trkpt lat="48.82552" lon="2.17591">
        <ele>163</ele>
        <time>2016-05-21T10:14:40Z</time>
      </trkpt>
      <trkpt lat="48.82547" lon="2.17596">
        <ele>163</ele>
        <time>2016-05-21T10:14:43Z</time>
      </trkpt>
      <trkpt lat="48.82544" lon="2.17602">
        <ele>165</ele>
        <time>2016-05-21T10:14:46Z</time>
      </trkpt>
      <trkpt lat="48.82541" lon="2.17608">
        <ele>165</ele>
        <time>2016-05-21T10:14:49Z</time>
      </trkpt>
      <trkpt lat="48.8254" lon="2.17616">
        <ele>165</ele>
        <time>2016-05-21T10:14:52Z</time>
      </trkpt>
      <trkpt lat="48.82537" lon="2.17622">
        <ele>165</ele>
        <time>2016-05-21T10:14:56Z</time>
      </trkpt>
      <trkpt lat="48.82535" lon="2.17627">
        <ele>166</ele>
        <time>2016-05-21T10:15:00Z</time>
      </trkpt>
      <trkpt lat="48.82531" lon="2.17632">
        <ele>170</ele>
        <time>2016-05-21T10:15:06Z</time>
      </trkpt>
      <trkpt lat="48.82527" lon="2.17638">
        <ele>170</ele>
        <time>2016-05-21T10:15:12Z</time>
      </trkpt>
      <trkpt lat="48.82525" lon="2.17644">
        <ele>168</ele>
        <time>2016-05-21T10:15:16Z</time>
      </trkpt>
      <trkpt lat="48.82521" lon="2.17647">
        <ele>168</ele>
        <time>2016-05-21T10:15:21Z</time>
      </trkpt>
      <trkpt lat="48.82517" lon="2.17653">
        <ele>164</ele>
        <time>2016-05-21T10:15:27Z</time>
      </trkpt>
      <trkpt lat="48.82513" lon="2.17655">
        <ele>165</ele>
        <time>2016-05-21T10:15:30Z</time>
      </trkpt>
      <trkpt lat="48.82509" lon="2.1766">
        <ele>168</ele>
        <time>2016-05-21T10:15:38Z</time>
      </trkpt>
      <trkpt lat="48.82506" lon="2.17665">
        <ele>170</ele>
        <time>2016-05-21T10:15:42Z</time>
      </trkpt>
      <trkpt lat="48.82502" lon="2.17672">
        <ele>167</ele>
        <time>2016-05-21T10:15:46Z</time>
      </trkpt>
      <trkpt lat="48.82497" lon="2.17676">
        <ele>167</ele>
        <time>2016-05-21T10:15:50Z</time>
      </trkpt>
      <trkpt lat="48.82492" lon="2.1768">
        <ele>168</ele>
        <time>2016-05-21T10:15:55Z</time>
      </trkpt>
      <trkpt lat="48.82488" lon="2.17682">
        <ele>170</ele>
        <time>2016-05-21T10:15:58Z</time>
      </trkpt>
      <trkpt lat="48.82484" lon="2.17688">
        <ele>170</ele>
        <time>2016-05-21T10:16:02Z</time>
      </trkpt>
      <trkpt lat="48.82483" lon="2.17695">
        <ele>172</ele>
        <time>2016-05-21T10:16:06Z</time>
      </trkpt>
      <trkpt lat="48.8248" lon="2.17701">
        <ele>170</ele>
        <time>2016-05-21T10:16:12Z</time>
      </trkpt>
      <trkpt lat="48.82477" lon="2.17706">
        <ele>168</ele>
        <time>2016-05-21T10:16:16Z</time>
      </trkpt>
      <trkpt lat="48.82475" lon="2.17713">
        <ele>168</ele>
        <time>2016-05-21T10:16:19Z</time>
      </trkpt>
      <trkpt lat="48.82472" lon="2.17719">
        <ele>170</ele>
        <time>2016-05-21T10:16:23Z</time>
      </trkpt>
      <trkpt lat="48.82468" lon="2.17723">
        <ele>169</ele>
        <time>2016-05-21T10:16:28Z</time>
      </trkpt>
      <trkpt lat="48.82463" lon="2.17728">
        <ele>169</ele>
        <time>2016-05-21T10:16:32Z</time>
      </trkpt>
      <trkpt lat="48.8246" lon="2.17732">
        <ele>169</ele>
        <time>2016-05-21T10:16:35Z</time>
      </trkpt>
      <trkpt lat="48.82455" lon="2.17736">
        <ele>170</ele>
        <time>2016-05-21T10:16:39Z</time>
      </trkpt>
      <trkpt lat="48.8245" lon="2.1774">
        <ele>173</ele>
        <time>2016-05-21T10:16:43Z</time>
      </trkpt>
      <trkpt lat="48.82443" lon="2.17743">
        <ele>174</ele>
        <time>2016-05-21T10:16:46Z</time>
      </trkpt>
      <trkpt lat="48.82438" lon="2.17744">
        <ele>175</ele>
        <time>2016-05-21T10:16:49Z</time>
      </trkpt>
      <trkpt lat="48.82434" lon="2.17748">
        <ele>177</ele>
        <time>2016-05-21T10:16:53Z</time>
      </trkpt>
      <trkpt lat="48.82431" lon="2.17754">
        <ele>176</ele>
        <time>2016-05-21T10:16:59Z</time>
      </trkpt>
      <trkpt lat="48.82427" lon="2.17761">
        <ele>177</ele>
        <time>2016-05-21T10:17:02Z</time>
      </trkpt>
      <trkpt lat="48.82423" lon="2.17766">
        <ele>179</ele>
        <time>2016-05-21T10:17:05Z</time>
      </trkpt>
      <trkpt lat="48.82419" lon="2.17769">
        <ele>177</ele>
        <time>2016-05-21T10:17:10Z</time>
      </trkpt>
      <trkpt lat="48.82415" lon="2.17774">
        <ele>181</ele>
        <time>2016-05-21T10:17:16Z</time>
      </trkpt>
      <trkpt lat="48.82411" lon="2.17778">
        <ele>179</ele>
        <time>2016-05-21T10:17:20Z</time>
      </trkpt>
      <trkpt lat="48.82406" lon="2.17783">
        <ele>178</ele>
        <time>2016-05-21T10:17:24Z</time>
      </trkpt>
      <trkpt lat="48.82401" lon="2.17788">
        <ele>178</ele>
        <time>2016-05-21T10:17:28Z</time>
      </trkpt>
      <trkpt lat="48.82396" lon="2.17791">
        <ele>177</ele>
        <time>2016-05-21T10:17:32Z</time>
      </trkpt>
      <trkpt lat="48.82392" lon="2.17794">
        <ele>178</ele>
        <time>2016-05-21T10:17:37Z</time>
      </trkpt>
      <trkpt lat="48.82387" lon="2.17796">
        <ele>177</ele>
        <time>2016-05-21T10:17:41Z</time>
      </trkpt>
      <trkpt lat="48.82383" lon="2.178">
        <ele>174</ele>
        <time>2016-05-21T10:17:45Z</time>
      </trkpt>
      <trkpt lat="48.82379" lon="2.17806">
        <ele>175</ele>
        <time>2016-05-21T10:17:49Z</time>
      </trkpt>
      <trkpt lat="48.82376" lon="2.1781">
        <ele>176</ele>
        <time>2016-05-21T10:17:52Z</time>
      </trkpt>
      <trkpt lat="48.82371" lon="2.17811">
        <ele>178</ele>
        <time>2016-05-21T10:17:56Z</time>
      </trkpt>
      <trkpt lat="48.82366" lon="2.17815">
        <ele>178</ele>
        <time>2016-05-21T10:18:00Z</time>
      </trkpt>
      <trkpt lat="48.82364" lon="2.17821">
        <ele>178</ele>
        <time>2016-05-21T10:18:05Z</time>
      </trkpt>
      <trkpt lat="48.82362" lon="2.17829">
        <ele>178</ele>
        <time>2016-05-21T10:18:11Z</time>
      </trkpt>
      <trkpt lat="48.82357" lon="2.17831">
        <ele>178</ele>
        <time>2016-05-21T10:18:15Z</time>
      </trkpt>
      <trkpt lat="48.82352" lon="2.17835">
        <ele>177</ele>
        <time>2016-05-21T10:18:18Z</time>
      </trkpt>
      <trkpt lat="48.82348" lon="2.17839">
        <ele>177</ele>
        <time>2016-05-21T10:18:21Z</time>
      </trkpt>
      <trkpt lat="48.82343" lon="2.17841">
        <ele>178</ele>
        <time>2016-05-21T10:18:24Z</time>
      </trkpt>
      <trkpt lat="48.82339" lon="2.17845">
        <ele>176</ele>
        <time>2016-05-21T10:18:27Z</time>
      </trkpt>
      <trkpt lat="48.82335" lon="2.1785">
        <ele>176</ele>
        <time>2016-05-21T10:18:31Z</time>
      </trkpt>
      <trkpt lat="48.82329" lon="2.17852">
        <ele>179</ele>
        <time>2016-05-21T10:18:35Z</time>
      </trkpt>
      <trkpt lat="48.82325" lon="2.17854">
        <ele>178</ele>
        <time>2016-05-21T10:18:38Z</time>
      </trkpt>
      <trkpt lat="48.8232" lon="2.17859">
        <ele>180</ele>
        <time>2016-05-21T10:18:42Z</time>
      </trkpt>
      <trkpt lat="48.82318" lon="2.17866">
        <ele>181</ele>
        <time>2016-05-21T10:18:47Z</time>
      </trkpt>
      <trkpt lat="48.82318" lon="2.17875">
        <ele>182</ele>
        <time>2016-05-21T10:18:50Z</time>
      </trkpt>
      <trkpt lat="48.82314" lon="2.17879">
        <ele>181</ele>
        <time>2016-05-21T10:18:52Z</time>
      </trkpt>
      <trkpt lat="48.8231" lon="2.17881">
        <ele>180</ele>
        <time>2016-05-21T10:18:54Z</time>
      </trkpt>
      <trkpt lat="48.82304" lon="2.17881">
        <ele>182</ele>
        <time>2016-05-21T10:18:57Z</time>
      </trkpt>
      <trkpt lat="48.82298" lon="2.17882">
        <ele>181</ele>
        <time>2016-05-21T10:19:00Z</time>
      </trkpt>
      <trkpt lat="48.82294" lon="2.17884">
        <ele>178</ele>
        <time>2016-05-21T10:19:04Z</time>
      </trkpt>
      <trkpt lat="48.82294" lon="2.17891">
        <ele>173</ele>
        <time>2016-05-21T10:19:09Z</time>
      </trkpt>
      <trkpt lat="48.82298" lon="2.17897">
        <ele>170</ele>
        <time>2016-05-21T10:19:13Z</time>
      </trkpt>
      <trkpt lat="48.82295" lon="2.17901">
        <ele>173</ele>
        <time>2016-05-21T10:19:25Z</time>
      </trkpt>
      <trkpt lat="48.8229" lon="2.17898">
        <ele>173</ele>
        <time>2016-05-21T10:19:30Z</time>
      </trkpt>
      <trkpt lat="48.82287" lon="2.1789">
        <ele>173</ele>
        <time>2016-05-21T10:19:34Z</time>
      </trkpt>
      <trkpt lat="48.82287" lon="2.17882">
        <ele>174</ele>
        <time>2016-05-21T10:19:41Z</time>
      </trkpt>
      <trkpt lat="48.82284" lon="2.17876">
        <ele>177</ele>
        <time>2016-05-21T10:19:44Z</time>
      </trkpt>
      <trkpt lat="48.82282" lon="2.17869">
        <ele>177</ele>
        <time>2016-05-21T10:19:47Z</time>
      </trkpt>
      <trkpt lat="48.82284" lon="2.1786">
        <ele>179</ele>
        <time>2016-05-21T10:19:52Z</time>
      </trkpt>
      <trkpt lat="48.82286" lon="2.17853">
        <ele>181</ele>
        <time>2016-05-21T10:19:57Z</time>
      </trkpt>
      <trkpt lat="48.82289" lon="2.17846">
        <ele>180</ele>
        <time>2016-05-21T10:20:01Z</time>
      </trkpt>
      <trkpt lat="48.82291" lon="2.17838">
        <ele>180</ele>
        <time>2016-05-21T10:20:05Z</time>
      </trkpt>
      <trkpt lat="48.82291" lon="2.1783">
        <ele>182</ele>
        <time>2016-05-21T10:20:09Z</time>
      </trkpt>
      <trkpt lat="48.82291" lon="2.17822">
        <ele>182</ele>
        <time>2016-05-21T10:20:13Z</time>
      </trkpt>
      <trkpt lat="48.82292" lon="2.17815">
        <ele>182</ele>
        <time>2016-05-21T10:20:17Z</time>
      </trkpt>
      <trkpt lat="48.82293" lon="2.17806">
        <ele>182</ele>
        <time>2016-05-21T10:20:22Z</time>
      </trkpt>
      <trkpt lat="48.82294" lon="2.17799">
        <ele>182</ele>
        <time>2016-05-21T10:20:26Z</time>
      </trkpt>
      <trkpt lat="48.82296" lon="2.17791">
        <ele>181</ele>
        <time>2016-05-21T10:20:31Z</time>
      </trkpt>
      <trkpt lat="48.82298" lon="2.17785">
        <ele>181</ele>
        <time>2016-05-21T10:20:34Z</time>
      </trkpt>
      <trkpt lat="48.823" lon="2.17777">
        <ele>180</ele>
        <time>2016-05-21T10:20:37Z</time>
      </trkpt>
      <trkpt lat="48.823" lon="2.17769">
        <ele>177</ele>
        <time>2016-05-21T10:20:40Z</time>
      </trkpt>
      <trkpt lat="48.82301" lon="2.17761">
        <ele>177</ele>
        <time>2016-05-21T10:20:45Z</time>
      </trkpt>
      <trkpt lat="48.823" lon="2.17754">
        <ele>179</ele>
        <time>2016-05-21T10:20:50Z</time>
      </trkpt>
      <trkpt lat="48.823" lon="2.17747">
        <ele>176</ele>
        <time>2016-05-21T10:20:54Z</time>
      </trkpt>
      <trkpt lat="48.82301" lon="2.17739">
        <ele>176</ele>
        <time>2016-05-21T10:20:58Z</time>
      </trkpt>
      <trkpt lat="48.82303" lon="2.17731">
        <ele>175</ele>
        <time>2016-05-21T10:21:01Z</time>
      </trkpt>
      <trkpt lat="48.82305" lon="2.17722">
        <ele>177</ele>
        <time>2016-05-21T10:21:04Z</time>
      </trkpt>
      <trkpt lat="48.82307" lon="2.17715">
        <ele>177</ele>
        <time>2016-05-21T10:21:07Z</time>
      </trkpt>
      <trkpt lat="48.82308" lon="2.17708">
        <ele>177</ele>
        <time>2016-05-21T10:21:10Z</time>
      </trkpt>
      <trkpt lat="48.82307" lon="2.17698">
        <ele>174</ele>
        <time>2016-05-21T10:21:13Z</time>
      </trkpt>
      <trkpt lat="48.82308" lon="2.17689">
        <ele>175</ele>
        <time>2016-05-21T10:21:17Z</time>
      </trkpt>
      <trkpt lat="48.82308" lon="2.17682">
        <ele>176</ele>
        <time>2016-05-21T10:21:20Z</time>
      </trkpt>
      <trkpt lat="48.82308" lon="2.17673">
        <ele>175</ele>
        <time>2016-05-21T10:21:24Z</time>
      </trkpt>
      <trkpt lat="48.82308" lon="2.17664">
        <ele>174</ele>
        <time>2016-05-21T10:21:28Z</time>
      </trkpt>
      <trkpt lat="48.8231" lon="2.17657">
        <ele>175</ele>
        <time>2016-05-21T10:21:31Z</time>
      </trkpt>
      <trkpt lat="48.82311" lon="2.1765">
        <ele>175</ele>
        <time>2016-05-21T10:21:34Z</time>
      </trkpt>
      <trkpt lat="48.82312" lon="2.17642">
        <ele>177</ele>
        <time>2016-05-21T10:21:37Z</time>
      </trkpt>
      <trkpt lat="48.82314" lon="2.17636">
        <ele>180</ele>
        <time>2016-05-21T10:21:42Z</time>
      </trkpt>
      <trkpt lat="48.82315" lon="2.17628">
        <ele>181</ele>
        <time>2016-05-21T10:21:46Z</time>
      </trkpt>
      <trkpt lat="48.82315" lon="2.17621">
        <ele>182</ele>
        <time>2016-05-21T10:21:49Z</time>
      </trkpt>
      <trkpt lat="48.82314" lon="2.17612">
        <ele>181</ele>
        <time>2016-05-21T10:21:52Z</time>
      </trkpt>
      <trkpt lat="48.82313" lon="2.17604">
        <ele>179</ele>
        <time>2016-05-21T10:21:55Z</time>
      </trkpt>
      <trkpt lat="48.82311" lon="2.17596">
        <ele>177</ele>
        <time>2016-05-21T10:21:59Z</time>
      </trkpt>
      <trkpt lat="48.82311" lon="2.17587">
        <ele>177</ele>
        <time>2016-05-21T10:22:03Z</time>
      </trkpt>
      <trkpt lat="48.82312" lon="2.1758">
        <ele>177</ele>
        <time>2016-05-21T10:22:06Z</time>
      </trkpt>
      <trkpt lat="48.82312" lon="2.17572">
        <ele>175</ele>
        <time>2016-05-21T10:22:09Z</time>
      </trkpt>
      <trkpt lat="48.82312" lon="2.17565">
        <ele>174</ele>
        <time>2016-05-21T10:22:12Z</time>
      </trkpt>
      <trkpt lat="48.82311" lon="2.17558">
        <ele>173</ele>
        <time>2016-05-21T10:22:15Z</time>
      </trkpt>
      <trkpt lat="48.82309" lon="2.1755">
        <ele>172</ele>
        <time>2016-05-21T10:22:19Z</time>
      </trkpt>
      <trkpt lat="48.82309" lon="2.17542">
        <ele>173</ele>
        <time>2016-05-21T10:22:24Z</time>
      </trkpt>
      <trkpt lat="48.82308" lon="2.17534">
        <ele>171</ele>
        <time>2016-05-21T10:22:29Z</time>
      </trkpt>
      <trkpt lat="48.82306" lon="2.17527">
        <ele>171</ele>
        <time>2016-05-21T10:22:33Z</time>
      </trkpt>
      <trkpt lat="48.82305" lon="2.17519">
        <ele>172</ele>
        <time>2016-05-21T10:22:37Z</time>
      </trkpt>
      <trkpt lat="48.82304" lon="2.17512">
        <ele>169</ele>
        <time>2016-05-21T10:22:42Z</time>
      </trkpt>
      <trkpt lat="48.82304" lon="2.17503">
        <ele>169</ele>
        <time>2016-05-21T10:22:46Z</time>
      </trkpt>
      <trkpt lat="48.82305" lon="2.17495">
        <ele>167</ele>
        <time>2016-05-21T10:22:50Z</time>
      </trkpt>
      <trkpt lat="48.82307" lon="2.17487">
        <ele>164</ele>
        <time>2016-05-21T10:22:54Z</time>
      </trkpt>
      <trkpt lat="48.82309" lon="2.17479">
        <ele>163</ele>
        <time>2016-05-21T10:22:57Z</time>
      </trkpt>
      <trkpt lat="48.82309" lon="2.17472">
        <ele>163</ele>
        <time>2016-05-21T10:23:00Z</time>
      </trkpt>
      <trkpt lat="48.82311" lon="2.17464">
        <ele>167</ele>
        <time>2016-05-21T10:23:04Z</time>
      </trkpt>
      <trkpt lat="48.82313" lon="2.17457">
        <ele>168</ele>
        <time>2016-05-21T10:23:07Z</time>
      </trkpt>
      <trkpt lat="48.82314" lon="2.17451">
        <ele>168</ele>
        <time>2016-05-21T10:23:10Z</time>
      </trkpt>
      <trkpt lat="48.82314" lon="2.17442">
        <ele>166</ele>
        <time>2016-05-21T10:23:14Z</time>
      </trkpt>
      <trkpt lat="48.82319" lon="2.17436">
        <ele>171</ele>
        <time>2016-05-21T10:23:23Z</time>
      </trkpt>
      <trkpt lat="48.82323" lon="2.17427">
        <ele>172</ele>
        <time>2016-05-21T10:23:26Z</time>
      </trkpt>
      <trkpt lat="48.82322" lon="2.17419">
        <ele>171</ele>
        <time>2016-05-21T10:23:28Z</time>
      </trkpt>
      <trkpt lat="48.82321" lon="2.17412">
        <ele>171</ele>
        <time>2016-05-21T10:23:30Z</time>
      </trkpt>
      <trkpt lat="48.82321" lon="2.17402">
        <ele>169</ele>
        <time>2016-05-21T10:23:33Z</time>
      </trkpt>
      <trkpt lat="48.8232" lon="2.17396">
        <ele>169</ele>
        <time>2016-05-21T10:23:36Z</time>
      </trkpt>
      <trkpt lat="48.82318" lon="2.17388">
        <ele>168</ele>
        <time>2016-05-21T10:23:39Z</time>
      </trkpt>
      <trkpt lat="48.82317" lon="2.1738">
        <ele>166</ele>
        <time>2016-05-21T10:23:42Z</time>
      </trkpt>
      <trkpt lat="48.82316" lon="2.17373">
        <ele>167</ele>
        <time>2016-05-21T10:23:45Z</time>
      </trkpt>
      <trkpt lat="48.82314" lon="2.17366">
        <ele>168</ele>
        <time>2016-05-21T10:23:49Z</time>
      </trkpt>
      <trkpt lat="48.82313" lon="2.17359">
        <ele>168</ele>
        <time>2016-05-21T10:23:53Z</time>
      </trkpt>
      <trkpt lat="48.82314" lon="2.17351">
        <ele>166</ele>
        <time>2016-05-21T10:23:57Z</time>
      </trkpt>
      <trkpt lat="48.82315" lon="2.17344">
        <ele>167</ele>
        <time>2016-05-21T10:24:00Z</time>
      </trkpt>
      <trkpt lat="48.82316" lon="2.17336">
        <ele>169</ele>
        <time>2016-05-21T10:24:04Z</time>
      </trkpt>
      <trkpt lat="48.82317" lon="2.17328">
        <ele>167</ele>
        <time>2016-05-21T10:24:08Z</time>
      </trkpt>
      <trkpt lat="48.82318" lon="2.1732">
        <ele>168</ele>
        <time>2016-05-21T10:24:12Z</time>
      </trkpt>
      <trkpt lat="48.82318" lon="2.17313">
        <ele>167</ele>
        <time>2016-05-21T10:24:18Z</time>
      </trkpt>
      <trkpt lat="48.8232" lon="2.17306">
        <ele>169</ele>
        <time>2016-05-21T10:24:22Z</time>
      </trkpt>
      <trkpt lat="48.82321" lon="2.17299">
        <ele>168</ele>
        <time>2016-05-21T10:24:28Z</time>
      </trkpt>
      <trkpt lat="48.82322" lon="2.17291">
        <ele>169</ele>
        <time>2016-05-21T10:24:34Z</time>
      </trkpt>
      <trkpt lat="48.82324" lon="2.17282">
        <ele>171</ele>
        <time>2016-05-21T10:24:38Z</time>
      </trkpt>
      <trkpt lat="48.82326" lon="2.17275">
        <ele>173</ele>
        <time>2016-05-21T10:24:41Z</time>
      </trkpt>
      <trkpt lat="48.82325" lon="2.17268">
        <ele>173</ele>
        <time>2016-05-21T10:24:45Z</time>
      </trkpt>
      <trkpt lat="48.82325" lon="2.1726">
        <ele>173</ele>
        <time>2016-05-21T10:24:48Z</time>
      </trkpt>
      <trkpt lat="48.82325" lon="2.17251">
        <ele>172</ele>
        <time>2016-05-21T10:24:51Z</time>
      </trkpt>
      <trkpt lat="48.82326" lon="2.17243">
        <ele>171</ele>
        <time>2016-05-21T10:24:54Z</time>
      </trkpt>
      <trkpt lat="48.82327" lon="2.17236">
        <ele>172</ele>
        <time>2016-05-21T10:24:58Z</time>
      </trkpt>
      <trkpt lat="48.82328" lon="2.1723">
        <ele>172</ele>
        <time>2016-05-21T10:25:01Z</time>
      </trkpt>
      <trkpt lat="48.82328" lon="2.17221">
        <ele>173</ele>
        <time>2016-05-21T10:25:06Z</time>
      </trkpt>
      <trkpt lat="48.82327" lon="2.17213">
        <ele>172</ele>
        <time>2016-05-21T10:25:11Z</time>
      </trkpt>
      <trkpt lat="48.82327" lon="2.17206">
        <ele>171</ele>
        <time>2016-05-21T10:25:14Z</time>
      </trkpt>
      <trkpt lat="48.82326" lon="2.17199">
        <ele>170</ele>
        <time>2016-05-21T10:25:17Z</time>
      </trkpt>
      <trkpt lat="48.82324" lon="2.17192">
        <ele>171</ele>
        <time>2016-05-21T10:25:20Z</time>
      </trkpt>
      <trkpt lat="48.82323" lon="2.17184">
        <ele>171</ele>
        <time>2016-05-21T10:25:23Z</time>
      </trkpt>
      <trkpt lat="48.82323" lon="2.17177">
        <ele>170</ele>
        <time>2016-05-21T10:25:27Z</time>
      </trkpt>
      <trkpt lat="48.82323" lon="2.17169">
        <ele>171</ele>
        <time>2016-05-21T10:25:31Z</time>
      </trkpt>
      <trkpt lat="48.82323" lon="2.1716">
        <ele>170</ele>
        <time>2016-05-21T10:25:35Z</time>
      </trkpt>
      <trkpt lat="48.82322" lon="2.17152">
        <ele>171</ele>
        <time>2016-05-21T10:25:39Z</time>
      </trkpt>
      <trkpt lat="48.82321" lon="2.17144">
        <ele>173</ele>
        <time>2016-05-21T10:25:43Z</time>
      </trkpt>
      <trkpt lat="48.82319" lon="2.17137">
        <ele>172</ele>
        <time>2016-05-21T10:25:47Z</time>
      </trkpt>
      <trkpt lat="48.82319" lon="2.17128">
        <ele>173</ele>
        <time>2016-05-21T10:25:52Z</time>
      </trkpt>
      <trkpt lat="48.82321" lon="2.17121">
        <ele>173</ele>
        <time>2016-05-21T10:25:56Z</time>
      </trkpt>
      <trkpt lat="48.8232" lon="2.17114">
        <ele>174</ele>
        <time>2016-05-21T10:25:59Z</time>
      </trkpt>
      <trkpt lat="48.82317" lon="2.17106">
        <ele>173</ele>
        <time>2016-05-21T10:26:02Z</time>
      </trkpt>
      <trkpt lat="48.82316" lon="2.17099">
        <ele>173</ele>
        <time>2016-05-21T10:26:05Z</time>
      </trkpt>
      <trkpt lat="48.82316" lon="2.1709">
        <ele>172</ele>
        <time>2016-05-21T10:26:09Z</time>
      </trkpt>
      <trkpt lat="48.82318" lon="2.17083">
        <ele>171</ele>
        <time>2016-05-21T10:26:12Z</time>
      </trkpt>
      <trkpt lat="48.8232" lon="2.17075">
        <ele>170</ele>
        <time>2016-05-21T10:26:15Z</time>
      </trkpt>
      <trkpt lat="48.82323" lon="2.17068">
        <ele>165</ele>
        <time>2016-05-21T10:26:19Z</time>
      </trkpt>
      <trkpt lat="48.82325" lon="2.17061">
        <ele>164</ele>
        <time>2016-05-21T10:26:23Z</time>
      </trkpt>
      <trkpt lat="48.82321" lon="2.17054">
        <ele>162</ele>
        <time>2016-05-21T10:26:32Z</time>
      </trkpt>
      <trkpt lat="48.8232" lon="2.17047">
        <ele>163</ele>
        <time>2016-05-21T10:26:36Z</time>
      </trkpt>
      <trkpt lat="48.82321" lon="2.17038">
        <ele>165</ele>
        <time>2016-05-21T10:26:39Z</time>
      </trkpt>
      <trkpt lat="48.82321" lon="2.17031">
        <ele>164</ele>
        <time>2016-05-21T10:26:41Z</time>
      </trkpt>
      <trkpt lat="48.82323" lon="2.17022">
        <ele>165</ele>
        <time>2016-05-21T10:26:44Z</time>
      </trkpt>
      <trkpt lat="48.82326" lon="2.17014">
        <ele>166</ele>
        <time>2016-05-21T10:26:48Z</time>
      </trkpt>
      <trkpt lat="48.82327" lon="2.17006">
        <ele>164</ele>
        <time>2016-05-21T10:26:51Z</time>
      </trkpt>
      <trkpt lat="48.8233" lon="2.16999">
        <ele>165</ele>
        <time>2016-05-21T10:26:55Z</time>
      </trkpt>
      <trkpt lat="48.82333" lon="2.1699">
        <ele>165</ele>
        <time>2016-05-21T10:26:58Z</time>
      </trkpt>
      <trkpt lat="48.82334" lon="2.16983">
        <ele>166</ele>
        <time>2016-05-21T10:27:01Z</time>
      </trkpt>
      <trkpt lat="48.82334" lon="2.16975">
        <ele>168</ele>
        <time>2016-05-21T10:27:05Z</time>
      </trkpt>
      <trkpt lat="48.82333" lon="2.16967">
        <ele>168</ele>
        <time>2016-05-21T10:27:09Z</time>
      </trkpt>
      <trkpt lat="48.82334" lon="2.16959">
        <ele>170</ele>
        <time>2016-05-21T10:27:13Z</time>
      </trkpt>
      <trkpt lat="48.82333" lon="2.16951">
        <ele>170</ele>
        <time>2016-05-21T10:27:17Z</time>
      </trkpt>
      <trkpt lat="48.82333" lon="2.16944">
        <ele>169</ele>
        <time>2016-05-21T10:27:20Z</time>
      </trkpt>
      <trkpt lat="48.82333" lon="2.16936">
        <ele>168</ele>
        <time>2016-05-21T10:27:23Z</time>
      </trkpt>
      <trkpt lat="48.82333" lon="2.16929">
        <ele>166</ele>
        <time>2016-05-21T10:27:26Z</time>
      </trkpt>
      <trkpt lat="48.82331" lon="2.16922">
        <ele>167</ele>
        <time>2016-05-21T10:27:30Z</time>
      </trkpt>
      <trkpt lat="48.82328" lon="2.16917">
        <ele>167</ele>
        <time>2016-05-21T10:27:33Z</time>
      </trkpt>
      <trkpt lat="48.82325" lon="2.1691">
        <ele>169</ele>
        <time>2016-05-21T10:27:37Z</time>
      </trkpt>
      <trkpt lat="48.82322" lon="2.16904">
        <ele>170</ele>
        <time>2016-05-21T10:27:41Z</time>
      </trkpt>
      <trkpt lat="48.82318" lon="2.16899">
        <ele>170</ele>
        <time>2016-05-21T10:27:44Z</time>
      </trkpt>
      <trkpt lat="48.82314" lon="2.16894">
        <ele>172</ele>
        <time>2016-05-21T10:27:49Z</time>
      </trkpt>
      <trkpt lat="48.82309" lon="2.16891">
        <ele>172</ele>
        <time>2016-05-21T10:27:53Z</time>
      </trkpt>
      <trkpt lat="48.82306" lon="2.16887">
        <ele>173</ele>
        <time>2016-05-21T10:27:57Z</time>
      </trkpt>
      <trkpt lat="48.82301" lon="2.16884">
        <ele>175</ele>
        <time>2016-05-21T10:28:03Z</time>
      </trkpt>
      <trkpt lat="48.82294" lon="2.16881">
        <ele>174</ele>
        <time>2016-05-21T10:28:06Z</time>
      </trkpt>
      <trkpt lat="48.82289" lon="2.16878">
        <ele>175</ele>
        <time>2016-05-21T10:28:08Z</time>
      </trkpt>
      <trkpt lat="48.82283" lon="2.16874">
        <ele>174</ele>
        <time>2016-05-21T10:28:11Z</time>
      </trkpt>
      <trkpt lat="48.82279" lon="2.16871">
        <ele>174</ele>
        <time>2016-05-21T10:28:15Z</time>
      </trkpt>
      <trkpt lat="48.82275" lon="2.16866">
        <ele>175</ele>
        <time>2016-05-21T10:28:20Z</time>
      </trkpt>
      <trkpt lat="48.82271" lon="2.16862">
        <ele>176</ele>
        <time>2016-05-21T10:28:23Z</time>
      </trkpt>
      <trkpt lat="48.82267" lon="2.16858">
        <ele>177</ele>
        <time>2016-05-21T10:28:27Z</time>
      </trkpt>
      <trkpt lat="48.82264" lon="2.16852">
        <ele>178</ele>
        <time>2016-05-21T10:28:31Z</time>
      </trkpt>
      <trkpt lat="48.82264" lon="2.16844">
        <ele>180</ele>
        <time>2016-05-21T10:28:36Z</time>
      </trkpt>
      <trkpt lat="48.82263" lon="2.16837">
        <ele>179</ele>
        <time>2016-05-21T10:28:40Z</time>
      </trkpt>
      <trkpt lat="48.82261" lon="2.1683">
        <ele>180</ele>
        <time>2016-05-21T10:28:46Z</time>
      </trkpt>
      <trkpt lat="48.82258" lon="2.16825">
        <ele>179</ele>
        <time>2016-05-21T10:28:50Z</time>
      </trkpt>
      <trkpt lat="48.82259" lon="2.16817">
        <ele>179</ele>
        <time>2016-05-21T10:28:56Z</time>
      </trkpt>
      <trkpt lat="48.82259" lon="2.16809">
        <ele>180</ele>
        <time>2016-05-21T10:29:01Z</time>
      </trkpt>
      <trkpt lat="48.82259" lon="2.168">
        <ele>180</ele>
        <time>2016-05-21T10:29:05Z</time>
      </trkpt>
      <trkpt lat="48.82262" lon="2.16793">
        <ele>179</ele>
        <time>2016-05-21T10:29:08Z</time>
      </trkpt>
      <trkpt lat="48.82265" lon="2.16787">
        <ele>178</ele>
        <time>2016-05-21T10:29:11Z</time>
      </trkpt>
      <trkpt lat="48.82267" lon="2.16781">
        <ele>178</ele>
        <time>2016-05-21T10:29:15Z</time>
      </trkpt>
      <trkpt lat="48.82269" lon="2.16774">
        <ele>179</ele>
        <time>2016-05-21T10:29:20Z</time>
      </trkpt>
      <trkpt lat="48.82274" lon="2.16769">
        <ele>181</ele>
        <time>2016-05-21T10:29:25Z</time>
      </trkpt>
      <trkpt lat="48.82278" lon="2.16764">
        <ele>181</ele>
        <time>2016-05-21T10:29:29Z</time>
      </trkpt>
      <trkpt lat="48.82281" lon="2.16758">
        <ele>182</ele>
        <time>2016-05-21T10:29:32Z</time>
      </trkpt>
      <trkpt lat="48.82284" lon="2.16752">
        <ele>183</ele>
        <time>2016-05-21T10:29:35Z</time>
      </trkpt>
      <trkpt lat="48.82287" lon="2.16747">
        <ele>183</ele>
        <time>2016-05-21T10:29:38Z</time>
      </trkpt>
      <trkpt lat="48.8229" lon="2.16741">
        <ele>181</ele>
        <time>2016-05-21T10:29:41Z</time>
      </trkpt>
      <trkpt lat="48.82293" lon="2.16736">
        <ele>180</ele>
        <time>2016-05-21T10:29:44Z</time>
      </trkpt>
      <trkpt lat="48.82296" lon="2.16729">
        <ele>178</ele>
        <time>2016-05-21T10:29:48Z</time>
      </trkpt>
      <trkpt lat="48.82299" lon="2.16723">
        <ele>179</ele>
        <time>2016-05-21T10:29:53Z</time>
      </trkpt>
      <trkpt lat="48.82302" lon="2.16716">
        <ele>179</ele>
        <time>2016-05-21T10:29:56Z</time>
      </trkpt>
      <trkpt lat="48.82305" lon="2.16708">
        <ele>177</ele>
        <time>2016-05-21T10:29:59Z</time>
      </trkpt>
      <trkpt lat="48.82305" lon="2.16699">
        <ele>176</ele>
        <time>2016-05-21T10:30:02Z</time>
      </trkpt>
      <trkpt lat="48.82303" lon="2.16693">
        <ele>176</ele>
        <time>2016-05-21T10:30:05Z</time>
      </trkpt>
      <trkpt lat="48.82302" lon="2.16685">
        <ele>177</ele>
        <time>2016-05-21T10:30:09Z</time>
      </trkpt>
      <trkpt lat="48.82302" lon="2.16678">
        <ele>178</ele>
        <time>2016-05-21T10:30:12Z</time>
      </trkpt>
      <trkpt lat="48.82303" lon="2.16671">
        <ele>177</ele>
        <time>2016-05-21T10:30:15Z</time>
      </trkpt>
      <trkpt lat="48.82303" lon="2.16663">
        <ele>179</ele>
        <time>2016-05-21T10:30:19Z</time>
      </trkpt>
      <trkpt lat="48.82305" lon="2.16657">
        <ele>179</ele>
        <time>2016-05-21T10:30:23Z</time>
      </trkpt>
      <trkpt lat="48.82307" lon="2.16649">
        <ele>174</ele>
        <time>2016-05-21T10:30:27Z</time>
      </trkpt>
      <trkpt lat="48.82308" lon="2.16642">
        <ele>174</ele>
        <time>2016-05-21T10:30:32Z</time>
      </trkpt>
      <trkpt lat="48.8231" lon="2.16635">
        <ele>172</ele>
        <time>2016-05-21T10:30:36Z</time>
      </trkpt>
      <trkpt lat="48.82313" lon="2.16627">
        <ele>171</ele>
        <time>2016-05-21T10:30:39Z</time>
      </trkpt>
      <trkpt lat="48.82317" lon="2.1662">
        <ele>169</ele>
        <time>2016-05-21T10:30:42Z</time>
      </trkpt>
      <trkpt lat="48.82322" lon="2.16617">
        <ele>169</ele>
        <time>2016-05-21T10:30:45Z</time>
      </trkpt>
      <trkpt lat="48.82325" lon="2.1661">
        <ele>170</ele>
        <time>2016-05-21T10:30:48Z</time>
      </trkpt>
      <trkpt lat="48.82327" lon="2.16602">
        <ele>171</ele>
        <time>2016-05-21T10:30:51Z</time>
      </trkpt>
      <trkpt lat="48.82328" lon="2.16593">
        <ele>171</ele>
        <time>2016-05-21T10:30:54Z</time>
      </trkpt>
      <trkpt lat="48.82329" lon="2.16584">
        <ele>174</ele>
        <time>2016-05-21T10:30:57Z</time>
      </trkpt>
      <trkpt lat="48.8233" lon="2.16575">
        <ele>175</ele>
        <time>2016-05-21T10:31:00Z</time>
      </trkpt>
      <trkpt lat="48.8233" lon="2.16567">
        <ele>176</ele>
        <time>2016-05-21T10:31:03Z</time>
      </trkpt>
      <trkpt lat="48.82331" lon="2.16559">
        <ele>177</ele>
        <time>2016-05-21T10:31:06Z</time>
      </trkpt>
      <trkpt lat="48.82332" lon="2.16552">
        <ele>176</ele>
        <time>2016-05-21T10:31:09Z</time>
      </trkpt>
      <trkpt lat="48.82332" lon="2.16544">
        <ele>176</ele>
        <time>2016-05-21T10:31:14Z</time>
      </trkpt>
      <trkpt lat="48.8233" lon="2.16537">
        <ele>175</ele>
        <time>2016-05-21T10:31:19Z</time>
      </trkpt>
      <trkpt lat="48.8233" lon="2.16528">
        <ele>177</ele>
        <time>2016-05-21T10:31:23Z</time>
      </trkpt>
      <trkpt lat="48.8233" lon="2.16521">
        <ele>177</ele>
        <time>2016-05-21T10:31:27Z</time>
      </trkpt>
      <trkpt lat="48.82329" lon="2.16513">
        <ele>175</ele>
        <time>2016-05-21T10:31:32Z</time>
      </trkpt>
      <trkpt lat="48.82328" lon="2.16506">
        <ele>175</ele>
        <time>2016-05-21T10:31:35Z</time>
      </trkpt>
      <trkpt lat="48.82328" lon="2.16497">
        <ele>175</ele>
        <time>2016-05-21T10:31:38Z</time>
      </trkpt>
      <trkpt lat="48.82326" lon="2.16489">
        <ele>175</ele>
        <time>2016-05-21T10:31:41Z</time>
      </trkpt>
      <trkpt lat="48.82325" lon="2.16481">
        <ele>175</ele>
        <time>2016-05-21T10:31:46Z</time>
      </trkpt>
      <trkpt lat="48.82327" lon="2.16473">
        <ele>175</ele>
        <time>2016-05-21T10:31:50Z</time>
      </trkpt>
      <trkpt lat="48.82328" lon="2.16466">
        <ele>176</ele>
        <time>2016-05-21T10:31:54Z</time>
      </trkpt>
      <trkpt lat="48.82328" lon="2.16459">
        <ele>175</ele>
        <time>2016-05-21T10:31:58Z</time>
      </trkpt>
      <trkpt lat="48.82326" lon="2.16451">
        <ele>178</ele>
        <time>2016-05-21T10:32:05Z</time>
      </trkpt>
      <trkpt lat="48.82327" lon="2.16443">
        <ele>178</ele>
        <time>2016-05-21T10:32:09Z</time>
      </trkpt>
      <trkpt lat="48.82329" lon="2.16436">
        <ele>178</ele>
        <time>2016-05-21T10:32:13Z</time>
      </trkpt>
      <trkpt lat="48.8233" lon="2.16429">
        <ele>177</ele>
        <time>2016-05-21T10:32:17Z</time>
      </trkpt>
      <trkpt lat="48.8233" lon="2.1642">
        <ele>175</ele>
        <time>2016-05-21T10:32:22Z</time>
      </trkpt>
      <trkpt lat="48.8233" lon="2.16413">
        <ele>172</ele>
        <time>2016-05-21T10:32:27Z</time>
      </trkpt>
      <trkpt lat="48.8233" lon="2.16404">
        <ele>170</ele>
        <time>2016-05-21T10:32:31Z</time>
      </trkpt>
      <trkpt lat="48.82331" lon="2.16396">
        <ele>172</ele>
        <time>2016-05-21T10:32:35Z</time>
      </trkpt>
      <trkpt lat="48.82333" lon="2.16388">
        <ele>170</ele>
        <time>2016-05-21T10:32:38Z</time>
      </trkpt>
      <trkpt lat="48.82336" lon="2.16382">
        <ele>170</ele>
        <time>2016-05-21T10:32:40Z</time>
      </trkpt>
      <trkpt lat="48.82339" lon="2.16375">
        <ele>170</ele>
        <time>2016-05-21T10:32:44Z</time>
      </trkpt>
      <trkpt lat="48.8234" lon="2.16366">
        <ele>167</ele>
        <time>2016-05-21T10:32:48Z</time>
      </trkpt>
      <trkpt lat="48.82339" lon="2.16358">
        <ele>167</ele>
        <time>2016-05-21T10:32:52Z</time>
      </trkpt>
      <trkpt lat="48.8234" lon="2.1635">
        <ele>167</ele>
        <time>2016-05-21T10:32:57Z</time>
      </trkpt>
      <trkpt lat="48.82341" lon="2.16342">
        <ele>166</ele>
        <time>2016-05-21T10:33:05Z</time>
      </trkpt>
      <trkpt lat="48.82344" lon="2.16337">
        <ele>164</ele>
        <time>2016-05-21T10:33:09Z</time>
      </trkpt>
      <trkpt lat="48.82347" lon="2.16331">
        <ele>165</ele>
        <time>2016-05-21T10:33:13Z</time>
      </trkpt>
      <trkpt lat="48.82348" lon="2.16322">
        <ele>163</ele>
        <time>2016-05-21T10:33:17Z</time>
      </trkpt>
      <trkpt lat="48.8235" lon="2.16315">
        <ele>161</ele>
        <time>2016-05-21T10:33:20Z</time>
      </trkpt>
      <trkpt lat="48.82352" lon="2.16308">
        <ele>160</ele>
        <time>2016-05-21T10:33:23Z</time>
      </trkpt>
      <trkpt lat="48.82353" lon="2.16301">
        <ele>159</ele>
        <time>2016-05-21T10:33:26Z</time>
      </trkpt>
      <trkpt lat="48.82355" lon="2.16294">
        <ele>159</ele>
        <time>2016-05-21T10:33:30Z</time>
      </trkpt>
      <trkpt lat="48.82357" lon="2.16287">
        <ele>161</ele>
        <time>2016-05-21T10:33:37Z</time>
      </trkpt>
      <trkpt lat="48.82359" lon="2.1628">
        <ele>164</ele>
        <time>2016-05-21T10:33:41Z</time>
      </trkpt>
      <trkpt lat="48.82361" lon="2.16273">
        <ele>166</ele>
        <time>2016-05-21T10:33:44Z</time>
      </trkpt>
      <trkpt lat="48.82363" lon="2.16265">
        <ele>169</ele>
        <time>2016-05-21T10:33:48Z</time>
      </trkpt>
      <trkpt lat="48.82365" lon="2.16258">
        <ele>172</ele>
        <time>2016-05-21T10:33:51Z</time>
      </trkpt>
      <trkpt lat="48.82367" lon="2.16249">
        <ele>172</ele>
        <time>2016-05-21T10:33:54Z</time>
      </trkpt>
      <trkpt lat="48.8237" lon="2.16242">
        <ele>172</ele>
        <time>2016-05-21T10:33:58Z</time>
      </trkpt>
      <trkpt lat="48.82372" lon="2.16234">
        <ele>172</ele>
        <time>2016-05-21T10:34:02Z</time>
      </trkpt>
      <trkpt lat="48.82372" lon="2.16226">
        <ele>173</ele>
        <time>2016-05-21T10:34:06Z</time>
      </trkpt>
      <trkpt lat="48.82371" lon="2.16218">
        <ele>172</ele>
        <time>2016-05-21T10:34:12Z</time>
      </trkpt>
      <trkpt lat="48.82367" lon="2.16213">
        <ele>172</ele>
        <time>2016-05-21T10:34:16Z</time>
      </trkpt>
      <trkpt lat="48.82369" lon="2.16206">
        <ele>173</ele>
        <time>2016-05-21T10:34:20Z</time>
      </trkpt>
      <trkpt lat="48.82371" lon="2.16198">
        <ele>172</ele>
        <time>2016-05-21T10:34:23Z</time>
      </trkpt>
      <trkpt lat="48.82372" lon="2.1619">
        <ele>172</ele>
        <time>2016-05-21T10:34:26Z</time>
      </trkpt>
      <trkpt lat="48.82371" lon="2.16181">
        <ele>174</ele>
        <time>2016-05-21T10:34:30Z</time>
      </trkpt>
      <trkpt lat="48.82372" lon="2.16173">
        <ele>172</ele>
        <time>2016-05-21T10:34:35Z</time>
      </trkpt>
      <trkpt lat="48.82374" lon="2.16167">
        <ele>172</ele>
        <time>2016-05-21T10:34:41Z</time>
      </trkpt>
      <trkpt lat="48.82367" lon="2.16165">
        <ele>166</ele>
        <time>2016-05-21T10:34:45Z</time>
      </trkpt>
      <trkpt lat="48.82362" lon="2.16162">
        <ele>167</ele>
        <time>2016-05-21T10:34:48Z</time>
      </trkpt>
      <trkpt lat="48.82356" lon="2.16159">
        <ele>167</ele>
        <time>2016-05-21T10:34:50Z</time>
      </trkpt>
      <trkpt lat="48.82351" lon="2.16155">
        <ele>168</ele>
        <time>2016-05-21T10:34:53Z</time>
      </trkpt>
      <trkpt lat="48.82353" lon="2.16148">
        <ele>171</ele>
        <time>2016-05-21T10:35:27Z</time>
      </trkpt>
      <trkpt lat="48.82357" lon="2.16145">
        <ele>172</ele>
        <time>2016-05-21T10:35:36Z</time>
      </trkpt>
      <trkpt lat="48.82362" lon="2.16143">
        <ele>173</ele>
        <time>2016-05-21T10:35:41Z</time>
      </trkpt>
      <trkpt lat="48.82364" lon="2.16138">
        <ele>179</ele>
        <time>2016-05-21T10:35:56Z</time>
      </trkpt>
      <trkpt lat="48.8236" lon="2.16135">
        <ele>178</ele>
        <time>2016-05-21T10:36:05Z</time>
      </trkpt>
      <trkpt lat="48.82359" lon="2.16146">
        <ele>179</ele>
        <time>2016-05-21T10:36:09Z</time>
      </trkpt>
      <trkpt lat="48.82363" lon="2.16142">
        <ele>178</ele>
        <time>2016-05-21T10:36:15Z</time>
      </trkpt>
      <trkpt lat="48.82366" lon="2.16133">
        <ele>177</ele>
        <time>2016-05-21T10:36:18Z</time>
      </trkpt>
      <trkpt lat="48.8237" lon="2.16126">
        <ele>177</ele>
        <time>2016-05-21T10:36:21Z</time>
      </trkpt>
      <trkpt lat="48.82365" lon="2.16126">
        <ele>177</ele>
        <time>2016-05-21T10:36:26Z</time>
      </trkpt>
      <trkpt lat="48.82359" lon="2.16136">
        <ele>173</ele>
        <time>2016-05-21T10:36:31Z</time>
      </trkpt>
      <trkpt lat="48.82353" lon="2.16142">
        <ele>174</ele>
        <time>2016-05-21T10:36:33Z</time>
      </trkpt>
      <trkpt lat="48.82349" lon="2.16146">
        <ele>176</ele>
        <time>2016-05-21T10:36:35Z</time>
      </trkpt>
      <trkpt lat="48.82344" lon="2.16152">
        <ele>164</ele>
        <time>2016-05-21T10:36:41Z</time>
      </trkpt>
      <trkpt lat="48.82342" lon="2.16158">
        <ele>164</ele>
        <time>2016-05-21T10:36:55Z</time>
      </trkpt>
      <trkpt lat="48.82345" lon="2.16154">
        <ele>169</ele>
        <time>2016-05-21T10:39:39Z</time>
      </trkpt>
      <trkpt lat="48.82345" lon="2.16147">
        <ele>176</ele>
        <time>2016-05-21T10:47:11Z</time>
      </trkpt>
      <trkpt lat="48.82353" lon="2.16149">
        <ele>180</ele>
        <time>2016-05-21T10:49:15Z</time>
      </trkpt>
      <trkpt lat="48.82356" lon="2.16154">
        <ele>174</ele>
        <time>2016-05-21T10:50:34Z</time>
      </trkpt>
    </trkseg>
  </trk>
</gpx>